# Wetter Temperatur Luftdruck Luftfeuchtigkeit Sichtweite Windgeschwindigkeit Windrichtung Zeit
1 Clouds 15 999 68 10000 5.77 183 22:48 02.12.2021
2 Clouds 15 999 67 10000 5.48 183 21:41 02.12.2021
3 Clouds 15 999 67 10000 5.48 183 21:41 02.12.2021
4 Clouds 15 999 66 10000 5.34 186 20:45 02.12.2021
5 Clouds 15 999 65 10000 5.35 189 20:22 02.12.2021
6 Clouds 15 999 65 10000 5.48 192 18:50 02.12.2021
7 Clouds 16 998 59 10000 6.75 197 16:53 02.12.2021
8 Clouds 17 999 51 10000 7.17 198 15:41 02.12.2021
9 Clouds 16 1007 51 10000 1.34 202 14:53 02.12.2021
10 Clear 18 999 51 10000 6.7 192 13:39 02.12.2021
11 Clouds 17 1000 54 10000 3.13 208 12:46 02.12.2021
12 Clouds 17 1001 55 10000 0.89 255 11:45 02.12.2021
13 Clouds 15 1003 64 10000 0.45 278 09:27 02.12.2021
14 Clouds 14 1006 67 10000 4.92 135 08:19 02.12.2021
15 Clear 13 1010 70 10000 0.45 225 01:38 02.12.2021
16 Clouds 13 1010 70 10000 0.45 273 00:50 02.12.2021
17 Clouds 13 1010 70 10000 4.7 203 22:33 01.12.2021
18 Clouds 13 1011 69 10000 4.39 207 21:54 01.12.2021
19 Clouds 13 1011 71 10000 3.95 209 20:35 01.12.2021
20 Clouds 13 1011 72 10000 0.45 328 19:47 01.12.2021
21 Clouds 14 1012 71 10000 4.28 226 18:55 01.12.2021
22 Clouds 14 1012 70 10000 0.45 251 17:32 01.12.2021
23 Clouds 14 1012 65 10000 0.45 225 16:36 01.12.2021
24 Clouds 15 1019 58 10000 3.93 260 14:48 01.12.2021
25 Clouds 15 1014 56 10000 0.45 262 13:38 01.12.2021
26 Clouds 14 1015 62 10000 1.34 240 11:26 01.12.2021
27 Clouds 14 1015 62 10000 0.45 219 10:40 01.12.2021
28 Clouds 12 1016 69 10000 3.93 234 08:53 01.12.2021
29 Clouds 12 1016 70 10000 4.09 228 08:26 01.12.2021
30 Clouds 11 1016 70 10000 4.25 232 07:32 01.12.2021
31 Clouds 10 1018 68 10000 2.68 315 04:18 01.12.2021
32 Clouds 10 1016 67 10000 3.65 231 03:38 01.12.2021
33 Clouds 10 1017 69 10000 3.64 214 00:48 01.12.2021
34 Clouds 11 1018 66 10000 1.34 331 23:35 30.11.2021
35 Clouds 11 1018 66 10000 1.34 357 22:42 30.11.2021
36 Clouds 11 1018 73 10000 4.29 229 20:53 30.11.2021
37 Clouds 11 1018 72 10000 3.88 239 20:34 30.11.2021
38 Clouds 11 1018 70 10000 3.78 238 19:51 30.11.2021
39 Clouds 11 1017 69 10000 0.45 333 19:27 30.11.2021
40 Clouds 11 1017 65 10000 3.54 272 18:24 30.11.2021
41 Clouds 12 1016 60 10000 3.94 279 16:34 30.11.2021
42 Clouds 13 1015 58 10000 4.71 291 14:35 30.11.2021
43 Clouds 14 1018 51 10000 3.58 315 13:52 30.11.2021
44 Clouds 14 1015 54 10000 4.4 295 13:24 30.11.2021
45 Clouds 14 1015 54 10000 4.4 295 13:24 30.11.2021
46 Clouds 13 1015 56 10000 4.32 308 12:44 30.11.2021
47 Clouds 13 1015 56 10000 0.89 14 11:27 30.11.2021
48 Clouds 13 1015 56 10000 0.45 349 10:53 30.11.2021
49 Clouds 13 1015 56 10000 6.54 320 10:30 30.11.2021
50 Clouds 12 1016 58 10000 0.89 67 08:51 30.11.2021
51 Clouds 11 1015 60 10000 4.92 315 08:20 30.11.2021
52 Clouds 10 1014 62 10000 0.89 346 07:40 30.11.2021
53 Clouds 10 1007 80 10000 1.34 4 01:58 30.11.2021
54 Rain 10 1006 78 10000 0.89 280 01:38 30.11.2021
55 Clouds 9 1007 69 10000 2.68 306 23:57 29.11.2021
56 Rain 9 1006 74 8891 0.45 298 23:22 29.11.2021
57 Clouds 10 1006 73 8891 0.45 339 22:48 29.11.2021
58 Clouds 10 1006 74 6281 0.45 30 22:29 29.11.2021
59 Rain 9 1004 75 10000 6.71 292 21:22 29.11.2021
60 Rain 9 1004 78 10000 1.79 19 20:56 29.11.2021
61 Rain 9 1003 75 10000 1.79 13 20:23 29.11.2021
62 Rain 9 1002 77 10000 1.34 282 19:54 29.11.2021
63 Rain 9 1002 77 10000 3.13 359 19:33 29.11.2021
64 Clouds 9 999 75 10000 0.45 268 18:48 29.11.2021
65 Clouds 10 1003 76 10000 11.61 258 17:22 29.11.2021
66 Clouds 10 1003 76 10000 11.62 258 16:59 29.11.2021
67 Clouds 10 1003 83 4951 10.33 255 16:29 29.11.2021
68 Clouds 10 1003 83 4947 10.32 255 15:45 29.11.2021
69 Clouds 10 1003 80 10000 7.66 245 14:42 29.11.2021
70 Clouds 10 1003 82 5781 10.74 243 13:32 29.11.2021
71 Clouds 11 1003 73 10000 9.71 246 12:28 29.11.2021
72 Clouds 11 1004 73 10000 10.93 250 11:35 29.11.2021
73 Clouds 11 1004 73 10000 10.92 250 10:41 29.11.2021
74 Clouds 11 1003 80 10000 9.18 232 09:25 29.11.2021
75 Clouds 10 1001 80 10000 9.69 228 06:20 29.11.2021
76 Clouds 10 1003 82 10000 5.79 223 01:40 29.11.2021
77 Rain 11 1004 78 10000 6.93 235 00:39 29.11.2021
78 Clouds 11 1004 77 10000 6.54 246 23:43 28.11.2021
79 Clouds 12 1005 77 10000 7.05 253 22:49 28.11.2021
80 Clouds 13 1004 74 10000 6.56 255 21:47 28.11.2021
81 Clouds 13 1005 75 10000 6.17 252 21:20 28.11.2021
82 Clouds 12 1004 74 10000 6.42 255 20:23 28.11.2021
83 Clouds 14 1003 82 10000 5.84 265 18:46 28.11.2021
84 Clouds 13 1002 84 10000 7.88 267 18:27 28.11.2021
85 Clouds 14 1002 84 10000 7.88 267 17:54 28.11.2021
86 Clouds 14 1002 84 10000 7.88 267 17:31 28.11.2021
87 Clouds 15 1001 78 10000 8.21 241 16:37 28.11.2021
88 Clouds 15 1001 71 10000 10.09 242 16:18 28.11.2021
89 Clouds 16 1001 64 10000 9.42 233 15:31 28.11.2021
90 Clouds 15 1001 64 10000 9.41 233 14:44 28.11.2021
91 Clouds 17 1001 64 10000 9.8 222 13:18 28.11.2021
92 Clouds 17 1001 66 10000 9.7 222 12:46 28.11.2021
93 Clouds 16 1003 66 10000 9.83 213 10:58 28.11.2021
94 Clouds 15 1003 65 10000 8.34 212 10:21 28.11.2021
95 Clouds 15 1003 65 10000 8.34 212 09:37 28.11.2021
96 Clouds 15 1003 68 10000 6.52 210 07:32 28.11.2021
97 Clouds 15 1006 81 10000 4.32 199 23:58 27.11.2021
98 Clouds 14 1006 81 10000 6.06 229 20:57 27.11.2021
99 Clouds 15 1006 81 10000 6.1 233 19:23 27.11.2021
100 Clouds 16 1004 77 10000 5.96 232 17:27 27.11.2021
101 Clouds 16 1004 75 10000 6.03 235 15:57 27.11.2021
102 Clouds 15 1004 76 10000 5.39 244 13:48 27.11.2021
103 Clouds 14 1004 79 10000 6.23 243 12:57 27.11.2021
104 Clouds 13 1005 83 10000 6.94 226 10:52 27.11.2021
105 Clouds 12 1005 77 10000 7.33 229 09:53 27.11.2021
106 Rain 16 1005 69 10000 8.66 227 08:43 27.11.2021
107 Clouds 17 1003 73 10000 6.86 197 06:34 27.11.2021
108 Clouds 17 1006 74 10000 4.55 188 01:58 27.11.2021
109 Clouds 16 1007 76 10000 4.74 208 23:38 26.11.2021
110 Clouds 16 1008 78 10000 6.11 221 22:25 26.11.2021
111 Clouds 16 1008 78 10000 6.1 221 21:38 26.11.2021
112 Clouds 15 1008 79 10000 6.65 230 21:18 26.11.2021
113 Clouds 15 1008 78 10000 7.17 235 20:29 26.11.2021
114 Clouds 15 1008 78 10000 7.17 235 19:49 26.11.2021
115 Clouds 15 1007 78 10000 7.8 238 18:43 26.11.2021
116 Clouds 15 1007 77 10000 7.5 235 17:24 26.11.2021
117 Clouds 15 1007 77 10000 7.5 235 17:24 26.11.2021
118 Clouds 17 1007 74 10000 8.35 237 16:29 26.11.2021
119 Clouds 17 999 65 10000 2.68 310 13:37 26.11.2021
120 Clouds 17 999 65 10000 2.68 310 12:55 26.11.2021
121 Clouds 16 999 69 10000 1.34 327 10:42 26.11.2021
122 Clouds 15 1000 71 10000 0.89 353 09:41 26.11.2021
123 Clouds 15 999 73 10000 0.45 319 08:49 26.11.2021
124 Clouds 14 999 76 10000 5.91 228 08:19 26.11.2021
125 Clouds 13 1003 82 10000 1.34 179 06:29 26.11.2021
126 Clear 12 999 83 10000 5.13 238 04:52 26.11.2021
127 Clear 13 1000 83 10000 1.34 40 03:32 26.11.2021
128 Clouds 13 999 88 10000 4.61 239 23:30 25.11.2021
129 Clouds 13 1003 92 10000 1.79 338 22:19 25.11.2021
130 Rain 14 1000 94 10000 0.45 1 20:41 25.11.2021
131 Clouds 14 999 94 10000 0.45 348 19:21 25.11.2021
132 Clouds 14 999 93 4898 2.89 253 18:19 25.11.2021
133 Rain 15 1000 91 9078 2.56 225 17:27 25.11.2021
134 Clouds 15 999 89 9398 2.53 226 16:44 25.11.2021
135 Clouds 16 1000 82 10000 2.97 141 15:58 25.11.2021
136 Clouds 17 1003 70 10000 0.89 225 14:30 25.11.2021
137 Clouds 18 1004 64 10000 1.79 180 12:55 25.11.2021
138 Clouds 18 1002 65 10000 3.64 148 11:56 25.11.2021
139 Clouds 17 1004 70 10000 3.88 151 10:34 25.11.2021
140 Clouds 15 1004 73 10000 3.53 164 08:21 25.11.2021
141 Clouds 14 1009 69 10000 1.34 180 02:58 25.11.2021
142 Clouds 14 1007 75 10000 2.71 175 00:37 25.11.2021
143 Clouds 15 1008 78 10000 2.4 174 22:29 24.11.2021
144 Clouds 15 1008 79 10000 2.41 174 21:48 24.11.2021
145 Clear 15 1008 79 10000 2.3 166 21:22 24.11.2021
146 Clear 15 1008 83 10000 2.19 162 20:27 24.11.2021
147 Clouds 16 1009 81 10000 1.99 156 19:36 24.11.2021
148 Clouds 17 1009 78 10000 1.81 126 18:19 24.11.2021
149 Clouds 17 1012 77 10000 0.89 225 16:47 24.11.2021
150 Clouds 19 1012 71 10000 0.45 359 14:58 24.11.2021
151 Clouds 19 1008 70 10000 0.45 3 14:21 24.11.2021
152 Clouds 19 1012 69 10000 0.89 315 13:35 24.11.2021
153 Clouds 19 1012 66 10000 0.89 300 11:34 24.11.2021
154 Clouds 18 1013 70 10000 1.79 225 10:58 24.11.2021
155 Clouds 18 1013 74 10000 0.89 315 10:36 24.11.2021
156 Clouds 17 1013 77 10000 1.79 225 09:33 24.11.2021
157 Clouds 15 1013 83 10000 1.34 315 07:41 24.11.2021
158 Clouds 15 1012 82 10000 3.58 248 05:41 24.11.2021
159 Clouds 15 1012 81 10000 3.58 315 03:44 24.11.2021
160 Clear 15 1010 81 10000 2.53 210 23:33 23.11.2021
161 Clear 16 1010 79 10000 2.42 212 22:39 23.11.2021
162 Clear 15 1009 79 10000 2.56 202 21:45 23.11.2021
163 Clear 16 1009 78 10000 2.82 191 20:36 23.11.2021
164 Clear 16 1008 77 10000 2.82 197 19:34 23.11.2021
165 Clouds 16 1008 76 10000 3.04 219 18:34 23.11.2021
166 Clouds 17 1008 75 10000 3.23 231 17:57 23.11.2021
167 Clouds 18 1007 73 10000 3.41 246 16:37 23.11.2021
168 Clouds 19 1007 65 10000 4.7 258 15:27 23.11.2021
169 Clouds 17 1015 70 10000 2.68 225 14:56 23.11.2021
170 Clouds 19 1007 67 10000 3.73 240 13:29 23.11.2021
171 Clouds 18 1010 71 10000 0.45 338 10:40 23.11.2021
172 Clouds 17 1007 78 10000 4.17 209 09:48 23.11.2021
173 Clouds 16 1007 79 10000 4.13 197 08:43 23.11.2021
174 Clouds 14 1008 82 10000 1.34 0 05:25 23.11.2021
175 Clouds 16 1009 74 10000 0.45 311 03:37 23.11.2021
176 Clear 15 1009 75 10000 1.34 225 23:42 22.11.2021
177 Clear 16 1005 76 10000 3.11 185 23:20 22.11.2021
178 Clear 15 1008 74 10000 1.79 270 22:31 22.11.2021
179 Clear 16 1008 74 10000 4.02 180 21:45 22.11.2021
180 Clear 16 1008 73 10000 2.24 180 21:21 22.11.2021
181 Clear 16 1008 74 10000 3.58 135 20:43 22.11.2021
182 Clear 17 1008 73 10000 1.79 180 19:24 22.11.2021
183 Clear 17 1004 74 10000 2.61 195 18:41 22.11.2021
184 Clear 17 1004 74 10000 2.61 195 18:41 22.11.2021
185 Clear 17 1007 74 10000 0.89 90 18:22 22.11.2021
186 Clear 18 1004 70 10000 2.16 199 16:45 22.11.2021
187 Clear 20 1003 64 10000 1.95 204 15:39 22.11.2021
188 Clouds 20 1006 64 10000 2.68 338 12:52 22.11.2021
189 Clouds 19 1007 69 10000 2.24 270 11:39 22.11.2021
190 Clouds 18 1007 76 10000 1.79 225 10:27 22.11.2021
191 Clouds 15 1011 82 10000 3.67 184 08:44 22.11.2021
192 Clouds 14 1007 87 10000 0.89 225 08:24 22.11.2021
193 Rain 15 1004 80 10000 3.16 181 01:43 22.11.2021
194 Clouds 16 1009 73 10000 2.68 270 23:22 21.11.2021
195 Clouds 16 1009 73 10000 2.68 225 22:46 21.11.2021
196 Clouds 16 1009 76 10000 1.79 225 21:33 21.11.2021
197 Clouds 15 1010 77 10000 3.13 225 20:38 21.11.2021
198 Clouds 16 1007 79 10000 2.84 156 19:43 21.11.2021
199 Clouds 16 1007 79 10000 2.84 156 19:43 21.11.2021
200 Clouds 16 1007 82 10000 2.66 150 17:59 21.11.2021
201 Clouds 16 1007 82 10000 2.66 150 17:36 21.11.2021
202 Clouds 18 1007 74 10000 2.74 244 15:21 21.11.2021
203 Clouds 18 1008 71 10000 2.74 244 14:42 21.11.2021
204 Clouds 18 1008 73 10000 2.83 256 13:31 21.11.2021
205 Clouds 18 1009 74 10000 0.45 355 12:27 21.11.2021
206 Clouds 18 1009 75 10000 2.44 248 11:39 21.11.2021
207 Clouds 18 1010 78 10000 1.43 214 10:20 21.11.2021
208 Clouds 17 1011 82 10000 1.43 214 09:59 21.11.2021
209 Clear 14 1011 89 10000 1.2 192 08:35 21.11.2021
210 Clear 13 1014 91 10000 2.68 315 07:57 21.11.2021
211 Clear 12 1014 91 10000 0.89 315 07:39 21.11.2021
212 Clear 13 1011 90 10000 1.02 180 05:47 21.11.2021
213 Clear 14 1011 90 10000 0.95 194 04:37 21.11.2021
214 Clear 14 1012 90 10000 1.03 196 03:18 21.11.2021
215 Clear 14 1013 90 10000 1.03 196 02:42 21.11.2021
216 Clear 14 1013 90 10000 1.16 187 00:53 21.11.2021
217 Clear 15 1014 90 10000 1.23 168 23:22 20.11.2021
218 Clear 15 1015 88 10000 1.13 145 21:39 20.11.2021
219 Clear 15 1014 87 10000 0.71 129 20:50 20.11.2021
220 Clear 16 1015 84 10000 0.8 81 18:46 20.11.2021
221 Clear 16 1015 84 10000 0.8 81 18:46 20.11.2021
222 Clear 17 1015 84 10000 0.91 54 18:25 20.11.2021
223 Clear 17 1015 80 10000 1.17 28 17:22 20.11.2021
224 Clear 17 1015 81 10000 1.17 28 17:22 20.11.2021
225 Clear 18 1015 78 10000 1.17 28 16:41 20.11.2021
226 Clear 18 1020 73 10000 0.89 356 14:40 20.11.2021
227 Clear 17 1024 73 10000 0.89 90 14:21 20.11.2021
228 Clear 18 1021 73 10000 1.34 6 11:56 20.11.2021
229 Clear 18 1019 77 10000 1.96 27 10:29 20.11.2021
230 Clear 16 1019 91 10000 1.7 23 08:57 20.11.2021
231 Clear 14 1022 92 10000 1.79 315 07:22 20.11.2021
232 Clear 14 1018 90 10000 1.36 355 05:26 20.11.2021
233 Clear 15 1019 91 10000 1.38 355 04:50 20.11.2021
234 Clear 15 1020 88 10000 1.14 15 01:48 20.11.2021
235 Clear 15 1020 87 10000 1.29 35 00:40 20.11.2021
236 Clear 15 1020 88 10000 1.67 40 22:55 19.11.2021
237 Clear 16 1020 88 10000 1.96 36 21:58 19.11.2021
238 Clear 16 1020 88 10000 2.04 34 20:58 19.11.2021
239 Clear 16 1020 87 10000 2.04 34 20:36 19.11.2021
240 Clear 16 1020 86 10000 2.59 33 19:50 19.11.2021
241 Clouds 17 1020 84 10000 2.48 28 18:54 19.11.2021
242 Clouds 17 1020 83 10000 2.67 28 18:22 19.11.2021
243 Clouds 16 1023 82 10000 1.79 270 17:26 19.11.2021
244 Clouds 18 1022 73 10000 1.34 315 15:32 19.11.2021
245 Clouds 19 1019 73 10000 3.03 23 13:28 19.11.2021
246 Clouds 17 1023 84 10000 0.89 90 10:27 19.11.2021
247 Clouds 17 1022 88 10000 1.34 90 09:37 19.11.2021
248 Clouds 16 1020 93 10000 2.15 32 08:20 19.11.2021
249 Clouds 15 1018 93 10000 2.08 23 04:51 19.11.2021
250 Clouds 15 1018 91 10000 1.84 359 02:35 19.11.2021
251 Clouds 15 1018 87 10000 1.36 324 23:51 18.11.2021
252 Clouds 15 1018 84 10000 1.12 279 21:56 18.11.2021
253 Clouds 15 1017 83 10000 1.34 282 20:49 18.11.2021
254 Clouds 15 1017 82 10000 1.34 282 20:31 18.11.2021
255 Clouds 16 1017 81 10000 1.59 278 19:52 18.11.2021
256 Clouds 16 1017 81 10000 1.59 278 19:33 18.11.2021
257 Clouds 17 1016 78 10000 1.4 237 18:33 18.11.2021
258 Clouds 17 1016 77 10000 1.66 264 17:51 18.11.2021
259 Clouds 18 1015 74 10000 2.17 277 16:45 18.11.2021
260 Clouds 19 1015 71 10000 2.58 288 15:49 18.11.2021
261 Clouds 20 1014 64 10000 2.6 292 13:59 18.11.2021
262 Clouds 19 1014 62 10000 2.29 279 12:34 18.11.2021
263 Clouds 19 1017 65 10000 2.24 270 11:43 18.11.2021
264 Clouds 19 1015 64 10000 2.46 228 11:24 18.11.2021
265 Clouds 18 1014 75 10000 2.79 211 09:59 18.11.2021
266 Clouds 15 1013 83 10000 2.73 195 07:35 18.11.2021
267 Clouds 15 1015 83 10000 1.79 0 05:59 18.11.2021
268 Clouds 15 1015 83 10000 3.13 315 05:39 18.11.2021
269 Clear 15 1014 80 10000 2.68 315 01:24 18.11.2021
270 Clear 15 1014 80 10000 1.34 0 01:24 18.11.2021
271 Clear 15 1014 80 10000 1.79 292 23:25 17.11.2021
272 Clear 15 1011 81 10000 3.55 209 22:34 17.11.2021
273 Clear 15 1011 81 10000 3.74 209 21:54 17.11.2021
274 Clear 15 1011 81 10000 3.74 209 21:34 17.11.2021
275 Clouds 16 1009 79 10000 3.66 210 19:27 17.11.2021
276 Clouds 17 1008 75 10000 3.77 220 17:31 17.11.2021
277 Clouds 19 1006 68 10000 3.65 246 15:23 17.11.2021
278 Clouds 19 1006 68 10000 2.85 185 12:51 17.11.2021
279 Clouds 19 1006 65 10000 1.34 350 12:25 17.11.2021
280 Clouds 18 1007 72 10000 4.16 145 10:51 17.11.2021
281 Clouds 17 1014 69 10000 3.82 132 09:29 17.11.2021
282 Clouds 14 1014 76 10000 1.79 45 07:46 17.11.2021
283 Rain 14 1013 77 10000 1.79 90 06:42 17.11.2021
284 Rain 14 1009 87 10000 2.54 171 02:47 17.11.2021
285 Clouds 15 1015 75 10000 1.79 128 23:46 16.11.2021
286 Clouds 15 1015 67 10000 1.34 225 22:20 16.11.2021
287 -273 0 0 0 0 0 20:19 16.11.2021
288 Clouds 15 1013 82 10000 3.59 155 20:18 16.11.2021
289 Clouds 15 1013 85 10000 3.56 143 18:53 16.11.2021
290 Clouds 15 1013 85 10000 3.56 143 18:30 16.11.2021
291 Rain 15 1012 67 10000 3.63 141 17:38 16.11.2021
292 Rain 16 1012 67 10000 3.64 133 16:37 16.11.2021
293 Rain 18 1012 65 10000 3.51 142 15:50 16.11.2021
294 Rain 17 1012 72 10000 2.76 152 15:26 16.11.2021
295 Clear 20 1009 65 10000 2.68 90 11:29 16.11.2021
296 Clear 18 1007 71 10000 2.65 145 09:46 16.11.2021
297 Clear 15 1010 81 10000 0.89 248 08:27 16.11.2021
298 Clear 15 1013 75 10000 2.66 152 07:32 16.11.2021
299 Clear 14 1006 82 10000 1.79 160 02:20 16.11.2021
300 Clouds 15 1007 81 10000 2.25 165 23:22 15.11.2021
301 Clouds 16 1007 81 10000 2.18 149 22:33 15.11.2021
302 Clouds 16 1007 80 10000 2.15 149 21:53 15.11.2021
303 Clouds 16 1007 80 10000 2.07 141 21:28 15.11.2021
304 Clouds 17 1007 77 10000 2.06 126 19:49 15.11.2021
305 Clouds 17 1007 75 10000 1.99 109 18:47 15.11.2021
306 Clouds 18 1006 71 10000 1.3 67 16:54 15.11.2021
307 Clouds 19 1013 67 10000 1.32 37 15:42 15.11.2021
308 Clouds 19 1013 65 10000 1.55 27 15:24 15.11.2021
309 Clouds 20 1007 63 10000 1.14 44 13:32 15.11.2021
310 Clouds 19 1010 63 10000 1.1 65 11:53 15.11.2021
311 Clouds 18 1008 73 10000 0.73 184 09:28 15.11.2021
312 Clouds 16 1010 79 10000 0.45 90 07:55 15.11.2021
313 Clouds 15 1010 78 10000 0.89 270 05:23 15.11.2021
314 Clear 16 1008 69 10000 2.65 192 00:18 15.11.2021
315 Clear 17 1008 70 10000 2.56 191 22:38 14.11.2021
316 Clear 17 1011 72 10000 3.58 180 20:32 14.11.2021
317 Clear 18 1007 72 10000 2.38 150 19:18 14.11.2021
318 Clear 17 1010 72 10000 0.89 225 18:54 14.11.2021
319 Clear 17 1007 71 10000 2.38 150 18:36 14.11.2021
320 Clear 18 1007 71 10000 2.18 140 18:18 14.11.2021
321 Clear 18 1007 71 10000 2.18 140 17:57 14.11.2021
322 Clear 18 1007 69 10000 2.18 140 17:39 14.11.2021
323 Clear 18 1010 70 10000 0.89 90 17:21 14.11.2021
324 Clear 19 1007 66 10000 1.89 134 16:49 14.11.2021
325 Clear 19 1009 66 10000 1.76 122 16:21 14.11.2021
326 Clear 20 1009 59 10000 1.76 122 15:46 14.11.2021
327 Clear 19 1015 60 10000 0.89 90 15:18 14.11.2021
328 Clear 20 1015 53 10000 0.45 90 14:32 14.11.2021
329 Clear 21 1015 51 10000 0.89 315 13:59 14.11.2021
330 Clear 21 1015 49 10000 0.45 0 13:40 14.11.2021
331 Clear 21 1010 51 10000 0.92 114 12:45 14.11.2021
332 Clear 20 1010 51 10000 0.45 225 12:18 14.11.2021
333 Clear 20 1011 58 10000 1.34 90 10:50 14.11.2021
334 Clear 19 1011 59 10000 1.34 90 10:27 14.11.2021
335 Clear 17 1012 62 10000 0.89 225 08:57 14.11.2021
336 Clear 16 1012 65 10000 0.89 225 08:23 14.11.2021
337 Clear 16 1017 51 10000 3.13 270 02:20 14.11.2021
338 Clouds 16 1017 58 10000 2.1 182 22:27 13.11.2021
339 Clouds 15 1011 65 10000 2.1 182 21:57 13.11.2021
340 Clouds 15 1011 66 10000 2.13 174 21:27 13.11.2021
341 Clouds 16 1011 70 10000 2.02 168 20:24 13.11.2021
342 Clear 16 1013 67 10000 0.45 90 18:48 13.11.2021
343 Clear 16 1014 69 10000 0.89 270 18:26 13.11.2021
344 Clear 18 1010 65 10000 0.74 140 16:48 13.11.2021
345 Clear 20 1013 55 10000 0.89 90 15:42 13.11.2021
346 Clear 21 1010 55 10000 0.22 330 14:36 13.11.2021
347 Clear 21 1010 54 10000 0.52 292 13:46 13.11.2021
348 Clouds 20 1014 52 10000 0.89 90 12:38 13.11.2021
349 Clouds 20 1015 52 10000 0.89 270 11:45 13.11.2021
350 Clouds 19 1015 56 10000 1.34 90 10:48 13.11.2021
351 Clouds 19 1015 59 10000 1.34 90 10:29 13.11.2021
352 Clouds 17 1015 66 10000 0.89 90 09:42 13.11.2021
353 Clouds 16 1015 70 10000 0.89 90 09:18 13.11.2021
354 Clouds 16 1018 67 10000 1.26 176 08:40 13.11.2021
355 Clouds 15 1017 65 10000 1.43 184 06:55 13.11.2021
356 Clouds 14 1019 64 10000 2.24 315 04:34 13.11.2021
357 Clouds 14 1012 88 10000 1.55 168 01:55 13.11.2021
358 Clouds 15 1011 87 10000 2.29 163 23:27 12.11.2021
359 Clouds 15 1012 83 10000 2.43 152 21:51 12.11.2021
360 Clouds 15 1012 80 10000 2.19 130 20:20 12.11.2021
361 Clouds 16 1012 77 10000 2.19 130 19:31 12.11.2021
362 Clouds 16 1012 76 10000 2.03 120 18:53 12.11.2021
363 Clear 17 1011 71 10000 1.73 108 17:34 12.11.2021
364 Clear 19 1011 61 10000 1.48 60 15:51 12.11.2021
365 Clouds 20 1011 55 10000 0.69 15 13:26 12.11.2021
366 Clouds 19 1014 50 10000 1.79 90 11:23 12.11.2021
367 Clouds 17 1015 60 10000 0.89 225 09:54 12.11.2021
368 Clouds 15 1020 57 10000 0.45 225 08:50 12.11.2021
369 Clouds 13 1019 60 10000 1.34 270 06:35 12.11.2021
370 Clear 15 1018 68 10000 2.07 206 23:55 11.11.2021
371 Clear 14 1012 86 10000 2.15 204 22:49 11.11.2021
372 Clear 15 1012 88 10000 2.15 199 21:43 11.11.2021
373 Clear 15 1012 88 10000 2.14 182 20:52 11.11.2021
374 Clear 16 1012 93 10000 2.61 158 19:48 11.11.2021
375 Clouds 16 1011 94 10000 3.21 130 18:25 11.11.2021
376 Clouds 17 1011 94 10000 3.2 130 17:40 11.11.2021
377 Clouds 19 1010 93 10000 2.37 98 15:29 11.11.2021
378 Clouds 18 1010 95 10000 0.45 223 14:39 11.11.2021
379 Clouds 18 1011 95 10000 1.7 113 14:20 11.11.2021
380 Clouds 17 1011 94 10000 1.7 113 13:35 11.11.2021
381 Rain 16 1012 93 3086 2.16 231 12:26 11.11.2021
382 Clouds 16 1013 93 5118 1.66 227 09:55 11.11.2021
383 Rain 16 1013 92 10000 0.45 247 08:47 11.11.2021
384 Clouds 16 1012 90 10000 2.21 135 06:55 11.11.2021
385 Rain 17 1013 97 10000 2.76 140 00:38 11.11.2021
386 Rain 17 1014 95 10000 2.45 168 22:42 10.11.2021
387 Rain 17 1014 97 10000 2.72 171 21:53 10.11.2021
388 Rain 17 1013 97 10000 2.48 170 20:55 10.11.2021
389 Rain 17 1012 95 10000 1.77 161 20:18 10.11.2021
390 Rain 17 1020 94 10000 2.59 165 19:39 10.11.2021
391 Rain 17 1018 77 10000 3.24 90 17:22 10.11.2021
392 Rain 16 1018 71 10000 3.86 103 15:46 10.11.2021
393 Rain 18 1018 69 10000 4.86 103 14:24 10.11.2021
394 Clouds 19 1012 94 10000 4.86 103 13:37 10.11.2021
395 Clouds 19 1019 83 10000 4.51 116 12:24 10.11.2021
396 Clouds 18 1014 89 10000 4.19 127 09:21 10.11.2021
397 Clouds 18 1019 82 10000 4.19 127 08:41 10.11.2021
398 Clouds 16 1012 92 10000 4.58 131 06:50 10.11.2021
399 Clouds 17 1012 92 10000 4.41 133 05:58 10.11.2021
400 Clouds 17 1013 93 10000 5.06 135 04:58 10.11.2021
401 Clouds 17 1018 87 10000 2.47 132 22:29 09.11.2021
402 Clouds 17 1012 94 10000 2.64 144 20:50 09.11.2021
403 Clouds 17 1012 95 10000 3.56 121 19:36 09.11.2021
404 Clouds 17 1012 96 10000 3.5 117 18:50 09.11.2021
405 Clouds 17 1012 95 10000 2.84 125 17:22 09.11.2021
406 Rain 18 1011 96 10000 3.19 134 15:37 09.11.2021
407 Rain 18 1010 96 10000 3.32 119 13:53 09.11.2021
408 Rain 18 1010 95 10000 2.61 142 12:49 09.11.2021
409 Rain 18 1009 94 10000 2.48 152 11:33 09.11.2021
410 Rain 18 1010 94 10000 2.36 156 10:30 09.11.2021
411 Rain 18 1009 92 10000 1.5 113 09:21 09.11.2021
412 Clouds 18 1008 91 10000 1.45 92 07:55 09.11.2021
413 Clouds 17 1007 90 10000 1.69 60 03:45 09.11.2021
414 Clouds 17 1007 91 10000 1.84 27 01:58 09.11.2021
415 Clouds 17 1007 91 10000 1.84 27 01:36 09.11.2021
416 Clouds 17 1006 93 8376 1.18 331 23:32 08.11.2021
417 Clouds 17 1006 93 8030 1.14 332 22:47 08.11.2021
418 Clouds 17 1006 93 9793 1.43 295 21:45 08.11.2021
419 Clouds 17 1006 93 10000 1.93 343 20:36 08.11.2021
420 Clouds 18 1006 94 10000 1.89 344 19:43 08.11.2021
421 Clouds 18 1005 95 10000 2.61 325 17:48 08.11.2021
422 Clouds 18 1004 96 10000 2.91 298 15:58 08.11.2021
423 Clouds 18 1004 96 10000 2.84 283 14:57 08.11.2021
424 Clouds 18 1003 96 10000 2.84 283 14:34 08.11.2021
425 Clouds 18 1004 96 10000 1.34 248 13:20 08.11.2021
426 Clouds 17 1004 96 10000 0.76 183 11:55 08.11.2021
427 Clouds 17 1005 94 10000 1.29 110 10:50 08.11.2021
428 Clouds 18 1005 93 10000 2.85 114 09:31 08.11.2021
429 Clouds 17 1005 94 10000 2.79 115 08:52 08.11.2021
430 Clouds 16 1005 95 10000 0.45 357 06:57 08.11.2021
431 Clouds 17 1006 96 10000 3.42 40 03:38 08.11.2021
432 Clouds 17 1006 96 10000 1.49 318 03:19 08.11.2021
433 Clouds 20 1007 93 10000 0.71 86 23:43 07.11.2021
434 Rain 20 1008 92 10000 1.08 199 21:42 07.11.2021
435 Clouds 20 1007 91 10000 0.61 328 20:51 07.11.2021
436 Clouds 21 1006 83 10000 0.45 249 19:22 07.11.2021
437 Clouds 22 1006 79 10000 2.56 199 17:49 07.11.2021
438 Clouds 23 1015 67 10000 1.79 45 16:49 07.11.2021
439 Clouds 23 1015 63 10000 3.58 135 15:44 07.11.2021
440 Clouds 24 1014 61 10000 0.89 225 14:28 07.11.2021
441 Clouds 24 1015 59 10000 1.79 135 12:57 07.11.2021
442 Clouds 24 1015 57 10000 1.79 90 11:42 07.11.2021
443 Clouds 24 1009 51 10000 0.89 246 09:26 07.11.2021
444 Clear 22 1005 50 10000 3.36 166 06:46 07.11.2021
445 Clear 22 1008 49 10000 4.02 68 02:32 07.11.2021
446 Clear 22 1006 65 10000 4.62 150 23:22 06.11.2021
447 Clear 21 1005 75 10000 4.59 150 22:42 06.11.2021
448 Clear 20 1009 74 10000 0.89 338 21:32 06.11.2021
449 Clear 20 1008 78 10000 2.24 315 20:50 06.11.2021
450 Clouds 19 1009 89 10000 0.89 270 18:56 06.11.2021
451 Rain 20 1007 90 10000 3.48 93 16:44 06.11.2021
452 Clouds 21 1008 94 10000 4.79 78 14:37 06.11.2021
453 Rain 20 1011 95 10000 0.45 90 13:38 06.11.2021
454 Rain 20 1011 95 10000 0.45 90 13:38 06.11.2021
455 Clouds 20 1012 94 10000 2.68 90 11:25 06.11.2021
456 Clouds 19 1009 95 10000 3.05 121 09:22 06.11.2021
457 Clouds 19 1008 94 10000 1.78 76 04:57 06.11.2021
458 Clouds 19 1008 94 10000 2.52 66 01:27 06.11.2021
459 Clouds 19 1008 93 10000 2.45 97 23:34 05.11.2021
460 Clouds 19 1008 93 10000 2.64 84 22:33 05.11.2021
461 Clouds 19 1008 92 10000 2.43 67 20:50 05.11.2021
462 Clouds 19 1008 92 10000 2.97 62 20:19 05.11.2021
463 Clouds 19 1008 92 10000 3.09 50 19:37 05.11.2021
464 Clouds 19 1007 92 10000 2.34 45 18:39 05.11.2021
465 Clouds 20 1007 92 10000 3.21 66 17:26 05.11.2021
466 Clouds 21 1007 89 10000 2.25 75 15:20 05.11.2021
467 Clouds 21 1007 86 10000 2.33 67 13:35 05.11.2021
468 Clouds 21 1007 83 10000 1.67 40 10:37 05.11.2021
469 Clouds 19 1007 91 10000 1 140 08:39 05.11.2021
470 Clouds 18 1007 92 10000 0.76 84 07:21 05.11.2021
471 Clouds 18 1006 92 10000 0.67 340 04:43 05.11.2021
472 Clouds 18 1006 92 10000 2.42 152 02:24 05.11.2021
473 Clouds 18 1006 93 10000 2.79 135 00:40 05.11.2021
474 Clouds 18 1006 92 10000 2.04 94 22:59 04.11.2021
475 Clouds 18 1006 92 10000 1.98 68 22:19 04.11.2021
476 Clouds 18 1006 93 10000 2.42 48 21:32 04.11.2021
477 Clouds 18 1006 93 10000 2.37 48 20:40 04.11.2021
478 Clouds 18 1006 93 10000 2.74 41 20:20 04.11.2021
479 Clouds 18 1005 92 10000 2.74 41 19:40 04.11.2021
480 Clouds 18 1005 91 10000 2.81 50 18:44 04.11.2021
481 Clouds 19 1005 86 10000 2.9 49 17:37 04.11.2021
482 Clouds 19 1004 83 10000 2.69 44 16:41 04.11.2021
483 Clouds 20 1006 80 10000 0.45 90 14:28 04.11.2021
484 Clouds 21 1004 75 10000 2.36 38 12:32 04.11.2021
485 Clouds 21 1005 72 10000 1.86 52 09:31 04.11.2021
486 Clouds 20 1005 70 10000 1.78 73 08:30 04.11.2021
487 Clouds 20 1004 70 10000 0.82 342 07:34 04.11.2021
488 Clouds 24 1007 62 10000 6.97 173 23:59 03.11.2021
489 Clouds 24 1007 59 10000 7.26 172 22:50 03.11.2021
490 Clouds 23 1007 62 10000 7.33 174 21:48 03.11.2021
491 Clouds 24 1007 63 10000 7.26 168 21:28 03.11.2021
492 Clouds 24 1007 63 10000 6.78 168 20:35 03.11.2021
493 Clouds 23 1007 63 10000 5.89 170 19:58 03.11.2021
494 Clear 23 1007 64 10000 5.67 167 18:56 03.11.2021
495 Clear 24 1003 59 10000 2.68 270 18:21 03.11.2021
496 Clear 24 1003 60 10000 0.89 234 17:35 03.11.2021
497 Clear 24 1003 61 10000 1.34 223 16:25 03.11.2021
498 Clear 24 1010 60 10000 7.15 248 15:42 03.11.2021
499 Clear 25 1004 61 10000 0.89 244 13:55 03.11.2021
500 Clear 24 1005 65 10000 1.79 212 11:54 03.11.2021
501 Clear 24 1005 66 10000 1.34 222 11:25 03.11.2021
502 Clear 23 1006 67 10000 1.34 220 10:41 03.11.2021
503 Clear 23 1006 65 10000 1.79 224 09:30 03.11.2021
504 Clear 22 1006 67 10000 1.79 197 08:22 03.11.2021
505 Clear 21 1006 70 10000 0.45 265 07:39 03.11.2021
506 Clouds 19 1007 79 10000 4.47 180 04:45 03.11.2021
507 Clouds 19 1008 72 10000 1.79 248 02:28 03.11.2021
508 Clouds 19 1009 76 10000 4.47 292 23:47 02.11.2021
509 Clouds 19 1006 73 10000 3.49 194 22:35 02.11.2021
510 Clouds 19 1009 72 10000 2.68 180 21:25 02.11.2021
511 Clouds 19 1009 68 10000 1.79 315 20:32 02.11.2021
512 Clouds 19 1009 67 10000 1.79 270 19:51 02.11.2021
513 Clouds 19 1009 67 10000 2.22 195 18:59 02.11.2021
514 Clouds 20 1006 62 10000 1.8 227 17:59 02.11.2021
515 Clear 19 1009 62 10000 2.24 315 17:38 02.11.2021
516 Clear 22 1006 56 10000 3.14 274 16:30 02.11.2021
517 Clear 22 1012 58 10000 3.14 274 15:30 02.11.2021
518 Clear 22 1012 57 10000 4.21 275 14:22 02.11.2021
519 Clear 22 1006 56 10000 0.45 336 13:27 02.11.2021
520 Clear 22 1006 59 10000 0.45 26 12:39 02.11.2021
521 Clear 21 1006 60 10000 0.45 60 11:33 02.11.2021
522 Clear 21 1006 61 10000 0.45 334 10:52 02.11.2021
523 Clear 21 1006 60 10000 0.89 310 10:26 02.11.2021
524 Clear 20 1006 63 10000 0.45 256 08:43 02.11.2021
525 Clouds 19 1005 68 10000 5.53 263 06:53 02.11.2021
526 Clouds 20 1002 67 10000 1.34 335 03:49 02.11.2021
527 Clouds 21 1002 71 10000 1.79 314 02:21 02.11.2021
528 Clouds 22 1001 76 8869 1.79 292 22:47 01.11.2021
529 Clouds 22 1001 82 10000 1.34 6 21:23 01.11.2021
530 Clouds 22 1001 79 10000 0.45 208 20:38 01.11.2021
531 Clouds 22 1008 78 10000 5.63 206 19:55 01.11.2021
532 Clouds 22 1001 79 10000 1.34 216 19:29 01.11.2021
533 Clouds 22 1000 82 10000 0.45 348 18:21 01.11.2021
534 Clouds 22 1004 81 10000 1.34 328 17:21 01.11.2021
535 Clouds 22 1004 79 10000 1.34 247 16:50 01.11.2021
536 Clouds 22 1004 72 10000 3.58 315 15:47 01.11.2021
537 Clouds 23 1004 70 10000 0.45 90 15:21 01.11.2021
538 Clouds 23 1004 70 10000 0.45 234 15:21 01.11.2021
539 Clouds 22 1009 72 10000 2.24 270 14:42 01.11.2021
540 Clouds 22 1009 70 10000 5.36 225 14:20 01.11.2021
541 Clouds 22 1010 70 10000 3.13 315 13:25 01.11.2021
542 Clouds 23 1005 72 10000 2.24 225 12:25 01.11.2021
543 Clouds 22 1006 82 10000 2.68 315 10:33 01.11.2021
544 Clouds 20 1007 89 10000 1.79 270 09:25 01.11.2021
545 Clouds 18 1006 90 10000 2.24 315 07:49 01.11.2021
546 Clouds 17 1006 90 10000 3.13 248 05:57 01.11.2021
547 Clouds 17 1006 91 10000 1.79 270 03:44 01.11.2021
548 Clouds 17 1006 93 10000 2.89 148 00:27 01.11.2021
549 Clouds 17 1009 92 10000 2.55 165 21:55 31.10.2021
550 Clouds 17 1007 94 10000 0.45 352 20:36 31.10.2021
551 Rain 17 1008 92 9537 2.72 170 18:57 31.10.2021
552 Rain 17 1008 92 9537 2.72 170 18:35 31.10.2021
553 Rain 17 1008 89 10000 2.5 184 16:53 31.10.2021
554 Rain 18 1009 81 10000 2.08 209 15:41 31.10.2021
555 Clouds 20 1011 73 10000 1.79 135 13:38 31.10.2021
556 Clouds 21 1009 70 10000 1.83 216 12:44 31.10.2021
557 Clouds 20 1011 76 10000 2.35 220 10:57 31.10.2021
558 Clouds 20 1011 78 10000 2.35 220 10:36 31.10.2021
559 Clouds 19 1011 86 10000 3 222 09:19 31.10.2021
560 Clouds 17 1011 88 10000 2.03 240 06:59 31.10.2021
561 Clouds 17 1014 88 10000 0.89 315 00:48 31.10.2021
562 Clouds 18 1012 89 10000 0.38 45 22:33 30.10.2021
563 Clouds 18 1012 88 10000 0.32 122 21:33 30.10.2021
564 Clouds 19 1011 92 10000 0.91 99 20:21 30.10.2021
565 Clouds 19 1011 81 10000 0.58 47 18:36 30.10.2021
566 Clouds 21 1010 72 10000 1.6 65 16:42 30.10.2021
567 Clouds 20 1018 70 10000 3.13 90 14:43 30.10.2021
568 Clouds 20 1013 69 10000 1.79 135 13:39 30.10.2021
569 Clouds 20 1013 70 10000 1.79 112 13:21 30.10.2021
570 Clouds 20 1012 74 10000 0.45 347 11:51 30.10.2021
571 Clouds 20 1011 74 10000 1.97 73 11:32 30.10.2021
572 Clouds 19 1014 78 10000 0.89 90 10:24 30.10.2021
573 Clouds 17 1011 90 10000 2.06 52 08:48 30.10.2021
574 Clouds 16 1010 90 10000 2.31 32 06:26 30.10.2021
575 Clouds 17 1010 90 10000 2.31 32 05:39 30.10.2021
576 Clouds 16 1010 92 10000 3.96 45 00:43 30.10.2021
577 Clouds 16 1010 92 10000 1.98 83 22:37 29.10.2021
578 Clouds 16 1010 91 10000 2.3 76 21:52 29.10.2021
579 Rain 16 1010 92 10000 2.44 52 20:44 29.10.2021
580 Rain 16 1010 93 2316 4.68 16 19:49 29.10.2021
581 Rain 16 1009 93 8905 3.17 351 18:27 29.10.2021
582 Rain 16 1009 92 10000 2.42 352 16:51 29.10.2021
583 Clouds 16 1016 94 4024 1.34 90 14:32 29.10.2021
584 Clouds 17 1016 82 8350 3.16 41 10:57 29.10.2021
585 Clouds 17 1010 91 8350 3.16 41 10:34 29.10.2021
586 Clouds 16 1009 91 10000 3.81 40 08:19 29.10.2021
587 Clouds 18 1010 81 10000 1.77 80 00:36 29.10.2021
588 Clouds 17 1010 82 10000 1.76 80 00:36 29.10.2021
589 Clouds 18 1011 80 10000 0.97 99 22:54 28.10.2021
590 Clouds 18 1011 78 10000 1.24 73 21:55 28.10.2021
591 Clouds 18 1011 77 10000 1.39 55 20:29 28.10.2021
592 Clouds 19 1011 75 10000 1.87 73 19:46 28.10.2021
593 Clouds 19 1011 70 10000 2.04 46 18:18 28.10.2021
594 Clouds 20 1011 62 10000 1.73 23 16:58 28.10.2021
595 Clouds 20 1019 72 10000 1.79 90 15:20 28.10.2021
596 Clouds 21 1011 74 10000 1.73 15 13:45 28.10.2021
597 Clouds 21 1012 74 10000 1.28 12 13:21 28.10.2021
598 Clouds 21 1012 76 10000 1.28 12 12:39 28.10.2021
599 Clouds 20 1012 85 10000 0.86 46 10:54 28.10.2021
600 Clouds 18 1012 88 10000 0.67 51 09:38 28.10.2021
601 Clouds 17 1012 88 10000 0.39 59 08:58 28.10.2021
602 Clouds 17 1012 88 10000 0.39 59 08:34 28.10.2021
603 Clouds 17 1012 87 10000 0.69 116 04:48 28.10.2021
604 Clouds 18 1013 89 10000 1.7 119 23:50 27.10.2021
605 Clouds 19 1013 83 10000 1.81 128 22:31 27.10.2021
606 Clouds 19 1013 82 10000 1.8 128 21:33 27.10.2021
607 Clouds 19 1013 80 10000 2.3 122 20:53 27.10.2021
608 Clouds 19 1013 79 10000 0.58 235 19:57 27.10.2021
609 Clouds 19 1013 79 10000 0.58 235 19:38 27.10.2021
610 Clouds 20 1013 78 10000 1.16 167 18:39 27.10.2021
611 Clouds 21 1012 71 10000 2 136 16:27 27.10.2021
612 Clouds 22 1017 71 10000 1.98 136 15:32 27.10.2021
613 Clouds 22 1012 73 10000 2.4 123 14:40 27.10.2021
614 Clouds 21 1014 76 10000 2.15 116 12:32 27.10.2021
615 Clouds 21 1013 84 10000 1.67 120 10:58 27.10.2021
616 Clouds 20 1014 89 10000 2.18 89 09:51 27.10.2021
617 Clouds 18 1013 92 10000 3.38 79 08:22 27.10.2021
618 Clouds 18 1013 91 10000 3.62 81 07:22 27.10.2021
619 Clouds 18 1012 92 10000 3.51 66 02:24 27.10.2021
620 Rain 18 1013 93 10000 4.75 64 00:56 27.10.2021
621 Rain 18 1012 93 8232 4.59 67 00:28 27.10.2021
622 Rain 18 1012 93 8232 4.59 67 00:28 27.10.2021
623 Clouds 18 1012 91 8232 4.59 67 23:41 26.10.2021
624 Clouds 18 1012 92 10000 4.25 75 22:38 26.10.2021
625 Clouds 18 1012 92 10000 4.06 85 21:59 26.10.2021
626 Clouds 19 1012 92 10000 3.48 90 20:36 26.10.2021
627 Clouds 19 1012 91 10000 0.65 91 19:30 26.10.2021
628 Clouds 19 1011 91 10000 0.83 72 18:41 26.10.2021
629 Clouds 20 1010 88 10000 2.51 61 16:28 26.10.2021
630 Clouds 21 1009 87 10000 0.89 358 14:30 26.10.2021
631 Clouds 21 1010 83 10000 4.66 57 11:34 26.10.2021
632 Clouds 20 1010 89 10000 5.06 76 10:20 26.10.2021
633 Rain 18 1009 91 10000 4.16 66 07:25 26.10.2021
634 Rain 18 1009 91 10000 4.16 66 06:40 26.10.2021
635 Clouds 19 1009 92 10000 2.54 42 23:50 25.10.2021
636 Clouds 19 1009 91 10000 3.59 64 22:54 25.10.2021
637 Clouds 19 1009 89 10000 4.52 69 22:19 25.10.2021
638 Clouds 19 1012 89 10000 1.34 45 21:39 25.10.2021
639 Clouds 20 1008 86 10000 3.6 80 19:53 25.10.2021
640 Clouds 20 1011 86 10000 4.68 86 19:25 25.10.2021
641 Clouds 20 1010 86 10000 4.68 86 18:54 25.10.2021
642 Clouds 21 1007 82 10000 4.32 76 18:19 25.10.2021
643 Rain 21 1007 78 10000 3.93 55 16:18 25.10.2021
644 Clouds 22 1007 78 8126 0.89 4 14:28 25.10.2021
645 Clouds 22 1008 81 10000 5 69 12:30 25.10.2021
646 Clouds 20 1008 89 10000 5.37 90 10:20 25.10.2021
647 Clouds 19 1007 90 10000 5.97 87 08:34 25.10.2021
648 Clouds 19 1007 88 10000 4.58 93 06:24 25.10.2021
649 Clouds 18 1012 80 10000 3 113 00:58 25.10.2021
650 Rain 18 1012 80 10000 3 113 00:37 25.10.2021
651 Rain 18 1012 81 10000 3.95 109 23:47 24.10.2021
652 Rain 18 1012 81 10000 3.95 109 23:47 24.10.2021
653 Rain 18 1013 79 10000 3.45 103 22:56 24.10.2021
654 Clouds 18 1013 79 10000 3.45 103 22:31 24.10.2021
655 Rain 18 1012 77 10000 2.86 103 21:57 24.10.2021
656 Rain 17 1015 80 10000 1.79 292 20:45 24.10.2021
657 Rain 16 1015 84 10000 4.02 315 20:23 24.10.2021
658 Rain 22 1006 79 10000 2.97 91 18:52 24.10.2021
659 Clouds 22 1006 76 10000 3.07 101 17:57 24.10.2021
660 Clouds 23 1006 71 10000 3.19 100 16:52 24.10.2021
661 Clouds 23 1007 74 10000 1.89 94 15:37 24.10.2021
662 Clouds 24 1007 75 10000 2.64 62 13:49 24.10.2021
663 Clouds 24 1008 77 10000 2.42 69 12:41 24.10.2021
664 Clouds 23 1008 77 10000 2.68 81 11:40 24.10.2021
665 Clouds 23 1008 83 10000 2.71 112 10:43 24.10.2021
666 Clouds 22 1009 90 10000 2.45 126 09:38 24.10.2021
667 Clouds 20 1008 89 10000 2.4 86 05:35 24.10.2021
668 Clouds 21 1011 94 10000 2.41 84 00:40 24.10.2021
669 Clouds 21 1012 93 10000 3.35 65 23:24 23.10.2021
670 Clouds 22 1011 90 10000 3.05 86 21:45 23.10.2021
671 Clouds 22 1011 88 10000 2.8 91 19:39 23.10.2021
672 Clouds 22 1011 83 10000 2.77 96 18:46 23.10.2021
673 Clouds 22 1011 83 10000 2.77 96 18:46 23.10.2021
674 Clouds 23 1011 76 10000 2.71 92 17:48 23.10.2021
675 Clouds 23 1011 75 10000 2.72 94 17:26 23.10.2021
676 Clouds 24 1011 70 10000 2.67 96 16:18 23.10.2021
677 Clouds 24 1014 68 10000 2.24 90 13:51 23.10.2021
678 Clouds 20 1014 78 10000 1.61 165 02:36 23.10.2021
679 Clouds 20 1015 77 10000 0.89 315 23:41 22.10.2021
680 Clouds 22 1011 71 10000 2.42 189 21:39 22.10.2021
681 Clouds 23 1014 66 10000 0.89 45 19:49 22.10.2021
682 Clouds 24 1013 63 10000 0.89 0 18:33 22.10.2021
683 Clouds 25 1013 56 10000 3.58 270 17:19 22.10.2021
684 Clouds 25 1018 53 10000 2.24 315 14:58 22.10.2021
685 Clouds 25 1019 52 10000 3.58 180 12:53 22.10.2021
686 Clouds 25 1014 58 10000 0.89 234 10:58 22.10.2021
687 Clouds 24 1014 58 10000 0.45 214 10:36 22.10.2021
688 Clouds 23 1014 62 10000 0.45 265 09:36 22.10.2021
689 Clouds 22 1010 66 10000 0.45 223 07:46 22.10.2021
690 Clouds 22 1010 66 10000 0.45 213 07:21 22.10.2021
691 Clouds 21 1012 69 10000 3.39 183 02:37 22.10.2021
692 Clouds 22 1011 68 10000 0.45 207 02:37 22.10.2021
693 Clouds 21 1012 69 10000 3.39 183 02:37 22.10.2021
694 Clear 20 1016 72 10000 5.36 225 23:51 21.10.2021
695 Clear 20 1013 70 10000 3.28 180 22:47 21.10.2021
696 Clear 20 1016 68 10000 3.13 225 21:39 21.10.2021
697 Clear 20 1016 65 10000 2.68 270 20:26 21.10.2021
698 Clear 20 1016 64 10000 1.34 158 19:56 21.10.2021
699 Clear 21 1016 63 10000 0.45 225 19:26 21.10.2021
700 Clear 22 1016 58 10000 2.02 146 18:34 21.10.2021
701 Clear 22 1016 54 10000 0.89 225 17:53 21.10.2021
702 Clear 23 1017 49 10000 1.79 180 17:18 21.10.2021
703 Clear 24 1022 46 10000 1.79 68 15:33 21.10.2021
704 Clear 24 1017 45 10000 0.89 90 14:57 21.10.2021
705 Clear 24 1017 47 10000 0.45 193 14:37 21.10.2021
706 Clear 23 1018 51 10000 0.89 249 12:37 21.10.2021
707 Clear 20 1020 64 10000 0.45 337 09:55 21.10.2021
708 Clear 18 1020 74 10000 0.45 315 08:20 21.10.2021
709 Clear 17 1020 76 10000 1.34 315 06:54 21.10.2021
710 Clear 17 1022 87 10000 2.19 199 00:51 21.10.2021
711 Clear 18 1020 87 10000 1.85 177 22:41 20.10.2021
712 Clear 18 1020 84 10000 1.69 166 21:51 20.10.2021
713 Clear 19 1021 83 10000 1.33 152 21:18 20.10.2021
714 Clear 19 1021 81 10000 1.33 152 20:39 20.10.2021
715 Clouds 18 1023 83 10000 0.76 122 20:21 20.10.2021
716 Clouds 18 1023 81 10000 0.45 90 19:26 20.10.2021
717 Clouds 20 1021 77 10000 0.88 75 18:45 20.10.2021
718 Clouds 19 1021 77 10000 0.88 74 18:45 20.10.2021
719 Clouds 20 1021 76 10000 1.45 348 17:36 20.10.2021
720 Clouds 21 1024 71 10000 0.89 90 15:26 20.10.2021
721 Clear 20 1023 79 10000 0.75 210 10:21 20.10.2021
722 Clouds 15 1028 81 10000 0.82 204 07:43 20.10.2021
723 Clear 16 1023 90 10000 1.39 189 02:38 20.10.2021
724 Clear 16 1023 89 10000 1.21 167 00:34 20.10.2021
725 Clear 17 1023 90 10000 1.46 162 23:32 19.10.2021
726 Clear 17 1023 85 10000 1.2 115 21:40 19.10.2021
727 Clear 18 1023 83 10000 1.36 97 20:36 19.10.2021
728 Clouds 18 1023 82 10000 1.71 67 20:18 19.10.2021
729 Clouds 19 1023 80 10000 1.76 66 19:37 19.10.2021
730 Clouds 19 1022 77 10000 1.95 58 18:45 19.10.2021
731 Clouds 20 1022 75 10000 1.8 69 17:56 19.10.2021
732 Clouds 21 1022 71 10000 2.65 35 15:31 19.10.2021
733 Clouds 21 1022 73 10000 0.45 21 14:46 19.10.2021
734 Clouds 21 1022 73 10000 0.45 21 14:46 19.10.2021
735 Clouds 21 1024 75 10000 0.89 180 13:56 19.10.2021
736 Clouds 21 1023 84 10000 2.01 62 12:24 19.10.2021
737 Clouds 19 1023 90 10000 2.18 58 11:30 19.10.2021
738 Clouds 18 1022 93 10000 2.16 73 09:55 19.10.2021
739 Clouds 18 1022 93 10000 2.13 60 08:57 19.10.2021
740 Clouds 17 1022 92 10000 1.65 78 04:25 19.10.2021
741 Clear 17 1022 89 10000 0.45 90 00:22 19.10.2021
742 Clear 17 1022 88 10000 1.34 90 23:49 18.10.2021
743 Clear 17 1022 87 10000 0.45 90 22:59 18.10.2021
744 Clear 18 1019 85 10000 1.78 96 22:31 18.10.2021
745 Clear 18 1018 82 10000 2.31 83 20:53 18.10.2021
746 Clear 18 1018 80 10000 2.26 83 20:32 18.10.2021
747 Clouds 18 1017 79 10000 2.86 71 19:49 18.10.2021
748 Clouds 18 1017 77 10000 2.79 58 19:22 18.10.2021
749 Clouds 19 1017 76 10000 2.79 58 18:49 18.10.2021
750 Clear 21 1016 68 10000 0.89 10 14:58 18.10.2021
751 Clear 21 1017 65 10000 0.45 334 12:53 18.10.2021
752 Clear 20 1017 76 10000 1.23 284 10:26 18.10.2021
753 Clear 18 1016 87 10000 1.12 266 09:26 18.10.2021
754 Clear 17 1015 88 10000 1.07 283 01:35 18.10.2021
755 Clear 17 1014 89 10000 0.88 262 23:20 17.10.2021
756 Clear 18 1014 90 10000 0.51 264 21:46 17.10.2021
757 Clear 18 1014 90 10000 0.29 349 20:59 17.10.2021
758 Clouds 18 1013 89 10000 0.88 8 20:31 17.10.2021
759 Rain 19 1013 88 10000 0.57 7 19:39 17.10.2021
760 Rain 19 1013 86 10000 0.99 355 18:57 17.10.2021
761 Rain 19 1012 80 10000 1.25 333 17:32 17.10.2021
762 Clouds 21 1017 65 10000 2.52 321 15:19 17.10.2021
763 Clouds 22 1011 65 10000 2.23 306 14:24 17.10.2021
764 Clouds 21 1012 66 10000 0.89 16 13:38 17.10.2021
765 Clouds 21 1012 63 10000 1.47 251 11:55 17.10.2021
766 Clouds 20 1013 69 10000 1.86 224 10:34 17.10.2021
767 Clouds 19 1012 80 10000 2.43 208 09:30 17.10.2021
768 Clouds 17 1011 87 10000 2.56 229 07:19 17.10.2021
769 Clouds 18 1011 77 10000 2.76 214 00:53 17.10.2021
770 Clouds 18 1011 79 10000 2.75 210 00:22 17.10.2021
771 Clouds 18 1011 82 10000 2.47 219 21:49 16.10.2021
772 Clouds 18 1011 79 10000 2.35 250 20:32 16.10.2021
773 Clouds 18 1011 76 10000 2.35 250 19:46 16.10.2021
774 Clouds 19 1011 74 10000 2.61 269 19:23 16.10.2021
775 Clouds 19 1011 72 10000 2.61 269 18:56 16.10.2021
776 Clouds 19 1011 70 10000 2.61 269 18:37 16.10.2021
777 Clouds 20 1011 69 10000 3.29 283 18:18 16.10.2021
778 Clouds 20 1010 69 10000 3.58 288 17:25 16.10.2021
779 Clouds 21 1010 64 10000 4.57 287 15:25 16.10.2021
780 Clouds 21 1011 61 10000 4.62 265 11:55 16.10.2021
781 Clouds 20 1011 62 10000 0.89 12 10:47 16.10.2021
782 Clouds 18 1010 68 10000 3.83 297 08:23 16.10.2021
783 Clouds 17 1010 65 10000 5.89 320 01:25 16.10.2021
784 Clouds 17 1010 65 10000 5.89 320 01:25 16.10.2021
785 Clouds 16 1010 66 10000 5.76 325 23:57 15.10.2021
786 Clouds 16 1010 65 10000 6.32 333 23:24 15.10.2021
787 Clouds 17 1010 62 10000 7.49 338 22:19 15.10.2021
788 Clouds 17 1009 61 10000 1.34 19 21:29 15.10.2021
789 Clouds 17 1009 60 10000 0.45 7 20:49 15.10.2021
790 Clouds 17 1008 60 10000 0.89 44 19:37 15.10.2021
791 Clouds 17 1008 64 10000 0.89 340 18:41 15.10.2021
792 Clouds 18 1007 57 10000 0.45 333 16:43 15.10.2021
793 Clouds 19 1007 54 10000 0.45 350 15:36 15.10.2021
794 Clear 17 1008 80 10000 4.72 317 13:31 15.10.2021
795 Clouds 17 1008 60 10000 0.89 22 11:40 15.10.2021
796 Clouds 17 1008 58 10000 5.36 336 10:58 15.10.2021
797 Clear 17 1008 56 10000 0.89 7 09:59 15.10.2021
798 Clear 15 1008 56 10000 1.34 358 05:44 15.10.2021
799 Clouds 16 1009 57 10000 0.45 15 01:48 15.10.2021
800 Clouds 16 1010 55 10000 0.45 3 00:22 15.10.2021
801 Clouds 16 1010 52 10000 0.45 4 22:52 14.10.2021
802 Clouds 16 1010 54 10000 1.34 349 21:45 14.10.2021
803 Clouds 16 1010 54 10000 1.34 33 20:50 14.10.2021
804 Clouds 16 1010 54 10000 0.45 33 20:50 14.10.2021
805 Clouds 16 1010 54 10000 1.34 30 20:19 14.10.2021
806 Clouds 16 1009 56 10000 1.34 46 19:38 14.10.2021
807 Clouds 16 1008 75 10000 0.45 33 17:39 14.10.2021
808 Clouds 15 1008 88 10000 9 21 16:56 14.10.2021
809 Clouds 16 1014 81 10000 8.37 26 16:21 14.10.2021
810 Clouds 15 1008 90 10000 7.59 24 14:43 14.10.2021
811 Clouds 15 1014 80 10000 7.98 27 14:24 14.10.2021
812 Clouds 14 1014 84 10000 6.7 45 11:50 14.10.2021
813 Clouds 15 1014 86 10000 6.71 45 10:43 14.10.2021
814 Clouds 13 1013 71 10000 5.91 47 07:37 14.10.2021
815 Clouds 16 1006 85 10000 6.61 38 02:41 14.10.2021
816 Clouds 15 1007 93 10000 7.07 49 00:29 14.10.2021
817 Clouds 16 1006 96 8854 4.9 44 22:32 13.10.2021
818 Clouds 16 1006 95 8790 4.91 44 21:34 13.10.2021
819 Clouds 15 1006 95 2920 3.92 52 20:22 13.10.2021
820 Clouds 16 1005 94 7163 3.66 69 19:19 13.10.2021
821 Clouds 16 1005 94 7163 3.66 69 18:37 13.10.2021
822 Clouds 18 1004 90 7645 0.45 6 15:53 13.10.2021
823 Clouds 19 1004 78 8552 0.89 308 14:46 13.10.2021
824 Clouds 20 1004 79 10000 0.45 352 14:22 13.10.2021
825 Clouds 22 1005 54 10000 0.89 291 12:23 13.10.2021
826 Clouds 22 1005 58 10000 4.06 255 11:35 13.10.2021
827 Clouds 22 1005 58 10000 4.06 255 11:35 13.10.2021
828 Clouds 19 1005 68 10000 3.21 215 08:57 13.10.2021
829 Clouds 18 1005 77 10000 3.54 214 07:43 13.10.2021
830 Clouds 17 1007 78 10000 3.08 218 02:51 13.10.2021
831 Clouds 17 1007 77 10000 3.52 230 02:19 13.10.2021
832 Clouds 18 1007 73 10000 3.21 245 23:31 12.10.2021
833 Clouds 18 1008 71 10000 3.19 251 22:48 12.10.2021
834 Clouds 18 1008 70 10000 3.09 261 22:23 12.10.2021
835 Clouds 19 1008 68 10000 2.81 262 20:48 12.10.2021
836 Clouds 19 1008 68 10000 3.04 276 20:19 12.10.2021
837 Clouds 20 1008 69 10000 3.48 288 18:57 12.10.2021
838 Clouds 20 1007 68 10000 3.66 301 18:18 12.10.2021
839 Clouds 21 1007 63 10000 0.89 303 16:47 12.10.2021
840 Clouds 21 1007 62 10000 0.45 335 16:18 12.10.2021
841 Clouds 21 1008 61 10000 0.45 303 14:51 12.10.2021
842 Clouds 21 1008 60 10000 0.45 9 13:45 12.10.2021
843 Clouds 20 1009 60 10000 2.71 311 12:40 12.10.2021
844 Clouds 20 1009 60 10000 2.71 311 12:40 12.10.2021
845 Clouds 20 1010 62 10000 0.45 351 10:38 12.10.2021
846 Clouds 19 1010 65 10000 2.47 314 08:49 12.10.2021
847 Clouds 18 1009 66 10000 2.6 313 08:00 12.10.2021
848 Clouds 17 1012 67 10000 1.34 315 06:42 12.10.2021
849 Clouds 18 1010 69 10000 0.45 351 04:35 12.10.2021
850 Clouds 19 1011 67 10000 0.45 1 01:30 12.10.2021
851 Clouds 18 1011 66 10000 5.62 325 23:41 11.10.2021
852 Clouds 17 1014 71 10000 0.89 15 22:59 11.10.2021
853 Clouds 18 1011 69 10000 6.72 324 22:30 11.10.2021
854 Clouds 18 1013 64 10000 0.45 18 21:19 11.10.2021
855 Clouds 17 1013 73 10000 2.68 315 19:46 11.10.2021
856 Clouds 17 1013 72 10000 4.92 315 19:22 11.10.2021
857 Clouds 17 1011 74 10000 8.55 305 18:18 11.10.2021
858 Clouds 18 1011 70 10000 0.45 342 16:39 11.10.2021
859 Clouds 20 1011 63 10000 1.79 12 16:19 11.10.2021
860 Clouds 20 1016 60 10000 8.35 297 15:37 11.10.2021
861 Clouds 21 1011 47 10000 0.45 51 14:53 11.10.2021
862 Clouds 21 1011 49 10000 1.34 276 13:39 11.10.2021
863 Clouds 20 1012 50 10000 0.89 324 12:20 11.10.2021
864 Clouds 19 1012 54 10000 0.89 37 10:49 11.10.2021
865 Clouds 19 1012 55 10000 8.99 308 09:45 11.10.2021
866 Clouds 18 1013 61 10000 0.45 6 07:56 11.10.2021
867 Clear 18 1013 56 10000 0.89 323 01:42 11.10.2021
868 Clear 18 1011 58 10000 7.16 302 00:53 11.10.2021
869 Clear 18 1011 58 10000 7.16 302 00:31 11.10.2021
870 Clear 18 1011 60 10000 6.52 303 22:22 10.10.2021
871 Clear 19 1011 58 10000 0.89 13 21:35 10.10.2021
872 Clear 19 1010 57 10000 6.43 307 20:48 10.10.2021
873 Clear 19 1010 56 10000 6.98 307 20:22 10.10.2021
874 Clear 19 1010 57 10000 0.45 335 20:00 10.10.2021
875 Clear 19 1010 57 10000 0.45 286 19:38 10.10.2021
876 Clear 19 1010 59 10000 7.08 305 18:41 10.10.2021
877 Clear 20 1009 57 10000 7.69 305 17:50 10.10.2021
878 Clear 21 1015 55 10000 8.45 303 15:47 10.10.2021
879 Clear 21 1009 56 10000 0.89 270 14:44 10.10.2021
880 Clouds 22 1009 59 10000 2.68 302 13:34 10.10.2021
881 Clouds 21 1009 64 10000 1.34 325 12:41 10.10.2021
882 Clouds 21 1009 72 9522 4.62 285 11:29 10.10.2021
883 Clouds 21 1009 72 9522 4.62 285 11:29 10.10.2021
884 Clouds 19 1009 87 10000 4.31 280 09:51 10.10.2021
885 Clouds 18 1008 87 10000 4.01 273 08:54 10.10.2021
886 Clouds 18 1008 88 10000 3.8 275 07:56 10.10.2021
887 Clouds 19 1008 77 10000 3.21 220 03:47 10.10.2021
888 Clouds 19 1009 81 10000 2.84 216 01:39 10.10.2021
889 Clouds 19 1008 84 10000 2.57 208 00:37 10.10.2021
890 Clouds 19 1009 85 10000 2.33 194 23:22 09.10.2021
891 Clouds 19 1009 85 10000 2.03 180 21:52 09.10.2021
892 Clouds 19 1009 85 10000 1.56 167 21:29 09.10.2021
893 Clouds 19 1009 86 10000 1.4 277 19:47 09.10.2021
894 Clouds 19 1009 85 10000 1.4 295 19:22 09.10.2021
895 Clouds 20 1009 85 10000 1.4 295 18:34 09.10.2021
896 Clear 20 1009 84 10000 2 314 17:43 09.10.2021
897 Clear 20 1009 83 10000 2.84 312 16:19 09.10.2021
898 Clear 22 1009 65 10000 2.21 303 13:47 09.10.2021
899 Clear 22 1009 64 10000 1.69 291 13:24 09.10.2021
900 Clear 22 1010 66 10000 0.45 351 11:56 09.10.2021
901 Clear 21 1010 75 10000 1.31 279 10:43 09.10.2021
902 Clear 20 1010 86 10000 1.36 265 09:54 09.10.2021
903 Clear 18 1015 78 10000 0.9 228 08:33 09.10.2021
904 Clear 17 1014 79 10000 1.15 223 07:49 09.10.2021
905 Clear 17 1008 88 10000 1.08 238 05:55 09.10.2021
906 Clear 16 1008 90 10000 0.98 250 04:18 09.10.2021
907 Clear 17 1008 89 10000 1.18 263 02:43 09.10.2021
908 Clouds 18 1014 81 10000 1.72 260 23:55 08.10.2021
909 Clouds 18 1014 82 10000 1.72 260 23:31 08.10.2021
910 Clouds 18 1009 84 10000 2.28 268 22:25 08.10.2021
911 Clouds 19 1008 80 10000 2.28 268 21:35 08.10.2021
912 Clouds 19 1007 77 10000 0.45 335 19:44 08.10.2021
913 Clouds 20 1006 73 10000 2.88 284 17:36 08.10.2021
914 Clouds 20 1006 69 10000 0.45 293 16:53 08.10.2021
915 Clouds 20 1012 70 10000 3.17 284 16:53 08.10.2021
916 Clouds 20 1012 69 10000 3.47 293 16:24 08.10.2021
917 Clouds 20 1006 76 10000 0.89 295 14:18 08.10.2021
918 Clouds 20 1006 79 10000 3.97 313 13:36 08.10.2021
919 Clouds 19 1006 86 10000 0.45 304 11:40 08.10.2021
920 Clouds 19 1006 86 10000 1.34 358 10:41 08.10.2021
921 Clouds 18 1006 85 10000 4.09 263 09:46 08.10.2021
922 Clouds 17 1004 82 10000 0.45 329 00:35 08.10.2021
923 Clouds 17 1004 76 10000 5.57 265 23:22 07.10.2021
924 Rain 18 1005 72 10000 0.89 295 21:46 07.10.2021
925 Rain 19 1005 69 10000 0.45 264 21:27 07.10.2021
926 Clouds 18 1006 73 10000 5.36 315 20:28 07.10.2021
927 Clouds 18 1006 78 10000 0.45 339 19:31 07.10.2021
928 Clouds 18 1009 67 10000 7.89 282 18:27 07.10.2021
929 Clouds 20 1004 64 10000 0.45 256 17:27 07.10.2021
930 Clouds 19 1004 70 10000 0.89 4 15:55 07.10.2021
931 Clouds 21 1004 63 10000 1.34 355 14:24 07.10.2021
932 Clouds 21 1004 56 10000 1.34 8 13:43 07.10.2021
933 Clouds 21 1004 63 10000 0.89 227 12:48 07.10.2021
934 Clouds 21 1004 50 10000 1.34 242 10:57 07.10.2021
935 Clouds 20 1006 53 10000 4.47 315 10:20 07.10.2021
936 Clouds 20 1007 55 10000 0.45 329 09:34 07.10.2021
937 Clouds 20 1005 56 10000 0.89 339 08:52 07.10.2021
938 Clouds 20 1005 53 10000 0.89 295 07:56 07.10.2021
939 Clouds 20 1005 53 10000 1.34 328 07:36 07.10.2021
940 Clouds 20 1006 54 10000 1.79 324 04:24 07.10.2021
941 Clouds 21 1011 64 10000 1.34 325 00:29 07.10.2021
942 Clouds 21 1011 71 10000 0.45 346 22:55 06.10.2021
943 Clouds 21 1011 70 10000 0.45 12 22:23 06.10.2021
944 Clouds 21 1009 65 10000 4.04 257 20:51 06.10.2021
945 Clouds 21 1012 66 10000 3.13 315 20:26 06.10.2021
946 Clouds 23 1009 63 10000 3.24 282 18:43 06.10.2021
947 Clouds 24 1010 65 10000 0.45 321 16:58 06.10.2021
948 Clouds 24 1010 65 10000 0.45 321 16:58 06.10.2021
949 Clouds 25 1010 62 10000 0.45 313 15:33 06.10.2021
950 Clouds 24 1011 67 10000 0.45 246 14:30 06.10.2021
951 Clouds 25 1011 68 10000 3.25 281 13:23 06.10.2021
952 Clouds 24 1012 69 10000 3.26 281 12:45 06.10.2021
953 Clouds 24 1012 69 10000 2.5 275 12:22 06.10.2021
954 Clouds 23 1015 74 10000 1.79 225 10:36 06.10.2021
955 Clouds 22 1016 87 10000 1.34 270 09:39 06.10.2021
956 Clouds 21 1015 88 10000 2.24 292 08:57 06.10.2021
957 Clouds 21 1015 90 10000 1.34 292 07:53 06.10.2021
958 Clouds 21 1015 84 10000 0.89 344 05:37 06.10.2021
959 Clouds 21 1016 76 10000 2.24 270 01:23 06.10.2021
960 Clouds 21 1014 73 10000 2.9 246 00:20 06.10.2021
961 Clouds 21 1014 73 10000 2.9 246 00:20 06.10.2021
962 Clouds 21 1014 72 10000 2.9 246 23:48 05.10.2021
963 Clouds 21 1017 71 10000 4.02 315 23:29 05.10.2021
964 Clouds 21 1014 69 10000 2.43 223 22:30 05.10.2021
965 Clouds 21 1016 70 10000 3.13 0 21:50 05.10.2021
966 Clouds 21 1015 69 10000 1.34 270 20:51 05.10.2021
967 Clouds 21 1015 69 10000 2.68 315 20:25 05.10.2021
968 Clouds 21 1015 75 10000 3.58 315 19:50 05.10.2021
969 Clouds 21 1011 79 10000 2.6 190 19:21 05.10.2021
970 Clouds 20 1011 85 10000 4.44 166 17:23 05.10.2021
971 Rain 20 1014 90 9501 6.02 149 15:22 05.10.2021
972 Rain 19 1015 93 2504 4.59 328 13:43 05.10.2021
973 Rain 19 1019 71 7715 5.95 289 12:57 05.10.2021
974 Rain 19 1019 71 7715 5.95 289 12:32 05.10.2021
975 Rain 20 1019 58 10000 0.98 116 11:22 05.10.2021
976 Clouds 25 1014 66 10000 0.68 152 09:50 05.10.2021
977 Clouds 24 1010 59 10000 0.45 8 05:56 05.10.2021
978 Clouds 23 1014 72 10000 2.18 212 00:37 05.10.2021
979 Clouds 24 1013 70 10000 2.01 181 22:49 04.10.2021
980 Clouds 24 1015 70 10000 0.45 270 20:45 04.10.2021
981 Clouds 25 1012 70 10000 1.73 140 18:47 04.10.2021
982 Clouds 26 1020 63 10000 0.45 90 16:44 04.10.2021
983 Clear 27 1020 55 10000 1.17 121 15:32 04.10.2021
984 Clouds 28 1015 53 10000 0.89 135 14:44 04.10.2021
985 Clouds 28 1015 49 10000 0.89 135 13:58 04.10.2021
986 Clouds 28 1016 48 10000 0.45 90 13:31 04.10.2021
987 Clouds 27 1016 50 10000 0.89 135 12:31 04.10.2021
988 Clouds 26 1016 53 10000 1.79 90 11:32 04.10.2021
989 Clouds 25 1016 56 10000 0.89 135 10:41 04.10.2021
990 Clear 23 1016 63 10000 0.45 90 09:26 04.10.2021
991 Clear 21 1013 73 10000 1.9 175 07:52 04.10.2021
992 Clear 20 1015 77 10000 0.89 225 03:44 04.10.2021
993 Clear 22 1013 75 10000 2.5 145 22:48 03.10.2021
994 Clear 22 1013 73 10000 2.23 139 21:43 03.10.2021
995 Clear 23 1013 73 10000 2 126 21:24 03.10.2021
996 Clear 23 1013 75 10000 2 126 20:43 03.10.2021
997 Clouds 24 1012 73 10000 2.03 116 19:33 03.10.2021
998 Clouds 24 1012 70 10000 2.3 102 18:28 03.10.2021
999 Clouds 25 1012 67 10000 2.3 102 17:31 03.10.2021
1000 Clouds 26 1015 60 10000 0.89 135 14:49 03.10.2021
1001 Clouds 26 1015 60 10000 2.24 90 14:28 03.10.2021
1002 Clouds 26 1012 58 10000 0.45 1 13:35 03.10.2021
1003 Clouds 26 1015 57 10000 0.89 90 12:43 03.10.2021
1004 Clouds 24 1015 63 10000 0.45 90 10:57 03.10.2021
1005 Clear 21 1015 77 10000 2.24 315 09:34 03.10.2021
1006 Clouds 20 1012 87 10000 1.84 173 05:25 03.10.2021
1007 Clouds 20 1013 89 10000 1.67 106 22:49 02.10.2021
1008 Rain 20 1015 88 10000 2.24 270 21:35 02.10.2021
1009 Clouds 20 1012 91 10000 1.74 28 20:18 02.10.2021
1010 Clouds 20 1012 91 10000 1.74 28 20:18 02.10.2021
1011 Clouds 21 1018 84 10000 1.61 9 18:56 02.10.2021
1012 Clouds 21 1018 84 10000 1.61 9 18:56 02.10.2021
1013 Clouds 22 1017 85 10000 1.41 0 18:18 02.10.2021
1014 Clouds 21 1017 82 10000 1.41 0 17:36 02.10.2021
1015 Clouds 24 1012 75 10000 1.19 357 16:22 02.10.2021
1016 Clouds 21 1011 81 10000 1.86 200 06:39 02.10.2021
1017 Clouds 25 1013 70 10000 0.89 12 15:37 30.09.2021
1018 Clouds 25 1014 69 10000 1.34 7 13:54 30.09.2021
1019 Clouds 25 1015 77 10000 1.34 28 11:43 30.09.2021
1020 Clouds 24 1015 80 10000 2.65 9 10:52 30.09.2021
1021 Clouds 23 1017 81 10000 3.29 13 10:20 30.09.2021
1022 Clouds 23 1016 78 10000 1.79 45 08:30 30.09.2021
1023 Clouds 22 1016 79 10000 0.89 338 07:34 30.09.2021
1024 Clouds 23 1015 77 10000 0.45 33 05:23 30.09.2021
1025 Clear 23 1016 79 10000 4.02 270 01:41 30.09.2021
1026 Clear 23 1016 82 10000 2.24 315 00:29 30.09.2021
1027 Clear 24 1014 78 10000 0.45 299 22:38 29.09.2021
1028 Clear 23 1016 80 10000 1.79 270 21:27 29.09.2021
1029 Clear 24 1013 75 10000 2.08 342 20:28 29.09.2021
1030 Clear 24 1013 74 10000 2.08 342 19:55 29.09.2021
1031 Clear 25 1013 72 10000 2.55 341 18:52 29.09.2021
1032 Clear 25 1012 68 10000 3 345 17:52 29.09.2021
1033 Clear 26 1012 65 10000 3.26 344 16:51 29.09.2021
1034 Clear 27 1012 63 10000 0.45 34 16:21 29.09.2021
1035 Clear 27 1012 61 10000 0.89 320 14:39 29.09.2021
1036 Clouds 27 1012 61 10000 0.89 322 13:58 29.09.2021
1037 Clouds 27 1013 62 10000 0.45 304 13:22 29.09.2021
1038 Clouds 27 1013 59 10000 3.2 327 12:36 29.09.2021
1039 Clouds 26 1013 69 10000 1.85 320 10:50 29.09.2021
1040 Clouds 26 1013 69 10000 1.85 320 10:50 29.09.2021
1041 Clouds 25 1013 73 10000 1.06 299 09:58 29.09.2021
1042 Clouds 25 1013 75 10000 1.06 299 09:35 29.09.2021
1043 Clouds 22 1012 84 10000 0.52 260 07:39 29.09.2021
1044 Clouds 23 1012 83 10000 0.75 319 04:39 29.09.2021
1045 Clouds 23 1013 88 10000 1.54 5 23:29 28.09.2021
1046 Clouds 24 1013 89 10000 1.92 0 22:24 28.09.2021
1047 Clouds 24 1013 89 10000 1.92 0 21:45 28.09.2021
1048 Clouds 24 1012 89 10000 2.58 358 20:43 28.09.2021
1049 Clouds 24 1012 89 10000 2.97 353 19:46 28.09.2021
1050 Clouds 25 1011 88 10000 1.34 4 18:51 28.09.2021
1051 Clouds 25 1011 87 10000 1.34 354 18:18 28.09.2021
1052 Clouds 26 1011 80 10000 1.79 5 16:38 28.09.2021
1053 Clear 26 1011 84 10000 4.03 328 14:37 28.09.2021
1054 Clear 26 1012 79 10000 3.83 316 13:19 28.09.2021
1055 Clouds 27 1011 70 10000 0.45 334 12:21 28.09.2021
1056 Clouds 27 1011 68 10000 0.45 300 11:47 28.09.2021
1057 Clouds 27 1011 68 10000 0.89 318 11:22 28.09.2021
1058 Clouds 26 1011 69 10000 3.24 304 10:21 28.09.2021
1059 Clouds 26 1011 69 10000 3.24 304 10:21 28.09.2021
1060 Clouds 26 1012 69 10000 0.89 13 10:21 28.09.2021
1061 Clouds 25 1011 74 10000 3.11 306 09:18 28.09.2021
1062 Clouds 25 1011 78 10000 3.11 306 08:39 28.09.2021
1063 Clouds 24 1011 80 10000 2.59 305 07:49 28.09.2021
1064 Clouds 24 1011 77 10000 0.45 281 05:41 28.09.2021
1065 Clouds 26 1011 75 10000 3.41 280 01:26 28.09.2021
1066 Clouds 26 1011 79 10000 3.09 248 00:26 28.09.2021
1067 Clouds 26 1012 75 10000 3.09 248 23:42 27.09.2021
1068 Clouds 26 1012 74 10000 0.45 353 23:22 27.09.2021
1069 Clouds 26 1011 69 10000 1.69 252 22:19 27.09.2021
1070 Clouds 26 1013 74 10000 1.79 248 20:45 27.09.2021
1071 Clouds 26 1013 74 10000 1.79 225 20:23 27.09.2021
1072 Clouds 26 1013 78 10000 2.24 315 19:30 27.09.2021
1073 Clouds 26 1013 78 10000 2.24 270 18:52 27.09.2021
1074 Clouds 27 1011 76 10000 0.51 267 17:33 27.09.2021
1075 Clouds 27 1011 75 10000 0.59 291 16:51 27.09.2021
1076 Clouds 28 1014 70 10000 0.89 180 15:46 27.09.2021
1077 Clouds 28 1014 71 10000 0.89 180 15:27 27.09.2021
1078 Clouds 28 1015 64 10000 0.45 90 13:35 27.09.2021
1079 Clouds 27 1015 69 10000 1.34 1 12:20 27.09.2021
1080 Clouds 26 1015 72 10000 1.34 90 10:42 27.09.2021
1081 Clouds 26 1012 86 10000 1.03 247 09:31 27.09.2021
1082 Clouds 23 1015 85 10000 1.97 136 06:33 27.09.2021
1083 Clouds 24 1016 81 10000 0.89 270 03:29 27.09.2021
1084 Clouds 25 1014 80 10000 2.66 225 23:41 26.09.2021
1085 Clouds 25 1015 78 10000 1.98 290 21:55 26.09.2021
1086 Clouds 25 1017 80 10000 0.45 90 21:26 26.09.2021
1087 Clouds 25 1017 79 10000 0.89 90 20:24 26.09.2021
1088 Clouds 25 1017 79 10000 1.34 90 19:53 26.09.2021
1089 Clouds 26 1017 79 10000 0.89 45 18:52 26.09.2021
1090 Clouds 26 1018 77 10000 0.45 15 17:59 26.09.2021
1091 Clouds 26 1015 76 10000 1.34 22 17:37 26.09.2021
1092 Clouds 27 1015 73 10000 1.34 4 17:18 26.09.2021
1093 Clouds 28 1017 67 10000 0.45 14 16:22 26.09.2021
1094 Clouds 28 1017 64 10000 0.89 2 15:22 26.09.2021
1095 Clouds 28 1018 66 10000 1.34 359 14:18 26.09.2021
1096 Clouds 28 1018 66 10000 1.79 2 13:42 26.09.2021
1097 Clouds 28 1018 64 10000 1.34 352 12:26 26.09.2021
1098 Clouds 28 1018 63 10000 0.45 90 11:53 26.09.2021
1099 Clouds 27 1018 68 10000 0.45 90 10:59 26.09.2021
1100 Clouds 26 1018 75 10000 0.89 90 09:38 26.09.2021
1101 Clouds 24 1018 80 10000 0.89 90 08:41 26.09.2021
1102 Clouds 25 1016 77 10000 1.7 134 00:29 26.09.2021
1103 Clouds 25 1015 77 10000 1.7 134 23:43 25.09.2021
1104 Clouds 25 1016 78 10000 2.07 130 22:39 25.09.2021
1105 Clear 25 1016 78 10000 1.44 118 22:18 25.09.2021
1106 Clear 25 1016 78 10000 1.44 118 22:18 25.09.2021
1107 Clear 25 1016 77 10000 1.44 118 21:40 25.09.2021
1108 Clouds 26 1015 75 10000 2 118 20:52 25.09.2021
1109 Clear 26 1015 74 10000 1.69 115 19:40 25.09.2021
1110 Clear 27 1015 71 10000 1.35 81 18:28 25.09.2021
1111 Clear 28 1014 68 10000 1.94 72 17:23 25.09.2021
1112 Clear 29 1017 64 10000 0.89 135 14:38 25.09.2021
1113 Clear 29 1017 62 10000 0.89 90 13:55 25.09.2021
1114 Clear 28 1017 62 10000 0.89 135 12:45 25.09.2021
1115 Clear 27 1017 64 10000 0.89 135 11:27 25.09.2021
1116 Clear 26 1017 69 10000 0.89 90 10:18 25.09.2021
1117 Clear 24 1017 77 10000 0.45 90 08:55 25.09.2021
1118 Clouds 23 1014 81 10000 2.04 131 07:47 25.09.2021
1119 Clear 23 1014 79 10000 2.1 123 00:52 25.09.2021
1120 Clear 24 1014 76 10000 2.91 122 22:18 24.09.2021
1121 Clear 24 1014 75 10000 2.91 122 21:32 24.09.2021
1122 Clear 24 1014 75 10000 3.04 115 20:32 24.09.2021
1123 Clear 25 1014 73 10000 2.65 106 19:31 24.09.2021
1124 Clear 26 1013 69 10000 1.62 79 18:20 24.09.2021
1125 Clear 26 1013 67 10000 1.63 79 17:50 24.09.2021
1126 Clear 27 1013 66 10000 1.63 79 17:31 24.09.2021
1127 Clear 27 1016 65 10000 0.45 90 15:39 24.09.2021
1128 Clear 27 1016 64 10000 1.34 90 13:27 24.09.2021
1129 Clear 26 1016 66 10000 0.89 135 12:43 24.09.2021
1130 Clear 26 1016 66 10000 0.89 90 12:25 24.09.2021
1131 Clear 25 1022 66 10000 0.89 135 10:53 24.09.2021
1132 Clear 24 1022 69 10000 1.34 180 09:55 24.09.2021
1133 Clear 22 1020 72 10000 1.86 137 08:21 24.09.2021
1134 Clear 20 1021 78 10000 0.45 270 06:59 24.09.2021
1135 Clear 20 1020 78 10000 2.06 113 05:57 24.09.2021
1136 Clear 20 1020 78 10000 0.45 270 05:57 24.09.2021
1137 Clear 22 1020 70 10000 1.56 144 03:56 24.09.2021
1138 Clear 22 1022 70 10000 2.04 124 22:38 23.09.2021
1139 Clear 22 1022 69 10000 2.65 103 21:59 23.09.2021
1140 Clear 22 1022 69 10000 2.65 103 21:59 23.09.2021
1141 Clear 22 1022 68 10000 0.89 90 21:20 23.09.2021
1142 Clear 22 1022 68 10000 0.89 90 21:20 23.09.2021
1143 Clear 24 1020 63 10000 2.75 86 20:32 23.09.2021
1144 Clear 24 1021 64 10000 1.79 90 18:36 23.09.2021
1145 Clear 25 1021 60 10000 1.34 135 16:39 23.09.2021
1146 Clear 26 1021 58 10000 0.89 180 15:19 23.09.2021
1147 Clear 26 1021 59 10000 2.68 180 14:52 23.09.2021
1148 Clear 26 1021 62 10000 3.58 135 13:27 23.09.2021
1149 Clear 25 1021 63 10000 4.02 135 12:57 23.09.2021
1150 Clear 26 1021 63 10000 3.58 90 12:37 23.09.2021
1151 Clear 26 1021 61 10000 2.68 180 12:18 23.09.2021
1152 Clear 26 1019 65 10000 1.27 27 10:31 23.09.2021
1153 Clear 24 1021 72 10000 1.79 90 09:57 23.09.2021
1154 Clear 25 1019 71 10000 1.16 32 09:38 23.09.2021
1155 Clouds 22 1019 82 10000 1.28 87 06:24 23.09.2021
1156 Clouds 22 1019 77 10000 1.31 36 00:21 23.09.2021
1157 Clouds 24 1018 74 10000 1.1 181 22:52 22.09.2021
1158 Clouds 24 1018 75 10000 1.99 151 22:20 22.09.2021
1159 Clouds 24 1018 76 10000 1.99 151 21:44 22.09.2021
1160 Clouds 24 1018 76 10000 2.53 92 20:58 22.09.2021
1161 Clouds 25 1018 74 10000 2.69 70 19:53 22.09.2021
1162 Clouds 25 1018 72 10000 2.24 60 19:27 22.09.2021
1163 Clouds 24 1019 78 10000 2.68 90 18:34 22.09.2021
1164 Clouds 26 1019 69 10000 3.58 292 17:33 22.09.2021
1165 Clouds 27 1018 65 10000 0.45 225 15:51 22.09.2021
1166 Clouds 28 1019 66 10000 0.89 90 14:28 22.09.2021
1167 Clouds 27 1020 72 10000 0.45 90 13:19 22.09.2021
1168 Clouds 27 1020 72 10000 0.45 90 13:19 22.09.2021
1169 Clouds 25 1021 76 10000 1.79 135 11:20 22.09.2021
1170 Clouds 26 1019 73 10000 3.18 98 09:32 22.09.2021
1171 Clouds 24 1020 79 10000 0.89 90 08:45 22.09.2021
1172 Clouds 24 1020 79 10000 0.89 90 08:45 22.09.2021
1173 Clouds 24 1019 76 10000 1.86 104 07:34 22.09.2021
1174 Clouds 23 1020 81 10000 1.36 103 06:51 22.09.2021
1175 Clouds 23 1020 81 10000 1.96 81 05:48 22.09.2021
1176 Clouds 24 1019 74 10000 2.08 76 04:20 22.09.2021
1177 Clouds 24 1019 73 10000 2.67 82 03:23 22.09.2021
1178 Clouds 23 1021 77 10000 2.69 103 23:54 21.09.2021
1179 Clouds 24 1021 76 10000 0.89 90 22:26 21.09.2021
1180 Clouds 25 1020 72 10000 4.19 105 20:43 21.09.2021
1181 Clouds 24 1020 73 10000 2.24 90 19:37 21.09.2021
1182 Clouds 26 1019 69 10000 3.39 95 19:18 21.09.2021
1183 Clear 27 1019 66 10000 3.61 68 16:48 21.09.2021
1184 Clear 26 1021 70 10000 2.68 135 15:57 21.09.2021
1185 Clear 27 1021 68 10000 0.89 135 14:59 21.09.2021
1186 Clear 27 1021 66 10000 1.34 135 14:40 21.09.2021
1187 Clear 27 1021 67 10000 0.89 90 13:40 21.09.2021
1188 Clear 27 1021 67 10000 0.89 135 12:45 21.09.2021
1189 Clear 26 1019 54 10000 2.42 80 10:44 21.09.2021
1190 Clear 25 1019 60 10000 2.29 90 09:28 21.09.2021
1191 Clear 23 1019 64 10000 2.33 89 07:40 21.09.2021
1192 Clear 21 1017 63 10000 1.65 70 05:18 21.09.2021
1193 Clouds 25 1018 61 10000 2.26 99 23:51 20.09.2021
1194 Clouds 25 1019 63 10000 1.98 27 21:52 20.09.2021
1195 Clouds 25 1019 63 10000 1.98 27 21:32 20.09.2021
1196 Clouds 25 1018 70 10000 2.32 27 19:55 20.09.2021
1197 Clouds 26 1017 70 10000 2.73 67 18:37 20.09.2021
1198 Clouds 25 1018 73 10000 3.03 49 17:30 20.09.2021
1199 Clouds 25 1018 72 10000 0.89 270 16:26 20.09.2021
1200 Clouds 26 1018 73 10000 0.89 270 15:47 20.09.2021
1201 Clouds 26 1018 73 10000 0.45 90 14:50 20.09.2021
1202 Clouds 27 1018 70 10000 0.89 315 12:53 20.09.2021
1203 Clouds 26 1018 71 10000 0.89 315 12:29 20.09.2021
1204 Clear 26 1018 76 10000 1.34 315 10:57 20.09.2021
1205 Clear 26 1018 63 10000 2.73 292 09:52 20.09.2021
1206 Clear 26 1018 62 10000 0.45 315 09:33 20.09.2021
1207 Clear 25 1017 62 10000 1.34 225 08:55 20.09.2021
1208 Clear 23 1016 63 10000 1.79 315 06:34 20.09.2021
1209 Clear 24 1017 82 10000 3.13 315 23:28 19.09.2021
1210 Clear 25 1016 81 10000 2.43 274 21:53 19.09.2021
1211 Clear 26 1016 81 10000 2.11 284 21:21 19.09.2021
1212 Clear 26 1016 82 10000 2.11 284 20:32 19.09.2021
1213 Clear 27 1014 79 10000 2.39 302 18:54 19.09.2021
1214 Clear 27 1014 80 10000 2.99 309 17:57 19.09.2021
1215 Clear 27 1016 80 10000 1.79 270 16:52 19.09.2021
1216 Clear 28 1015 73 10000 1.34 270 15:44 19.09.2021
1217 Clear 29 1015 69 10000 0.89 135 14:49 19.09.2021
1218 Clear 29 1015 67 10000 0.45 90 14:24 19.09.2021
1219 Clear 28 1015 69 10000 0.89 68 12:56 19.09.2021
1220 Clear 28 1015 70 10000 0.89 135 12:30 19.09.2021
1221 Clear 28 1015 67 10000 0.89 180 11:25 19.09.2021
1222 Clear 27 1015 67 10000 1.34 270 09:52 19.09.2021
1223 Clear 27 1015 70 10000 0.89 225 09:26 19.09.2021
1224 Clouds 24 1015 87 10000 0.45 315 06:49 19.09.2021
1225 Clouds 26 1015 72 10000 1.22 191 01:39 19.09.2021
1226 Clouds 27 1015 63 10000 2.68 270 23:25 18.09.2021
1227 Clouds 26 1014 60 10000 0.45 270 21:58 18.09.2021
1228 Clouds 27 1014 63 10000 0.89 45 20:48 18.09.2021
1229 Clouds 28 1013 61 10000 1.87 81 19:58 18.09.2021
1230 Clouds 27 1014 75 10000 1.87 81 19:37 18.09.2021
1231 Clouds 27 1014 75 10000 3.05 343 19:19 18.09.2021
1232 Clouds 27 1015 71 10000 3.05 343 18:30 18.09.2021
1233 Clouds 28 1014 67 10000 0.89 270 17:22 18.09.2021
1234 Clouds 29 1015 57 10000 2.68 0 15:45 18.09.2021
1235 Clouds 30 1014 57 10000 1.61 152 13:46 18.09.2021
1236 Clouds 31 1014 58 10000 1.16 150 13:24 18.09.2021
1237 Clouds 30 1015 48 10000 0.89 158 12:23 18.09.2021
1238 Clouds 29 1016 49 10000 1.79 270 11:31 18.09.2021
1239 Clouds 29 1016 49 10000 1.79 270 11:30 18.09.2021
1240 Clouds 28 1015 65 10000 0.89 112 10:31 18.09.2021
1241 Clouds 27 1015 60 10000 0.89 45 09:24 18.09.2021
1242 Clouds 26 1014 71 10000 2.38 146 08:28 18.09.2021
1243 Clouds 29 1014 44 10000 2.68 221 00:53 18.09.2021
1244 Clouds 29 1014 45 10000 2.14 200 23:56 17.09.2021
1245 Clouds 28 1015 45 10000 0.45 248 22:54 17.09.2021
1246 Clouds 28 1014 40 10000 2.5 155 22:25 17.09.2021
1247 Clouds 28 1016 47 10000 0.45 270 21:33 17.09.2021
1248 Clouds 27 1016 60 10000 3.91 154 19:52 17.09.2021
1249 Clouds 28 1016 59 10000 0.45 90 18:42 17.09.2021
1250 Clouds 30 1015 47 10000 0.45 90 16:47 17.09.2021
1251 Clouds 31 1015 42 10000 1.1 353 15:25 17.09.2021
1252 Clouds 31 1017 42 10000 0.45 180 11:53 17.09.2021
1253 Clouds 29 1017 45 10000 0.38 253 10:23 17.09.2021
1254 Clouds 29 1015 27 10000 1.13 269 07:48 17.09.2021
1255 Clouds 27 1014 41 10000 3.76 176 06:27 17.09.2021
1256 Clouds 27 1017 41 10000 4.53 167 00:33 17.09.2021
1257 Clouds 25 1019 60 10000 0.45 90 22:42 16.09.2021
1258 Clouds 25 1019 60 10000 2.14 152 22:24 16.09.2021
1259 Clouds 25 1020 58 10000 0.45 315 21:35 16.09.2021
1260 Clouds 26 1018 67 10000 2.12 145 20:30 16.09.2021
1261 Clouds 27 1020 55 10000 1.22 146 18:52 16.09.2021
1262 Clouds 29 1020 47 10000 0.89 270 18:19 16.09.2021
1263 Clouds 29 1020 52 10000 1.34 156 16:47 16.09.2021
1264 Clouds 29 1020 41 10000 0.89 158 14:51 16.09.2021
1265 Clouds 29 1020 40 10000 0.89 135 13:40 16.09.2021
1266 Clouds 29 1020 42 10000 1.34 135 12:46 16.09.2021
1267 Clouds 28 1020 43 10000 0.89 180 11:50 16.09.2021
1268 Clouds 28 1021 44 10000 0.89 90 10:56 16.09.2021
1269 Clouds 27 1021 46 10000 0.89 90 10:23 16.09.2021
1270 Clouds 27 1021 48 10000 0.45 90 09:31 16.09.2021
1271 Clouds 23 1021 50 10000 2.14 128 07:59 16.09.2021
1272 Clouds 23 1019 56 10000 1.45 154 06:58 16.09.2021
1273 Clouds 23 1019 57 10000 1.45 154 06:38 16.09.2021
1274 Clouds 22 1021 58 10000 0.45 292 03:22 16.09.2021
1275 Clouds 23 1020 63 10000 2.09 120 00:58 16.09.2021
1276 Clouds 23 1022 60 10000 0.45 270 23:30 15.09.2021
1277 Clouds 24 1021 66 10000 0.74 142 22:39 15.09.2021
1278 Clouds 24 1020 66 10000 1.29 164 21:31 15.09.2021
1279 Clouds 24 1020 68 10000 0.9 143 20:49 15.09.2021
1280 Clouds 24 1021 74 10000 0.87 107 19:33 15.09.2021
1281 Clouds 25 1021 71 10000 0.45 90 18:53 15.09.2021
1282 Clouds 26 1021 60 10000 0.45 315 17:42 15.09.2021
1283 Clouds 27 1021 55 10000 2.05 322 16:43 15.09.2021
1284 Clouds 27 1021 55 10000 2.05 322 16:43 15.09.2021
1285 Clouds 27 1020 56 10000 0.89 90 15:22 15.09.2021
1286 Clouds 28 1020 57 10000 0.89 90 14:42 15.09.2021
1287 Clouds 27 1021 62 10000 0.45 315 13:47 15.09.2021
1288 Clouds 27 1021 62 10000 0.89 180 13:28 15.09.2021
1289 Clouds 27 1021 58 10000 0.89 135 12:33 15.09.2021
1290 Clouds 26 1022 62 10000 1.34 135 11:51 15.09.2021
1291 Clouds 26 1022 62 10000 1.34 135 11:51 15.09.2021
1292 Clouds 26 1022 62 10000 0.45 90 10:58 15.09.2021
1293 Clouds 26 1022 63 10000 0.89 90 10:35 15.09.2021
1294 Clouds 24 1022 62 10000 0.89 90 08:51 15.09.2021
1295 Clouds 22 1022 63 10000 0.89 180 07:26 15.09.2021
1296 Clouds 23 1019 72 10000 1.81 138 02:21 15.09.2021
1297 Clouds 23 1020 73 10000 2.45 116 22:26 14.09.2021
1298 Clouds 23 1021 76 10000 1.73 99 21:26 14.09.2021
1299 Clouds 24 1019 71 10000 1.79 85 20:21 14.09.2021
1300 Clouds 25 1019 70 10000 2.06 61 19:23 14.09.2021
1301 Clouds 26 1018 66 10000 2.6 48 17:33 14.09.2021
1302 Clouds 26 1020 66 10000 2.24 135 16:43 14.09.2021
1303 Clear 26 1020 63 10000 0.45 90 15:24 14.09.2021
1304 Clear 27 1020 59 10000 1.34 90 14:19 14.09.2021
1305 Clear 26 1021 61 10000 0.89 180 11:47 14.09.2021
1306 Clear 25 1021 66 10000 2.24 90 10:44 14.09.2021
1307 Clear 25 1019 68 10000 1.33 85 09:49 14.09.2021
1308 Clear 21 1020 84 10000 0.45 90 07:53 14.09.2021
1309 Clear 23 1019 75 10000 0.91 59 02:20 14.09.2021
1310 Clear 24 1019 74 10000 0.24 317 23:29 13.09.2021
1311 Clear 24 1019 77 10000 0.47 13 22:28 13.09.2021
1312 Clear 24 1019 77 10000 0.47 13 21:56 13.09.2021
1313 Clear 23 1020 80 10000 0.45 315 21:32 13.09.2021
1314 Clear 24 1017 74 10000 1.56 1 19:38 13.09.2021
1315 Clear 25 1017 72 10000 1.92 16 18:45 13.09.2021
1316 Clear 26 1017 71 10000 2.72 3 17:28 13.09.2021
1317 Clear 26 1017 71 10000 2.72 3 16:49 13.09.2021
1318 Clear 26 1019 69 10000 2.68 315 14:45 13.09.2021
1319 Clear 26 1019 70 10000 2.68 225 11:44 13.09.2021
1320 Clear 25 1019 70 10000 2.24 270 10:40 13.09.2021
1321 Clear 23 1018 79 10000 2.24 225 08:23 13.09.2021
1322 Clear 23 1017 78 10000 1.79 270 00:34 13.09.2021
1323 Clear 23 1018 78 10000 0.45 315 22:51 12.09.2021
1324 Clear 23 1017 78 10000 0.45 248 22:22 12.09.2021
1325 Clear 23 1017 76 10000 1.79 270 20:53 12.09.2021
1326 Clear 23 1017 76 10000 1.34 315 20:19 12.09.2021
1327 Clear 25 1015 71 10000 2.42 344 19:30 12.09.2021
1328 Clear 25 1015 70 10000 2.77 346 18:55 12.09.2021
1329 Clear 26 1014 69 10000 3.71 353 17:18 12.09.2021
1330 Clear 25 1016 69 10000 2.24 315 15:54 12.09.2021
1331 Clear 27 1015 67 10000 4.22 345 14:39 12.09.2021
1332 Clear 26 1015 70 10000 3.84 335 12:39 12.09.2021
1333 Clear 26 1015 69 10000 2.81 334 10:30 12.09.2021
1334 Clear 23 1016 80 10000 1.79 315 08:39 12.09.2021
1335 Clouds 21 1016 81 10000 0.89 315 07:26 12.09.2021
1336 Clouds 22 1016 78 10000 5.2 28 00:47 12.09.2021
1337 Clouds 22 1016 86 10000 0.45 0 22:39 11.09.2021
1338 Clouds 22 1016 81 10000 1.79 270 21:39 11.09.2021
1339 Clouds 23 1013 73 10000 2.84 17 19:39 11.09.2021
1340 Clouds 24 1012 76 10000 1.79 11 17:57 11.09.2021
1341 Clouds 23 1014 81 10000 1.34 45 17:27 11.09.2021
1342 Clouds 24 1013 80 10000 0.45 90 15:35 11.09.2021
1343 Clouds 26 1013 78 10000 2.33 236 13:22 11.09.2021
1344 Rain 23 1013 63 10000 2.53 226 11:41 11.09.2021
1345 Clouds 26 1014 73 10000 3.63 211 10:27 11.09.2021
1346 Clear 24 1015 78 10000 0.89 90 08:42 11.09.2021
1347 Clouds 23 1014 80 10000 3.46 202 07:43 11.09.2021
1348 Clouds 22 1016 84 10000 0.89 292 04:23 11.09.2021
1349 Rain 23 1016 84 10000 3.51 118 22:37 10.09.2021
1350 Rain 22 1018 86 10000 0.45 0 21:57 10.09.2021
1351 Rain 23 1016 82 10000 3.49 115 21:36 10.09.2021
1352 Clouds 25 1016 72 10000 3.01 88 19:30 10.09.2021
1353 Clouds 25 1016 72 10000 3.01 88 19:30 10.09.2021
1354 Clouds 25 1015 71 10000 1.41 43 17:54 10.09.2021
1355 Clouds 24 1016 79 10000 3.58 90 16:27 10.09.2021
1356 Clouds 29 1015 49 10000 1.76 20 13:26 10.09.2021
1357 Clouds 24 1018 64 10000 0.45 45 10:32 10.09.2021
1358 Clouds 23 1016 64 10000 1.68 151 07:52 10.09.2021
1359 Clouds 23 1015 65 10000 1.74 130 06:37 10.09.2021
1360 Clouds 24 1016 63 10000 2.71 117 23:59 09.09.2021
1361 Clouds 24 1018 66 10000 2.58 130 21:49 09.09.2021
1362 Clear 25 1016 61 10000 2.4 128 20:48 09.09.2021
1363 Clouds 25 1015 61 10000 2.57 112 20:26 09.09.2021
1364 Clouds 26 1015 57 10000 1.63 128 18:41 09.09.2021
1365 Clouds 27 1015 58 10000 1.29 114 17:47 09.09.2021
1366 Clouds 26 1017 58 10000 2.24 90 16:28 09.09.2021
1367 Clouds 27 1016 56 10000 1.13 166 15:24 09.09.2021
1368 Clouds 26 1018 47 10000 0.45 90 12:24 09.09.2021
1369 Clouds 27 1016 50 10000 2.98 95 11:22 09.09.2021
1370 Clouds 25 1017 57 10000 1.05 74 09:35 09.09.2021
1371 Clear 21 1018 66 10000 1.46 185 07:45 09.09.2021
1372 Clear 21 1017 67 10000 1.9 194 05:47 09.09.2021
1373 Clouds 22 1019 70 10000 0.45 90 00:33 09.09.2021
1374 Clouds 23 1017 65 10000 2.04 91 21:49 08.09.2021
1375 Clouds 23 1019 69 10000 0.89 90 20:49 08.09.2021
1376 Clouds 24 1017 61 10000 0.58 320 19:46 08.09.2021
1377 Clouds 25 1017 60 10000 0.34 292 18:47 08.09.2021
1378 Clouds 26 1017 63 10000 1.48 337 18:25 08.09.2021
1379 Clouds 26 1017 65 10000 1.48 337 17:40 08.09.2021
1380 Clouds 26 1017 61 10000 3.05 10 15:35 08.09.2021
1381 Clouds 26 1020 56 10000 1.34 90 13:45 08.09.2021
1382 Clouds 26 1020 52 10000 0.89 315 12:41 08.09.2021
1383 Clouds 26 1020 55 10000 1.34 135 12:23 08.09.2021
1384 Clouds 25 1020 58 10000 0.89 90 11:26 08.09.2021
1385 Clouds 26 1019 57 10000 0.5 140 10:31 08.09.2021
1386 Clouds 26 1019 61 10000 0.5 140 09:56 08.09.2021
1387 Clouds 21 1020 74 10000 1.25 196 07:45 08.09.2021
1388 Clouds 21 1020 75 10000 0.89 248 07:19 08.09.2021
1389 Clouds 22 1021 74 10000 0.45 90 23:32 07.09.2021
1390 Clear 23 1021 73 10000 2.01 86 22:19 07.09.2021
1391 Clear 23 1020 70 10000 2.34 72 20:42 07.09.2021
1392 Clear 25 1018 62 10000 3.55 52 19:26 07.09.2021
1393 Clear 26 1018 59 10000 3.55 52 18:37 07.09.2021
1394 Clear 26 1018 58 10000 3.94 48 17:35 07.09.2021
1395 Clear 27 1018 53 10000 4.39 36 15:57 07.09.2021
1396 Clear 27 1018 57 10000 4.01 34 14:53 07.09.2021
1397 Clear 27 1019 61 10000 3.69 34 13:52 07.09.2021
1398 Clear 25 1021 68 10000 0.89 90 12:20 07.09.2021
1399 Clear 26 1019 68 10000 1.63 47 10:59 07.09.2021
1400 Clear 25 1019 70 10000 1.59 51 10:18 07.09.2021
1401 Clear 22 1020 80 10000 0.45 90 07:47 07.09.2021
1402 Clear 23 1018 72 10000 0.86 31 06:20 07.09.2021
1403 Clear 23 1019 75 10000 1.65 18 02:39 07.09.2021
1404 Clear 22 1020 80 10000 1.79 359 02:19 07.09.2021
1405 Clear 23 1021 78 10000 1.65 17 23:52 06.09.2021
1406 Clear 23 1021 78 10000 1.17 29 23:31 06.09.2021
1407 Clear 24 1019 74 10000 1.17 29 22:51 06.09.2021
1408 Clear 23 1020 76 10000 1.49 38 22:21 06.09.2021
1409 Clear 24 1020 78 10000 1.95 44 20:36 06.09.2021
1410 Clear 25 1019 75 10000 3.01 24 19:20 06.09.2021
1411 Clear 26 1018 71 10000 3.01 24 18:36 06.09.2021
1412 Clear 27 1017 68 10000 3.26 12 17:52 06.09.2021
1413 Clear 27 1017 67 10000 3.35 360 16:23 06.09.2021
1414 Clear 27 1019 67 10000 1.34 315 15:25 06.09.2021
1415 Clear 27 1018 65 10000 3.21 0 13:44 06.09.2021
1416 Clear 27 1018 66 10000 3.05 1 12:45 06.09.2021
1417 Clear 25 1018 75 10000 2.27 4 10:36 06.09.2021
1418 Clear 23 1018 84 10000 2.03 4 07:48 06.09.2021
1419 Clear 23 1018 84 10000 2.24 270 04:36 06.09.2021
1420 Clear 24 1019 80 10000 2.34 13 23:23 05.09.2021
1421 Clear 25 1017 76 10000 2.34 13 22:33 05.09.2021
1422 Clear 24 1018 79 10000 0.89 315 21:56 05.09.2021
1423 Clear 24 1018 78 10000 0.89 315 21:21 05.09.2021
1424 Clear 25 1015 74 10000 3.34 349 19:45 05.09.2021
1425 Clear 27 1015 73 10000 3.97 336 17:53 05.09.2021
1426 Clear 26 1016 73 10000 4.92 315 16:33 05.09.2021
1427 Clear 26 1016 73 10000 1.79 315 15:21 05.09.2021
1428 Clear 27 1017 75 10000 0.89 315 12:45 05.09.2021
1429 Clear 28 1015 73 10000 3.14 329 11:44 05.09.2021
1430 Clear 27 1015 69 10000 2.74 322 10:42 05.09.2021
1431 Clear 27 1015 72 10000 2.5 311 09:35 05.09.2021
1432 Clear 26 1015 76 10000 2.57 296 08:35 05.09.2021
1433 Clear 24 1014 79 10000 2.53 266 06:33 05.09.2021
1434 Clear 23 1015 87 10000 2.68 315 00:41 05.09.2021
1435 Clear 23 1016 88 10000 0.89 315 23:59 04.09.2021
1436 Clear 25 1015 79 10000 0.03 151 23:25 04.09.2021
1437 Clear 25 1015 77 10000 0.03 151 22:35 04.09.2021
1438 Clear 24 1016 81 10000 0.89 90 21:18 04.09.2021
1439 Clouds 27 1014 73 10000 0.9 164 19:33 04.09.2021
1440 Clouds 28 1013 69 10000 0.64 122 17:25 04.09.2021
1441 Clouds 29 1013 63 10000 0.38 350 15:41 04.09.2021
1442 Clouds 27 1015 62 10000 1.13 219 11:54 04.09.2021
1443 Clouds 25 1015 66 10000 2.24 315 10:55 04.09.2021
1444 Rain 18 1019 97 10000 2.68 135 08:18 04.09.2021
1445 Clouds 25 1018 71 10000 1.79 135 00:50 04.09.2021
1446 Clouds 25 1018 69 10000 0.89 90 00:19 04.09.2021
1447 Clouds 26 1019 69 10000 1.98 219 23:22 03.09.2021
1448 Clear 26 1017 67 10000 1.76 150 21:43 03.09.2021
1449 Clouds 26 1016 67 10000 0.89 90 21:23 03.09.2021
1450 Clouds 26 1017 68 10000 0.89 90 20:30 03.09.2021
1451 Clear 26 1016 68 10000 1.34 45 19:38 03.09.2021
1452 Clear 28 1016 62 10000 2.15 73 18:33 03.09.2021
1453 Clear 28 1018 66 10000 0.89 135 17:21 03.09.2021
1454 Clear 29 1018 64 10000 0.89 135 15:42 03.09.2021
1455 Clear 29 1019 62 10000 1.79 90 14:40 03.09.2021
1456 Clouds 30 1019 48 10000 0.86 43 11:21 03.09.2021
1457 Clouds 27 1018 65 10000 0.45 90 10:18 03.09.2021
1458 Clouds 25 1018 76 10000 1.39 136 08:22 03.09.2021
1459 Clouds 24 1018 75 10000 0.59 218 06:50 03.09.2021
1460 Clear 26 1020 68 10000 2.2 137 23:58 02.09.2021
1461 Clear 26 1020 66 10000 1.95 116 22:21 02.09.2021
1462 Clear 26 1020 66 10000 2.23 109 20:59 02.09.2021
1463 Clear 28 1019 59 10000 1.6 57 18:52 02.09.2021
1464 Clear 29 1019 56 10000 2.33 27 16:57 02.09.2021
1465 Clear 28 1021 61 10000 0.89 90 15:32 02.09.2021
1466 Clear 28 1021 60 10000 3.13 135 13:42 02.09.2021
1467 Clear 28 1019 59 10000 1.94 56 11:46 02.09.2021
1468 Clear 28 1020 60 10000 2.1 83 11:24 02.09.2021
1469 Clear 26 1021 70 10000 1.34 90 09:20 02.09.2021
1470 Clouds 24 1019 71 10000 1.68 123 07:36 02.09.2021
1471 Clouds 23 1021 77 10000 3.47 120 06:40 02.09.2021
1472 Clear 24 1020 74 10000 0.89 90 02:38 02.09.2021
1473 Clear 24 1020 73 10000 2.65 113 01:50 02.09.2021
1474 Clear 24 1021 70 10000 3.67 113 23:41 01.09.2021
1475 Clear 25 1020 70 10000 0.45 90 23:23 01.09.2021
1476 Clear 25 1020 70 10000 3.41 107 22:30 01.09.2021
1477 Clear 25 1020 70 10000 3.41 107 22:30 01.09.2021
1478 Clear 25 1020 68 10000 3.19 104 21:32 01.09.2021
1479 Clouds 26 1019 62 10000 1.79 90 19:37 01.09.2021
1480 Clouds 28 1019 52 10000 2.68 180 17:55 01.09.2021
1481 Clouds 28 1019 52 10000 1.79 135 16:59 01.09.2021
1482 Clouds 28 1019 52 10000 4.02 135 16:36 01.09.2021
1483 Clear 29 1019 51 10000 3.13 135 15:18 01.09.2021
1484 Clouds 28 1020 48 10000 1.79 45 11:48 01.09.2021
1485 Clouds 28 1019 54 10000 2.84 94 10:39 01.09.2021
1486 Clouds 26 1018 68 10000 3.11 87 08:42 01.09.2021
1487 Clouds 23 1018 71 10000 1.76 100 06:59 01.09.2021
1488 Clear 25 1017 70 10000 1.29 141 23:33 31.08.2021
1489 Clear 25 1017 69 10000 1.58 117 22:23 31.08.2021
1490 Clear 26 1016 66 10000 1.44 50 20:19 31.08.2021
1491 Clear 26 1016 65 10000 1.66 60 19:43 31.08.2021
1492 Clear 27 1017 63 10000 1.34 135 17:52 31.08.2021
1493 Clear 27 1017 62 10000 0.89 315 17:26 31.08.2021
1494 Clear 27 1017 62 10000 1.79 270 16:41 31.08.2021
1495 Clear 28 1017 54 10000 2.97 332 15:39 31.08.2021
1496 Clear 27 1018 53 10000 3.58 292 12:43 31.08.2021
1497 Clear 27 1018 52 10000 0.89 90 11:20 31.08.2021
1498 Clear 27 1018 52 10000 3.58 90 10:43 31.08.2021
1499 Clear 25 1017 57 10000 0.54 97 09:41 31.08.2021
1500 Clear 23 1018 65 10000 1.01 174 07:57 31.08.2021
1501 Clear 23 1016 66 10000 0.6 223 05:57 31.08.2021
1502 Clear 24 1016 62 10000 0.71 193 23:36 30.08.2021
1503 Clear 23 1018 64 10000 0.89 90 22:52 30.08.2021
1504 Clear 24 1017 63 10000 0.49 114 21:38 30.08.2021
1505 Clear 25 1016 59 10000 0.6 82 20:41 30.08.2021
1506 Clear 26 1015 57 10000 0.96 354 19:54 30.08.2021
1507 Clear 27 1014 56 10000 1.65 343 19:24 30.08.2021
1508 Clear 26 1016 53 10000 1.79 90 17:51 30.08.2021
1509 Clear 27 1015 51 10000 0.45 90 16:29 30.08.2021
1510 Clear 27 1015 51 10000 1.34 292 15:45 30.08.2021
1511 Clouds 27 1015 49 10000 0.89 315 13:59 30.08.2021
1512 Clouds 27 1015 49 10000 0.45 45 13:21 30.08.2021
1513 Clouds 27 1016 51 10000 3.13 90 11:29 30.08.2021
1514 Clear 22 1013 64 10000 0.35 41 04:57 30.08.2021
1515 Clear 23 1014 66 10000 0.89 292 21:57 29.08.2021
1516 Clear 25 1012 62 10000 2.35 358 20:54 29.08.2021
1517 Clouds 25 1011 61 10000 3.96 339 19:28 29.08.2021
1518 Clear 27 1011 61 10000 4.44 335 18:28 29.08.2021
1519 Clear 26 1012 60 10000 1.79 315 15:58 29.08.2021
1520 Clear 27 1012 59 10000 3.58 315 14:29 29.08.2021
1521 Clear 27 1011 59 10000 2.68 270 13:55 29.08.2021
1522 Clear 26 1011 60 10000 2.68 90 12:58 29.08.2021
1523 Clear 27 1012 62 10000 4.02 292 12:18 29.08.2021
1524 Clear 27 1012 62 10000 4.02 292 12:18 29.08.2021
1525 Clear 27 1012 64 10000 3.58 315 11:40 29.08.2021
1526 Clear 27 1010 65 10000 4.76 313 10:48 29.08.2021
1527 Clear 27 1010 65 10000 4.48 302 10:29 29.08.2021
1528 Clear 27 1010 62 10000 4.48 302 09:32 29.08.2021
1529 Clear 26 1009 58 10000 4.2 224 04:19 29.08.2021
1530 Clear 26 1012 65 10000 0.89 315 22:57 28.08.2021
1531 Clear 27 1011 67 10000 0.89 270 20:33 28.08.2021
1532 Clear 28 1011 60 10000 2.24 315 19:29 28.08.2021
1533 Clear 28 1011 64 10000 4.02 292 18:24 28.08.2021
1534 Clear 28 1011 66 10000 4.92 315 17:46 28.08.2021
1535 Clear 28 1011 65 10000 5.36 315 16:44 28.08.2021
1536 Clear 29 1011 60 10000 3.13 292 15:20 28.08.2021
1537 Clear 28 1012 60 10000 4.47 315 13:58 28.08.2021
1538 Clear 29 1012 58 10000 3.58 315 13:39 28.08.2021
1539 Clear 30 1012 46 10000 3.13 315 12:30 28.08.2021
1540 Clear 29 1012 50 10000 4.2 271 10:47 28.08.2021
1541 Clear 28 1012 56 10000 3.78 258 09:48 28.08.2021
1542 Clear 26 1012 66 10000 3.35 234 07:56 28.08.2021
1543 Clouds 24 1015 59 10000 2.68 315 23:49 27.08.2021
1544 Clouds 25 1014 65 10000 3.58 315 21:29 27.08.2021
1545 Clouds 25 1014 67 10000 4.47 315 20:52 27.08.2021
1546 Clear 27 1012 62 10000 3.55 291 19:34 27.08.2021
1547 Clear 27 1012 60 10000 3.45 292 18:39 27.08.2021
1548 Clear 27 1014 58 10000 3.58 315 17:54 27.08.2021
1549 Clear 28 1013 51 10000 3.13 292 16:35 27.08.2021
1550 Clear 28 1013 59 10000 3.13 315 14:46 27.08.2021
1551 Clear 28 1013 58 10000 3.13 270 13:30 27.08.2021
1552 Clear 28 1013 54 10000 2.68 270 11:58 27.08.2021
1553 Clear 29 1013 46 10000 5.38 281 10:58 27.08.2021
1554 Clear 29 1013 49 10000 5.38 281 10:36 27.08.2021
1555 Clear 27 1012 60 10000 3.41 238 08:57 27.08.2021
1556 Clear 25 1013 66 10000 3.13 315 08:35 27.08.2021
1557 Clear 24 1012 66 10000 1.79 0 05:37 27.08.2021
1558 Clear 25 1013 70 10000 2.68 292 00:47 27.08.2021
1559 Clear 25 1013 71 10000 1.79 315 00:28 27.08.2021
1560 Clear 26 1013 75 10000 1.79 315 22:26 26.08.2021
1561 Clear 26 1013 76 10000 2.24 292 21:47 26.08.2021
1562 Clear 28 1011 68 10000 3.79 287 19:42 26.08.2021
1563 Clouds 28 1011 71 10000 3.58 315 18:26 26.08.2021
1564 Clouds 28 1011 67 10000 3.58 315 17:25 26.08.2021
1565 Clouds 29 1012 65 10000 2.68 315 16:27 26.08.2021
1566 Clouds 29 1012 64 10000 4.92 315 14:46 26.08.2021
1567 Clouds 31 1011 63 10000 1.79 270 13:20 26.08.2021
1568 Clouds 30 1011 68 10000 3.58 135 12:33 26.08.2021
1569 Clouds 30 1012 56 10000 0.45 0 11:38 26.08.2021
1570 Clouds 29 1011 57 10000 3.58 248 08:50 26.08.2021
1571 Clouds 28 1012 65 10000 0.89 270 08:19 26.08.2021
1572 Clouds 27 1013 71 10000 1.34 90 23:43 25.08.2021
1573 Clear 27 1013 72 10000 1.79 90 22:40 25.08.2021
1574 Clear 27 1014 73 10000 0.89 90 22:22 25.08.2021
1575 Clear 27 1013 72 10000 1.79 90 20:57 25.08.2021
1576 Clear 27 1013 73 10000 2.24 90 20:29 25.08.2021
1577 Clear 29 1012 67 10000 1.08 340 18:58 25.08.2021
1578 Clouds 29 1013 68 10000 1.79 90 17:53 25.08.2021
1579 Clear 30 1012 62 10000 2.24 135 15:53 25.08.2021
1580 Clear 30 1013 61 10000 4.02 135 15:32 25.08.2021
1581 Clear 30 1013 60 10000 3.58 135 14:46 25.08.2021
1582 Clear 31 1013 56 10000 1.79 90 13:53 25.08.2021
1583 Clear 30 1014 54 10000 1.34 270 11:42 25.08.2021
1584 Clear 30 1014 55 10000 1.79 90 11:18 25.08.2021
1585 Clear 29 1013 50 10000 2.68 90 09:59 25.08.2021
1586 Clear 28 1013 51 10000 2.68 90 09:35 25.08.2021
1587 Clear 28 1013 49 10000 0.89 315 08:35 25.08.2021
1588 Clouds 25 1013 47 10000 0.45 270 06:37 25.08.2021
1589 Clear 26 1013 62 10000 3.58 315 01:20 25.08.2021
1590 Clear 27 1013 54 10000 1.79 315 23:19 24.08.2021
1591 Clear 27 1013 65 10000 0.89 90 21:18 24.08.2021
1592 Clear 29 1012 61 10000 1.06 112 19:55 24.08.2021
1593 Clear 29 1012 60 10000 0.95 37 19:31 24.08.2021
1594 Clear 31 1012 56 10000 0.92 322 17:54 24.08.2021
1595 Clear 31 1012 55 10000 1.92 315 17:22 24.08.2021
1596 Clear 31 1013 45 10000 3.58 315 15:56 24.08.2021
1597 Clear 32 1013 38 10000 0.45 22 13:51 24.08.2021
1598 Clear 32 1014 38 10000 1.39 352 12:45 24.08.2021
1599 Clear 31 1015 37 10000 0.89 90 11:21 24.08.2021
1600 Clear 31 1015 39 10000 1.34 315 10:46 24.08.2021
1601 Clear 30 1015 36 10000 1.79 292 09:53 24.08.2021
1602 Clear 27 1014 32 10000 1.27 201 07:41 24.08.2021
1603 Clear 26 1014 35 10000 0.89 180 05:50 24.08.2021
1604 Clear 26 1015 37 10000 2.24 292 03:31 24.08.2021
1605 Clear 25 1016 56 10000 1.34 338 23:52 23.08.2021
1606 Clear 27 1014 61 10000 1.92 154 22:46 23.08.2021
1607 Clear 27 1015 66 10000 2.09 139 21:36 23.08.2021
1608 Clear 27 1015 65 10000 0.89 90 19:41 23.08.2021
1609 Clear 29 1015 61 10000 0.89 90 17:49 23.08.2021
1610 Clear 30 1016 51 10000 2.24 135 15:45 23.08.2021
1611 Clear 30 1017 50 10000 2.68 225 13:56 23.08.2021
1612 Clear 30 1017 47 10000 2.24 90 12:32 23.08.2021
1613 Clear 29 1018 51 10000 2.24 90 10:50 23.08.2021
1614 Clear 28 1018 54 10000 1.34 90 10:21 23.08.2021
1615 Clear 26 1018 55 10000 0.45 90 08:49 23.08.2021
1616 Clear 24 1018 59 10000 1.81 115 07:41 23.08.2021
1617 Clear 24 1017 64 10000 1.18 112 06:41 23.08.2021
1618 Clear 24 1018 72 10000 1.53 134 01:57 23.08.2021
1619 Clear 25 1018 74 10000 1.69 130 00:46 23.08.2021
1620 Clear 26 1019 73 10000 1.45 105 22:42 22.08.2021
1621 Clear 26 1019 73 10000 1.45 105 22:42 22.08.2021
1622 Clear 26 1019 73 10000 1.36 79 21:30 22.08.2021
1623 Clear 27 1018 71 10000 1.83 37 20:19 22.08.2021
1624 Clear 28 1017 64 10000 2.74 26 18:33 22.08.2021
1625 Clear 29 1019 60 10000 3.58 45 15:56 22.08.2021
1626 Clear 29 1019 58 10000 3.58 90 14:54 22.08.2021
1627 Clear 29 1019 60 10000 3.13 45 13:50 22.08.2021
1628 Clear 29 1019 61 10000 0.89 90 13:19 22.08.2021
1629 Clear 29 1020 62 10000 1.79 90 12:48 22.08.2021
1630 Clear 29 1019 60 10000 2.96 43 11:45 22.08.2021
1631 Clear 29 1019 61 10000 2.65 48 11:20 22.08.2021
1632 Clear 27 1019 70 10000 2.07 60 08:44 22.08.2021
1633 Clear 26 1018 75 10000 1.51 67 07:53 22.08.2021
1634 Clear 25 1018 77 10000 1.31 82 04:32 22.08.2021
1635 Clear 26 1019 71 10000 1.93 102 22:38 21.08.2021
1636 Clear 27 1019 70 10000 2.02 91 21:41 21.08.2021
1637 Clear 28 1017 63 10000 2.91 49 18:58 21.08.2021
1638 Clear 29 1017 62 10000 2.91 49 18:39 21.08.2021
1639 Clear 30 1017 60 10000 3.61 34 16:58 21.08.2021
1640 Clear 30 1017 60 10000 3.61 34 16:32 21.08.2021
1641 Clear 30 1017 59 10000 3.79 30 15:39 21.08.2021
1642 Clear 30 1018 59 10000 3.88 30 15:21 21.08.2021
1643 Clear 30 1018 57 10000 3.65 34 13:43 21.08.2021
1644 Clear 30 1018 59 10000 3.37 41 12:40 21.08.2021
1645 Clear 29 1018 60 10000 3.2 47 11:36 21.08.2021
1646 Clear 27 1017 68 10000 2.52 55 08:54 21.08.2021
1647 Clear 25 1018 73 10000 0.45 90 00:46 21.08.2021
1648 Clear 27 1017 68 10000 2.23 82 22:31 20.08.2021
1649 Clear 27 1017 68 10000 0.89 68 19:49 20.08.2021
1650 Clear 27 1016 65 10000 0.89 90 17:45 20.08.2021
1651 Clear 29 1015 56 10000 0.89 315 14:35 20.08.2021
1652 Clouds 29 1015 59 10000 1.79 180 12:44 20.08.2021
1653 Clear 28 1015 59 10000 2.24 135 11:29 20.08.2021
1654 Clear 29 1014 62 10000 2.93 86 10:23 20.08.2021
1655 Clear 28 1014 66 10000 2.94 92 09:28 20.08.2021
1656 Clear 27 1014 70 10000 2.94 92 08:36 20.08.2021
1657 Clouds 25 1013 77 10000 1.45 80 04:46 20.08.2021
1658 Clouds 25 1014 76 10000 0.84 64 04:20 20.08.2021
1659 Clouds 25 1015 76 10000 0.45 90 23:40 19.08.2021
1660 Clouds 25 1015 76 10000 0.89 90 22:38 19.08.2021
1661 Clouds 25 1015 74 10000 1.34 90 21:55 19.08.2021
1662 Clear 27 1013 69 10000 1.73 43 20:20 19.08.2021
1663 Clear 27 1014 70 10000 0.89 0 18:24 19.08.2021
1664 Clear 27 1014 70 10000 4.02 315 16:55 19.08.2021
1665 Clear 28 1014 62 10000 3.58 315 14:37 19.08.2021
1666 Clear 29 1014 61 10000 1.79 315 13:18 19.08.2021
1667 Clear 28 1014 62 10000 1.79 315 12:29 19.08.2021
1668 Clear 28 1014 60 10000 2.68 90 10:56 19.08.2021
1669 Clear 27 1014 64 10000 1.79 112 09:49 19.08.2021
1670 Clear 28 1013 64 10000 1.14 110 09:28 19.08.2021
1671 Clear 27 1013 71 10000 1.14 110 08:33 19.08.2021
1672 Clear 24 1014 82 10000 0.45 270 03:53 19.08.2021
1673 Clear 25 1014 79 10000 0.89 315 02:20 19.08.2021
1674 Clear 26 1014 74 10000 1.17 285 23:29 18.08.2021
1675 Clear 26 1014 72 10000 1.17 285 22:36 18.08.2021
1676 Clear 27 1014 72 10000 0.93 332 21:34 18.08.2021
1677 Clouds 26 1013 75 10000 3.13 315 20:20 18.08.2021
1678 Clear 28 1013 69 10000 2.77 352 19:26 18.08.2021
1679 Clear 27 1014 74 10000 3.58 315 18:34 18.08.2021
1680 Clear 28 1013 71 10000 2.24 315 16:56 18.08.2021
1681 Clear 29 1013 65 10000 4.5 342 15:40 18.08.2021
1682 Clear 28 1013 69 10000 6.26 0 15:21 18.08.2021
1683 Clear 30 1013 59 10000 4.65 314 13:21 18.08.2021
1684 Clear 30 1013 58 10000 4.65 314 12:38 18.08.2021
1685 Clear 30 1013 56 10000 4.43 291 12:19 18.08.2021
1686 Clear 28 1012 62 10000 3.47 261 08:50 18.08.2021
1687 Clear 27 1013 64 10000 3.16 232 02:37 18.08.2021
1688 Clear 27 1013 71 10000 3.17 256 22:40 17.08.2021
1689 Clear 27 1013 71 10000 3.23 270 21:59 17.08.2021
1690 Clear 28 1013 70 10000 3.62 280 21:22 17.08.2021
1691 Clear 28 1012 70 10000 4.49 283 20:24 17.08.2021
1692 Clear 31 1012 46 10000 6.23 281 17:54 17.08.2021
1693 Clear 31 1012 49 10000 7.23 282 17:26 17.08.2021
1694 Clear 34 1012 35 10000 8.18 280 15:54 17.08.2021
1695 Clear 34 1012 32 10000 8.18 280 15:35 17.08.2021
1696 Clouds 35 1012 25 10000 7.76 272 12:45 17.08.2021
1697 Clouds 34 1012 32 10000 4.46 244 10:59 17.08.2021
1698 Clouds 32 1012 32 10000 4.55 214 09:20 17.08.2021
1699 Clouds 31 1012 33 10000 4.08 208 07:30 17.08.2021
1700 Clear 30 1014 45 10000 2.25 162 23:28 16.08.2021
1701 Clear 29 1014 49 10000 2.25 162 22:54 16.08.2021
1702 Clear 30 1014 54 10000 2.25 162 22:35 16.08.2021
1703 Clear 29 1014 48 10000 2.06 161 21:47 16.08.2021
1704 Clear 29 1014 55 10000 1.59 155 20:52 16.08.2021
1705 Clouds 30 1013 58 10000 1.46 327 19:29 16.08.2021
1706 Clouds 32 1013 56 10000 1.46 327 18:50 16.08.2021
1707 Clear 32 1013 51 10000 1.94 329 17:55 16.08.2021
1708 Clear 32 1015 41 10000 2.68 292 16:57 16.08.2021
1709 Clear 31 1015 47 10000 1.34 90 15:28 16.08.2021
1710 Clear 32 1015 51 10000 1.79 135 14:27 16.08.2021
1711 Clear 32 1015 47 10000 0.89 90 13:21 16.08.2021
1712 Clear 32 1016 47 10000 0.89 180 12:29 16.08.2021
1713 Clear 31 1017 43 10000 1.79 90 10:36 16.08.2021
1714 Clear 29 1015 46 10000 1.43 292 08:43 16.08.2021
1715 Clear 28 1017 27 10000 1 248 07:30 16.08.2021
1716 Clear 27 1017 30 10000 0.89 292 06:21 16.08.2021
1717 Clear 26 1018 42 10000 0.89 270 01:44 16.08.2021
1718 Clear 28 1017 69 10000 0.99 100 21:37 15.08.2021
1719 Clear 28 1016 77 10000 0.59 10 20:27 15.08.2021
1720 Clear 30 1016 69 10000 1.79 135 18:42 15.08.2021
1721 Clear 30 1016 68 10000 1.34 90 17:50 15.08.2021
1722 Clear 31 1016 68 10000 1.79 90 17:22 15.08.2021
1723 Clear 31 1016 62 10000 3.13 90 15:58 15.08.2021
1724 Clear 31 1016 53 10000 0.89 90 14:42 15.08.2021
1725 Clear 32 1017 50 10000 3.13 225 13:37 15.08.2021
1726 Clear 31 1018 49 10000 1.34 180 10:54 15.08.2021
1727 Clear 29 1018 43 10000 1.34 90 08:45 15.08.2021
1728 Clear 27 1019 54 10000 0.45 90 01:23 15.08.2021
1729 Clear 27 1019 64 10000 0.45 90 00:33 15.08.2021
1730 Clear 28 1019 54 10000 1.62 98 21:38 14.08.2021
1731 Clear 29 1018 42 10000 1.43 54 20:29 14.08.2021
1732 Clear 30 1018 43 10000 0.45 90 19:34 14.08.2021
1733 Clear 33 1018 29 10000 0.89 90 18:37 14.08.2021
1734 Clear 32 1018 40 10000 1.79 135 16:50 14.08.2021
1735 Clear 32 1018 50 10000 1.79 180 15:37 14.08.2021
1736 Clear 32 1019 54 10000 1.79 225 14:24 14.08.2021
1737 Clear 32 1020 47 10000 2.68 90 11:45 14.08.2021
1738 Clear 30 1020 55 10000 1.34 90 09:54 14.08.2021
1739 Clear 27 1020 49 10000 0.89 270 05:35 14.08.2021
1740 Clear 27 1021 68 10000 0.45 270 23:52 13.08.2021
1741 Clear 28 1021 61 10000 0.89 270 22:18 13.08.2021
1742 Clear 29 1020 62 10000 1.43 80 20:24 13.08.2021
1743 Clear 31 1020 54 10000 0.89 90 18:46 13.08.2021
1744 Clear 32 1020 44 10000 1.79 90 17:23 13.08.2021
1745 Clear 32 1020 48 10000 3.13 180 15:57 13.08.2021
1746 Clear 32 1021 44 10000 0.45 248 11:58 13.08.2021
1747 Clear 31 1021 44 10000 0.89 90 11:18 13.08.2021
1748 Clear 29 1020 57 10000 0.74 46 08:41 13.08.2021
1749 Clear 29 1019 54 10000 0.26 30 08:21 13.08.2021
1750 Clear 27 1020 49 10000 0.89 270 06:40 13.08.2021
1751 Clear 27 1020 69 10000 0.45 270 02:29 13.08.2021
1752 Clear 28 1020 69 10000 0.45 90 21:53 12.08.2021
1753 Clear 29 1018 76 10000 1.59 100 20:43 12.08.2021
1754 Clear 30 1018 75 10000 0.45 90 19:54 12.08.2021
1755 Clear 31 1018 66 10000 0.89 90 18:41 12.08.2021
1756 Clear 32 1018 64 10000 0.89 180 16:57 12.08.2021
1757 Clear 32 1018 65 10000 1.34 135 16:28 12.08.2021
1758 Clear 31 1017 74 10000 2.68 112 13:53 12.08.2021
1759 Clear 31 1018 72 10000 3.13 135 11:42 12.08.2021
1760 Clear 31 1017 75 10000 2.21 20 09:43 12.08.2021
1761 Clear 29 1017 60 10000 1.52 40 07:53 12.08.2021
1762 Clear 29 1017 61 10000 0.45 90 00:30 12.08.2021
1763 Clear 29 1017 77 10000 0.84 282 21:56 11.08.2021
1764 Clouds 32 1015 61 10000 2.76 309 19:36 11.08.2021
1765 Clouds 32 1015 55 10000 2.04 334 18:27 11.08.2021
1766 Clouds 32 1015 55 10000 2.04 334 18:27 11.08.2021
1767 Clouds 32 1015 60 10000 0.45 90 15:38 11.08.2021
1768 Clouds 32 1015 60 10000 2.5 321 15:20 11.08.2021
1769 Clouds 33 1016 52 10000 0.89 90 14:20 11.08.2021
1770 Clouds 37 1016 34 10000 6.71 315 12:30 11.08.2021
1771 Clouds 37 1016 37 10000 4.01 306 11:46 11.08.2021
1772 Clear 37 1016 29 10000 3.37 287 11:21 11.08.2021
1773 Clear 33 1016 27 10000 2.24 315 09:43 11.08.2021
1774 Clear 29 1016 60 10000 0.89 225 07:23 11.08.2021
1775 Clear 35 1016 32 10000 3.32 195 22:53 10.08.2021
1776 Clear 37 1016 15 10000 2.85 178 22:28 10.08.2021
1777 Clear 33 1016 35 10000 2.65 166 20:57 10.08.2021
1778 Clear 33 1016 52 10000 2.26 147 19:33 10.08.2021
1779 Clear 34 1017 40 10000 0.89 90 18:29 10.08.2021
1780 Clear 37 1018 38 10000 1.34 90 15:48 10.08.2021
1781 Clear 36 1018 32 10000 1.79 90 14:41 10.08.2021
1782 Clouds 34 1019 46 10000 1.79 90 11:53 10.08.2021
1783 Clouds 32 1018 51 10000 1.2 85 09:48 10.08.2021
1784 Clouds 30 1019 33 10000 0.45 90 06:47 10.08.2021
1785 Clouds 28 1017 59 10000 3.44 152 04:58 10.08.2021
1786 Clear 29 1020 41 10000 0.89 270 23:41 09.08.2021
1787 Clear 30 1020 36 10000 0.89 270 21:54 09.08.2021
1788 Clear 31 1020 34 10000 0.45 315 21:32 09.08.2021
1789 Clear 32 1018 34 10000 1.96 124 19:35 09.08.2021
1790 Clear 33 1019 32 10000 0.89 90 17:19 09.08.2021
1791 Clear 33 1019 37 10000 1.79 90 15:33 09.08.2021
1792 Clear 33 1020 47 10000 1.34 90 13:37 09.08.2021
1793 Clear 32 1020 54 10000 1.79 90 12:51 09.08.2021
1794 Clear 32 1019 44 10000 2.24 135 10:43 09.08.2021
1795 Clouds 28 1018 57 10000 0.89 90 08:26 09.08.2021
1796 Clouds 29 1017 45 10000 4.08 130 23:26 08.08.2021
1797 Clear 30 1017 49 10000 3.67 70 21:25 08.08.2021
1798 Clear 31 1017 48 10000 1.79 90 19:29 08.08.2021
1799 Clear 32 1016 50 10000 1.79 158 16:54 08.08.2021
1800 Clear 33 1015 37 10000 3.13 135 15:31 08.08.2021
1801 Clear 34 1014 38 10000 2.54 347 13:23 08.08.2021
1802 Clear 36 1013 27 10000 0.4 350 11:25 08.08.2021
1803 Clear 29 1014 25 10000 1.34 225 06:45 08.08.2021
1804 Clear 28 1013 25 10000 0.89 270 05:37 08.08.2021
1805 Clear 30 1013 31 10000 0.89 270 00:31 08.08.2021
1806 Clear 29 1011 48 10000 2.74 131 22:20 07.08.2021
1807 Clear 29 1012 50 10000 0.89 270 21:41 07.08.2021
1808 Clear 30 1012 48 10000 0.89 90 20:35 07.08.2021
1809 Clear 31 1012 52 10000 1.79 135 17:37 07.08.2021
1810 Clear 31 1012 47 10000 2.68 135 16:42 07.08.2021
1811 Clear 31 1012 48 10000 0.89 90 14:27 07.08.2021
1812 Clear 31 1012 48 10000 3.58 90 13:31 07.08.2021
1813 Clear 30 1013 36 10000 1.34 90 10:24 07.08.2021
1814 Clear 24 1013 40 10000 0.45 270 05:45 07.08.2021
1815 Clear 26 1010 57 10000 0.45 270 23:55 06.08.2021
1816 Clear 28 1008 64 10000 1.77 84 21:25 06.08.2021
1817 Clear 28 1008 64 10000 1.51 27 20:27 06.08.2021
1818 Clear 29 1008 60 10000 1.51 27 19:56 06.08.2021
1819 Clear 29 1009 54 10000 0.45 357 18:30 06.08.2021
1820 Clear 29 1012 51 10000 5.81 315 15:19 06.08.2021
1821 Clear 30 1010 39 10000 1.34 13 10:41 06.08.2021
1822 Clear 29 1010 36 10000 1.34 315 09:26 06.08.2021
1823 Clouds 26 1008 41 10000 1.79 256 07:19 06.08.2021
1824 Clear 26 1009 69 10000 1.31 166 23:31 05.08.2021
1825 Clear 27 1010 66 10000 0.4 87 21:32 05.08.2021
1826 Clear 28 1009 64 10000 0.45 5 19:59 05.08.2021
1827 Clouds 29 1009 57 10000 1.34 10 18:58 05.08.2021
1828 Clouds 29 1014 42 10000 4.47 270 16:21 05.08.2021
1829 Clouds 31 1011 44 10000 0.89 42 14:18 05.08.2021
1830 Clouds 29 1012 72 10000 0.45 358 10:56 05.08.2021
1831 Clear 29 1009 75 10000 0.45 355 08:32 05.08.2021
1832 Clouds 30 1008 59 10000 3.76 242 04:34 05.08.2021
1833 Clear 30 1008 69 10000 2.69 283 23:19 04.08.2021
1834 Clear 33 1013 43 10000 2.31 165 21:43 04.08.2021
1835 Clear 34 1012 34 10000 3.72 146 21:18 04.08.2021
1836 Clouds 40 1013 32 10000 2.51 203 17:25 04.08.2021
1837 Clouds 40 1013 32 10000 2.51 203 17:25 04.08.2021
1838 Clouds 41 1013 31 10000 2.68 214 15:35 04.08.2021
1839 Clouds 39 1013 33 10000 3.02 221 14:41 04.08.2021
1840 Clear 33 1010 39 10000 0.89 8 09:51 04.08.2021
1841 Clouds 30 1010 44 10000 0.89 20 23:32 03.08.2021
1842 Clear 31 1013 43 10000 1.79 45 20:33 03.08.2021
1843 Clouds 32 1013 38 10000 1.79 90 19:46 03.08.2021
1844 Clouds 33 1014 37 10000 0.89 90 17:38 03.08.2021
1845 Clouds 33 1018 39 10000 5.36 158 14:58 03.08.2021
1846 Clouds 29 1017 54 10000 3.58 135 11:44 03.08.2021
1847 Clouds 29 1015 58 10000 4.95 74 10:39 03.08.2021
1848 Clouds 28 1012 79 10000 3.34 115 23:48 02.08.2021
1849 Clear 30 1012 69 10000 4.47 135 17:32 02.08.2021
1850 Clear 31 1013 66 10000 2.68 135 15:47 02.08.2021
1851 Clear 30 1013 68 10000 0.45 271 13:39 02.08.2021
1852 Clear 30 1013 71 10000 0.45 358 11:58 02.08.2021
1853 Clear 29 1013 72 10000 0.45 351 10:58 02.08.2021
1854 Clear 29 1012 70 10000 3.13 135 09:47 02.08.2021
1855 Clouds 30 1015 46 10000 2.29 162 21:43 01.08.2021
1856 Clouds 33 1012 31 10000 3.3 288 18:18 01.08.2021
1857 Clouds 37 1012 26 10000 0.89 315 13:18 01.08.2021
1858 Clouds 37 1013 19 10000 1.79 90 11:37 01.08.2021
1859 Clouds 30 1010 43 10000 0.89 315 04:53 01.08.2021
1860 Clouds 30 1010 48 10000 5.36 315 03:47 01.08.2021
1861 Clear 30 1009 65 10000 2.01 211 22:45 31.07.2021
1862 Clear 31 1008 63 10000 1 50 19:59 31.07.2021
1863 Clear 33 1008 49 10000 0.89 13 16:40 31.07.2021
1864 Clear 33 1011 52 10000 1.79 135 15:38 31.07.2021
1865 Clear 33 1009 53 10000 3.58 135 12:21 31.07.2021
1866 Clear 26 1009 80 10000 0.45 270 06:18 31.07.2021
1867 Clear 26 1009 80 10000 0.45 270 06:18 31.07.2021
1868 Clear 29 1009 71 10000 1.42 215 23:27 30.07.2021
1869 Clear 29 1012 67 10000 1.33 277 20:26 30.07.2021
1870 Clear 33 1012 32 10000 2.24 135 16:33 30.07.2021
1871 Clear 31 1012 30 10000 2.28 147 22:26 29.07.2021
1872 Clear 31 1012 34 10000 0.13 247 08:44 29.07.2021
1873 Clear 28 1013 41 10000 1.79 270 04:53 29.07.2021
1874 Clear 28 1013 43 10000 0.89 270 04:28 29.07.2021
1875 Clear 30 1012 65 10000 1.29 72 19:55 28.07.2021
1876 Clear 31 1016 55 10000 2.35 355 17:18 28.07.2021
1877 Clear 30 1015 49 10000 1.34 90 09:56 28.07.2021
1878 Clear 28 1015 52 10000 0.45 315 23:56 27.07.2021
1879 Clear 29 1016 51 10000 2.07 144 21:36 27.07.2021
1880 Clear 30 1018 50 10000 0.89 90 18:26 27.07.2021
1881 Clear 32 1016 55 10000 2.24 112 14:51 27.07.2021
1882 Clear 30 1016 62 10000 2.68 90 10:36 27.07.2021
1883 Clear 28 1014 35 10000 1.34 270 03:46 27.07.2021
1884 Clouds 34 1016 28 10000 1.79 135 15:34 26.07.2021
1885 Clouds 34 1016 28 10000 1.79 135 15:34 26.07.2021
1886 Clouds 33 1014 23 10000 0.89 225 10:59 26.07.2021
1887 Clear 28 1012 59 10000 2.06 144 21:44 25.07.2021
1888 Clear 29 1012 64 10000 0.45 90 20:54 25.07.2021
1889 Clear 33 1012 41 10000 2.55 134 17:45 25.07.2021
1890 Clear 33 1012 40 10000 3.58 135 15:27 25.07.2021
1891 Clear 31 1012 37 10000 1.34 90 10:19 25.07.2021
1892 Clear 28 1010 42 10000 0.87 202 08:18 25.07.2021
1893 Clear 29 1012 63 10000 1.74 102 20:23 24.07.2021
1894 Clear 29 1013 61 10000 0.45 90 19:36 24.07.2021
1895 Clear 30 1014 54 10000 1.79 90 11:27 24.07.2021
1896 Clear 28 1016 69 10000 1.79 90 17:36 23.07.2021
1897 Clear 30 1013 61 10000 1.34 8 14:35 23.07.2021
1898 Clear 29 1014 65 10000 1.34 10 12:40 23.07.2021
1899 Clear 29 1014 65 10000 1.34 10 12:40 23.07.2021
1900 Clear 27 1015 58 10000 1.79 315 22:51 22.07.2021
1901 Clear 30 1016 54 10000 1.79 19 14:58 22.07.2021
1902 Clear 29 1017 47 10000 0.89 5 11:19 22.07.2021
1903 Clear 27 1017 47 10000 1.34 90 08:34 22.07.2021
1904 Clear 27 1016 72 10000 1.71 102 22:35 21.07.2021
1905 Clear 26 1017 73 10000 1.77 93 21:42 21.07.2021
1906 Clear 26 1017 73 10000 1.4 83 21:22 21.07.2021
1907 Clear 29 1016 50 10000 3.58 158 11:27 21.07.2021
1908 Clear 27 1015 71 10000 1.99 68 09:19 21.07.2021
1909 Clear 25 1013 76 10000 0.67 92 05:45 21.07.2021
1910 Clear 27 1013 72 10000 0.85 86 21:47 20.07.2021
1911 Clear 28 1015 57 10000 1.79 90 16:36 20.07.2021
1912 Clear 30 1012 50 10000 0.89 12 15:27 20.07.2021
1913 Clear 28 1012 48 10000 1.34 90 11:23 20.07.2021
1914 Clear 25 1012 68 10000 0.89 90 07:57 20.07.2021
1915 Clear 24 1009 76 10000 0.85 88 03:19 20.07.2021
1916 Clear 27 1008 72 10000 0.89 13 18:37 19.07.2021
1917 Clear 28 1007 65 10000 1.34 4 12:50 19.07.2021
1918 Clear 24 1005 82 10000 1.38 249 07:27 19.07.2021
1919 Clear 26 1005 66 10000 0.45 16 17:21 18.07.2021
1920 Clouds 26 1004 74 10000 1.34 18 10:53 18.07.2021
1921 Clouds 24 1007 68 10000 0.45 8 22:58 17.07.2021
1922 Clouds 25 1007 69 10000 1.34 21 21:59 17.07.2021
1923 Clouds 25 1007 68 10000 0.89 342 21:41 17.07.2021
1924 Clouds 27 1007 58 10000 0.45 337 16:52 17.07.2021
1925 Clouds 27 1008 62 10000 1.34 295 11:31 17.07.2021
1926 Clear 22 1008 85 10000 3.67 300 04:48 17.07.2021
1927 Clear 27 1013 48 10000 5.59 304 17:41 16.07.2021
1928 Clear 29 1011 46 10000 0.45 294 13:19 16.07.2021
1929 Clear 24 1011 59 10000 0.81 182 07:25 16.07.2021
1930 Clear 26 1013 65 10000 1.93 86 20:39 15.07.2021
1931 Clear 27 1015 48 10000 1.34 28 13:51 15.07.2021
1932 Clear 26 1014 62 10000 0.45 351 09:52 15.07.2021
1933 Clouds 23 1015 68 10000 2.7 60 00:32 15.07.2021
1934 Clouds 25 1019 63 10000 1.34 90 16:56 14.07.2021
1935 Clouds 25 1015 68 10000 0.89 90 12:49 14.07.2021
1936 Clouds 26 1012 79 10000 0.89 350 04:44 14.07.2021
1937 Clouds 29 1010 51 10000 3.13 292 21:22 13.07.2021
1938 Clouds 30 1011 55 10000 0.99 130 19:54 13.07.2021
1939 Clouds 32 1008 37 10000 3.58 45 19:27 13.07.2021
1940 Clouds 32 1008 40 10000 3.13 315 18:45 13.07.2021
1941 Clouds 32 1008 47 10000 1.79 358 18:24 13.07.2021
1942 Clouds 31 1011 46 10000 3.58 292 17:39 13.07.2021
1943 Clear 32 1010 37 10000 1.79 180 09:50 13.07.2021
1944 Clear 27 1012 53 10000 0.89 270 01:45 13.07.2021
1945 Clear 29 1011 52 10000 2.18 99 19:59 12.07.2021
1946 Clear 32 1012 40 10000 1.79 90 15:21 12.07.2021
1947 Clear 28 1014 50 10000 1.34 135 09:57 12.07.2021
1948 Clear 26 1013 69 10000 1.24 124 21:59 11.07.2021
1949 Clear 27 1013 65 10000 0.45 27 19:46 11.07.2021
1950 Clear 23 1013 75 10000 0.45 315 04:42 11.07.2021
1951 Clear 27 1012 64 10000 0.45 14 19:57 10.07.2021
1952 Clear 28 1014 57 10000 3.13 135 10:43 10.07.2021
1953 Clear 25 1014 77 10000 1.97 69 07:24 10.07.2021
1954 Clear 26 1015 83 10000 1.39 74 22:36 09.07.2021
1955 Clear 28 1016 74 10000 1.34 23 18:19 09.07.2021
1956 Clear 28 1017 81 10000 2.68 15 14:47 09.07.2021
1957 Clear 27 1015 83 10000 1.15 155 03:58 09.07.2021
1958 Clouds 28 1016 82 10000 2.46 312 23:48 08.07.2021
1959 Clouds 29 1015 66 10000 0.56 168 21:39 08.07.2021
1960 Clear 29 1018 60 10000 5.36 315 18:55 08.07.2021
1961 Clouds 32 1016 51 10000 2.24 135 13:59 08.07.2021
1962 Clouds 32 1016 53 10000 2.68 90 13:31 08.07.2021
1963 Clouds 31 1016 51 10000 0.89 90 12:38 08.07.2021
1964 Clouds 31 1016 48 10000 3.58 112 11:27 08.07.2021
1965 Clouds 28 1016 65 10000 1.79 315 07:45 08.07.2021
1966 Clear 26 1015 79 10000 2.55 142 04:41 08.07.2021
1967 Clear 28 1013 70 10000 3.3 143 23:45 07.07.2021
1968 Clear 28 1014 69 10000 0.45 90 22:20 07.07.2021
1969 Clear 28 1014 70 10000 1.87 109 21:46 07.07.2021
1970 Clear 28 1014 71 10000 0.45 90 21:26 07.07.2021
1971 Clear 28 1014 65 10000 0.45 90 20:21 07.07.2021
1972 Clear 30 1014 58 10000 0.89 90 19:31 07.07.2021
1973 Clear 31 1014 52 10000 1.79 180 18:58 07.07.2021
1974 Clear 32 1013 54 10000 1.34 90 16:30 07.07.2021
1975 Clear 32 1013 57 10000 0.89 135 15:24 07.07.2021
1976 Clear 31 1014 59 10000 1.79 90 12:24 07.07.2021
1977 Clear 27 1012 67 10000 0.89 0 07:37 07.07.2021
1978 Clear 25 1012 69 10000 0.89 270 05:56 07.07.2021
1979 Clear 26 1011 77 10000 1.47 131 02:59 07.07.2021
1980 Clear 28 1011 68 10000 3.15 115 20:55 06.07.2021
1981 Clear 28 1012 64 10000 0.45 135 19:18 06.07.2021
1982 Clear 29 1012 61 10000 0.89 90 18:44 06.07.2021
1983 Clear 29 1012 59 10000 0.89 135 18:22 06.07.2021
1984 Clear 30 1012 57 10000 1.79 90 13:37 06.07.2021
1985 Clear 28 1013 63 10000 2.68 90 10:27 06.07.2021
1986 Clear 27 1013 66 10000 0.45 90 09:39 06.07.2021
1987 Clear 26 1012 70 10000 2.54 76 08:32 06.07.2021
1988 Clear 24 1011 62 10000 1.12 103 04:50 06.07.2021
1989 Clear 25 1013 67 10000 1.01 42 23:58 05.07.2021
1990 Clear 26 1012 74 10000 0.76 348 21:59 05.07.2021
1991 Clear 27 1014 66 10000 4.47 315 17:22 05.07.2021
1992 Clear 29 1011 57 10000 1.34 26 14:29 05.07.2021
1993 Clouds 27 1011 39 10000 4.33 250 06:21 05.07.2021
1994 Clouds 27 1011 33 10000 4.21 250 05:42 05.07.2021
1995 Clouds 27 1010 44 10000 0.45 346 02:48 05.07.2021
1996 Clouds 28 1010 60 10000 1.91 213 21:52 04.07.2021
1997 Clouds 30 1010 53 10000 0.89 90 18:51 04.07.2021
1998 Clear 32 1012 39 10000 2.44 297 15:39 04.07.2021
1999 Clear 33 1011 32 10000 1.5 289 11:43 04.07.2021
2000 Clear 29 1011 43 10000 0.55 208 09:23 04.07.2021
2001 Clear 26 1014 61 10000 1.46 119 23:31 03.07.2021
2002 Clear 26 1014 60 10000 0.45 90 22:34 03.07.2021
2003 Clear 30 1017 51 10000 3.58 180 14:19 03.07.2021
2004 Clear 29 1018 57 10000 0.89 90 12:38 03.07.2021
2005 Clear 26 1013 58 10000 1.79 90 09:29 03.07.2021
2006 Clear 26 1014 61 10000 1.34 90 08:46 03.07.2021
2007 Clear 25 1013 51 10000 0.89 315 02:46 03.07.2021
2008 Clouds 31 1016 30 10000 4.92 315 12:51 02.07.2021
2009 Clouds 26 1012 47 10000 1.34 90 07:40 02.07.2021
2010 Clouds 24 1011 47 10000 0.89 292 04:38 02.07.2021
2011 Clouds 26 1010 66 10000 2.44 136 22:33 01.07.2021
2012 Clouds 26 1010 70 10000 2.46 119 21:51 01.07.2021
2013 Clouds 27 1010 67 10000 2.71 110 20:45 01.07.2021
2014 Clouds 28 1012 56 10000 0.89 90 19:21 01.07.2021
2015 Clouds 27 1017 57 10000 1.34 90 18:49 01.07.2021
2016 Clouds 28 1016 57 10000 1.79 135 17:52 01.07.2021
2017 Clear 28 1017 59 10000 3.13 158 17:18 01.07.2021
2018 Clear 29 1017 55 10000 3.58 135 15:25 01.07.2021
2019 Clouds 30 1012 55 10000 1.79 135 14:23 01.07.2021
2020 Clouds 29 1012 44 10000 3.58 90 10:55 01.07.2021
2021 Clouds 26 1009 92 10000 1.89 73 06:56 01.07.2021
2022 Clouds 26 1009 91 10000 0.45 9 23:23 30.06.2021
2023 Clouds 26 1009 92 10000 0.89 31 22:20 30.06.2021
2024 Clouds 26 1008 93 10000 0.45 54 21:22 30.06.2021
2025 Clouds 27 1008 87 10000 0.89 29 20:27 30.06.2021
2026 Clouds 28 1006 80 10000 2.26 291 18:54 30.06.2021
2027 Clouds 31 1007 70 10000 1.71 1 14:26 30.06.2021
2028 Clouds 31 1007 73 10000 1.57 41 13:23 30.06.2021
2029 Clouds 26 1008 85 10000 1.53 290 08:18 30.06.2021
2030 Clouds 28 1007 74 10000 0.45 26 21:40 29.06.2021
2031 Clouds 29 1013 65 10000 1.34 308 18:36 29.06.2021
2032 Clouds 31 1013 61 10000 3.34 299 17:43 29.06.2021
2033 Clouds 32 1014 59 10000 4.28 286 16:36 29.06.2021
2034 Clouds 34 1014 42 10000 4.29 286 15:49 29.06.2021
2035 Clouds 33 1007 60 10000 3.76 172 13:59 29.06.2021
2036 Clouds 31 1010 69 10000 1.79 135 13:19 29.06.2021
2037 Clouds 27 1011 76 10000 4.02 0 00:41 29.06.2021
2038 Clouds 27 1009 80 10000 3.81 254 21:47 28.06.2021
2039 Clouds 29 1010 65 10000 0.92 339 19:53 28.06.2021
2040 Clouds 30 1015 56 10000 1.79 180 17:32 28.06.2021
2041 Clouds 34 1010 44 10000 1.34 225 15:22 28.06.2021
2042 Clouds 33 1011 50 10000 0.89 330 14:20 28.06.2021
2043 Clouds 29 1010 80 10000 1.79 90 09:36 28.06.2021
2044 Clouds 27 1010 77 10000 0.45 270 23:46 27.06.2021
2045 Clouds 28 1010 71 10000 1.76 137 21:51 27.06.2021
2046 Clouds 28 1015 67 10000 0.95 255 19:42 27.06.2021
2047 Clouds 29 1014 66 10000 0.89 225 16:54 27.06.2021
2048 Clouds 30 1014 60 10000 1.79 135 14:23 27.06.2021
2049 Clouds 30 1015 54 10000 0.89 90 09:33 27.06.2021
2050 Clouds 27 1009 81 10000 2.06 94 23:30 26.06.2021
2051 Clouds 27 1010 69 10000 1.83 174 21:24 26.06.2021
2052 Clouds 27 1010 66 10000 0.9 264 20:42 26.06.2021
2053 Clouds 29 1009 67 10000 0.45 90 19:25 26.06.2021
2054 Clouds 29 1011 75 10000 1.34 158 15:39 26.06.2021
2055 Clouds 28 1011 79 10000 1.34 90 12:57 26.06.2021
2056 Clouds 29 1012 72 10000 1.79 90 09:58 26.06.2021
2057 Clouds 27 1009 71 10000 2.49 266 06:20 26.06.2021
2058 Clouds 29 1017 55 10000 2.77 274 21:23 25.06.2021
2059 Clouds 32 1016 68 10000 2.03 108 19:56 25.06.2021
2060 Clouds 34 1015 29 10000 3.27 313 17:58 25.06.2021
2061 Clouds 36 1015 30 10000 3.48 307 16:56 25.06.2021
2062 Clouds 33 1018 33 10000 1.79 90 15:47 25.06.2021
2063 Clouds 34 1017 31 10000 1.4 58 13:19 25.06.2021
2064 Clouds 31 1014 53 10000 0.45 90 09:36 25.06.2021
2065 Clouds 27 1015 71 10000 1.34 348 07:22 25.06.2021
2066 Clouds 26 1012 72 10000 0.89 315 03:56 25.06.2021
2067 Clouds 28 1012 71 10000 1.77 227 22:52 24.06.2021
2068 Clouds 27 1020 51 10000 0.45 270 21:48 24.06.2021
2069 Clouds 29 1019 51 10000 2.04 141 20:41 24.06.2021
2070 Clouds 31 1018 48 10000 1.55 323 19:35 24.06.2021
2071 Clouds 32 1018 48 10000 2.88 344 17:21 24.06.2021
2072 Clouds 33 1013 47 10000 0.45 330 15:22 24.06.2021
2073 Rain 31 1014 53 10000 0.89 90 14:50 24.06.2021
2074 Clouds 30 1014 68 10000 0.89 90 12:30 24.06.2021
2075 Clouds 30 1015 61 10000 4.47 225 09:45 24.06.2021
2076 Clouds 27 1012 80 10000 4.93 266 08:26 24.06.2021
2077 Clouds 27 1011 66 10000 3.78 285 06:29 24.06.2021
2078 Clouds 28 1017 54 10000 4.05 136 23:31 23.06.2021
2079 Clouds 29 1018 50 10000 0.97 254 22:18 23.06.2021
2080 Clouds 30 1018 52 10000 3.09 269 20:58 23.06.2021
2081 Clouds 29 1012 56 10000 0.89 90 19:22 23.06.2021
2082 Clouds 31 1011 53 10000 1.34 90 18:27 23.06.2021
2083 Clouds 32 1010 52 10000 1.34 350 16:52 23.06.2021
2084 Clouds 32 1010 49 10000 3.13 225 14:30 23.06.2021
2085 Clouds 31 1010 52 10000 3.13 90 12:37 23.06.2021
2086 Clouds 28 1015 64 10000 1.79 135 10:49 23.06.2021
2087 Clouds 29 1010 58 10000 5.1 111 09:20 23.06.2021
2088 Clouds 27 1011 62 10000 0.89 90 08:38 23.06.2021
2089 Clouds 26 1011 69 10000 0.89 248 07:48 23.06.2021
2090 Clear 25 1009 71 10000 0.7 77 04:35 23.06.2021
2091 Clear 26 1010 63 10000 0.89 315 00:49 23.06.2021
2092 Clear 26 1014 59 10000 0.45 270 23:58 22.06.2021
2093 Clear 26 1014 58 10000 0.45 90 22:47 22.06.2021
2094 Clear 26 1014 58 10000 0.45 90 22:29 22.06.2021
2095 Clear 26 1014 59 10000 0.98 120 21:39 22.06.2021
2096 Clear 26 1012 83 10000 4.12 20 20:27 22.06.2021
2097 Clear 27 1013 69 10000 0.89 90 18:59 22.06.2021
2098 Clear 28 1013 57 10000 0.89 90 18:28 22.06.2021
2099 Clear 29 1013 57 10000 1.34 135 17:27 22.06.2021
2100 Clear 29 1013 60 10000 1.34 90 16:48 22.06.2021
2101 Clear 29 1013 56 10000 1.79 135 14:54 22.06.2021
2102 Clouds 28 1013 46 10000 2.24 225 14:25 22.06.2021
2103 Clouds 29 1013 43 10000 2.24 135 13:34 22.06.2021
2104 Clouds 32 1007 38 10000 2.68 135 11:53 22.06.2021
2105 Clouds 31 1007 43 10000 1.79 90 10:37 22.06.2021
2106 Clouds 28 1007 55 10000 1.74 281 08:28 22.06.2021
2107 Clouds 31 1005 40 10000 2.95 193 00:51 22.06.2021
2108 Clouds 29 1008 50 10000 0.45 90 23:36 21.06.2021
2109 Clouds 30 1006 51 10000 1.84 150 22:34 21.06.2021
2110 Clouds 28 1012 58 10000 2.72 133 21:29 21.06.2021
2111 Clouds 28 1012 59 10000 1.34 315 20:47 21.06.2021
2112 Clear 29 1008 55 10000 0.38 29 19:55 21.06.2021
2113 Clear 30 1007 54 10000 0.89 90 19:55 21.06.2021
2114 Clouds 31 1007 48 10000 1.34 90 18:58 21.06.2021
2115 Clouds 31 1012 45 10000 2.24 313 17:47 21.06.2021
2116 Clouds 31 1011 43 10000 0.22 312 16:49 21.06.2021
2117 Clouds 32 1011 43 10000 1.34 315 16:26 21.06.2021
2118 Clouds 32 1012 40 10000 4.47 0 15:46 21.06.2021
2119 Clouds 32 1012 48 10000 2.98 311 14:24 21.06.2021
2120 Clouds 36 1012 28 10000 2.57 293 13:35 21.06.2021
2121 Clouds 32 1012 45 10000 2.56 293 12:50 21.06.2021
2122 Clouds 36 1012 21 10000 2.14 300 12:19 21.06.2021
2123 Clouds 35 1006 24 10000 0.97 94 10:32 21.06.2021
2124 Clouds 32 1006 33 10000 1.94 155 09:37 21.06.2021
2125 Clouds 30 1008 32 10000 2.93 141 08:24 21.06.2021
2126 Clouds 29 1008 36 10000 2.93 141 07:44 21.06.2021
2127 Clouds 27 1011 46 10000 1.79 90 00:46 21.06.2021
2128 Clouds 28 1008 41 10000 3.72 127 23:37 20.06.2021
2129 Clouds 28 1008 43 10000 2.1 122 22:59 20.06.2021
2130 Clouds 28 1007 44 10000 0.64 257 22:20 20.06.2021
2131 Clouds 28 1008 47 10000 0.64 257 21:34 20.06.2021
2132 Clouds 30 1006 39 10000 0.82 269 19:55 20.06.2021
2133 Clouds 30 1009 36 10000 0.82 269 19:33 20.06.2021
2134 Clouds 30 1012 37 10000 2.28 282 18:35 20.06.2021
2135 Clouds 31 1012 35 10000 1.51 122 16:58 20.06.2021
2136 Clear 31 1012 37 10000 2.61 86 16:28 20.06.2021
2137 Clear 32 1012 34 10000 2.49 83 15:35 20.06.2021
2138 Clear 33 1013 23 10000 3.32 81 14:55 20.06.2021
2139 Clear 34 1008 38 10000 0.45 320 13:53 20.06.2021
2140 Clear 31 1010 42 10000 0.89 90 13:19 20.06.2021
2141 Clear 30 1012 47 10000 1.79 90 11:47 20.06.2021
2142 Clear 29 1013 50 10000 0.89 90 10:52 20.06.2021
2143 Clear 28 1013 54 10000 1.79 90 09:48 20.06.2021
2144 Clear 27 1011 59 10000 1.51 8 08:36 20.06.2021
2145 Clear 25 1013 63 10000 2.03 148 00:32 20.06.2021
2146 Clear 25 1013 63 10000 2.03 148 00:32 20.06.2021
2147 Clear 25 1013 67 10000 2.67 144 23:24 19.06.2021
2148 Clear 25 1014 68 10000 2.17 122 22:29 19.06.2021
2149 Clear 26 1013 69 10000 0.45 90 21:44 19.06.2021
2150 Clear 27 1013 60 10000 0.89 90 19:22 19.06.2021
2151 Clear 26 1018 60 10000 0.89 90 18:39 19.06.2021
2152 Clear 27 1018 54 10000 1.79 90 17:49 19.06.2021
2153 Clear 28 1018 56 10000 0.89 90 16:59 19.06.2021
2154 Clear 28 1018 53 10000 0.89 90 15:46 19.06.2021
2155 Clear 29 1013 48 10000 1.79 135 13:47 19.06.2021
2156 Clear 30 1014 47 10000 0.45 310 12:45 19.06.2021
2157 Clear 29 1014 46 10000 1.34 112 11:22 19.06.2021
2158 Clear 28 1015 49 10000 0.89 180 10:37 19.06.2021
2159 Clouds 28 1015 52 10000 0.89 90 10:18 19.06.2021
2160 Clouds 25 1015 62 10000 1.34 90 08:36 19.06.2021
2161 Clouds 24 1015 61 10000 1.53 102 07:41 19.06.2021
2162 Clouds 23 1013 70 10000 2.21 111 05:44 19.06.2021
2163 Clear 24 1013 71 10000 2.85 139 00:26 19.06.2021
2164 Clear 24 1013 73 10000 2.75 141 23:58 18.06.2021
2165 Clear 24 1013 73 10000 3.54 127 23:18 18.06.2021
2166 Clear 25 1013 72 10000 3.43 128 22:41 18.06.2021
2167 Clear 25 1013 71 10000 3.08 109 21:53 18.06.2021
2168 Clear 25 1013 70 10000 2.26 99 21:28 18.06.2021
2169 Clear 25 1012 68 10000 2.26 99 20:35 18.06.2021
2170 Clouds 26 1014 57 10000 1.34 90 18:57 18.06.2021
2171 Clouds 27 1014 55 10000 0.89 90 18:20 18.06.2021
2172 Clouds 26 1020 52 10000 1.34 90 16:52 18.06.2021
2173 Clouds 27 1020 49 10000 0.89 135 15:54 18.06.2021
2174 Clouds 28 1015 47 10000 1.79 90 14:55 18.06.2021
2175 Clouds 28 1015 44 10000 1.79 90 14:25 18.06.2021
2176 Clouds 28 1015 46 10000 1.34 90 13:27 18.06.2021
2177 Clouds 27 1015 44 10000 1.79 135 12:43 18.06.2021
2178 Clouds 28 1016 43 10000 2.68 135 11:55 18.06.2021
2179 Clouds 27 1016 44 10000 1.79 90 11:19 18.06.2021
2180 Clouds 27 1016 46 10000 1.79 90 10:51 18.06.2021
2181 Clouds 26 1015 49 10000 1.79 135 10:20 18.06.2021
2182 Clouds 25 1016 56 10000 0.45 90 09:27 18.06.2021
2183 Clouds 24 1013 62 10000 0.67 45 08:43 18.06.2021
2184 Clouds 24 1013 62 10000 0.53 204 07:48 18.06.2021
2185 Clouds 22 1013 69 10000 1.04 180 06:32 18.06.2021
2186 Clouds 24 1013 68 10000 0.71 150 00:40 18.06.2021
2187 Clouds 23 1015 71 10000 1.56 204 23:40 17.06.2021
2188 Clouds 24 1012 72 10000 1.61 156 22:44 17.06.2021
2189 Clouds 24 1012 71 10000 1.18 103 22:23 17.06.2021
2190 Clouds 24 1012 70 10000 1.18 103 21:37 17.06.2021
2191 Clouds 25 1012 66 10000 0.62 124 20:48 17.06.2021
2192 Clouds 25 1012 65 10000 0.45 353 20:23 17.06.2021
2193 Clouds 25 1012 63 10000 0.45 358 19:45 17.06.2021
2194 Clouds 26 1015 57 10000 2.24 315 18:24 17.06.2021
2195 Clouds 25 1019 59 10000 1.79 90 17:41 17.06.2021
2196 Clouds 25 1019 58 10000 2.24 135 17:18 17.06.2021
2197 Clouds 25 1019 60 10000 1.79 135 16:24 17.06.2021
2198 Clouds 26 1019 60 10000 1.79 135 14:54 17.06.2021
2199 Clouds 28 1015 56 10000 1.34 90 13:59 17.06.2021
2200 Clouds 26 1015 59 10000 0.45 39 12:41 17.06.2021
2201 Clouds 26 1015 60 10000 0.45 344 12:22 17.06.2021
2202 Clouds 26 1015 60 10000 3.58 135 10:52 17.06.2021
2203 Clouds 25 1015 60 10000 1.79 90 10:30 17.06.2021
2204 Clouds 25 1015 61 10000 1.34 225 09:51 17.06.2021
2205 Clouds 24 1015 61 10000 2.68 90 09:33 17.06.2021
2206 Clouds 23 1012 66 10000 0.17 208 08:20 17.06.2021
2207 Clouds 21 1012 63 10000 0.8 220 06:55 17.06.2021
2208 Clouds 21 1014 56 10000 0.89 270 04:20 17.06.2021
2209 Clear 22 1014 62 10000 2.54 143 23:50 16.06.2021
2210 Clear 23 1014 64 10000 0.45 90 23:29 16.06.2021
2211 Clear 23 1014 62 10000 2.58 138 22:37 16.06.2021
2212 Clear 23 1014 64 10000 2.42 137 21:47 16.06.2021
2213 Clear 25 1011 61 10000 2.25 121 21:23 16.06.2021
2214 Clear 25 1011 59 10000 2.7 121 20:46 16.06.2021
2215 Clear 25 1011 57 10000 2.72 95 20:19 16.06.2021
2216 Clear 26 1011 54 10000 2.72 95 19:43 16.06.2021
2217 Clear 26 1011 53 10000 2.59 76 19:18 16.06.2021
2218 Clear 26 1014 47 10000 1.79 135 18:32 16.06.2021
2219 Clear 25 1018 45 10000 0.89 90 17:55 16.06.2021
2220 Clear 25 1018 42 10000 1.34 90 17:27 16.06.2021
2221 Clear 26 1018 41 10000 0.45 90 16:45 16.06.2021
2222 Clear 25 1018 44 10000 1.79 90 16:22 16.06.2021
2223 Clear 25 1018 49 10000 3.58 135 15:39 16.06.2021
2224 Clear 25 1018 47 10000 1.79 90 14:57 16.06.2021
2225 Clear 27 1013 43 10000 3.13 180 14:39 16.06.2021
2226 Clear 27 1014 39 10000 2.24 135 14:20 16.06.2021
2227 Clear 27 1014 36 10000 1.79 135 13:40 16.06.2021
2228 Clear 27 1014 37 10000 0.45 90 13:21 16.06.2021
2229 Clear 26 1014 44 10000 1.34 314 12:34 16.06.2021
2230 Clear 26 1014 47 10000 1.34 90 11:54 16.06.2021
2231 Clear 26 1014 49 10000 3.58 135 11:19 16.06.2021
2232 Clear 25 1013 49 10000 1.34 90 10:40 16.06.2021
2233 Clear 24 1014 50 10000 1.79 90 09:46 16.06.2021
2234 Clear 24 1014 50 10000 1.34 90 08:48 16.06.2021
2235 Clouds 22 1014 48 10000 0.82 219 07:50 16.06.2021
2236 Clouds 22 1014 46 10000 0.45 90 07:30 16.06.2021
2237 Clouds 22 1011 56 10000 1.95 153 02:50 16.06.2021
2238 Clouds 22 1014 58 10000 2.03 128 00:37 16.06.2021
2239 Clear 23 1014 48 10000 0.45 270 23:43 15.06.2021
2240 Clear 23 1015 48 10000 0.45 340 23:19 15.06.2021
2241 Clear 23 1014 47 10000 0.45 270 22:38 15.06.2021
2242 Clear 23 1014 49 10000 1.93 129 21:45 15.06.2021
2243 Clear 24 1011 54 10000 1.75 115 20:51 15.06.2021
2244 Clear 25 1011 51 10000 1.98 89 19:44 15.06.2021
2245 Clear 26 1013 48 10000 1.34 90 18:32 15.06.2021
2246 Clear 25 1019 48 10000 2.68 90 16:54 15.06.2021
2247 Clear 25 1018 50 10000 3.13 90 16:29 15.06.2021
2248 Clear 26 1019 51 10000 2.68 135 15:40 15.06.2021
2249 Clear 26 1019 53 10000 4.02 135 14:50 15.06.2021
2250 Clear 27 1013 58 10000 3.58 112 13:46 15.06.2021
2251 Clear 27 1014 58 10000 2.68 135 13:27 15.06.2021
2252 Clear 27 1014 56 10000 1.79 90 12:46 15.06.2021
2253 Clear 27 1014 56 10000 2.24 90 11:51 15.06.2021
2254 Clear 27 1012 60 10000 3.18 46 11:19 15.06.2021
2255 Clear 26 1012 66 10000 3.18 46 10:53 15.06.2021
2256 Clear 26 1012 66 10000 3.17 47 10:34 15.06.2021
2257 Clear 24 1014 69 10000 2.24 90 09:40 15.06.2021
2258 Clear 24 1011 71 10000 0.78 323 08:29 15.06.2021
2259 Clear 24 1011 67 10000 0.78 323 07:46 15.06.2021
2260 Clear 23 1010 61 10000 1.03 275 06:38 15.06.2021
2261 Clear 22 1012 54 10000 1.34 315 04:32 15.06.2021
2262 Clear 24 1010 67 10000 1.43 112 00:49 15.06.2021
2263 Clear 24 1011 67 10000 1.22 131 23:59 14.06.2021
2264 Clear 24 1011 67 10000 1.31 147 23:26 14.06.2021
2265 Clear 25 1010 67 10000 1.31 147 22:43 14.06.2021
2266 Clear 25 1011 66 10000 1.15 141 22:21 14.06.2021
2267 Clear 25 1010 68 10000 1.15 141 21:47 14.06.2021
2268 Clear 25 1010 66 10000 1.04 65 21:24 14.06.2021
2269 Clear 25 1010 66 10000 0.72 63 20:55 14.06.2021
2270 Clear 25 1010 66 10000 1.04 65 20:55 14.06.2021
2271 Clear 26 1010 61 10000 1.43 23 20:23 14.06.2021
2272 Clear 26 1012 60 10000 1.43 23 19:39 14.06.2021
2273 Clear 26 1012 58 10000 0.45 90 19:18 14.06.2021
2274 Clear 25 1017 55 10000 1.34 135 18:42 14.06.2021
2275 Clear 26 1017 51 10000 1.34 90 18:18 14.06.2021
2276 Clear 26 1017 45 10000 1.79 158 17:30 14.06.2021
2277 Clear 27 1017 39 10000 0.89 135 16:43 14.06.2021
2278 Clear 27 1018 36 10000 1.79 135 15:51 14.06.2021
2279 Clear 27 1018 36 10000 1.79 45 15:33 14.06.2021
2280 Clear 27 1018 36 10000 1.79 202 14:51 14.06.2021
2281 Clear 28 1014 36 10000 0.45 316 13:44 14.06.2021
2282 Clear 29 1014 36 10000 0.45 14 12:56 14.06.2021
2283 Clear 28 1014 37 10000 0.89 342 12:37 14.06.2021
2284 Clear 28 1014 38 10000 1.79 90 11:56 14.06.2021
2285 Clear 28 1014 39 10000 0.45 279 11:19 14.06.2021
2286 Clear 27 1015 40 10000 1.79 90 10:19 14.06.2021
2287 Clear 26 1015 42 10000 2.24 135 09:25 14.06.2021
2288 Clear 25 1012 47 10000 1.53 51 08:43 14.06.2021
2289 Clear 24 1015 51 10000 1.36 98 07:54 14.06.2021
2290 Clear 23 1013 55 10000 1.56 127 07:19 14.06.2021
2291 Clear 21 1015 55 10000 1.02 129 04:59 14.06.2021
2292 Clear 22 1013 64 10000 0.49 31 02:37 14.06.2021
2293 Clear 23 1016 61 10000 0.45 315 23:56 13.06.2021
2294 Clear 23 1016 64 10000 0.45 270 23:24 13.06.2021
2295 Clear 24 1014 70 10000 0.46 178 22:41 13.06.2021
2296 Clear 24 1014 72 10000 0.47 166 22:20 13.06.2021
2297 Clear 24 1014 72 10000 0.47 166 21:50 13.06.2021
2298 Clear 25 1013 70 10000 0.58 132 21:32 13.06.2021
2299 Clear 25 1013 68 10000 0.58 132 20:47 13.06.2021
2300 Clear 25 1013 68 10000 1.61 70 20:29 13.06.2021
2301 Clear 26 1013 62 10000 1.62 70 19:46 13.06.2021
2302 Clear 25 1015 62 10000 0.45 90 19:25 13.06.2021
2303 Clear 25 1020 62 10000 1.34 90 18:52 13.06.2021
2304 Clear 25 1020 60 10000 1.79 90 18:20 13.06.2021
2305 Clear 25 1020 55 10000 1.79 135 17:27 13.06.2021
2306 Clear 26 1020 57 10000 1.34 90 16:37 13.06.2021
2307 Clear 26 1020 54 10000 1.79 90 15:39 13.06.2021
2308 Clear 26 1021 55 10000 1.79 112 14:46 13.06.2021
2309 Clouds 26 1021 59 10000 2.24 180 14:20 13.06.2021
2310 Clouds 26 1016 61 10000 0.89 358 13:25 13.06.2021
2311 Clouds 26 1016 61 10000 0.89 358 13:25 13.06.2021
2312 Clouds 27 1016 60 10000 0.89 9 12:52 13.06.2021
2313 Clouds 27 1016 58 10000 0.45 336 12:31 13.06.2021
2314 Clouds 26 1017 58 10000 3.58 135 11:45 13.06.2021
2315 Clouds 26 1017 58 10000 1.79 90 10:49 13.06.2021
2316 Clouds 25 1016 60 10000 1.79 180 10:31 13.06.2021
2317 Clouds 25 1016 62 10000 0.45 90 09:48 13.06.2021
2318 Clouds 24 1016 65 10000 1.34 90 09:26 13.06.2021
2319 Clouds 23 1017 70 10000 0.89 90 08:51 13.06.2021
2320 Clouds 23 1017 73 10000 0.89 90 08:32 13.06.2021
2321 Clouds 22 1016 74 10000 0.45 90 07:34 13.06.2021
2322 Clear 20 1015 83 10000 0.89 270 04:20 13.06.2021
2323 Clear 23 1014 82 10000 0.99 203 23:50 12.06.2021
2324 Clear 23 1014 78 10000 0.5 193 22:58 12.06.2021
2325 Clear 23 1014 78 10000 0.64 85 22:29 12.06.2021
2326 Clear 23 1013 78 10000 1.34 356 21:44 12.06.2021
2327 Clear 23 1012 75 10000 0.45 348 20:52 12.06.2021
2328 Clear 24 1012 73 10000 0.45 343 20:21 12.06.2021
2329 Clear 24 1012 71 10000 0.45 349 19:57 12.06.2021
2330 Clear 24 1015 58 10000 2.68 128 18:53 12.06.2021
2331 Clear 24 1019 57 10000 1.79 315 18:27 12.06.2021
2332 Clear 24 1019 55 10000 1.34 270 17:32 12.06.2021
2333 Clear 24 1019 55 10000 1.79 292 16:58 12.06.2021
2334 Clouds 24 1018 61 10000 3.58 0 15:40 12.06.2021
2335 Clouds 26 1014 64 10000 0.89 2 14:51 12.06.2021
2336 Clouds 25 1014 66 10000 2.24 3 14:31 12.06.2021
2337 Clouds 25 1014 65 10000 1.34 32 13:57 12.06.2021
2338 Clouds 24 1015 71 10000 2.68 9 12:40 12.06.2021
2339 Clouds 25 1014 70 10000 1.34 11 12:22 12.06.2021
2340 Clouds 24 1015 72 10000 0.89 315 11:34 12.06.2021
2341 Clouds 25 1015 61 10000 0.89 304 10:43 12.06.2021
2342 Clouds 25 1014 61 10000 1.34 270 10:25 12.06.2021
2343 Clouds 24 1014 61 10000 1.34 315 09:45 12.06.2021
2344 Clouds 23 1015 63 10000 1.79 315 08:25 12.06.2021
2345 Clouds 21 1014 65 10000 0.76 236 07:23 12.06.2021
2346 Clouds 20 1013 69 10000 0.89 270 05:36 12.06.2021
2347 Clear 22 1014 63 10000 0.45 270 00:23 12.06.2021
2348 Clear 23 1011 73 10000 0.98 95 22:26 11.06.2021
2349 Clear 23 1011 75 10000 0.98 95 21:54 11.06.2021
2350 Clear 23 1011 76 10000 0.98 95 21:34 11.06.2021
2351 Clear 24 1011 72 10000 0.89 334 20:51 11.06.2021
2352 Clouds 25 1010 66 10000 1.25 48 20:20 11.06.2021
2353 Clouds 25 1010 64 10000 1.7 51 19:19 11.06.2021
2354 Clouds 25 1012 55 10000 1.79 135 18:32 11.06.2021
2355 Clouds 24 1017 53 10000 1.79 135 17:47 11.06.2021
2356 Clouds 24 1017 51 10000 3.13 135 16:33 11.06.2021
2357 Clouds 25 1015 58 10000 3.72 10 15:25 11.06.2021
2358 Clouds 25 1018 55 10000 0.45 270 14:36 11.06.2021
2359 Clouds 26 1013 47 10000 1.34 2 13:34 11.06.2021
2360 Clear 25 1013 55 10000 0.89 2 12:28 11.06.2021
2361 Clear 26 1013 57 10000 2.24 14 11:40 11.06.2021
2362 Clear 25 1013 58 10000 2.68 180 11:21 11.06.2021
2363 Clear 23 1013 69 10000 2.24 90 09:34 11.06.2021
2364 Clear 23 1011 72 10000 1.56 357 08:49 11.06.2021
2365 Clear 21 1013 72 10000 0.45 90 07:48 11.06.2021
2366 Clear 20 1012 69 10000 2.68 315 04:46 11.06.2021
2367 Clouds 22 1011 75 10000 1.18 291 23:45 10.06.2021
2368 Clouds 22 1011 75 10000 0.65 273 22:42 10.06.2021
2369 Clouds 22 1011 75 10000 0.65 273 22:42 10.06.2021
2370 Clear 21 1013 75 10000 0.89 270 22:20 10.06.2021
2371 Clear 22 1011 76 10000 0.48 7 21:28 10.06.2021
2372 Clear 23 1011 75 10000 0.48 7 20:50 10.06.2021
2373 Clouds 23 1011 73 10000 0.45 350 19:47 10.06.2021
2374 Clouds 24 1010 72 10000 0.89 349 19:22 10.06.2021
2375 Clouds 24 1012 61 10000 1.79 1 18:30 10.06.2021
2376 Clouds 23 1017 61 10000 4.47 315 17:54 10.06.2021
2377 Clouds 24 1017 56 10000 3.13 315 17:21 10.06.2021
2378 Clouds 24 1017 57 10000 3.58 315 16:43 10.06.2021
2379 Clear 24 1017 61 10000 4.02 315 15:20 10.06.2021
2380 Clouds 24 1013 63 10000 0.45 352 13:37 10.06.2021
2381 Clouds 25 1013 63 10000 0.45 357 12:28 10.06.2021
2382 Clouds 24 1013 67 10000 0.45 2 11:26 10.06.2021
2383 Clouds 23 1013 71 10000 0.45 352 10:32 10.06.2021
2384 Clouds 21 1010 83 10000 1.43 59 07:34 10.06.2021
2385 Clear 21 1011 84 10000 0.45 339 00:26 10.06.2021
2386 Clear 21 1011 84 10000 1.86 306 23:59 09.06.2021
2387 Clear 21 1011 84 10000 2.25 301 22:50 09.06.2021
2388 Clear 21 1011 83 10000 1.79 14 21:43 09.06.2021
2389 Clear 21 1011 82 10000 0.45 349 21:24 09.06.2021
2390 Clear 22 1011 81 10000 0.45 358 20:36 09.06.2021
2391 Clear 22 1011 78 10000 2.68 352 19:49 09.06.2021
2392 Clear 23 1011 74 10000 0.45 6 19:19 09.06.2021
2393 Clear 23 1015 69 10000 4.49 326 16:35 09.06.2021
2394 Clear 22 1017 71 10000 7.6 292 15:32 09.06.2021
2395 Clear 24 1013 67 10000 0.89 266 14:34 09.06.2021
2396 Clear 24 1011 66 10000 0.89 15 13:34 09.06.2021
2397 Clear 23 1013 67 10000 0.45 341 12:54 09.06.2021
2398 Clear 23 1013 68 10000 0.45 19 12:35 09.06.2021
2399 Clear 23 1011 68 10000 0.45 356 11:20 09.06.2021
2400 Clear 22 1011 74 10000 1.34 341 09:28 09.06.2021
2401 Clear 22 1011 75 10000 0.45 20 08:45 09.06.2021
2402 Clear 21 1011 78 10000 1.31 272 06:59 09.06.2021
2403 Clear 20 1010 80 10000 0.45 335 05:38 09.06.2021
2404 Clear 21 1012 79 10000 0.89 358 22:55 08.06.2021
2405 Clear 21 1014 81 10000 0.89 45 22:36 08.06.2021
2406 Clear 22 1012 72 10000 1.95 311 21:18 08.06.2021
2407 Clear 22 1011 69 10000 2.72 313 19:46 08.06.2021
2408 Clear 23 1016 66 10000 4.16 321 17:53 08.06.2021
2409 Clear 23 1016 65 10000 4.16 321 17:34 08.06.2021
2410 Clear 23 1012 70 10000 1.79 9 15:29 08.06.2021
2411 Clear 24 1013 66 10000 0.89 345 13:33 08.06.2021
2412 Clear 24 1013 66 10000 0.89 345 13:33 08.06.2021
2413 Clear 24 1013 67 10000 1.34 348 11:55 08.06.2021
2414 Clear 22 1012 75 10000 0.45 4 08:19 08.06.2021
2415 Clear 19 1012 81 10000 0.37 249 04:26 08.06.2021
2416 Clear 19 1012 81 10000 0.37 249 04:26 08.06.2021
2417 Clear 20 1013 80 10000 1.14 289 23:53 07.06.2021
2418 Clouds 22 1012 79 10000 0.45 341 20:42 07.06.2021
2419 Clouds 23 1012 78 10000 0.89 8 18:56 07.06.2021
2420 Clouds 24 1012 73 10000 1.34 349 16:25 07.06.2021
2421 Clear 23 1018 68 10000 4.02 270 14:22 07.06.2021
2422 Clear 24 1014 54 10000 2.24 90 11:51 07.06.2021
2423 Clear 23 1014 56 10000 1.34 90 10:27 07.06.2021
2424 Clear 23 1014 59 10000 0.89 90 09:58 07.06.2021
2425 Clear 22 1014 62 10000 0.89 90 09:25 07.06.2021
2426 Clouds 21 1012 71 10000 1.47 198 07:41 07.06.2021
2427 Clouds 23 1013 59 10000 1.73 179 22:53 06.06.2021
2428 Clouds 22 1019 56 10000 1.56 159 20:47 06.06.2021
2429 Clouds 27 1012 49 10000 0.11 150 18:46 06.06.2021
2430 Clouds 26 1018 53 10000 1.34 90 17:35 06.06.2021
2431 Clouds 28 1013 43 10000 5.36 90 14:38 06.06.2021
2432 Clouds 28 1013 43 10000 5.36 90 14:38 06.06.2021
2433 Clouds 28 1018 35 10000 0.72 93 12:33 06.06.2021
2434 Clouds 28 1012 38 10000 0.72 93 11:50 06.06.2021
2435 Clouds 24 1016 58 10000 1.9 296 10:25 06.06.2021
2436 Clouds 21 1021 56 10000 0.89 90 09:31 06.06.2021
2437 Rain 21 1019 39 10000 1.05 212 08:57 06.06.2021
2438 Rain 23 1016 48 10000 1.41 170 08:24 06.06.2021
2439 Clouds 21 1015 47 10000 1.93 203 05:23 06.06.2021
2440 Clouds 22 1018 64 10000 2.64 144 23:19 05.06.2021
2441 Clouds 22 1018 66 10000 0.45 270 22:25 05.06.2021
2442 Clouds 24 1016 70 10000 1.85 134 20:43 05.06.2021
2443 Clouds 25 1016 60 10000 0.8 104 19:38 05.06.2021
2444 Clouds 25 1023 54 10000 1.34 90 17:20 05.06.2021
2445 Clouds 25 1023 50 10000 4.02 90 15:57 05.06.2021
2446 Clouds 28 1019 40 10000 0.45 304 13:53 05.06.2021
2447 Clouds 27 1020 39 10000 0.89 90 11:45 05.06.2021
2448 Clouds 24 1025 46 10000 1.95 101 10:53 05.06.2021
2449 Clouds 23 1020 60 10000 0.89 90 09:22 05.06.2021
2450 Rain 22 1019 69 10000 0.66 167 07:23 05.06.2021
2451 Clouds 22 1022 67 10000 3.58 270 23:35 04.06.2021
2452 Clouds 22 1021 73 10000 0.89 270 22:21 04.06.2021
2453 Clouds 23 1018 73 10000 1.91 147 21:25 04.06.2021
2454 Clouds 23 1020 67 10000 0.89 90 19:59 04.06.2021
2455 Clouds 25 1020 56 10000 0.45 90 18:27 04.06.2021
2456 Clouds 23 1025 60 10000 1.79 90 17:20 04.06.2021
2457 Clouds 24 1025 56 10000 1.79 225 15:39 04.06.2021
2458 Clear 26 1022 48 10000 1.79 90 11:59 04.06.2021
2459 Clouds 26 1022 48 10000 2.24 90 11:23 04.06.2021
2460 Clouds 22 1021 65 10000 0.89 90 07:50 04.06.2021
2461 Clouds 20 1019 72 10000 1.35 135 06:24 04.06.2021
2462 Clouds 21 1020 62 10000 0.89 248 23:50 03.06.2021
2463 Clear 22 1018 72 10000 2.13 157 21:39 03.06.2021
2464 Clear 23 1017 63 10000 2.05 92 20:28 03.06.2021
2465 Clear 24 1017 62 10000 2.05 92 19:50 03.06.2021
2466 Clear 23 1024 58 10000 1.79 90 18:22 03.06.2021
2467 Clear 24 1024 55 10000 2.24 135 15:50 03.06.2021
2468 Clear 25 1024 51 10000 2.68 90 14:44 03.06.2021
2469 Clouds 25 1019 51 10000 4.47 112 12:50 03.06.2021
2470 Clouds 23 1020 54 10000 1.34 90 09:55 03.06.2021
2471 Clouds 23 1020 54 10000 1.34 90 09:55 03.06.2021
2472 Clouds 23 1019 54 10000 1.79 45 09:55 03.06.2021
2473 Clouds 23 1020 55 10000 1.79 90 09:37 03.06.2021
2474 Clouds 21 1018 77 10000 2.2 131 07:53 03.06.2021
2475 Clouds 21 1016 66 10000 1.52 172 00:21 03.06.2021
2476 Clouds 22 1016 64 10000 1.32 122 22:30 02.06.2021
2477 Clouds 21 1017 65 10000 1.47 96 21:30 02.06.2021
2478 Clouds 22 1015 59 10000 0.96 129 20:48 02.06.2021
2479 Clouds 23 1014 56 10000 1.32 112 19:44 02.06.2021
2480 Clouds 23 1015 61 10000 1.34 180 16:58 02.06.2021
2481 Clouds 22 1016 66 10000 0.89 90 16:35 02.06.2021
2482 Clouds 24 1016 51 10000 0.45 90 13:51 02.06.2021
2483 Clouds 24 1015 49 10000 0.45 349 12:23 02.06.2021
2484 Clouds 24 1013 56 10000 2.24 79 10:42 02.06.2021
2485 Clouds 24 1013 56 10000 0.45 39 10:19 02.06.2021
2486 Clouds 23 1015 56 10000 2.68 90 09:41 02.06.2021
2487 Clouds 21 1013 57 10000 1.99 93 08:44 02.06.2021
2488 Clouds 20 1013 61 10000 1.93 134 07:21 02.06.2021
2489 Clouds 20 1012 56 10000 2.82 102 03:52 02.06.2021
2490 Clouds 20 1012 53 10000 2.26 138 00:34 02.06.2021
2491 Clouds 22 1012 54 10000 2.85 138 21:44 01.06.2021
2492 Clouds 22 1012 53 10000 2.9 118 20:49 01.06.2021
2493 Clouds 21 1018 45 10000 0.89 90 19:44 01.06.2021
2494 Clouds 25 1011 49 10000 3.62 61 17:18 01.06.2021
2495 Clouds 25 1012 52 10000 3.75 52 15:34 01.06.2021
2496 Clouds 24 1014 53 10000 2.68 135 13:19 01.06.2021
2497 Clouds 24 1014 52 10000 2.68 135 12:28 01.06.2021
2498 Clouds 23 1015 55 10000 3.13 135 11:30 01.06.2021
2499 Clouds 23 1014 57 10000 2.68 135 10:58 01.06.2021
2500 Clouds 22 1014 65 10000 1.79 135 09:58 01.06.2021
2501 Clouds 20 1013 78 10000 1.64 59 08:54 01.06.2021
2502 Clouds 20 1012 78 10000 1.46 88 07:43 01.06.2021
2503 Clouds 19 1012 79 10000 1.63 106 01:28 01.06.2021
2504 Clouds 20 1012 80 10000 1.59 109 23:40 31.05.2021
2505 Clouds 19 1014 83 10000 1.44 127 23:19 31.05.2021
2506 Clouds 20 1014 81 10000 0.89 90 22:24 31.05.2021
2507 Clouds 21 1011 77 10000 1.57 88 20:56 31.05.2021
2508 Clouds 21 1011 74 10000 1.94 53 20:19 31.05.2021
2509 Clouds 23 1011 67 10000 2.38 30 18:42 31.05.2021
2510 Clouds 22 1017 67 10000 1.79 158 17:44 31.05.2021
2511 Clouds 23 1013 64 10000 1.34 350 16:48 31.05.2021
2512 Clouds 23 1013 65 10000 1.79 7 15:41 31.05.2021
2513 Clouds 23 1013 67 10000 1.34 355 13:25 31.05.2021
2514 Clouds 23 1013 68 10000 2.68 135 12:54 31.05.2021
2515 Clouds 23 1013 71 10000 0.89 336 12:27 31.05.2021
2516 Clouds 22 1013 72 10000 0.45 343 11:47 31.05.2021
2517 Clouds 22 1013 74 10000 0.89 355 10:31 31.05.2021
2518 Clouds 22 1013 68 10000 0.45 345 09:32 31.05.2021
2519 Clouds 21 1012 76 10000 1.07 251 08:24 31.05.2021
2520 Clouds 20 1012 76 10000 1.07 251 07:41 31.05.2021
2521 Clouds 20 1012 71 10000 0.92 231 06:49 31.05.2021
2522 Clouds 20 1014 79 10000 0.89 315 23:56 30.05.2021
2523 Clouds 20 1012 81 10000 0.57 203 23:20 30.05.2021
2524 Clouds 21 1012 80 10000 0.57 203 22:34 30.05.2021
2525 Clouds 21 1011 80 10000 0.53 115 21:44 30.05.2021
2526 Clouds 21 1011 78 10000 0.49 108 21:25 30.05.2021
2527 Clouds 21 1013 77 10000 0.45 348 20:50 30.05.2021
2528 Clear 21 1013 77 10000 1.2 116 20:31 30.05.2021
2529 Clouds 22 1010 69 10000 1.39 56 19:49 30.05.2021
2530 Clouds 23 1010 67 10000 1.7 31 18:51 30.05.2021
2531 Clouds 22 1017 70 10000 2.68 90 17:46 30.05.2021
2532 Clouds 22 1017 67 10000 1.79 180 16:57 30.05.2021
2533 Clouds 22 1017 67 10000 1.34 225 16:31 30.05.2021
2534 Clouds 22 1017 67 10000 1.34 225 16:31 30.05.2021
2535 Clear 22 1017 61 10000 3.58 135 15:49 30.05.2021
2536 Clear 24 1012 56 10000 1.34 18 14:58 30.05.2021
2537 Clear 24 1013 58 10000 1.34 2 13:32 30.05.2021
2538 Clear 24 1013 62 10000 0.45 2 11:59 30.05.2021
2539 Clear 24 1013 62 10000 0.45 358 10:59 30.05.2021
2540 Clear 24 1013 63 10000 1.34 90 10:37 30.05.2021
2541 Clear 23 1013 66 10000 1.34 90 09:55 30.05.2021
2542 Clear 22 1013 69 10000 1.79 90 09:35 30.05.2021
2543 Clear 21 1013 74 10000 1.79 90 08:52 30.05.2021
2544 Clear 20 1014 76 10000 0.89 90 07:44 30.05.2021
2545 Clear 18 1013 71 10000 0.45 90 04:23 30.05.2021
2546 Clear 21 1012 67 10000 1.16 255 00:49 30.05.2021
2547 Clear 20 1014 64 10000 0.89 292 23:32 29.05.2021
2548 Clear 20 1014 69 10000 0.45 270 22:25 29.05.2021
2549 Clear 20 1014 72 10000 0.45 225 21:52 29.05.2021
2550 Clouds 22 1012 72 10000 1.16 166 21:18 29.05.2021
2551 Clouds 20 1018 75 10000 1.16 166 20:42 29.05.2021
2552 Clouds 23 1011 65 10000 0.9 98 20:22 29.05.2021
2553 Clouds 23 1011 66 10000 0.9 98 19:39 29.05.2021
2554 Clouds 23 1018 46 10000 1.34 180 17:55 29.05.2021
2555 Clouds 24 1018 41 10000 2.68 315 16:58 29.05.2021
2556 Clouds 24 1018 52 10000 3.13 135 15:52 29.05.2021
2557 Clouds 25 1013 57 10000 3.13 135 14:49 29.05.2021
2558 Clouds 24 1014 66 10000 2.24 135 13:52 29.05.2021
2559 Clouds 24 1014 66 10000 1.34 135 12:48 29.05.2021
2560 Clouds 24 1014 62 10000 0.89 90 12:28 29.05.2021
2561 Clouds 24 1014 51 10000 0.45 358 11:51 29.05.2021
2562 Clouds 24 1014 52 10000 0.89 5 11:24 29.05.2021
2563 Clouds 24 1014 53 10000 0.45 3 10:48 29.05.2021
2564 Clouds 22 1019 52 10000 4.92 248 10:25 29.05.2021
2565 Clouds 23 1012 64 10000 1.04 323 09:22 29.05.2021
2566 Clouds 22 1014 61 10000 0.89 315 08:50 29.05.2021
2567 Clouds 20 1013 74 10000 0.45 344 07:31 29.05.2021
2568 Clouds 20 1011 82 10000 2.78 120 06:48 29.05.2021
2569 Clouds 20 1015 76 10000 2.24 315 00:32 29.05.2021
2570 Clouds 20 1015 76 10000 0.89 292 23:21 28.05.2021
2571 Clouds 21 1012 73 10000 1.72 132 21:49 28.05.2021
2572 Clouds 21 1012 72 10000 2.51 117 21:30 28.05.2021
2573 Clouds 22 1011 71 10000 2.7 101 20:27 28.05.2021
2574 Clouds 22 1011 66 10000 2.7 101 19:46 28.05.2021
2575 Clouds 23 1011 62 10000 3.17 101 19:28 28.05.2021
2576 Clouds 22 1013 64 10000 1.34 135 18:42 28.05.2021
2577 Clouds 22 1013 62 10000 1.34 90 18:23 28.05.2021
2578 Clear 21 1017 68 10000 1.79 180 17:23 28.05.2021
2579 Clear 24 1013 58 10000 4.02 135 16:28 28.05.2021
2580 Clear 24 1014 60 10000 0.45 307 15:42 28.05.2021
2581 Clear 24 1014 58 10000 3.13 90 14:59 28.05.2021
2582 Clouds 24 1014 59 10000 3.58 135 14:36 28.05.2021
2583 Clouds 23 1014 63 10000 4.47 90 13:45 28.05.2021
2584 Clouds 22 1015 68 10000 1.79 135 12:57 28.05.2021
2585 Clouds 22 1015 69 10000 3.58 90 12:25 28.05.2021
2586 Clouds 22 1015 68 10000 1.79 90 11:32 28.05.2021
2587 Clouds 22 1015 68 10000 3.13 135 10:52 28.05.2021
2588 Clouds 21 1015 70 10000 1.34 90 10:24 28.05.2021
2589 Clouds 21 1013 73 10000 2.51 92 09:29 28.05.2021
2590 Clouds 21 1013 78 10000 2.51 92 08:47 28.05.2021
2591 Clouds 20 1013 79 10000 3.21 93 08:23 28.05.2021
2592 Clouds 20 1013 78 10000 3.21 93 07:38 28.05.2021
2593 Clouds 19 1013 77 10000 2.59 102 06:50 28.05.2021
2594 Clouds 18 1012 81 10000 2.42 91 05:57 28.05.2021
2595 Clouds 18 1013 77 10000 0.45 270 03:32 28.05.2021
2596 Clouds 20 1012 77 10000 1.96 133 23:42 27.05.2021
2597 Clouds 19 1017 72 10000 2.02 124 22:50 27.05.2021
2598 Clouds 21 1012 79 10000 2.27 128 22:20 27.05.2021
2599 Clouds 21 1012 77 10000 2.27 128 21:44 27.05.2021
2600 Clear 20 1017 74 10000 2.65 115 21:26 27.05.2021
2601 Clear 20 1015 77 10000 7.2 50 20:46 27.05.2021
2602 Clear 21 1011 70 10000 2.52 87 20:18 27.05.2021
2603 Clear 22 1011 69 10000 0.45 258 19:30 27.05.2021
2604 Clear 23 1011 65 10000 2.79 65 18:41 27.05.2021
2605 Clear 24 1011 62 10000 2.92 54 18:20 27.05.2021
2606 Clear 23 1016 58 10000 3.04 41 17:25 27.05.2021
2607 Clear 23 1016 57 10000 3.04 41 16:48 27.05.2021
2608 Clear 23 1016 53 10000 3.16 32 16:28 27.05.2021
2609 Clear 23 1016 45 10000 3.16 32 15:42 27.05.2021
2610 Clear 24 1015 68 10000 5.66 40 15:18 27.05.2021
2611 Clear 24 1011 47 10000 3.37 24 14:31 27.05.2021
2612 Clouds 24 1011 52 10000 3.08 18 13:54 27.05.2021
2613 Clouds 24 1012 53 10000 1.74 19 13:22 27.05.2021
2614 Clouds 24 1012 54 10000 1.74 19 12:59 27.05.2021
2615 Clouds 24 1012 53 10000 1.74 19 12:40 27.05.2021
2616 Clouds 24 1012 53 10000 1.42 69 12:22 27.05.2021
2617 Clouds 23 1012 53 10000 0.45 357 11:33 27.05.2021
2618 Clouds 24 1012 56 10000 1.66 104 10:54 27.05.2021
2619 Clouds 22 1012 61 10000 2.53 96 10:27 27.05.2021
2620 Clouds 21 1012 68 10000 2.53 96 09:54 27.05.2021
2621 Clouds 21 1013 60 10000 2.08 70 08:53 27.05.2021
2622 Clouds 20 1013 63 10000 1.8 78 08:26 27.05.2021
2623 Clouds 18 1012 66 10000 2.13 106 06:44 27.05.2021
2624 Clouds 18 1012 63 10000 0.76 143 01:54 27.05.2021
2625 Clouds 19 1013 59 10000 2.05 134 00:35 27.05.2021
2626 Clouds 19 1013 56 10000 1.88 161 23:33 26.05.2021
2627 Clouds 18 1015 57 10000 0.89 90 22:50 26.05.2021
2628 Clouds 18 1015 57 10000 0.45 90 22:32 26.05.2021
2629 Clear 17 1019 61 10000 2.09 117 21:43 26.05.2021
2630 Clear 19 1015 53 10000 2.39 98 21:24 26.05.2021
2631 Clear 20 1013 49 10000 2.39 98 20:59 26.05.2021
2632 Clouds 18 1019 58 10000 2.51 109 20:41 26.05.2021
2633 Clouds 21 1013 49 10000 2.98 82 20:20 26.05.2021
2634 Clouds 20 1017 56 10000 2.98 82 19:44 26.05.2021
2635 Clouds 20 1017 56 10000 2.98 82 19:44 26.05.2021
2636 Clouds 22 1013 43 10000 1.34 347 19:20 26.05.2021
2637 Clouds 22 1018 40 10000 2.78 61 18:43 26.05.2021
2638 Clouds 22 1020 41 10000 0.45 180 17:45 26.05.2021
2639 Clouds 22 1020 40 10000 0.89 180 16:56 26.05.2021
2640 Clouds 22 1020 41 10000 2.24 90 16:36 26.05.2021
2641 Clouds 22 1020 39 10000 2.24 135 16:18 26.05.2021
2642 Clouds 23 1020 36 10000 1.79 90 15:41 26.05.2021
2643 Clouds 23 1020 35 10000 1.79 135 15:23 26.05.2021
2644 Clouds 23 1021 33 10000 1.79 135 14:45 26.05.2021
2645 Clouds 23 1021 33 10000 3.13 90 14:19 26.05.2021
2646 Clouds 24 1016 28 10000 0.89 10 13:42 26.05.2021
2647 Clouds 24 1017 26 10000 1.79 270 12:51 26.05.2021
2648 Clear 24 1017 26 10000 2.24 45 12:28 26.05.2021
2649 Clear 23 1017 27 10000 3.37 54 11:40 26.05.2021
2650 Clear 23 1018 27 10000 0.45 295 11:21 26.05.2021
2651 Clear 23 1017 29 10000 1.79 90 10:38 26.05.2021
2652 Clear 22 1018 32 10000 0.89 180 09:59 26.05.2021
2653 Clear 21 1018 34 10000 1.79 158 09:41 26.05.2021
2654 Clear 21 1018 39 10000 2.24 90 08:59 26.05.2021
2655 Clear 20 1016 42 10000 2.35 71 08:35 26.05.2021
2656 Clouds 18 1018 47 10000 0.89 90 07:35 26.05.2021
2657 Clouds 16 1018 54 10000 0.45 90 06:25 26.05.2021
2658 Clouds 16 1018 54 10000 0.89 45 04:27 26.05.2021
2659 Clear 18 1017 56 10000 2.61 99 23:52 25.05.2021
2660 Clear 19 1017 58 10000 2.49 93 22:55 25.05.2021
2661 Clear 19 1017 61 10000 2.8 85 22:31 25.05.2021
2662 Clear 19 1017 63 10000 2.8 85 21:52 25.05.2021
2663 Clear 19 1017 63 10000 2.83 68 21:29 25.05.2021
2664 Clear 19 1022 68 10000 2.87 68 20:44 25.05.2021
2665 Clouds 20 1017 59 10000 3.21 55 20:26 25.05.2021
2666 Clouds 20 1019 55 10000 0.45 348 19:38 25.05.2021
2667 Clouds 20 1019 55 10000 0.45 346 19:20 25.05.2021
2668 Clouds 20 1018 58 10000 1.34 349 18:42 25.05.2021
2669 Clouds 21 1018 60 10000 2.24 90 18:24 25.05.2021
2670 Clouds 19 1022 75 10000 3.58 270 17:20 25.05.2021
2671 Clouds 21 1018 72 10000 1.34 6 16:38 25.05.2021
2672 Clouds 21 1018 75 10000 2.24 9 15:58 25.05.2021
2673 Clouds 21 1019 75 10000 1.34 17 15:35 25.05.2021
2674 Clouds 21 1018 74 10000 1.34 19 14:59 25.05.2021
2675 Clouds 22 1018 73 10000 1.34 356 14:41 25.05.2021
2676 Clouds 22 1018 71 10000 3.13 6 13:57 25.05.2021
2677 Clouds 22 1018 72 10000 1.34 359 13:38 25.05.2021
2678 Clouds 23 1019 71 10000 0.89 90 12:52 25.05.2021
2679 Clouds 23 1019 71 10000 0.89 90 12:51 25.05.2021
2680 Clouds 23 1019 69 10000 2.24 90 12:32 25.05.2021
2681 Clouds 22 1019 74 10000 1.79 90 11:45 25.05.2021
2682 Clouds 22 1019 74 10000 1.79 90 11:45 25.05.2021
2683 Clouds 22 1019 74 10000 1.79 90 11:45 25.05.2021
2684 Clouds 22 1019 74 10000 1.79 90 11:45 25.05.2021
2685 Clouds 22 1019 74 10000 1.79 90 11:45 25.05.2021
2686 Clouds 21 1019 78 10000 1.79 90 11:26 25.05.2021
2687 Clouds 20 1019 79 10000 0.89 354 10:57 25.05.2021
2688 Clouds 20 1019 82 10000 0.89 17 10:25 25.05.2021
2689 Clouds 19 1019 86 10000 0.45 355 09:33 25.05.2021
2690 Clouds 19 1017 85 10000 1.34 359 08:22 25.05.2021
2691 Clear 19 1016 87 10000 2.92 4 07:21 25.05.2021
2692 Clear 19 1015 81 10000 2.39 271 05:28 25.05.2021
2693 Clear 19 1015 80 10000 3.52 285 02:53 25.05.2021
2694 Clear 19 1017 80 10000 1.79 270 00:20 25.05.2021
2695 Clear 19 1017 78 10000 2.62 256 23:29 24.05.2021
2696 Clear 20 1017 77 10000 1.34 315 22:42 24.05.2021
2697 Clear 20 1017 75 10000 0.45 340 22:23 24.05.2021
2698 Clear 19 1020 76 10000 3.7 266 21:40 24.05.2021
2699 Clouds 19 1020 76 10000 0.45 315 21:18 24.05.2021
2700 Clouds 21 1018 76 10000 4.27 257 20:34 24.05.2021
2701 Clouds 20 1019 70 10000 3.13 315 19:57 24.05.2021
2702 Clouds 22 1018 70 10000 5.16 268 19:39 24.05.2021
2703 Clouds 22 1019 66 10000 3.58 180 19:20 24.05.2021
2704 Clouds 23 1018 45 10000 5.36 225 18:43 24.05.2021
2705 Clouds 24 1018 29 10000 4.02 225 18:23 24.05.2021
2706 Clouds 25 1016 43 10000 3.68 258 17:36 24.05.2021
2707 Clouds 25 1016 37 10000 3.94 239 17:18 24.05.2021
2708 Clouds 26 1016 37 10000 3.94 239 16:40 24.05.2021
2709 Clear 26 1018 28 10000 2.68 135 15:44 24.05.2021
2710 Clouds 26 1016 38 10000 3.38 270 14:57 24.05.2021
2711 Clouds 27 1016 38 10000 3.38 270 14:35 24.05.2021
2712 Clear 29 1011 21 10000 1.79 350 13:47 24.05.2021
2713 Clear 30 1013 20 10000 0.89 11 13:26 24.05.2021
2714 Clear 30 1013 21 10000 0.45 5 12:45 24.05.2021
2715 Clear 29 1013 21 10000 0.45 344 12:27 24.05.2021
2716 Clear 28 1013 24 10000 0.89 135 11:37 24.05.2021
2717 Clear 28 1013 25 10000 0.45 358 11:18 24.05.2021
2718 Clear 28 1013 30 10000 1.34 8 10:35 24.05.2021
2719 Clear 27 1013 38 10000 0.89 90 09:47 24.05.2021
2720 Clear 26 1013 40 10000 0.89 90 09:22 24.05.2021
2721 Clear 25 1013 44 10000 0.89 90 08:48 24.05.2021
2722 Clear 24 1011 52 10000 1.42 152 08:19 24.05.2021
2723 Clear 21 1011 58 10000 2.65 147 06:24 24.05.2021
2724 Clear 20 1011 57 10000 0.96 150 03:59 24.05.2021
2725 Clear 22 1011 55 10000 1.71 142 01:37 24.05.2021
2726 Clear 23 1012 52 10000 1.72 144 00:24 24.05.2021
2727 Clear 20 1018 59 10000 1.72 144 23:35 23.05.2021
2728 Clear 20 1018 62 10000 1.16 145 22:44 23.05.2021
2729 Clear 20 1018 65 10000 0.95 112 22:24 23.05.2021
2730 Clear 22 1018 65 10000 0.95 112 21:39 23.05.2021
2731 Clouds 22 1017 64 10000 1.74 10 21:19 23.05.2021
2732 Clouds 22 1017 64 10000 1.74 10 20:42 23.05.2021
2733 Clouds 23 1016 55 10000 2.13 2 20:21 23.05.2021
2734 Clouds 24 1016 56 10000 2.19 3 19:42 23.05.2021
2735 Clouds 27 1011 33 10000 1.86 101 19:22 23.05.2021
2736 Clouds 27 1010 30 10000 2.79 129 18:29 23.05.2021
2737 Clouds 24 1015 43 10000 2.79 129 17:45 23.05.2021
2738 Clouds 28 1010 32 10000 2.32 127 17:27 23.05.2021
2739 Clouds 27 1016 44 10000 2.32 127 16:48 23.05.2021
2740 Clouds 27 1016 45 10000 2.16 117 16:25 23.05.2021
2741 Clouds 27 1016 45 10000 2.16 117 15:58 23.05.2021
2742 Clouds 27 1016 45 10000 2.16 117 15:32 23.05.2021
2743 Clouds 27 1017 43 10000 0.86 70 14:52 23.05.2021
2744 Clouds 28 1013 28 10000 1.97 117 14:33 23.05.2021
2745 Clouds 28 1013 31 10000 1.44 98 13:42 23.05.2021
2746 Clouds 27 1013 41 10000 1.71 102 12:48 23.05.2021
2747 Clouds 27 1013 44 10000 0.93 68 12:24 23.05.2021
2748 Clouds 27 1013 41 10000 0.93 68 11:38 23.05.2021
2749 Clouds 27 1013 40 10000 0.91 35 11:18 23.05.2021
2750 Clouds 26 1012 42 10000 0.91 35 10:31 23.05.2021
2751 Clouds 25 1013 44 10000 0.45 351 09:55 23.05.2021
2752 Clear 25 1013 41 10000 0.78 65 09:19 23.05.2021
2753 Clear 23 1013 45 10000 0.73 146 08:19 23.05.2021
2754 Clear 22 1013 47 10000 0.73 146 07:43 23.05.2021
2755 Clear 21 1012 49 10000 1.15 153 07:23 23.05.2021
2756 Clear 20 1011 49 10000 1.93 191 02:45 23.05.2021
2757 Clear 22 1011 53 10000 2.78 197 00:40 23.05.2021
2758 Clear 21 1011 58 10000 2.51 176 23:29 22.05.2021
2759 Clear 21 1011 61 10000 2.45 175 22:59 22.05.2021
2760 Clear 21 1011 61 10000 2.51 176 22:40 22.05.2021
2761 Clear 22 1011 60 10000 2.76 157 22:21 22.05.2021
2762 Clear 22 1011 60 10000 2.76 157 21:42 22.05.2021
2763 Clear 22 1011 59 10000 2.76 157 21:42 22.05.2021
2764 Clouds 23 1011 60 10000 3.06 146 20:59 22.05.2021
2765 Clouds 24 1016 57 10000 3.06 146 20:36 22.05.2021
2766 Clouds 23 1016 55 10000 2.99 152 19:47 22.05.2021
2767 Clouds 24 1011 48 10000 2.62 154 19:28 22.05.2021
2768 Clouds 24 1011 46 10000 2.62 154 18:52 22.05.2021
2769 Clouds 24 1015 46 10000 2.19 146 18:26 22.05.2021
2770 Clouds 24 1015 46 10000 2.19 146 17:53 22.05.2021
2771 Clouds 24 1016 45 10000 2.06 136 17:28 22.05.2021
2772 Clouds 24 1016 45 10000 2.06 136 16:43 22.05.2021
2773 Clouds 25 1016 43 10000 1.85 130 15:45 22.05.2021
2774 Clouds 24 1016 42 10000 2.01 111 15:26 22.05.2021
2775 Clouds 26 1011 43 10000 0.89 1 14:29 22.05.2021
2776 Clouds 26 1011 45 10000 2.31 98 13:52 22.05.2021
2777 Clouds 26 1011 46 10000 1.34 347 13:31 22.05.2021
2778 Clouds 25 1012 37 10000 1.96 107 12:41 22.05.2021
2779 Clouds 25 1012 35 10000 0.45 2 12:22 22.05.2021
2780 Clouds 24 1012 34 10000 0.45 346 11:40 22.05.2021
2781 Clouds 23 1013 34 10000 0.45 355 10:40 22.05.2021
2782 Clouds 23 1013 36 10000 0.45 339 10:22 22.05.2021
2783 Clouds 21 1013 47 10000 0.45 343 08:56 22.05.2021
2784 Clouds 20 1013 52 10000 2 165 08:33 22.05.2021
2785 Clouds 18 1013 53 10000 2.07 158 07:42 22.05.2021
2786 Clouds 16 1012 51 10000 2.64 179 05:39 22.05.2021
2787 Clouds 16 1014 58 10000 2.74 185 02:31 22.05.2021
2788 Clouds 18 1016 60 10000 2.18 168 23:43 21.05.2021
2789 Clouds 19 1016 60 10000 2.01 180 22:50 21.05.2021
2790 Clouds 20 1016 63 10000 2.18 180 22:27 21.05.2021
2791 Clouds 16 1022 68 10000 0.45 90 21:49 21.05.2021
2792 Clouds 17 1022 68 10000 0.45 90 21:25 21.05.2021
2793 Clouds 19 1020 66 10000 2.23 167 20:50 21.05.2021
2794 Clouds 19 1020 67 10000 2.11 167 20:50 21.05.2021
2795 Clouds 20 1016 56 10000 1.76 133 20:29 21.05.2021
2796 Clouds 21 1016 54 10000 1.76 133 19:53 21.05.2021
2797 Clouds 21 1016 50 10000 1.25 103 19:28 21.05.2021
2798 Clouds 19 1022 61 10000 0.89 90 18:47 21.05.2021
2799 Clouds 21 1019 51 10000 1.79 90 18:25 21.05.2021
2800 Clouds 20 1022 54 10000 1.79 90 17:40 21.05.2021
2801 Clouds 20 1022 54 10000 1.79 90 17:40 21.05.2021
2802 Clouds 20 1022 52 10000 1.26 72 17:21 21.05.2021
2803 Clouds 21 1023 37 10000 1.79 135 16:40 21.05.2021
2804 Clouds 21 1023 36 10000 1.79 90 16:20 21.05.2021
2805 Clouds 21 1023 34 10000 4.02 90 15:44 21.05.2021
2806 Clouds 21 1023 35 10000 2.24 135 15:25 21.05.2021
2807 Clear 21 1021 49 10000 7.2 50 14:37 21.05.2021
2808 Clouds 23 1019 35 10000 0.89 45 13:44 21.05.2021
2809 Clouds 22 1019 35 10000 0.45 296 13:24 21.05.2021
2810 Clouds 22 1020 36 10000 4.02 135 12:23 21.05.2021
2811 Clouds 22 1020 44 10000 2.24 90 11:43 21.05.2021
2812 Clouds 21 1020 47 10000 0.45 337 11:24 21.05.2021
2813 Clouds 20 1020 51 10000 0.89 325 10:45 21.05.2021
2814 Clouds 20 1020 54 10000 3.13 90 10:18 21.05.2021
2815 Clouds 20 1018 62 10000 0.45 266 09:32 21.05.2021
2816 Clouds 19 1018 70 10000 1.97 102 08:46 21.05.2021
2817 Clouds 18 1018 76 10000 1.7 119 08:18 21.05.2021
2818 Clouds 16 1020 84 10000 1.27 115 07:26 21.05.2021
2819 Clear 15 1017 83 10000 0.1 213 05:20 21.05.2021
2820 Clear 15 1020 78 10000 0.89 315 00:43 21.05.2021
2821 Clear 15 1020 76 10000 0.45 270 23:57 20.05.2021
2822 Clear 15 1020 76 10000 0.45 315 23:25 20.05.2021
2823 Clear 16 1019 76 10000 0.89 270 22:58 20.05.2021
2824 Clear 16 1019 76 10000 1.34 292 22:36 20.05.2021
2825 Clouds 16 1019 75 10000 1.79 338 21:57 20.05.2021
2826 Clouds 16 1016 68 10000 1.23 21 21:36 20.05.2021
2827 Clear 17 1016 67 10000 1.65 352 21:18 20.05.2021
2828 Clouds 18 1016 73 10000 1.58 0 20:33 20.05.2021
2829 Clouds 18 1015 74 10000 2.39 357 19:53 20.05.2021
2830 Clouds 19 1015 70 10000 0.45 4 19:31 20.05.2021
2831 Clouds 19 1015 68 10000 0.45 3 18:54 20.05.2021
2832 Clouds 19 1015 65 10000 0.89 342 18:31 20.05.2021
2833 Clouds 21 1015 63 10000 2.68 349 17:47 20.05.2021
2834 Clouds 19 1018 56 10000 3.92 340 17:29 20.05.2021
2835 Clouds 20 1014 69 10000 1.79 359 16:48 20.05.2021
2836 Clouds 20 1014 66 10000 0.89 341 16:24 20.05.2021
2837 Clouds 20 1014 65 10000 1.34 7 15:41 20.05.2021
2838 Clouds 21 1014 63 10000 0.89 354 15:23 20.05.2021
2839 Clouds 19 1014 72 10000 1.34 6 14:39 20.05.2021
2840 Clouds 20 1014 70 10000 1.79 5 14:20 20.05.2021
2841 Clouds 20 1014 68 10000 1.34 358 13:37 20.05.2021
2842 Clouds 20 1014 67 10000 1.79 3 12:51 20.05.2021
2843 Clouds 20 1015 63 10000 1.34 7 12:21 20.05.2021
2844 Clouds 20 1015 63 10000 0.45 1 11:59 20.05.2021
2845 Clouds 20 1014 65 10000 5.4 306 11:21 20.05.2021
2846 Clouds 19 1014 67 10000 0.89 296 10:52 20.05.2021
2847 Clouds 19 1014 67 10000 0.45 325 10:28 20.05.2021
2848 Clouds 19 1014 67 10000 5.48 306 09:55 20.05.2021
2849 Clouds 18 1014 67 10000 5.55 306 09:37 20.05.2021
2850 Clear 19 1014 66 10000 1.34 253 09:18 20.05.2021
2851 Clear 19 1013 67 10000 0.45 19 08:50 20.05.2021
2852 Clouds 18 1013 66 10000 0.45 340 08:20 20.05.2021
2853 Clouds 18 1012 69 10000 0.89 234 07:46 20.05.2021
2854 Clouds 17 1012 69 10000 4.06 305 06:55 20.05.2021
2855 Clouds 17 1012 68 10000 1.34 347 06:37 20.05.2021
2856 Clouds 17 1012 72 10000 3.98 310 05:27 20.05.2021
2857 Clouds 18 1012 89 10000 3.66 308 03:24 20.05.2021
2858 Clouds 19 1017 57 10000 4.92 315 00:53 20.05.2021
2859 Clouds 20 1013 55 10000 4.02 315 23:56 19.05.2021
2860 Clouds 20 1013 58 10000 4.47 270 23:37 19.05.2021
2861 Clouds 20 1013 59 10000 1.79 270 23:19 19.05.2021
2862 Clouds 19 1013 58 10000 1.79 292 22:41 19.05.2021
2863 Clouds 20 1014 58 10000 1.79 292 22:18 19.05.2021
2864 Clouds 19 1018 56 10000 3.58 315 21:41 19.05.2021
2865 Clear 19 1015 68 10000 2.57 230 21:21 19.05.2021
2866 Clouds 20 1016 68 10000 2.86 255 20:58 19.05.2021
2867 Clouds 20 1016 66 10000 2.84 277 20:25 19.05.2021
2868 Clouds 21 1016 67 10000 2.97 276 19:49 19.05.2021
2869 Clouds 22 1010 40 10000 0.89 342 19:25 19.05.2021
2870 Clouds 21 1017 50 10000 1.79 270 18:50 19.05.2021
2871 Clouds 21 1017 50 10000 1.79 315 18:50 19.05.2021
2872 Clouds 21 1017 47 10000 1.79 315 18:31 19.05.2021
2873 Clouds 21 1017 55 10000 2.24 270 17:53 19.05.2021
2874 Clouds 21 1017 57 10000 4.92 315 17:21 19.05.2021
2875 Clouds 21 1017 44 10000 4.02 315 16:48 19.05.2021
2876 Clear 21 1017 43 10000 4.47 315 16:29 19.05.2021
2877 Clear 22 1018 51 10000 3.58 315 15:46 19.05.2021
2878 Clear 22 1018 47 10000 2.68 315 15:18 19.05.2021
2879 Clear 23 1014 53 10000 0.89 315 14:41 19.05.2021
2880 Clear 23 1014 52 10000 1.79 270 13:55 19.05.2021
2881 Clear 24 1014 46 10000 1.79 315 13:36 19.05.2021
2882 Clear 24 1013 39 10000 0.45 90 12:58 19.05.2021
2883 Clear 24 1013 43 10000 0.45 279 12:38 19.05.2021
2884 Clear 24 1013 42 10000 0.89 180 12:19 19.05.2021
2885 Clear 24 1014 40 10000 0.45 270 11:41 19.05.2021
2886 Clear 24 1014 40 10000 0.89 315 11:22 19.05.2021
2887 Clear 23 1014 44 10000 0.45 294 10:55 19.05.2021
2888 Clear 23 1014 44 10000 0.89 225 10:36 19.05.2021
2889 Clear 21 1014 40 10000 1.34 248 09:55 19.05.2021
2890 Clear 21 1014 48 10000 0.45 270 09:23 19.05.2021
2891 Clear 20 1014 49 10000 0.89 270 08:53 19.05.2021
2892 Clear 20 1014 49 10000 0.45 314 08:34 19.05.2021
2893 Clear 18 1014 53 10000 1.34 315 07:48 19.05.2021
2894 Clear 16 1014 56 10000 0.45 315 06:49 19.05.2021
2895 Clear 15 1014 56 10000 0.89 270 05:52 19.05.2021
2896 Clear 16 1012 75 10000 1.37 151 03:53 19.05.2021
2897 Clouds 16 1015 67 10000 0.83 134 00:48 19.05.2021
2898 Clouds 18 1013 75 10000 1.05 151 00:29 19.05.2021
2899 Clouds 18 1013 75 10000 1.22 156 23:29 18.05.2021
2900 Clouds 17 1015 67 10000 0.45 315 22:54 18.05.2021
2901 Clouds 17 1015 74 10000 0.89 270 22:27 18.05.2021
2902 Clouds 17 1015 76 10000 0.89 270 21:54 18.05.2021
2903 Clouds 17 1015 76 10000 0.69 133 21:35 18.05.2021
2904 Clouds 18 1015 73 10000 2.13 122 20:51 18.05.2021
2905 Clouds 18 1014 70 10000 1.71 69 20:20 18.05.2021
2906 Clouds 20 1012 62 10000 1.71 69 19:56 18.05.2021
2907 Clouds 16 1018 77 10000 1.71 69 19:38 18.05.2021
2908 Clouds 20 1014 63 10000 0.45 90 19:18 18.05.2021
2909 Clouds 21 1015 55 10000 1.34 135 18:41 18.05.2021
2910 Clouds 19 1018 64 10000 0.45 90 18:23 18.05.2021
2911 Clouds 20 1019 59 10000 0.89 90 17:38 18.05.2021
2912 Clouds 20 1019 55 10000 2.68 315 16:55 18.05.2021
2913 Clouds 20 1019 48 10000 2.24 292 16:28 18.05.2021
2914 Clouds 20 1019 44 10000 2.24 315 15:54 18.05.2021
2915 Clouds 20 1019 37 10000 2.68 315 15:31 18.05.2021
2916 Clouds 21 1020 28 10000 1.34 270 14:47 18.05.2021
2917 Clear 21 1020 33 10000 0.89 292 14:22 18.05.2021
2918 Clear 22 1015 28 10000 1.79 299 13:22 18.05.2021
2919 Clear 23 1016 28 10000 0.45 11 12:31 18.05.2021
2920 Clear 22 1016 38 10000 0.89 225 11:50 18.05.2021
2921 Clear 22 1015 43 10000 1.79 315 11:30 18.05.2021
2922 Clear 21 1015 43 10000 0.45 336 10:50 18.05.2021
2923 Clear 21 1015 41 10000 0.45 341 10:50 18.05.2021
2924 Clear 20 1015 50 10000 0.45 270 10:28 18.05.2021
2925 Clouds 20 1015 59 10000 0.45 353 09:50 18.05.2021
2926 Clouds 20 1013 61 10000 1.34 13 09:30 18.05.2021
2927 Clouds 20 1013 61 10000 0.89 4 09:30 18.05.2021
2928 Clouds 20 1013 68 10000 1.34 353 08:26 18.05.2021
2929 Clouds 19 1013 76 10000 2.04 30 07:54 18.05.2021
2930 Clouds 19 1013 75 10000 2.04 30 07:35 18.05.2021
2931 Clouds 18 1011 82 10000 1.9 321 04:44 18.05.2021
2932 Clouds 18 1011 84 10000 1.88 248 02:27 18.05.2021
2933 Clouds 19 1011 77 10000 1.88 248 01:45 18.05.2021
2934 Clear 20 1011 72 10000 1.85 238 00:28 18.05.2021
2935 Clear 20 1011 70 10000 1.85 238 23:59 17.05.2021
2936 Clear 18 1015 82 10000 3.6 220 23:23 17.05.2021
2937 Clear 18 1015 88 10000 2.06 240 22:59 17.05.2021
2938 Clear 18 1015 88 10000 2.06 240 22:39 17.05.2021
2939 Clear 20 1010 69 10000 1.12 276 22:20 17.05.2021
2940 Clear 18 1014 88 10000 3.09 30 21:47 17.05.2021
2941 Clear 19 1014 88 10000 3.09 50 21:19 17.05.2021
2942 Clear 19 1014 88 10000 1.54 10 20:39 17.05.2021
2943 Clear 21 1014 83 10000 1.03 0 20:20 17.05.2021
2944 Clear 22 1013 83 10000 2.06 360 19:41 17.05.2021
2945 Clear 21 1013 83 10000 1.03 0 19:21 17.05.2021
2946 Clear 21 1014 83 10000 1.54 350 18:45 17.05.2021
2947 Clear 22 1014 78 10000 2.06 10 18:27 17.05.2021
2948 Clear 22 1014 73 10000 2.57 340 17:45 17.05.2021
2949 Clear 22 1014 73 10000 3.6 340 17:27 17.05.2021
2950 Clear 22 1014 73 10000 2.57 350 16:47 17.05.2021
2951 Clear 22 1014 73 10000 1.54 350 16:20 17.05.2021
2952 Clear 23 1014 68 10000 3.6 340 15:28 17.05.2021
2953 Clear 22 1014 68 10000 2.57 340 14:56 17.05.2021
2954 Clear 23 1014 68 10000 2.57 340 14:36 17.05.2021
2955 Clear 23 1014 64 10000 3.6 330 14:18 17.05.2021
2956 Clear 24 1014 53 10000 5.14 290 13:30 17.05.2021
2957 Clear 24 1014 53 10000 3.09 250 12:42 17.05.2021
2958 Clouds 26 1008 33 10000 0.89 319 12:22 17.05.2021
2959 Clear 23 1013 60 10000 5.14 300 11:42 17.05.2021
2960 Clear 24 1013 53 10000 4.12 270 11:21 17.05.2021
2961 Clear 26 1012 28 10000 4.63 230 10:48 17.05.2021
2962 Clear 27 1012 28 10000 5.66 210 10:25 17.05.2021
2963 Clear 26 1012 26 10000 4.63 200 09:30 17.05.2021
2964 Clear 26 1012 26 10000 4.63 200 09:30 17.05.2021
2965 Clear 26 1012 26 10000 4.63 200 09:30 17.05.2021
2966 Clear 25 1007 28 10000 0.89 332 08:33 17.05.2021
2967 Clouds 24 1007 27 10000 0.45 322 07:53 17.05.2021
2968 Clear 23 1011 31 10000 6.17 210 07:23 17.05.2021
2969 Clear 24 1011 33 10000 6.17 200 06:20 17.05.2021
2970 Clear 20 1010 28 10000 7.2 200 03:40 17.05.2021
2971 Clear 20 1007 49 10000 2.64 195 01:58 17.05.2021
2972 Clear 20 1007 49 10000 2.49 198 00:45 17.05.2021
2973 Clear 20 1007 50 10000 2.4 202 23:48 16.05.2021
2974 Clear 20 1008 49 10000 2.6 190 23:23 16.05.2021
2975 Clear 20 1008 48 10000 2.58 189 22:44 16.05.2021
2976 Clear 20 1008 49 10000 2.6 190 22:44 16.05.2021
2977 Clear 20 1008 48 10000 2.58 189 22:44 16.05.2021
2978 Clear 20 1008 48 10000 2.55 172 22:25 16.05.2021
2979 Clear 20 1008 46 10000 2.54 170 21:44 16.05.2021
2980 Clear 20 1008 45 10000 2.5 155 21:25 16.05.2021
2981 Clear 20 1008 43 10000 2.37 160 20:48 16.05.2021
2982 Clouds 20 1008 42 10000 2.58 152 20:22 16.05.2021
2983 Clouds 20 1009 43 10000 2.58 152 20:22 16.05.2021
2984 Clouds 20 1009 41 10000 2.58 152 19:53 16.05.2021
2985 Clouds 21 1008 35 10000 2.32 145 19:23 16.05.2021
2986 Clouds 22 1009 31 10000 2.32 145 18:48 16.05.2021
2987 Clouds 23 1008 28 10000 1.63 129 18:28 16.05.2021
2988 Clear 21 1013 53 10000 4.12 40 17:59 16.05.2021
2989 Clear 21 1013 53 10000 4.12 40 17:40 16.05.2021
2990 Clear 22 1013 49 10000 4.63 40 17:21 16.05.2021
2991 Clear 22 1013 68 10000 4.12 30 16:51 16.05.2021
2992 Clear 23 1013 60 10000 4.12 30 16:25 16.05.2021
2993 Clear 23 1013 60 10000 4.12 30 16:25 16.05.2021
2994 Clear 22 1014 53 10000 4.12 30 15:52 16.05.2021
2995 Clear 22 1014 56 10000 4.12 30 15:27 16.05.2021
2996 Clouds 24 1010 28 10000 0.92 116 14:49 16.05.2021
2997 Clear 25 1014 29 10000 5.66 220 14:22 16.05.2021
2998 Clouds 25 1009 25 10000 0.45 241 13:58 16.05.2021
2999 Clouds 25 1010 28 10000 0.73 139 13:39 16.05.2021
3000 Clouds 25 1010 28 10000 0.65 137 13:18 16.05.2021
3001 Clouds 25 1010 28 10000 0.65 137 12:51 16.05.2021
3002 Clouds 25 1010 32 10000 0.58 166 12:29 16.05.2021
3003 Clouds 24 1010 31 10000 0.58 166 11:45 16.05.2021
3004 Clouds 24 1010 32 10000 0.28 242 11:23 16.05.2021
3005 Clouds 23 1010 33 10000 0.28 242 10:38 16.05.2021
3006 Clouds 22 1010 34 10000 0.87 219 10:20 16.05.2021
3007 Clouds 22 1010 37 10000 0.87 219 09:45 16.05.2021
3008 Clear 21 1010 39 10000 1.59 202 09:22 16.05.2021
3009 Clear 20 1010 45 10000 1.16 209 08:40 16.05.2021
3010 Clouds 19 1010 46 10000 1.73 196 08:22 16.05.2021
3011 Clouds 17 1010 55 10000 1.73 196 07:31 16.05.2021
3012 Clouds 16 1010 55 10000 2.23 204 05:50 16.05.2021
3013 Clouds 17 1013 50 10000 2.46 205 00:58 16.05.2021
3014 Clear 17 1017 67 10000 2.06 220 00:20 16.05.2021
3015 Clear 17 1017 72 10000 2.57 150 23:24 15.05.2021
3016 Clear 18 1017 72 10000 3.09 290 22:59 15.05.2021
3017 Clouds 17 1013 45 10000 2.47 225 22:31 15.05.2021
3018 Clouds 17 1013 42 10000 2.34 229 21:55 15.05.2021
3019 Clouds 17 1013 49 10000 1.97 231 21:26 15.05.2021
3020 Clouds 17 1013 49 10000 1.97 231 21:26 15.05.2021
3021 Clouds 17 1012 52 10000 2.02 232 20:55 15.05.2021
3022 Clouds 17 1013 53 10000 1.46 256 20:27 15.05.2021
3023 Clear 16 1016 72 10000 2.57 250 19:44 15.05.2021
3024 Clouds 18 1012 49 10000 2.15 286 19:21 15.05.2021
3025 Clouds 19 1012 51 10000 0.45 271 18:22 15.05.2021
3026 Clouds 16 1017 72 10000 5.66 290 17:46 15.05.2021
3027 Clouds 17 1017 68 10000 6.17 280 17:18 15.05.2021
3028 Clouds 17 1017 68 10000 6.69 280 16:38 15.05.2021
3029 Clouds 17 1017 72 10000 6.69 280 16:19 15.05.2021
3030 Clouds 16 1017 68 10000 6.69 280 15:36 15.05.2021
3031 Clouds 19 1017 63 10000 6.69 280 14:50 15.05.2021
3032 Clouds 20 1012 43 10000 0.45 9 14:28 15.05.2021
3033 Clouds 19 1012 51 10000 1.34 359 13:43 15.05.2021
3034 Clouds 19 1012 50 10000 0.45 320 13:18 15.05.2021
3035 Clouds 19 1012 55 10000 0.45 25 11:55 15.05.2021
3036 Clouds 19 1012 51 10000 1.79 355 11:29 15.05.2021
3037 Clouds 19 1012 56 10000 0.45 327 10:49 15.05.2021
3038 Clouds 18 1012 61 10000 0.45 353 09:46 15.05.2021
3039 Clouds 18 1011 63 10000 6.02 289 08:42 15.05.2021
3040 Clouds 18 1011 67 10000 1.34 2 07:56 15.05.2021
3041 Clouds 17 1011 72 10000 4.46 278 07:23 15.05.2021
3042 Clouds 16 1010 75 10000 4.46 278 06:52 15.05.2021
3043 Clouds 16 1010 78 10000 1.34 304 05:53 15.05.2021
3044 Clouds 17 1009 81 10000 6.42 290 04:19 15.05.2021
3045 Clouds 18 1012 72 10000 9.77 250 00:35 15.05.2021
3046 Clouds 20 1012 60 10000 8.23 200 23:45 14.05.2021
3047 Clear 20 1011 56 10000 8.75 200 22:43 14.05.2021
3048 Clouds 21 1010 49 10000 7.72 190 22:23 14.05.2021
3049 Clouds 21 1011 46 10000 7.72 200 21:31 14.05.2021
3050 Clouds 22 1011 46 10000 7.72 210 20:55 14.05.2021
3051 Clouds 22 1011 49 10000 7.2 210 20:28 14.05.2021
3052 Clouds 22 1011 46 10000 7.72 210 19:50 14.05.2021
3053 Clouds 22 1010 38 10000 6.17 200 19:28 14.05.2021
3054 Clouds 22 1010 33 10000 8.75 190 18:52 14.05.2021
3055 Clouds 22 1011 33 10000 6.69 200 18:26 14.05.2021
3056 Clouds 22 1011 35 10000 8.23 210 17:44 14.05.2021
3057 Clouds 22 1011 33 10000 7.72 210 17:24 14.05.2021
3058 Clouds 21 1012 35 10000 4.12 0 16:46 14.05.2021
3059 Clouds 20 1012 68 10000 3.6 340 16:28 14.05.2021
3060 Clouds 20 1012 68 10000 3.6 340 16:28 14.05.2021
3061 Clouds 19 1012 72 10000 5.66 350 15:36 14.05.2021
3062 Clouds 23 1008 55 10000 1.31 211 14:42 14.05.2021
3063 Clear 20 1013 68 10000 2.57 20 14:20 14.05.2021
3064 Clear 21 1013 60 10000 3.09 290 13:33 14.05.2021
3065 Clear 20 1013 60 10000 4.63 240 12:52 14.05.2021
3066 Clouds 20 1014 73 10000 4.12 260 12:30 14.05.2021
3067 Clear 21 1014 64 10000 4.63 230 11:50 14.05.2021
3068 Clear 20 1014 60 10000 5.14 220 11:23 14.05.2021
3069 Clouds 21 1010 47 10000 0.45 247 10:38 14.05.2021
3070 Clouds 21 1010 48 10000 3.29 243 10:38 14.05.2021
3071 Clouds 21 1010 52 10000 0.45 323 09:53 14.05.2021
3072 Clouds 20 1010 51 10000 3.24 235 09:31 14.05.2021
3073 Clouds 20 1009 59 10000 3.03 229 08:54 14.05.2021
3074 Clouds 19 1009 64 10000 3.12 223 08:19 14.05.2021
3075 Clouds 18 1009 70 10000 3.25 216 06:54 14.05.2021
3076 Clouds 17 1009 70 10000 3.25 216 06:36 14.05.2021
3077 Clear 18 1013 63 10000 7.72 190 02:32 14.05.2021
3078 Clear 19 1013 55 10000 7.2 200 00:38 14.05.2021
3079 Clear 20 1013 45 10000 4.63 190 23:50 13.05.2021
3080 Clear 20 1013 45 10000 4.12 190 23:22 13.05.2021
3081 Clear 19 1013 52 10000 4.12 210 22:49 13.05.2021
3082 Clear 19 1013 59 10000 3.6 210 22:30 13.05.2021
3083 Clear 19 1014 69 10000 3.47 222 21:54 13.05.2021
3084 Clear 19 1014 69 10000 3.45 222 21:36 13.05.2021
3085 Clear 19 1014 69 10000 3.37 235 21:18 13.05.2021
3086 Clear 20 1014 69 10000 3.37 235 20:39 13.05.2021
3087 Clouds 20 1013 65 10000 3.49 251 19:46 13.05.2021
3088 Clouds 20 1015 72 10000 4.53 263 19:23 13.05.2021
3089 Clouds 20 1015 69 10000 4.49 262 18:56 13.05.2021
3090 Clouds 20 1015 70 10000 4.49 262 18:37 13.05.2021
3091 Clouds 20 1015 72 10000 6.04 268 18:18 13.05.2021
3092 Clouds 21 1015 68 10000 6.04 268 17:40 13.05.2021
3093 Clouds 20 1015 67 10000 7.34 273 17:21 13.05.2021
3094 Clouds 21 1015 70 10000 7.34 273 16:37 13.05.2021
3095 Clouds 21 1015 71 10000 8.06 273 16:19 13.05.2021
3096 Clouds 21 1015 73 10000 8.06 273 15:46 13.05.2021
3097 Clouds 21 1015 73 10000 8.1 276 15:23 13.05.2021
3098 Clear 21 1014 68 10000 8.23 270 14:50 13.05.2021
3099 Clear 20 1014 72 10000 8.75 270 14:31 13.05.2021
3100 Clouds 22 1011 58 10000 0.45 323 13:48 13.05.2021
3101 Clouds 21 1011 56 10000 0.89 347 13:30 13.05.2021
3102 Clouds 21 1011 56 10000 0.89 347 13:30 13.05.2021
3103 Clouds 22 1011 56 10000 0.45 307 12:59 13.05.2021
3104 Clouds 21 1011 53 10000 0.45 109 12:40 13.05.2021
3105 Clouds 22 1011 49 10000 1.34 308 11:57 13.05.2021
3106 Clouds 21 1010 49 10000 1.34 260 11:35 13.05.2021
3107 Clouds 21 1010 52 10000 1.34 353 10:55 13.05.2021
3108 Clouds 21 1010 56 10000 0.89 239 10:33 13.05.2021
3109 Clear 20 1008 46 10000 1.34 187 09:47 13.05.2021
3110 Clear 20 1008 43 10000 1.34 321 09:27 13.05.2021
3111 Clear 19 1008 43 10000 0.45 287 08:31 13.05.2021
3112 Clear 19 1008 42 10000 0.89 318 07:58 13.05.2021
3113 Clouds 16 1009 67 10000 3.99 221 06:45 13.05.2021
3114 Clouds 15 1009 69 10000 4 216 05:50 13.05.2021
3115 Clear 15 1010 67 10000 3.27 236 02:38 13.05.2021
3116 Clear 16 1011 65 10000 3.05 235 00:38 13.05.2021
3117 Clear 17 1012 66 10000 0.89 307 23:40 12.05.2021
3118 Clear 17 1012 67 10000 3.33 251 22:56 12.05.2021
3119 Clear 17 1012 67 10000 2.89 253 22:19 12.05.2021
3120 Clear 17 1012 67 10000 2.88 253 21:50 12.05.2021
3121 Clear 17 1011 71 10000 0.89 356 20:58 12.05.2021
3122 Clear 17 1011 72 10000 0.89 356 20:58 12.05.2021
3123 Clear 17 1011 70 10000 0.89 304 20:33 12.05.2021
3124 Clear 18 1011 70 10000 1.34 285 19:50 12.05.2021
3125 Clear 19 1010 58 10000 0.45 301 18:51 12.05.2021
3126 Clear 20 1010 56 10000 0.89 323 18:25 12.05.2021
3127 Clear 19 1016 63 10000 3.9 310 17:53 12.05.2021
3128 Clear 18 1016 63 10000 3.9 310 17:34 12.05.2021
3129 Clear 19 1016 59 10000 4.48 306 16:45 12.05.2021
3130 Clear 19 1016 57 10000 4.8 299 16:25 12.05.2021
3131 Clear 19 1016 63 10000 4.12 270 15:42 12.05.2021
3132 Clouds 20 1016 72 10000 6.17 280 14:58 12.05.2021
3133 Clear 20 1011 58 10000 5.01 304 14:35 12.05.2021
3134 Clouds 20 1012 62 10000 0.89 336 13:49 12.05.2021
3135 Clouds 20 1011 63 10000 1.34 356 13:30 12.05.2021
3136 Clouds 19 1012 67 10000 1.34 345 12:37 12.05.2021
3137 Clouds 19 1012 67 10000 2.24 3 11:49 12.05.2021
3138 Clouds 19 1012 67 10000 0.45 11 11:31 12.05.2021
3139 Clouds 20 1012 66 10000 5.06 291 10:58 12.05.2021
3140 Clouds 20 1012 66 10000 5.06 291 10:58 12.05.2021
3141 Clouds 20 1011 68 10000 0.45 336 10:29 12.05.2021
3142 Clouds 20 1011 68 10000 0.89 4 10:29 12.05.2021
3143 Clouds 19 1011 70 10000 5.36 287 09:45 12.05.2021
3144 Clouds 19 1012 74 10000 4.97 279 09:26 12.05.2021
3145 Clouds 18 1011 76 10000 4.95 283 08:48 12.05.2021
3146 Clouds 18 1011 76 10000 0.89 301 08:28 12.05.2021
3147 Clouds 18 1011 76 10000 4.39 275 07:33 12.05.2021
3148 Clouds 17 1015 77 10000 6.17 260 06:22 12.05.2021
3149 Clouds 18 1011 80 10000 3.62 240 00:53 12.05.2021
3150 Clouds 18 1015 88 10000 7.72 270 00:29 12.05.2021
3151 Clouds 18 1016 82 10000 6.17 270 23:47 11.05.2021
3152 Clouds 19 1016 77 10000 6.17 270 23:28 11.05.2021
3153 Clouds 19 1016 77 10000 4.12 250 22:49 11.05.2021
3154 Clouds 19 1017 77 10000 3.09 230 22:21 11.05.2021
3155 Clouds 19 1016 72 10000 3.6 250 21:55 11.05.2021
3156 Clouds 19 1016 72 10000 3.6 250 21:36 11.05.2021
3157 Clouds 19 1016 72 10000 3.6 240 21:18 11.05.2021
3158 Clouds 19 1015 68 10000 4.63 260 20:43 11.05.2021
3159 Clouds 20 1015 77 10000 6.69 260 20:23 11.05.2021
3160 Clouds 19 1015 82 10000 8.75 270 19:43 11.05.2021
3161 Clouds 22 1010 74 10000 5.7 279 19:21 11.05.2021
3162 Clouds 21 1014 77 10000 11.83 270 18:46 11.05.2021
3163 Clouds 21 1013 77 10000 10.29 280 18:27 11.05.2021
3164 Clouds 21 1013 77 10000 10.29 280 18:27 11.05.2021
3165 Clouds 21 1013 83 10000 10.8 280 17:41 11.05.2021
3166 Clear 22 1013 64 10000 5.66 240 17:23 11.05.2021
3167 Clear 22 1013 60 10000 4.12 0 16:42 11.05.2021
3168 Clear 22 1013 68 10000 1.54 300 16:22 11.05.2021
3169 Clear 22 1013 68 10000 2.06 10 15:43 11.05.2021
3170 Clear 21 1014 78 10000 1.03 0 15:19 11.05.2021
3171 Clouds 23 1009 57 10000 1.34 4 14:44 11.05.2021
3172 Clouds 23 1009 57 10000 1.34 4 14:24 11.05.2021
3173 Clouds 24 1009 56 10000 0.89 356 13:47 11.05.2021
3174 Clouds 24 1009 57 10000 1.34 344 13:24 11.05.2021
3175 Clouds 24 1009 56 10000 4.05 311 12:54 11.05.2021
3176 Clouds 23 1009 59 10000 0.45 2 12:35 11.05.2021
3177 Clouds 23 1009 61 10000 3.09 297 11:49 11.05.2021
3178 Clouds 23 1009 62 10000 1.34 350 11:31 11.05.2021
3179 Clouds 23 1009 62 10000 0.45 1 10:55 11.05.2021
3180 Clouds 23 1009 62 10000 0.45 341 10:33 11.05.2021
3181 Clouds 23 1009 58 10000 1.47 252 09:59 11.05.2021
3182 Clouds 23 1009 55 10000 1.47 252 09:40 11.05.2021
3183 Clouds 23 1009 57 10000 0.65 229 09:22 11.05.2021
3184 Clouds 22 1009 56 10000 0.65 229 08:48 11.05.2021
3185 Clouds 22 1009 58 10000 0.65 229 08:30 11.05.2021
3186 Clouds 21 1008 59 10000 0.91 226 07:53 11.05.2021
3187 Clear 19 1012 72 10000 1.03 0 07:25 11.05.2021
3188 Clear 18 1012 72 10000 2.57 220 05:51 11.05.2021
3189 Clouds 20 1010 66 10000 1.66 149 00:55 11.05.2021
3190 Clouds 20 1011 65 10000 1.66 149 00:37 11.05.2021
3191 Clear 20 1015 72 10000 3.6 230 23:46 10.05.2021
3192 Clear 21 1015 77 10000 4.63 240 23:21 10.05.2021
3193 Clouds 21 1011 63 10000 2.01 158 22:45 10.05.2021
3194 Clouds 22 1011 62 10000 1.95 162 22:20 10.05.2021
3195 Clouds 22 1011 62 10000 1.95 162 21:48 10.05.2021
3196 Clear 21 1011 60 10000 2.07 163 21:27 10.05.2021
3197 Clear 20 1014 83 10000 4.12 240 20:45 10.05.2021
3198 Clear 22 1014 60 10000 2.57 80 20:21 10.05.2021
3199 Clear 22 1014 64 10000 3.09 40 19:48 10.05.2021
3200 Clear 22 1014 64 10000 4.12 50 19:24 10.05.2021
3201 Clear 22 1014 68 10000 5.14 50 18:57 10.05.2021
3202 Clear 22 1014 68 10000 5.66 40 18:28 10.05.2021
3203 Clear 22 1015 68 10000 5.14 40 17:49 10.05.2021
3204 Clear 22 1015 68 10000 5.14 40 17:31 10.05.2021
3205 Clear 22 1015 68 10000 4.63 40 16:55 10.05.2021
3206 Clear 22 1015 68 10000 4.63 40 16:27 10.05.2021
3207 Clear 23 1015 73 10000 5.14 30 15:45 10.05.2021
3208 Clear 24 1015 57 10000 5.14 40 15:26 10.05.2021
3209 Clear 26 1016 44 10000 5.66 40 14:54 10.05.2021
3210 Clear 25 1016 50 10000 5.14 40 14:28 10.05.2021
3211 Clear 25 1012 49 10000 1.77 98 13:50 10.05.2021
3212 Clear 25 1012 51 10000 2.2 103 12:55 10.05.2021
3213 Clear 25 1012 50 10000 2.06 94 12:31 10.05.2021
3214 Clear 25 1013 50 10000 2.06 94 11:55 10.05.2021
3215 Clear 24 1013 48 10000 2.06 94 11:37 10.05.2021
3216 Clear 24 1013 44 10000 2.07 100 11:18 10.05.2021
3217 Clear 24 1013 47 10000 2.07 100 10:44 10.05.2021
3218 Clear 23 1013 53 10000 1.9 115 09:54 10.05.2021
3219 Clear 22 1013 58 10000 1.92 114 09:35 10.05.2021
3220 Clear 20 1013 68 10000 1.34 128 08:42 10.05.2021
3221 Clouds 20 1013 74 10000 1.39 153 08:19 10.05.2021
3222 Clouds 18 1013 80 10000 1.39 153 07:48 10.05.2021
3223 Clouds 17 1013 82 10000 1.61 167 07:27 10.05.2021
3224 Clouds 17 1014 82 10000 1.61 167 06:47 10.05.2021
3225 Clear 17 1017 72 10000 0.51 0 03:54 10.05.2021
3226 Clear 18 1017 68 10000 2.57 300 00:37 10.05.2021
3227 Clear 19 1014 94 10000 2.83 154 22:55 09.05.2021
3228 Clear 19 1014 94 10000 2.83 154 22:37 09.05.2021
3229 Clear 19 1014 93 10000 2.96 150 22:18 09.05.2021
3230 Clear 19 1014 90 10000 2.96 150 21:41 09.05.2021
3231 Clear 19 1014 87 10000 2.91 143 20:55 09.05.2021
3232 Clear 20 1013 83 10000 2.91 143 20:35 09.05.2021
3233 Clouds 20 1013 76 10000 2.35 131 19:53 09.05.2021
3234 Clouds 21 1013 73 10000 2.12 103 19:28 09.05.2021
3235 Clouds 22 1013 64 10000 2.12 104 18:52 09.05.2021
3236 Clouds 22 1013 62 10000 2.19 91 18:29 09.05.2021
3237 Clear 22 1017 56 10000 5.66 60 17:51 09.05.2021
3238 Clear 22 1017 68 10000 5.66 50 16:45 09.05.2021
3239 Clear 22 1017 68 10000 5.66 50 16:24 09.05.2021
3240 Clear 21 1017 68 10000 6.17 40 15:49 09.05.2021
3241 Clear 21 1017 73 10000 6.17 40 15:18 09.05.2021
3242 Clear 21 1017 73 10000 6.17 40 15:18 09.05.2021
3243 Clouds 24 1014 51 10000 1 36 14:37 09.05.2021
3244 Clear 23 1014 57 10000 0.93 27 13:47 09.05.2021
3245 Clear 23 1014 59 10000 0.73 50 13:21 09.05.2021
3246 Clear 23 1014 59 10000 0.73 50 12:30 09.05.2021
3247 Clear 22 1015 60 10000 0.93 95 11:45 09.05.2021
3248 Clear 22 1015 61 10000 1.31 100 11:21 09.05.2021
3249 Clear 21 1014 63 10000 1.31 100 10:43 09.05.2021
3250 Clear 20 1015 66 10000 1.24 115 09:51 09.05.2021
3251 Clear 20 1015 67 10000 1.21 117 09:33 09.05.2021
3252 Clear 19 1014 73 10000 0.45 340 08:54 09.05.2021
3253 Clear 19 1014 77 10000 1.42 131 08:32 09.05.2021
3254 Clear 18 1014 83 10000 1.63 135 07:56 09.05.2021
3255 Clear 16 1014 86 10000 1.66 153 07:24 09.05.2021
3256 Clear 16 1014 88 10000 1.66 153 06:34 09.05.2021
3257 Clear 17 1019 77 10000 3.6 40 00:52 09.05.2021
3258 Clear 18 1019 82 10000 4.12 20 23:44 08.05.2021
3259 Clear 18 1019 82 10000 4.12 30 23:26 08.05.2021
3260 Clear 18 1019 82 10000 3.6 20 22:46 08.05.2021
3261 Clear 19 1019 77 10000 3.09 360 22:19 08.05.2021
3262 Clear 19 1018 77 10000 2.06 10 21:48 08.05.2021
3263 Clear 19 1018 72 10000 1.54 340 21:19 08.05.2021
3264 Clear 20 1014 73 10000 0.7 253 20:46 08.05.2021
3265 Clear 20 1014 73 10000 0.86 289 20:20 08.05.2021
3266 Clear 21 1014 65 10000 1.45 319 19:24 08.05.2021
3267 Clear 21 1013 62 10000 1.45 319 18:54 08.05.2021
3268 Clear 22 1013 60 10000 1.45 319 18:36 08.05.2021
3269 Clear 21 1018 56 10000 3.09 330 17:51 08.05.2021
3270 Clear 21 1018 52 10000 2.06 340 17:21 08.05.2021
3271 Clear 22 1018 49 10000 2.06 360 16:31 08.05.2021
3272 Clear 22 1018 46 10000 2.06 20 15:51 08.05.2021
3273 Clear 22 1018 46 10000 1.54 10 15:31 08.05.2021
3274 Clear 22 1018 46 10000 3.09 30 14:49 08.05.2021
3275 Clear 22 1018 52 10000 4.12 30 14:20 08.05.2021
3276 Clear 23 1014 43 10000 0.89 16 13:51 08.05.2021
3277 Clear 23 1014 43 10000 1.34 348 13:20 08.05.2021
3278 Clear 22 1014 47 10000 1.34 9 12:33 08.05.2021
3279 Clear 22 1014 51 10000 1.34 10 11:44 08.05.2021
3280 Clear 22 1014 53 10000 1.79 24 11:26 08.05.2021
3281 Clear 21 1014 60 10000 0.89 356 10:41 08.05.2021
3282 Clear 22 1014 63 10000 1.34 6 10:21 08.05.2021
3283 Clear 22 1013 65 10000 1.79 2 09:48 08.05.2021
3284 Clear 22 1013 62 10000 1.73 289 09:27 08.05.2021
3285 Clear 20 1013 66 10000 1.68 264 08:25 08.05.2021
3286 Clear 18 1012 69 10000 1.68 264 07:41 08.05.2021
3287 Clear 17 1012 69 10000 1.51 242 06:53 08.05.2021
3288 Clear 17 1012 69 10000 1.51 242 06:53 08.05.2021
3289 Clear 17 1011 70 10000 1.5 239 05:27 08.05.2021
3290 Clear 17 1012 83 10000 1.63 230 01:54 08.05.2021
3291 Clear 17 1012 83 10000 1.63 230 01:54 08.05.2021
3292 Clear 17 1013 80 10000 1.73 224 00:51 08.05.2021
3293 Clear 17 1013 79 10000 1.57 216 00:29 08.05.2021
3294 Clear 18 1013 77 10000 1.57 216 23:30 07.05.2021
3295 Clear 18 1013 76 10000 1.22 219 22:51 07.05.2021
3296 Clear 18 1013 76 10000 1.03 203 22:20 07.05.2021
3297 Clear 19 1016 82 10000 2.06 290 21:39 07.05.2021
3298 Clear 19 1016 82 10000 2.06 290 21:21 07.05.2021
3299 Clear 18 1016 82 10000 2.06 300 20:47 07.05.2021
3300 Clear 19 1016 88 10000 3.09 300 20:27 07.05.2021
3301 Clear 19 1016 82 10000 3.09 290 19:44 07.05.2021
3302 Clouds 21 1011 54 10000 1 13 19:26 07.05.2021
3303 Clear 20 1015 82 10000 2.57 320 18:43 07.05.2021
3304 Clear 20 1016 82 10000 3.09 320 18:25 07.05.2021
3305 Clear 21 1015 82 10000 2.06 320 17:25 07.05.2021
3306 Clear 21 1016 82 10000 3.6 320 17:00 07.05.2021
3307 Clear 21 1016 82 10000 4.12 310 16:40 07.05.2021
3308 Clear 21 1016 82 10000 4.12 310 16:21 07.05.2021
3309 Clear 20 1016 82 10000 4.12 310 15:41 07.05.2021
3310 Clouds 20 1016 82 10000 3.6 310 15:23 07.05.2021
3311 Clouds 22 1012 58 10000 2 13 14:33 07.05.2021
3312 Clouds 22 1012 56 10000 2.2 20 13:56 07.05.2021
3313 Clear 20 1017 77 10000 2.06 280 13:24 07.05.2021
3314 Clouds 22 1012 59 10000 2.4 19 12:49 07.05.2021
3315 Clouds 21 1012 63 10000 1.7 30 12:28 07.05.2021
3316 Clouds 21 1012 63 10000 1.7 30 12:28 07.05.2021
3317 Clouds 21 1013 65 10000 0.89 355 11:52 07.05.2021
3318 Clouds 20 1012 64 10000 1.34 359 11:27 07.05.2021
3319 Clouds 20 1012 64 10000 1.34 359 11:27 07.05.2021
3320 Clouds 21 1012 62 10000 1.68 36 10:44 07.05.2021
3321 Clouds 20 1012 64 10000 1.42 20 10:23 07.05.2021
3322 Clouds 20 1012 65 10000 0.45 344 09:55 07.05.2021
3323 Rain 20 1012 66 10000 1.44 42 08:57 07.05.2021
3324 Clouds 19 1012 73 10000 1.44 42 08:34 07.05.2021
3325 Clouds 17 1013 81 10000 0.78 232 07:20 07.05.2021
3326 Clouds 16 1012 82 10000 0.78 232 06:45 07.05.2021
3327 Clouds 17 1012 81 10000 2 132 04:28 07.05.2021
3328 Clouds 18 1013 82 10000 2.45 120 01:24 07.05.2021
3329 Clouds 19 1013 56 10000 2.41 117 22:52 06.05.2021
3330 Clouds 19 1013 52 10000 1.77 126 22:25 06.05.2021
3331 Clouds 19 1013 55 10000 1.72 126 21:43 06.05.2021
3332 Clouds 20 1013 58 10000 0.97 91 20:46 06.05.2021
3333 Clouds 18 1016 82 10000 2.57 180 20:25 06.05.2021
3334 Clouds 19 1016 77 10000 2.06 0 19:52 06.05.2021
3335 Clouds 20 1012 59 10000 2.25 110 19:25 06.05.2021
3336 Clouds 20 1012 62 10000 2.25 110 18:57 06.05.2021
3337 Clouds 20 1012 61 10000 2.25 110 18:34 06.05.2021
3338 Clouds 20 1013 62 10000 2.62 107 17:51 06.05.2021
3339 Clouds 20 1013 64 10000 2.39 78 17:28 06.05.2021
3340 Clouds 21 1013 57 10000 2.39 78 16:57 06.05.2021
3341 Rain 21 1013 56 10000 2.39 78 16:35 06.05.2021
3342 Rain 21 1013 56 10000 2.39 78 16:35 06.05.2021
3343 Clouds 21 1016 49 10000 3.09 0 15:59 06.05.2021
3344 Clouds 21 1016 49 10000 3.09 0 15:40 06.05.2021
3345 Clouds 21 1016 49 10000 3.09 0 15:40 06.05.2021
3346 Clouds 21 1016 49 10000 3.09 0 15:40 06.05.2021
3347 Clouds 21 1017 35 10000 5.66 60 15:18 06.05.2021
3348 Clouds 21 1014 60 10000 2.16 78 14:25 06.05.2021
3349 Clouds 23 1014 46 10000 2.16 78 13:53 06.05.2021
3350 Clear 19 1017 82 10000 2.57 20 13:23 06.05.2021
3351 Clear 19 1017 77 10000 2.57 20 12:46 06.05.2021
3352 Clear 20 1017 77 10000 2.06 340 12:23 06.05.2021
3353 Clear 19 1018 82 10000 2.06 300 11:48 06.05.2021
3354 Clear 19 1017 82 10000 2.06 260 11:21 06.05.2021
3355 Clear 18 1017 82 10000 2.06 270 10:47 06.05.2021
3356 Clear 18 1017 82 10000 2.06 260 10:27 06.05.2021
3357 Clouds 20 1014 54 10000 2.08 100 09:46 06.05.2021
3358 Clouds 19 1014 72 10000 2.22 110 09:27 06.05.2021
3359 Clouds 17 1014 84 10000 1.76 125 08:49 06.05.2021
3360 Clouds 16 1013 89 10000 2.16 131 08:23 06.05.2021
3361 Clouds 15 1013 96 10000 2.16 131 07:48 06.05.2021
3362 Clouds 15 1013 99 10000 1.63 124 07:19 06.05.2021
3363 Clouds 14 1013 99 10000 1.39 119 06:26 06.05.2021
3364 Clouds 14 1013 99 10000 1.39 119 05:49 06.05.2021
3365 Clouds 15 1013 99 10000 0.88 123 04:33 06.05.2021
3366 Clouds 16 1013 99 10000 0.27 142 02:35 06.05.2021
3367 Clouds 16 1013 99 10000 0.89 278 23:50 05.05.2021
3368 Clouds 16 1013 99 10000 0.66 188 22:40 05.05.2021
3369 Clouds 16 1013 99 10000 0.91 151 22:21 05.05.2021
3370 Clouds 16 1013 95 10000 0.91 151 21:40 05.05.2021
3371 Clouds 17 1012 94 10000 0.7 277 21:18 05.05.2021
3372 Clouds 17 1012 90 10000 0.7 277 20:35 05.05.2021
3373 Clouds 17 1012 90 10000 0.7 277 20:35 05.05.2021
3374 Clouds 18 1011 85 10000 0.97 250 19:44 05.05.2021
3375 Clouds 18 1011 86 10000 0.96 250 19:44 05.05.2021
3376 Clouds 18 1011 85 10000 0.97 249 19:44 05.05.2021
3377 Clouds 18 1011 85 10000 1.42 297 19:24 05.05.2021
3378 Clouds 19 1011 85 10000 1.42 297 18:44 05.05.2021
3379 Clouds 18 1011 86 10000 0.45 359 18:19 05.05.2021
3380 Clouds 19 1011 88 10000 0.75 323 17:49 05.05.2021
3381 Clouds 18 1011 88 10000 1.91 315 17:27 05.05.2021
3382 Clouds 18 1011 89 10000 0.45 321 16:50 05.05.2021
3383 Clouds 18 1011 96 10000 0.86 286 16:30 05.05.2021
3384 Clouds 18 1011 99 10000 0.86 286 15:51 05.05.2021
3385 Clouds 17 1011 99 10000 0.76 181 15:21 05.05.2021
3386 Clouds 17 1011 99 10000 0.97 214 14:43 05.05.2021
3387 Clouds 16 1012 99 10000 2.55 163 14:25 05.05.2021
3388 Clouds 17 1012 99 10000 2.55 163 13:42 05.05.2021
3389 Clouds 17 1012 99 10000 2.67 161 13:22 05.05.2021
3390 Clouds 17 1012 99 10000 2.16 177 12:28 05.05.2021
3391 Rain 17 1012 93 10000 0.45 351 11:51 05.05.2021
3392 Clouds 18 1012 87 10000 2.16 177 11:31 05.05.2021
3393 Clouds 19 1014 72 10000 1.03 0 10:57 05.05.2021
3394 Clouds 19 1014 72 10000 1.03 0 10:37 05.05.2021
3395 Clouds 19 1010 80 10000 1.5 216 09:53 05.05.2021
3396 Clouds 18 1010 81 10000 1.22 166 09:23 05.05.2021
3397 Clouds 18 1010 87 10000 1.27 137 08:42 05.05.2021
3398 Clouds 18 1010 87 10000 1.27 137 08:42 05.05.2021
3399 Clouds 18 1010 90 10000 1.65 126 08:22 05.05.2021
3400 Clouds 17 1010 94 10000 1.65 126 07:45 05.05.2021
3401 Clouds 17 1010 95 10000 1.32 141 07:21 05.05.2021
3402 Clouds 17 1009 97 10000 1.32 141 06:33 05.05.2021
3403 Clouds 17 1010 92 10000 2.02 203 01:49 05.05.2021
3404 Clouds 17 1010 92 10000 2.02 203 01:49 05.05.2021
3405 Clouds 17 1012 87 10000 1.92 174 00:21 05.05.2021
3406 Clouds 18 1012 83 10000 1.92 174 23:38 04.05.2021
3407 Clouds 18 1012 83 10000 2.2 152 22:52 04.05.2021
3408 Clouds 18 1012 81 10000 2.68 143 22:22 04.05.2021
3409 Clouds 19 1012 81 10000 2.68 143 21:57 04.05.2021
3410 Clouds 19 1012 80 10000 2.68 143 21:36 04.05.2021
3411 Clear 18 1015 82 10000 3.09 250 20:58 04.05.2021
3412 Clear 18 1015 82 10000 3.09 250 20:58 04.05.2021
3413 Clear 18 1015 82 10000 3.09 250 20:39 04.05.2021
3414 Clear 19 1015 88 10000 4.12 250 20:21 04.05.2021
3415 Clear 19 1015 88 10000 4.12 250 20:21 04.05.2021
3416 Clear 18 1015 88 10000 4.63 230 19:41 04.05.2021
3417 Clouds 20 1012 69 10000 1.07 106 19:21 04.05.2021
3418 Clear 19 1015 82 10000 2.06 230 18:51 04.05.2021
3419 Clear 19 1015 77 10000 1.03 0 18:22 04.05.2021
3420 Clear 19 1016 82 10000 2.57 30 17:48 04.05.2021
3421 Clear 21 1016 73 10000 3.6 40 17:22 04.05.2021
3422 Clouds 21 1013 70 10000 1.59 109 16:41 04.05.2021
3423 Clouds 20 1013 75 10000 1.91 119 16:22 04.05.2021
3424 Clouds 20 1013 73 10000 0.45 236 15:36 04.05.2021
3425 Clouds 20 1014 74 10000 1.28 111 14:50 04.05.2021
3426 Clouds 20 1015 76 10000 1.69 109 14:21 04.05.2021
3427 Clouds 21 1015 73 10000 1.61 109 13:41 04.05.2021
3428 Clouds 20 1015 73 10000 1.2 70 13:20 04.05.2021
3429 Clear 21 1019 72 10000 3.09 40 12:50 04.05.2021
3430 Clear 21 1019 72 10000 3.09 30 12:24 04.05.2021
3431 Clouds 19 1019 72 10000 2.57 30 11:42 04.05.2021
3432 Clouds 19 1019 77 10000 2.06 360 11:22 04.05.2021
3433 Clear 19 1019 77 10000 2.06 30 10:42 04.05.2021
3434 Clouds 19 1016 81 10000 0.75 105 10:21 04.05.2021
3435 Clouds 18 1016 84 10000 1.89 131 09:28 04.05.2021
3436 Clouds 17 1016 88 10000 1.89 131 08:58 04.05.2021
3437 Clouds 17 1016 92 10000 1.89 131 08:36 04.05.2021
3438 Clouds 16 1016 99 10000 2.43 140 07:59 04.05.2021
3439 Clouds 15 1016 99 10000 2.43 140 07:38 04.05.2021
3440 Clouds 14 1016 99 10000 2.8 122 06:32 04.05.2021
3441 Clouds 14 1015 99 10000 2.6 123 05:36 04.05.2021
3442 Clouds 14 1016 99 10000 2.59 114 03:55 04.05.2021
3443 Clouds 14 1016 99 10000 1.58 114 00:53 04.05.2021
3444 Clouds 14 1016 96 10000 1.67 134 23:44 03.05.2021
3445 Clouds 15 1016 95 10000 2.31 122 23:24 03.05.2021
3446 Clouds 14 1017 92 10000 2.26 123 22:33 03.05.2021
3447 Clouds 16 1016 90 10000 2.99 112 21:55 03.05.2021
3448 Clouds 16 1016 89 10000 2.99 112 21:37 03.05.2021
3449 Clouds 16 1016 88 10000 3.66 119 21:18 03.05.2021
3450 Clouds 16 1016 86 10000 3.88 114 20:42 03.05.2021
3451 Clouds 16 1016 84 10000 4.28 105 20:23 03.05.2021
3452 Clouds 16 1017 84 10000 4.41 105 19:43 03.05.2021
3453 Clouds 16 1017 83 10000 4.07 101 19:24 03.05.2021
3454 Clouds 17 1017 82 10000 4.07 101 18:30 03.05.2021
3455 Clouds 17 1017 82 10000 4.07 101 18:30 03.05.2021
3456 Clouds 17 1016 78 10000 3.78 89 17:52 03.05.2021
3457 Clouds 17 1016 80 10000 3.18 60 17:25 03.05.2021
3458 Clouds 17 1016 83 10000 3.18 60 16:51 03.05.2021
3459 Clouds 17 1016 82 10000 2.91 48 16:23 03.05.2021
3460 Clouds 16 1017 83 10000 2.99 49 15:47 03.05.2021
3461 Clouds 16 1017 86 10000 3.21 112 15:20 03.05.2021
3462 Clouds 16 1017 83 10000 2.51 117 14:21 03.05.2021
3463 Rain 17 1018 81 10000 2.51 117 13:51 03.05.2021
3464 Rain 16 1019 80 10000 2.71 118 13:29 03.05.2021
3465 Clouds 16 1019 80 10000 2.71 118 12:54 03.05.2021
3466 Rain 17 1019 79 10000 2.22 134 12:27 03.05.2021
3467 Clouds 17 1019 78 10000 2.22 134 11:47 03.05.2021
3468 Clouds 17 1019 77 10000 2.16 193 11:29 03.05.2021
3469 Clouds 18 1019 75 10000 2.16 193 10:49 03.05.2021
3470 Clouds 18 1018 75 10000 2.16 193 10:31 03.05.2021
3471 Clouds 18 1018 78 10000 2.67 156 09:53 03.05.2021
3472 Clouds 18 1018 78 10000 2.67 156 09:53 03.05.2021
3473 Clouds 18 1018 81 10000 2.21 145 09:21 03.05.2021
3474 Rain 18 1018 84 10000 2.18 150 08:42 03.05.2021
3475 Clouds 17 1018 86 10000 1.48 138 08:23 03.05.2021
3476 Clouds 17 1017 89 10000 1.47 138 07:36 03.05.2021
3477 Clouds 16 1016 88 10000 2.57 85 06:32 03.05.2021
3478 Clouds 16 1015 86 10000 2.56 84 05:54 03.05.2021
3479 Clouds 17 1015 87 10000 2.52 113 01:51 03.05.2021
3480 Clouds 17 1015 88 10000 1.44 112 00:19 03.05.2021
3481 Clear 17 1018 88 10000 1.03 0 23:25 02.05.2021
3482 Clear 18 1018 82 10000 3.09 60 22:49 02.05.2021
3483 Clear 18 1018 82 10000 3.09 60 22:49 02.05.2021
3484 Clear 18 1019 82 10000 3.6 80 22:30 02.05.2021
3485 Clouds 18 1015 86 10000 2.34 110 21:56 02.05.2021
3486 Clouds 18 1015 85 10000 2.34 110 21:33 02.05.2021
3487 Clouds 18 1015 81 10000 1.63 100 20:45 02.05.2021
3488 Clouds 18 1015 79 10000 1.48 86 20:22 02.05.2021
3489 Clouds 18 1015 75 10000 1.48 86 19:40 02.05.2021
3490 Clouds 19 1014 74 10000 1.87 68 19:21 02.05.2021
3491 Clouds 19 1014 71 10000 1.87 68 18:44 02.05.2021
3492 Clouds 19 1014 69 10000 1.93 34 18:26 02.05.2021
3493 Clear 20 1018 72 10000 5.14 30 17:48 02.05.2021
3494 Clear 19 1018 72 10000 4.63 20 17:28 02.05.2021
3495 Clear 19 1018 72 10000 4.12 10 16:58 02.05.2021
3496 Clear 18 1018 72 10000 4.12 10 16:39 02.05.2021
3497 Clear 18 1018 72 10000 3.6 10 16:18 02.05.2021
3498 Clear 19 1018 72 10000 3.6 340 15:41 02.05.2021
3499 Clear 20 1019 68 10000 3.09 340 15:22 02.05.2021
3500 Clouds 20 1014 63 10000 0.45 18 14:37 02.05.2021
3501 Clear 20 1019 72 10000 3.6 330 13:58 02.05.2021
3502 Clouds 21 1015 62 10000 1.79 358 13:40 02.05.2021
3503 Clouds 21 1014 63 10000 0.45 18 13:19 02.05.2021
3504 Clouds 21 1015 67 10000 0.45 346 12:42 02.05.2021
3505 Clouds 21 1014 66 10000 0.89 350 12:22 02.05.2021
3506 Clouds 21 1014 68 10000 3.82 309 11:48 02.05.2021
3507 Clouds 20 1014 68 10000 3.7 301 11:28 02.05.2021
3508 Clouds 21 1014 63 10000 3.7 301 10:36 02.05.2021
3509 Clouds 21 1014 61 10000 0.45 1 10:18 02.05.2021
3510 Clouds 20 1014 67 10000 0.89 355 09:42 02.05.2021
3511 Clouds 20 1014 66 10000 2.83 292 09:23 02.05.2021
3512 Clouds 19 1014 68 10000 2.82 292 08:52 02.05.2021
3513 Clouds 19 1014 71 10000 2.52 278 08:26 02.05.2021
3514 Clouds 18 1014 73 10000 2.67 270 07:29 02.05.2021
3515 Clouds 18 1014 69 10000 2.67 270 06:48 02.05.2021
3516 Clouds 18 1013 65 10000 3.28 257 04:49 02.05.2021
3517 Clouds 20 1013 63 10000 2.47 266 01:37 02.05.2021
3518 Clouds 20 1012 73 10000 2.74 262 23:48 01.05.2021
3519 Clouds 20 1012 74 10000 0.45 328 23:27 01.05.2021
3520 Clouds 20 1012 74 10000 0.45 328 23:27 01.05.2021
3521 Clouds 20 1012 75 10000 1.42 268 22:51 01.05.2021
3522 Clouds 20 1011 75 10000 2.17 318 22:24 01.05.2021
3523 Drizzle 19 1015 77 10000 1.54 0 21:47 01.05.2021
3524 Clouds 20 1014 77 10000 2.06 110 21:26 01.05.2021
3525 Clear 22 1013 60 10000 7.72 270 20:58 01.05.2021
3526 Clear 22 1013 60 10000 7.72 270 20:39 01.05.2021
3527 Clouds 22 1009 63 10000 2.52 341 20:21 01.05.2021
3528 Clouds 23 1009 62 10000 2.52 341 19:45 01.05.2021
3529 Clouds 23 1009 61 10000 1.69 321 19:23 01.05.2021
3530 Clouds 24 1009 55 10000 1.69 321 18:42 01.05.2021
3531 Clear 22 1013 60 10000 1.54 310 18:18 01.05.2021
3532 Clear 23 1013 56 10000 1.03 0 17:36 01.05.2021
3533 Clear 23 1013 64 10000 3.09 330 16:55 01.05.2021
3534 Clear 22 1013 64 10000 3.09 330 16:37 01.05.2021
3535 Clouds 24 1012 53 10000 2.06 0 15:57 01.05.2021
3536 Clouds 23 1012 73 9000 2.06 260 14:58 01.05.2021
3537 Clouds 23 1012 73 9000 2.06 320 13:58 01.05.2021
3538 Clouds 24 1012 57 9000 1.03 0 13:25 01.05.2021
3539 Clear 22 1012 64 10000 2.57 340 12:52 01.05.2021
3540 Clouds 25 1008 58 10000 4.67 347 12:25 01.05.2021
3541 Clouds 25 1007 62 10000 4.67 347 11:52 01.05.2021
3542 Clouds 25 1007 59 10000 4.73 347 11:34 01.05.2021
3543 Clouds 24 1007 60 10000 2.5 9 10:57 01.05.2021
3544 Clouds 24 1007 60 10000 2.5 9 10:30 01.05.2021
3545 Clouds 23 1008 63 10000 1.67 169 09:43 01.05.2021
3546 Rain 23 1008 63 10000 3.69 172 09:24 01.05.2021
3547 Clouds 22 1008 62 10000 2.22 195 08:26 01.05.2021
3548 Clouds 23 1007 61 10000 2.22 196 07:39 01.05.2021
3549 Clouds 22 1007 62 10000 2.96 143 06:18 01.05.2021
3550 Clouds 22 1007 62 10000 2.96 143 06:18 01.05.2021
3551 Clear 24 1010 32 10000 5.66 190 03:42 01.05.2021
3552 Clear 22 1010 77 10000 2.06 0 00:32 01.05.2021
3553 Clear 22 1009 82 10000 3.6 80 23:57 30.04.2021
3554 Clear 20 1009 72 10000 3.6 310 22:56 30.04.2021
3555 Clouds 21 1005 81 10000 1.48 190 22:37 30.04.2021
3556 Clouds 20 1005 81 10000 2.28 171 22:18 30.04.2021
3557 Clouds 20 1005 78 10000 2.28 171 21:43 30.04.2021
3558 Clouds 20 1005 79 10000 2.51 168 21:23 30.04.2021
3559 Clouds 21 1005 79 10000 2.51 168 20:41 30.04.2021
3560 Clouds 21 1005 77 10000 1.26 180 19:57 30.04.2021
3561 Clouds 21 1005 77 10000 1.26 180 19:57 30.04.2021
3562 Clear 21 1008 73 10000 1.03 0 19:19 30.04.2021
3563 Clouds 21 1004 67 10000 1.91 144 18:43 30.04.2021
3564 Clear 23 1008 73 10000 7.2 70 18:24 30.04.2021
3565 Clear 25 1009 68 10000 7.72 70 17:48 30.04.2021
3566 Clear 25 1009 64 10000 7.2 60 17:22 30.04.2021
3567 Clear 26 1009 64 10000 7.2 60 16:51 30.04.2021
3568 Clear 26 1010 60 10000 6.69 60 16:28 30.04.2021
3569 Clear 21 1010 60 10000 8.23 60 15:41 30.04.2021
3570 Clouds 21 1010 64 10000 6.69 50 15:20 30.04.2021
3571 Clouds 25 1010 73 10000 6.17 40 14:46 30.04.2021
3572 Clouds 25 1010 73 10000 5.66 40 14:27 30.04.2021
3573 Clear 24 1010 77 10000 6.17 40 13:50 30.04.2021
3574 Clouds 25 1011 49 10000 6.17 60 13:30 30.04.2021
3575 Clouds 24 1011 77 10000 4.63 30 12:43 30.04.2021
3576 Clouds 25 1008 43 10000 1.08 103 12:24 30.04.2021
3577 Clouds 24 1008 46 10000 2.05 79 11:25 30.04.2021
3578 Clouds 23 1008 48 10000 2.36 91 10:52 30.04.2021
3579 Clouds 23 1008 48 10000 2.36 91 10:34 30.04.2021
3580 Clouds 23 1008 48 10000 2.36 91 10:34 30.04.2021
3581 Clouds 23 1008 48 10000 1.09 76 09:57 30.04.2021
3582 Clear 21 1012 82 10000 1.54 360 09:28 30.04.2021
3583 Clouds 21 1008 65 10000 0.23 188 08:49 30.04.2021
3584 Clouds 18 1008 76 10000 0.2 157 07:45 30.04.2021
3585 Clouds 17 1008 78 10000 0.61 123 07:25 30.04.2021
3586 Clouds 17 1008 78 10000 0.61 123 06:51 30.04.2021
3587 Clouds 17 1007 78 10000 0.87 170 06:25 30.04.2021
3588 Clouds 17 1007 76 10000 0.87 170 05:35 30.04.2021
3589 Clear 18 1011 94 10000 3.09 270 02:56 30.04.2021
3590 Clouds 18 1008 79 10000 3.15 253 01:45 30.04.2021
3591 Clouds 19 1007 75 10000 1.45 203 23:56 29.04.2021
3592 Clear 19 1007 73 10000 1.65 163 23:25 29.04.2021
3593 Clear 20 1007 62 10000 1.65 163 22:43 29.04.2021
3594 Clear 20 1007 60 10000 2.35 156 22:22 29.04.2021
3595 Clear 21 1007 61 10000 2.35 156 21:44 29.04.2021
3596 Clear 21 1007 63 10000 2.16 167 21:25 29.04.2021
3597 Clear 19 1010 82 10000 2.06 30 20:48 29.04.2021
3598 Clear 19 1009 72 10000 3.09 50 20:29 29.04.2021
3599 Clear 19 1009 77 10000 2.06 10 19:59 29.04.2021
3600 Clear 19 1009 77 10000 2.06 10 19:41 29.04.2021
3601 Clear 19 1009 77 10000 2.06 10 19:41 29.04.2021
3602 Clear 21 1009 60 10000 3.6 250 19:20 29.04.2021
3603 Clear 21 1009 60 10000 3.6 250 19:20 29.04.2021
3604 Clear 23 1009 38 10000 4.63 70 18:42 29.04.2021
3605 Clear 23 1008 49 10000 8.75 80 17:57 29.04.2021
3606 Clear 23 1008 49 10000 8.75 80 17:38 29.04.2021
3607 Clear 23 1008 43 10000 8.75 60 17:18 29.04.2021
3608 Clear 23 1008 41 10000 9.26 60 16:43 29.04.2021
3609 Clear 23 1009 43 10000 8.75 60 16:21 29.04.2021
3610 Clear 23 1009 43 10000 7.72 50 15:43 29.04.2021
3611 Clear 23 1010 47 10000 8.75 70 15:23 29.04.2021
3612 Clear 23 1007 56 10000 2.94 96 14:45 29.04.2021
3613 Clear 23 1007 61 10000 3.19 103 14:22 29.04.2021
3614 Clear 22 1008 68 10000 3.19 103 13:40 29.04.2021
3615 Clear 22 1009 68 10000 3.32 104 13:20 29.04.2021
3616 Clear 22 1009 70 10000 3.32 104 12:43 29.04.2021
3617 Clear 21 1009 70 10000 0.45 265 12:20 29.04.2021
3618 Clear 22 1009 70 10000 3.25 88 11:47 29.04.2021
3619 Clear 22 1009 67 10000 2.79 75 11:22 29.04.2021
3620 Clear 23 1009 58 10000 2.79 75 10:45 29.04.2021
3621 Clear 22 1009 58 10000 1.39 39 10:26 29.04.2021
3622 Clear 21 1008 61 10000 1.39 39 09:42 29.04.2021
3623 Clear 20 1008 65 10000 0.82 71 09:22 29.04.2021
3624 Clear 21 1008 64 10000 0.82 71 09:22 29.04.2021
3625 Clear 19 1008 70 10000 0.82 71 08:45 29.04.2021
3626 Clouds 18 1007 73 10000 0.26 320 08:26 29.04.2021
3627 Clouds 17 1007 75 10000 0.26 320 07:44 29.04.2021
3628 Clouds 16 1006 77 10000 0.63 245 06:49 29.04.2021
3629 Clouds 16 1006 79 10000 2.61 147 05:27 29.04.2021
3630 Clear 18 1007 81 10000 2.61 127 00:49 29.04.2021
3631 Clear 18 1008 80 10000 2.8 146 23:24 28.04.2021
3632 Clear 18 1008 79 10000 2.85 146 22:59 28.04.2021
3633 Clear 18 1008 79 10000 2.56 148 22:28 28.04.2021
3634 Clear 19 1007 78 10000 2.56 148 21:55 28.04.2021
3635 Clear 19 1007 78 10000 2.56 148 21:37 28.04.2021
3636 Clear 19 1007 77 10000 2.4 152 21:18 28.04.2021
3637 Clear 19 1007 76 10000 2.71 144 20:39 28.04.2021
3638 Clouds 19 1007 74 10000 2.4 130 20:21 28.04.2021
3639 Clouds 20 1007 71 10000 2.4 130 19:42 28.04.2021
3640 Clouds 20 1006 69 10000 1.92 104 19:23 28.04.2021
3641 Clouds 21 1006 63 10000 1.92 104 18:46 28.04.2021
3642 Clouds 22 1006 60 10000 1.4 79 18:26 28.04.2021
3643 Clear 20 1010 77 10000 3.09 30 17:47 28.04.2021
3644 Clear 19 1010 82 10000 3.09 10 17:25 28.04.2021
3645 Clear 20 1010 77 10000 2.57 360 16:22 28.04.2021
3646 Clear 20 1010 77 10000 3.09 10 15:54 28.04.2021
3647 Clear 20 1010 77 10000 3.09 10 15:35 28.04.2021
3648 Clear 20 1010 77 10000 2.57 360 14:46 28.04.2021
3649 Clear 20 1010 77 10000 2.57 350 14:23 28.04.2021
3650 Clouds 23 1006 62 10000 2.36 346 13:59 28.04.2021
3651 Clouds 22 1006 63 10000 2.36 346 13:32 28.04.2021
3652 Clouds 22 1006 65 10000 2.29 326 12:56 28.04.2021
3653 Clouds 21 1006 66 10000 2.29 326 12:34 28.04.2021
3654 Clouds 21 1006 64 10000 1.98 311 11:50 28.04.2021
3655 Clouds 21 1006 64 10000 0.45 330 11:27 28.04.2021
3656 Clouds 20 1006 67 10000 2.07 305 10:43 28.04.2021
3657 Clouds 20 1006 66 10000 1.84 306 10:21 28.04.2021
3658 Clouds 20 1006 67 10000 1.84 307 09:57 28.04.2021
3659 Clouds 20 1006 67 10000 1.34 336 09:57 28.04.2021
3660 Clouds 19 1006 69 10000 0.89 354 09:34 28.04.2021
3661 Clouds 18 1005 74 10000 0.8 316 08:56 28.04.2021
3662 Clouds 17 1005 79 10000 0.21 149 07:58 28.04.2021
3663 Clouds 17 1005 79 10000 1.15 182 07:28 28.04.2021
3664 Clouds 17 1004 79 10000 1.94 257 06:24 28.04.2021
3665 Clouds 17 1003 71 10000 1.68 249 03:50 28.04.2021
3666 Clouds 17 1003 68 10000 1.37 223 02:35 28.04.2021
3667 Clouds 17 1004 72 10000 1.85 135 00:53 28.04.2021
3668 Clouds 17 1004 70 10000 2.29 136 23:57 27.04.2021
3669 Clouds 18 1004 71 10000 2.29 136 23:36 27.04.2021
3670 Clear 18 1008 72 10000 1.54 160 22:50 27.04.2021
3671 Clear 18 1008 82 10000 1.03 0 22:31 27.04.2021
3672 Clear 18 1008 82 10000 1.54 290 21:50 27.04.2021
3673 Clear 18 1007 77 10000 1.03 0 21:31 27.04.2021
3674 Clear 17 1007 77 10000 1.54 40 20:59 27.04.2021
3675 Clear 17 1007 77 10000 1.54 40 20:41 27.04.2021
3676 Clear 18 1007 72 10000 0.51 0 19:52 27.04.2021
3677 Clear 19 1007 77 10000 1.03 270 19:27 27.04.2021
3678 Clear 19 1007 77 10000 1.54 270 18:59 27.04.2021
3679 Clear 19 1007 77 10000 1.54 270 18:41 27.04.2021
3680 Clear 19 1007 77 10000 1.03 0 18:21 27.04.2021
3681 Clear 20 1007 77 10000 2.06 320 17:31 27.04.2021
3682 Clear 20 1007 68 10000 1.54 350 16:54 27.04.2021
3683 Clear 20 1007 73 10000 3.09 310 16:31 27.04.2021
3684 Clear 21 1007 73 10000 3.09 340 15:57 27.04.2021
3685 Clear 20 1007 73 10000 3.09 340 15:37 27.04.2021
3686 Clear 19 1007 77 10000 4.12 20 15:19 27.04.2021
3687 Clear 19 1007 77 10000 3.6 30 14:41 27.04.2021
3688 Clear 19 1007 77 10000 3.6 20 14:21 27.04.2021
3689 Clouds 21 1004 56 10000 1.59 336 13:49 27.04.2021
3690 Clouds 21 1004 56 10000 1.59 336 13:49 27.04.2021
3691 Clouds 21 1003 61 10000 1.65 353 13:25 27.04.2021
3692 Clouds 21 1004 48 10000 0.89 357 12:34 27.04.2021
3693 Clouds 22 1004 49 10000 0.89 4 11:57 27.04.2021
3694 Clouds 21 1004 49 10000 0.45 352 11:28 27.04.2021
3695 Clouds 22 1004 46 10000 1.65 358 10:51 27.04.2021
3696 Clouds 21 1003 48 10000 1.09 111 10:25 27.04.2021
3697 Clouds 21 1003 51 10000 1.06 115 09:54 27.04.2021
3698 Clouds 19 1003 63 10000 0.45 346 08:55 27.04.2021
3699 Clouds 18 1003 65 10000 0.7 195 08:28 27.04.2021
3700 Clouds 17 1003 64 10000 1.2 172 07:48 27.04.2021
3701 Clouds 17 1006 55 10000 0.51 0 06:58 27.04.2021
3702 Clouds 17 1006 55 10000 2.06 220 06:29 27.04.2021
3703 Clouds 17 1006 49 10000 4.63 230 05:32 27.04.2021
3704 Clouds 18 1007 52 10000 4.12 70 01:57 27.04.2021
3705 Clouds 19 1007 48 10000 2.06 60 00:28 27.04.2021
3706 Clouds 19 1007 48 10000 5.14 70 23:46 26.04.2021
3707 Clear 19 1007 48 10000 4.63 70 23:20 26.04.2021
3708 Clear 18 1006 55 10000 3.6 40 22:50 26.04.2021
3709 Clear 19 1006 52 10000 4.12 60 22:23 26.04.2021
3710 Clear 19 1006 55 10000 3.09 70 21:42 26.04.2021
3711 Clear 19 1006 55 10000 3.09 70 21:42 26.04.2021
3712 Clear 19 1005 52 10000 2.57 70 21:23 26.04.2021
3713 Clear 18 1005 63 10000 4.63 60 20:46 26.04.2021
3714 Clear 17 1005 82 10000 3.6 30 20:28 26.04.2021
3715 Clear 18 1005 72 10000 2.57 0 19:47 26.04.2021
3716 Clear 19 1006 72 10000 3.09 50 19:26 26.04.2021
3717 Clear 20 1007 63 10000 4.12 70 18:46 26.04.2021
3718 Clouds 20 1007 72 10000 6.17 50 18:28 26.04.2021
3719 Rain 21 1004 61 10000 4.8 132 17:50 26.04.2021
3720 Rain 21 1004 59 10000 5.3 122 17:22 26.04.2021
3721 Clouds 23 1006 56 10000 0.89 8 16:48 26.04.2021
3722 Clouds 23 1005 53 10000 1.34 6 16:26 26.04.2021
3723 Clear 21 1010 77 10000 6.17 40 15:48 26.04.2021
3724 Clouds 21 1010 68 10000 8.23 50 15:24 26.04.2021
3725 Clouds 22 1006 58 10000 4.95 99 14:59 26.04.2021
3726 Clouds 23 1007 55 10000 4.95 99 14:34 26.04.2021
3727 Clouds 22 1008 57 10000 1.78 94 13:53 26.04.2021
3728 Clouds 22 1009 56 10000 0.45 20 13:34 26.04.2021
3729 Clouds 22 1009 58 10000 0.45 357 12:58 26.04.2021
3730 Clouds 22 1009 53 10000 2.13 118 11:56 26.04.2021
3731 Clouds 21 1010 56 10000 2.13 118 11:38 26.04.2021
3732 Clouds 20 1011 61 10000 0.89 329 10:53 26.04.2021
3733 Clouds 20 1011 61 10000 2.62 247 10:32 26.04.2021
3734 Clouds 20 1011 61 10000 2.62 247 10:32 26.04.2021
3735 Clouds 19 1011 66 10000 0.89 353 09:57 26.04.2021
3736 Clouds 18 1011 65 10000 0.45 11 09:39 26.04.2021
3737 Clear 18 1011 65 10000 0.89 359 09:19 26.04.2021
3738 Clouds 16 1011 74 10000 2.95 126 08:22 26.04.2021
3739 Clouds 15 1011 77 10000 2.99 126 07:54 26.04.2021
3740 Clouds 14 1011 77 10000 2.39 134 07:28 26.04.2021
3741 Clouds 13 1011 75 10000 2.39 134 06:39 26.04.2021
3742 Clouds 14 1011 72 10000 2.13 157 05:38 26.04.2021
3743 Clouds 14 1012 69 10000 3.02 143 04:38 26.04.2021
3744 Clouds 14 1012 70 10000 2.81 134 03:23 26.04.2021
3745 Clouds 15 1013 64 10000 2.69 126 01:26 26.04.2021
3746 Clouds 15 1014 64 10000 2.69 126 00:46 26.04.2021
3747 Clear 15 1014 63 10000 2.3 142 23:48 25.04.2021
3748 Clear 16 1014 63 10000 2.61 144 23:27 25.04.2021
3749 Clear 15 1018 72 10000 3.09 210 22:58 25.04.2021
3750 Clear 16 1018 72 10000 3.09 210 22:37 25.04.2021
3751 Clear 16 1018 67 10000 4.12 210 22:18 25.04.2021
3752 Clear 17 1017 72 10000 3.6 220 21:41 25.04.2021
3753 Clear 17 1017 72 10000 4.12 220 21:23 25.04.2021
3754 Clear 16 1017 72 10000 4.12 210 20:48 25.04.2021
3755 Clear 17 1017 67 10000 4.63 220 20:26 25.04.2021
3756 Clear 18 1017 63 10000 3.6 270 19:48 25.04.2021
3757 Clear 18 1014 45 10000 1.8 87 19:28 25.04.2021
3758 Clear 19 1014 42 10000 1.8 87 18:54 25.04.2021
3759 Clear 19 1017 52 10000 6.17 60 18:30 25.04.2021
3760 Clear 19 1017 52 10000 6.17 60 18:30 25.04.2021
3761 Clear 19 1017 48 10000 6.17 50 17:57 25.04.2021
3762 Clear 19 1017 48 10000 6.17 50 17:39 25.04.2021
3763 Clear 19 1017 59 10000 6.69 50 17:21 25.04.2021
3764 Clear 19 1017 59 10000 7.2 40 16:41 25.04.2021
3765 Clouds 19 1017 59 10000 7.72 40 16:23 25.04.2021
3766 Clear 20 1018 48 10000 6.17 50 15:28 25.04.2021
3767 Clear 20 1018 52 10000 5.66 50 14:56 25.04.2021
3768 Clear 19 1018 48 10000 6.17 40 14:22 25.04.2021
3769 Clouds 21 1015 37 10000 2.33 32 13:52 25.04.2021
3770 Clouds 21 1015 38 10000 0.45 306 13:22 25.04.2021
3771 Clouds 20 1015 38 10000 1.51 44 12:49 25.04.2021
3772 Clouds 20 1015 39 10000 1.52 81 12:26 25.04.2021
3773 Clouds 20 1016 42 10000 1.52 81 11:53 25.04.2021
3774 Clouds 20 1016 42 10000 0.45 323 11:31 25.04.2021
3775 Clouds 19 1016 46 10000 0.45 355 10:48 25.04.2021
3776 Clear 19 1016 48 10000 2.35 84 10:21 25.04.2021
3777 Clear 18 1015 52 10000 2.35 84 09:47 25.04.2021
3778 Clear 18 1015 60 10000 1.59 91 09:25 25.04.2021
3779 Clouds 15 1015 81 10000 1.35 126 08:22 25.04.2021
3780 Clouds 13 1015 86 10000 1.34 129 07:46 25.04.2021
3781 Clouds 12 1015 85 10000 1.68 134 07:19 25.04.2021
3782 Clouds 12 1015 85 10000 1.68 134 07:19 25.04.2021
3783 Clear 12 1015 86 10000 1.5 132 06:32 25.04.2021
3784 Clear 12 1015 93 10000 1.58 134 04:57 25.04.2021
3785 Clear 12 1016 93 10000 1.58 134 04:39 25.04.2021
3786 Clear 13 1016 88 10000 1.21 164 01:45 25.04.2021
3787 Clear 14 1017 85 10000 1.8 128 00:59 25.04.2021
3788 Clouds 14 1017 83 10000 1.54 108 00:23 25.04.2021
3789 Clear 14 1019 82 10000 3.09 60 23:48 24.04.2021
3790 Clear 14 1019 88 10000 3.6 70 23:25 24.04.2021
3791 Clear 15 1019 82 10000 3.6 50 22:38 24.04.2021
3792 Clear 15 1019 82 10000 3.09 50 21:56 24.04.2021
3793 Clear 15 1019 82 10000 3.6 50 21:29 24.04.2021
3794 Clear 15 1018 82 10000 4.12 50 20:51 24.04.2021
3795 Clouds 16 1016 82 10000 1.98 52 20:32 24.04.2021
3796 Clear 16 1018 77 10000 5.14 50 19:57 24.04.2021
3797 Clouds 16 1015 77 10000 2.87 52 19:30 24.04.2021
3798 Clouds 17 1018 72 10000 5.66 40 18:59 24.04.2021
3799 Clouds 17 1018 72 10000 5.66 40 18:34 24.04.2021
3800 Clouds 17 1018 72 10000 6.17 30 17:58 24.04.2021
3801 Clouds 17 1018 67 10000 6.17 30 17:26 24.04.2021
3802 Clouds 17 1018 72 10000 6.17 30 16:52 24.04.2021
3803 Clouds 17 1018 72 10000 6.17 30 16:32 24.04.2021
3804 Clouds 18 1015 75 10000 1.34 352 15:39 24.04.2021
3805 Clouds 18 1014 74 10000 0.89 6 15:20 24.04.2021
3806 Clouds 17 1018 72 10000 6.17 20 14:33 24.04.2021
3807 Clouds 18 1015 76 10000 4.39 35 13:55 24.04.2021
3808 Clouds 18 1015 76 10000 1.34 343 13:37 24.04.2021
3809 Clouds 17 1015 78 10000 1.34 1 12:39 24.04.2021
3810 Clouds 17 1018 77 10000 5.66 30 12:18 24.04.2021
3811 Clouds 16 1018 77 10000 5.66 40 11:44 24.04.2021
3812 Clouds 17 1015 88 10000 4.79 32 10:57 24.04.2021
3813 Clouds 17 1014 90 10000 4.79 32 10:39 24.04.2021
3814 Clouds 16 1014 99 10000 1.34 6 09:57 24.04.2021
3815 Clouds 15 1014 99 10000 4.82 32 09:31 24.04.2021
3816 Clouds 14 1014 99 9878 5.24 27 07:55 24.04.2021
3817 Clouds 14 1014 99 10000 5.57 24 07:27 24.04.2021
3818 Clouds 14 1013 99 5932 4.45 32 05:21 24.04.2021
3819 Clouds 14 1014 99 6830 4.55 28 01:34 24.04.2021
3820 Clouds 14 1014 99 10000 2.81 17 23:43 23.04.2021
3821 Clouds 14 1014 99 10000 0.45 338 22:48 23.04.2021
3822 Clouds 14 1014 99 10000 2.04 58 22:21 23.04.2021
3823 Clouds 14 1014 99 10000 2.04 58 22:21 23.04.2021
3824 Clouds 14 1014 99 10000 0.45 352 21:49 23.04.2021
3825 Clouds 14 1013 99 10000 0.89 352 21:28 23.04.2021
3826 Clouds 15 1013 99 10000 2.28 67 20:43 23.04.2021
3827 Clouds 15 1013 99 10000 2.42 65 20:21 23.04.2021
3828 Clouds 14 1012 99 10000 2.42 65 19:54 23.04.2021
3829 Clouds 15 1012 99 10000 2.23 84 19:34 23.04.2021
3830 Clouds 15 1012 99 10000 3.09 92 18:58 23.04.2021
3831 Clouds 15 1012 99 10000 3.21 91 18:36 23.04.2021
3832 Clouds 15 1012 99 10000 3.21 91 17:59 23.04.2021
3833 Clouds 15 1012 99 10000 3.12 91 17:38 23.04.2021
3834 Clouds 15 1012 99 10000 2.85 102 17:20 23.04.2021
3835 Clouds 15 1012 99 10000 2.85 102 16:45 23.04.2021
3836 Clouds 15 1012 99 10000 2.64 97 16:24 23.04.2021
3837 Clouds 15 1012 99 10000 0.45 347 15:39 23.04.2021
3838 Clouds 16 1012 99 10000 2.93 85 14:44 23.04.2021
3839 Rain 16 1012 99 10000 3.83 74 13:41 23.04.2021
3840 Rain 15 1013 99 10000 3.54 62 13:21 23.04.2021
3841 Rain 16 1013 99 10000 3.54 62 12:34 23.04.2021
3842 Clouds 17 1012 99 10000 4.31 60 11:50 23.04.2021
3843 Clouds 17 1012 99 10000 4.09 70 11:30 23.04.2021
3844 Clouds 16 1012 99 10000 0.45 337 10:52 23.04.2021
3845 Clouds 16 1012 99 10000 4.37 74 10:27 23.04.2021
3846 Clouds 16 1012 99 10000 4.31 73 09:55 23.04.2021
3847 Clouds 15 1012 99 10000 4.05 75 08:55 23.04.2021
3848 Clouds 15 1013 99 10000 4 75 08:37 23.04.2021
3849 Clouds 15 1013 99 10000 3.92 74 07:47 23.04.2021
3850 Clouds 14 1013 99 10000 2.91 93 06:55 23.04.2021
3851 Clouds 14 1012 99 10000 2.63 93 05:30 23.04.2021
3852 Clouds 14 1011 99 10000 2.92 96 03:32 23.04.2021
3853 Clouds 14 1012 99 9556 3.32 120 02:39 23.04.2021
3854 Rain 15 1013 99 10000 1.25 80 23:58 22.04.2021
3855 Rain 15 1013 99 10000 0.9 62 22:57 22.04.2021
3856 Rain 15 1013 99 10000 0.82 66 22:38 22.04.2021
3857 Rain 15 1013 99 10000 1.05 140 22:18 22.04.2021
3858 Rain 15 1013 94 10000 1.05 140 21:41 22.04.2021
3859 Rain 16 1013 89 10000 1.9 125 21:18 22.04.2021
3860 Rain 16 1013 81 10000 1.9 125 20:45 22.04.2021
3861 Rain 17 1012 70 10000 1.83 178 20:26 22.04.2021
3862 Rain 17 1014 88 10000 4.12 20 19:50 22.04.2021
3863 Clear 18 1014 88 10000 4.63 30 19:31 22.04.2021
3864 Clear 18 1014 88 10000 5.14 40 18:44 22.04.2021
3865 Clear 17 1014 88 10000 5.14 40 18:44 22.04.2021
3866 Clear 18 1013 77 10000 5.14 30 18:21 22.04.2021
3867 Clear 18 1014 72 10000 5.14 40 17:41 22.04.2021
3868 Clear 19 1013 63 10000 5.14 50 17:20 22.04.2021
3869 Clouds 20 1010 67 10000 0.89 359 16:47 22.04.2021
3870 Clouds 20 1010 67 10000 0.45 9 16:27 22.04.2021
3871 Clouds 20 1011 65 10000 1.16 157 15:48 22.04.2021
3872 Rain 20 1011 65 10000 0.45 299 15:24 22.04.2021
3873 Clouds 20 1011 67 10000 1.74 110 14:50 22.04.2021
3874 Rain 20 1011 67 10000 1.56 171 14:29 22.04.2021
3875 Clouds 21 1010 60 10000 0.89 351 13:46 22.04.2021
3876 Clear 20 1014 77 10000 4.12 40 13:25 22.04.2021
3877 Clouds 19 1014 82 10000 3.6 20 12:56 22.04.2021
3878 Clouds 19 1014 82 10000 3.6 20 12:56 22.04.2021
3879 Clouds 19 1014 82 10000 3.6 20 12:37 22.04.2021
3880 Clouds 19 1014 77 10000 4.63 20 12:18 22.04.2021
3881 Clear 20 1013 72 10000 4.63 30 11:42 22.04.2021
3882 Clear 19 1013 68 10000 5.14 20 11:21 22.04.2021
3883 Clouds 20 1010 68 10000 6.01 105 10:42 22.04.2021
3884 Clouds 18 1010 75 10000 6.7 107 10:20 22.04.2021
3885 Clouds 17 1011 81 10000 6.52 108 09:39 22.04.2021
3886 Clouds 16 1011 98 10000 6.82 108 08:57 22.04.2021
3887 Clouds 15 1011 99 10000 6.72 109 08:38 22.04.2021
3888 Clouds 15 1012 99 10000 6.4 101 08:18 22.04.2021
3889 Clouds 15 1012 99 10000 6.62 101 07:37 22.04.2021
3890 Clouds 15 1013 98 10000 5.54 97 07:18 22.04.2021
3891 Clouds 15 1013 93 10000 4.91 87 06:22 22.04.2021
3892 Clouds 15 1012 90 10000 0.45 239 05:24 22.04.2021
3893 Clouds 15 1014 96 10000 3.28 124 02:49 22.04.2021
3894 Clouds 17 1014 77 10000 2.11 128 00:41 22.04.2021
3895 Clouds 17 1013 75 10000 2.75 173 23:42 21.04.2021
3896 Clouds 17 1012 77 10000 3.39 141 23:22 21.04.2021
3897 Clouds 17 1012 79 10000 3.39 141 22:41 21.04.2021
3898 Clouds 17 1012 78 10000 3.13 152 22:23 21.04.2021
3899 Clouds 17 1012 77 10000 3.16 152 21:42 21.04.2021
3900 Clouds 17 1013 77 10000 0.45 286 21:42 21.04.2021
3901 Clouds 17 1012 77 10000 3.5 138 21:23 21.04.2021
3902 Clouds 17 1012 75 10000 3.47 138 20:40 21.04.2021
3903 Clouds 17 1012 74 10000 2.91 162 20:18 21.04.2021
3904 Clouds 17 1012 73 10000 3.64 158 19:41 21.04.2021
3905 Clouds 17 1012 71 10000 4.05 142 19:23 21.04.2021
3906 Clear 18 1015 55 10000 3.6 60 18:45 21.04.2021
3907 Clear 18 1015 55 10000 3.6 60 18:24 21.04.2021
3908 Clear 18 1015 52 10000 3.6 60 17:46 21.04.2021
3909 Clouds 17 1015 55 10000 3.6 60 17:24 21.04.2021
3910 Clouds 18 1013 63 10000 1.8 130 16:42 21.04.2021
3911 Clouds 18 1013 64 10000 1.96 139 15:56 21.04.2021
3912 Clouds 18 1013 66 10000 1.96 139 15:37 21.04.2021
3913 Clouds 19 1014 61 10000 2.42 132 14:48 21.04.2021
3914 Clouds 19 1014 58 10000 3.22 115 14:30 21.04.2021
3915 Clouds 19 1014 62 10000 2.69 117 13:51 21.04.2021
3916 Clouds 19 1014 58 10000 3.31 103 13:24 21.04.2021
3917 Clouds 18 1014 55 10000 3.22 104 12:58 21.04.2021
3918 Clouds 18 1015 53 10000 3.33 102 12:29 21.04.2021
3919 Clouds 18 1015 56 10000 3.33 102 11:49 21.04.2021
3920 Clouds 17 1015 55 10000 0.45 318 11:29 21.04.2021
3921 Clouds 17 1015 55 10000 3.18 105 10:48 21.04.2021
3922 Clouds 17 1015 56 10000 0.45 262 10:18 21.04.2021
3923 Clouds 16 1015 61 10000 3.06 112 09:41 21.04.2021
3924 Clouds 15 1015 69 10000 3.06 121 08:56 21.04.2021
3925 Clouds 14 1015 76 10000 3.06 121 08:37 21.04.2021
3926 Clouds 14 1015 82 10000 3.01 130 08:18 21.04.2021
3927 Clouds 12 1015 86 10000 2.99 129 07:31 21.04.2021
3928 Clouds 11 1015 86 10000 2.94 134 06:28 21.04.2021
3929 Clouds 11 1014 89 10000 3.01 133 04:46 21.04.2021
3930 Clouds 12 1016 83 10000 2.6 152 00:53 21.04.2021
3931 Clouds 13 1016 81 10000 2.66 152 23:48 20.04.2021
3932 Clouds 13 1016 79 10000 2.7 148 23:21 20.04.2021
3933 Clouds 13 1015 76 10000 2.7 148 22:40 20.04.2021
3934 Clouds 14 1015 75 10000 2.53 137 22:18 20.04.2021
3935 Clouds 14 1015 74 10000 2.53 137 21:46 20.04.2021
3936 Clouds 14 1015 74 10000 2.03 116 21:24 20.04.2021
3937 Clouds 15 1015 73 10000 2.01 116 20:42 20.04.2021
3938 Clouds 15 1015 73 10000 1.36 84 20:23 20.04.2021
3939 Clear 15 1017 72 10000 3.09 40 19:54 20.04.2021
3940 Clear 14 1017 72 10000 3.09 40 19:36 20.04.2021
3941 Clouds 16 1014 66 10000 1.29 18 18:55 20.04.2021
3942 Clouds 16 1014 65 10000 1.29 18 18:35 20.04.2021
3943 Clouds 16 1017 63 10000 2.06 360 17:45 20.04.2021
3944 Clear 16 1017 63 10000 1.54 10 17:22 20.04.2021
3945 Clear 16 1017 59 10000 2.06 340 16:44 20.04.2021
3946 Clear 16 1018 67 10000 3.6 320 15:51 20.04.2021
3947 Clear 16 1018 72 10000 4.12 300 15:27 20.04.2021
3948 Clear 15 1018 67 10000 4.63 300 14:57 20.04.2021
3949 Clear 16 1018 67 10000 5.14 290 14:31 20.04.2021
3950 Clear 17 1014 57 10000 0.45 332 13:37 20.04.2021
3951 Clear 17 1014 56 10000 4.62 294 13:18 20.04.2021
3952 Clear 17 1015 52 10000 4.62 294 12:40 20.04.2021
3953 Clear 18 1015 51 10000 4.51 283 12:19 20.04.2021
3954 Clear 17 1015 52 10000 4.51 283 11:40 20.04.2021
3955 Clear 17 1015 52 10000 4.38 269 11:20 20.04.2021
3956 Clear 17 1015 54 10000 0.45 212 10:42 20.04.2021
3957 Clear 16 1015 53 10000 0.45 247 10:22 20.04.2021
3958 Clear 15 1015 63 10000 0.45 226 09:22 20.04.2021
3959 Clear 15 1015 68 10000 0.45 235 08:54 20.04.2021
3960 Clear 14 1015 74 10000 3.76 235 08:19 20.04.2021
3961 Clear 11 1015 79 10000 3.81 228 07:39 20.04.2021
3962 Clear 12 1014 80 10000 4.02 225 06:36 20.04.2021
3963 Clear 12 1014 80 10000 4.22 221 05:37 20.04.2021
3964 Clear 12 1014 79 10000 4.15 218 04:41 20.04.2021
3965 Clouds 11 1015 84 10000 4.42 232 00:53 20.04.2021
3966 Clouds 11 1015 80 10000 4.47 229 00:27 20.04.2021
3967 Clouds 12 1015 74 10000 4.47 229 23:34 19.04.2021
3968 Clouds 12 1015 72 10000 4.56 230 22:56 19.04.2021
3969 Clouds 12 1015 70 10000 4.56 230 22:30 19.04.2021
3970 Clouds 12 1015 70 10000 4.56 230 22:30 19.04.2021
3971 Clear 13 1018 72 10000 7.72 260 21:47 19.04.2021
3972 Clear 13 1018 67 10000 7.2 270 21:25 19.04.2021
3973 Clouds 13 1014 68 10000 4.39 244 20:43 19.04.2021
3974 Clear 13 1014 68 10000 0.45 332 20:22 19.04.2021
3975 Clear 13 1014 66 10000 0.45 209 19:54 19.04.2021
3976 Clouds 14 1014 65 10000 4.01 262 19:36 19.04.2021
3977 Clear 14 1014 67 10000 4.64 277 19:18 19.04.2021
3978 Clear 14 1014 68 10000 0.45 186 18:44 19.04.2021
3979 Clear 14 1014 65 10000 0.89 4 18:21 19.04.2021
3980 Clear 15 1017 58 10000 7.2 280 17:47 19.04.2021
3981 Clear 12 1017 67 10000 7.2 270 17:26 19.04.2021
3982 Clear 15 1017 63 10000 7.72 270 16:49 19.04.2021
3983 Clear 15 1017 63 10000 6.17 260 16:30 19.04.2021
3984 Clear 15 1017 62 10000 6.69 270 15:44 19.04.2021
3985 Clouds 15 1017 67 10000 6.69 270 15:24 19.04.2021
3986 Clear 16 1013 49 10000 7.85 294 14:52 19.04.2021
3987 Clouds 15 1017 62 10000 5.14 260 14:33 19.04.2021
3988 Clouds 15 1013 59 10000 1.34 122 13:53 19.04.2021
3989 Clouds 15 1014 61 10000 2.24 303 13:29 19.04.2021
3990 Clouds 14 1014 66 10000 0.45 277 12:49 19.04.2021
3991 Clouds 13 1014 71 10000 1.34 301 12:29 19.04.2021
3992 Clouds 13 1014 71 10000 7.36 293 11:59 19.04.2021
3993 Clouds 13 1014 72 10000 1.34 343 11:39 19.04.2021
3994 Clouds 13 1013 74 10000 0.45 82 11:19 19.04.2021
3995 Clouds 13 1013 75 10000 6.34 288 10:43 19.04.2021
3996 Clouds 13 1013 76 10000 0.45 324 10:19 19.04.2021
3997 Clouds 12 1013 80 10000 6.38 285 09:42 19.04.2021
3998 Clouds 12 1013 82 10000 6.37 285 09:23 19.04.2021
3999 Clouds 11 1012 88 10000 6.37 285 08:34 19.04.2021
4000 Clouds 11 1012 88 10000 0.45 320 07:50 19.04.2021
4001 Clouds 11 1012 90 10000 0.45 305 07:24 19.04.2021
4002 Clouds 10 1012 97 10000 1.34 324 06:47 19.04.2021
4003 Clouds 10 1011 93 10000 1.34 343 04:40 19.04.2021
4004 Clouds 11 1011 71 10000 2.24 326 01:49 19.04.2021
4005 Clouds 12 1012 72 10000 5.57 221 00:41 19.04.2021
4006 Clouds 12 1012 73 10000 0.45 290 23:21 18.04.2021
4007 Clouds 12 1012 72 10000 4.92 208 22:58 18.04.2021
4008 Clouds 12 1013 73 10000 0.45 225 22:33 18.04.2021
4009 Rain 12 1013 78 10000 4.7 214 21:53 18.04.2021
4010 Rain 12 1013 76 10000 4.58 213 21:28 18.04.2021
4011 Clouds 12 1012 78 10000 4.58 213 20:44 18.04.2021
4012 Rain 12 1012 78 10000 4.11 221 20:25 18.04.2021
4013 Clouds 12 1012 81 10000 0.45 337 19:59 18.04.2021
4014 Clouds 12 1012 81 10000 4.11 221 19:39 18.04.2021
4015 Clouds 12 1012 81 10000 4.19 244 19:18 18.04.2021
4016 Clouds 13 1012 85 10000 4.19 244 18:45 18.04.2021
4017 Clouds 13 1012 89 10000 4.58 257 18:25 18.04.2021
4018 Clouds 13 1012 92 10000 4.58 257 17:46 18.04.2021
4019 Clouds 12 1012 92 10000 5.52 270 17:27 18.04.2021
4020 Clouds 13 1012 81 10000 5.52 270 16:46 18.04.2021
4021 Clouds 13 1012 82 10000 1.34 278 16:46 18.04.2021
4022 Clouds 13 1012 79 10000 5.73 272 16:27 18.04.2021
4023 Clouds 15 1012 67 10000 0.89 15 15:46 18.04.2021
4024 Clouds 15 1012 64 10000 1.34 315 15:27 18.04.2021
4025 Clouds 15 1016 58 10000 8.23 280 14:52 18.04.2021
4026 Clouds 15 1012 66 10000 1.34 318 14:23 18.04.2021
4027 Clouds 14 1012 74 10000 5.77 278 13:56 18.04.2021
4028 Clouds 14 1012 82 10000 5.85 279 13:34 18.04.2021
4029 Clouds 13 1012 90 10000 4.87 272 12:51 18.04.2021
4030 Clouds 12 1012 87 10000 1.34 318 12:28 18.04.2021
4031 Clouds 15 1012 69 10000 0.45 14 11:43 18.04.2021
4032 Clear 15 1012 70 10000 3.03 261 11:21 18.04.2021
4033 Clear 15 1012 67 10000 3.03 261 10:48 18.04.2021
4034 Clear 15 1012 71 10000 0.45 9 10:23 18.04.2021
4035 Clear 15 1012 71 10000 2.26 236 09:53 18.04.2021
4036 Clear 14 1012 73 10000 2.26 236 09:34 18.04.2021
4037 Clear 14 1011 82 10000 2.22 226 08:57 18.04.2021
4038 Clear 13 1011 88 10000 2.22 226 08:35 18.04.2021
4039 Clouds 12 1011 91 10000 2.55 220 07:59 18.04.2021
4040 Clouds 12 1011 91 10000 2.55 220 07:38 18.04.2021
4041 Clouds 12 1010 82 10000 2.44 213 05:42 18.04.2021
4042 Clouds 12 1010 81 10000 2.15 212 05:24 18.04.2021
4043 Clouds 12 1011 80 10000 2.3 177 02:56 18.04.2021
4044 Clouds 12 1011 80 10000 1.1 205 02:22 18.04.2021
4045 Clouds 12 1011 79 10000 1.08 240 00:38 18.04.2021
4046 Clouds 13 1011 80 10000 1.74 269 23:38 17.04.2021
4047 Clouds 13 1011 79 10000 1.95 301 22:52 17.04.2021
4048 Clouds 13 1011 79 10000 1.95 301 22:31 17.04.2021
4049 Clouds 13 1011 81 10000 2.03 313 21:50 17.04.2021
4050 Clouds 13 1011 81 10000 2.03 313 21:50 17.04.2021
4051 Clouds 13 1010 81 10000 2.03 313 21:30 17.04.2021
4052 Clouds 13 1010 80 10000 2.35 316 20:51 17.04.2021
4053 Clouds 13 1009 80 10000 2.76 294 20:28 17.04.2021
4054 Clouds 13 1009 81 10000 2.76 294 19:45 17.04.2021
4055 Clouds 13 1009 81 10000 2.75 306 19:21 17.04.2021
4056 Clouds 13 1008 81 10000 2.75 306 18:56 17.04.2021
4057 Clouds 14 1008 83 10000 2.75 306 18:36 17.04.2021
4058 Clouds 13 1008 86 10000 2.86 313 17:57 17.04.2021
4059 Clouds 13 1008 89 10000 0.89 356 17:39 17.04.2021
4060 Clouds 13 1007 95 10000 3.19 320 16:53 17.04.2021
4061 Clouds 13 1007 94 10000 3.16 326 16:28 17.04.2021
4062 Clouds 13 1007 94 10000 3.16 326 16:28 17.04.2021
4063 Clouds 14 1007 94 10000 3.16 326 15:42 17.04.2021
4064 Clouds 13 1007 92 10000 2.98 330 14:50 17.04.2021
4065 Clouds 13 1007 90 10000 0.89 356 14:30 17.04.2021
4066 Clouds 14 1007 86 10000 2.86 335 13:47 17.04.2021
4067 Clouds 14 1007 82 10000 0.45 303 13:22 17.04.2021
4068 Clouds 15 1007 80 10000 0.45 357 12:41 17.04.2021
4069 Clouds 15 1007 77 10000 1.47 348 12:18 17.04.2021
4070 Clouds 15 1007 74 10000 1.47 348 11:39 17.04.2021
4071 Clouds 15 1007 74 10000 1.47 348 11:39 17.04.2021
4072 Clouds 15 1006 77 10000 0.89 353 11:21 17.04.2021
4073 Clouds 15 1007 79 10000 0.55 9 10:41 17.04.2021
4074 Clouds 15 1007 78 10000 0.45 9 10:23 17.04.2021
4075 Clouds 14 1006 80 10000 1.49 49 09:22 17.04.2021
4076 Clouds 14 1006 85 10000 0.45 334 08:34 17.04.2021
4077 Clouds 13 1006 87 10000 2.27 39 07:59 17.04.2021
4078 Clouds 12 1005 88 10000 2.85 30 06:43 17.04.2021
4079 Clouds 12 1005 90 10000 2.92 34 03:51 17.04.2021
4080 Clouds 12 1006 90 10000 2.56 30 02:40 17.04.2021
4081 Clouds 12 1006 84 10000 2.75 41 00:44 17.04.2021
4082 Clouds 12 1007 83 10000 2.88 48 00:23 17.04.2021
4083 Clouds 13 1007 81 10000 2.88 48 23:43 16.04.2021
4084 Clouds 13 1007 82 10000 2.96 55 23:23 16.04.2021
4085 Clouds 14 1007 81 10000 2.96 55 22:43 16.04.2021
4086 Clouds 14 1007 81 10000 3.78 61 22:20 16.04.2021
4087 Clouds 14 1007 81 10000 3.78 61 21:50 16.04.2021
4088 Clouds 14 1007 81 10000 0.45 343 21:29 16.04.2021
4089 Clouds 14 1007 83 10000 4.43 61 20:48 16.04.2021
4090 Clouds 14 1007 83 10000 3.94 64 20:24 16.04.2021
4091 Clouds 14 1006 82 10000 0.45 342 19:50 16.04.2021
4092 Clouds 14 1006 82 10000 4.23 71 19:27 16.04.2021
4093 Clouds 14 1006 83 10000 0.89 11 18:28 16.04.2021
4094 Clouds 14 1006 83 10000 4.95 70 17:55 16.04.2021
4095 Clouds 14 1006 84 10000 0.45 322 17:21 16.04.2021
4096 Clouds 14 1006 85 10000 0.45 344 16:58 16.04.2021
4097 Clouds 14 1006 84 10000 5.77 69 16:40 16.04.2021
4098 Clouds 14 1006 83 10000 5.87 73 16:21 16.04.2021
4099 Clouds 14 1006 82 10000 1.34 329 15:42 16.04.2021
4100 Clouds 15 1007 82 10000 5.83 78 14:59 16.04.2021
4101 Clouds 15 1007 82 10000 0.89 331 14:40 16.04.2021
4102 Clouds 14 1007 83 10000 0.45 351 13:59 16.04.2021
4103 Clouds 14 1007 85 10000 0.45 36 13:38 16.04.2021
4104 Clouds 15 1007 85 10000 0.45 348 13:18 16.04.2021
4105 Clouds 15 1007 86 10000 6.42 75 12:44 16.04.2021
4106 Clouds 16 1007 87 10000 0.89 344 12:25 16.04.2021
4107 Clouds 15 1008 97 10000 6.55 78 11:43 16.04.2021
4108 Clouds 15 1008 98 10000 5.88 81 11:24 16.04.2021
4109 Clouds 14 1008 99 10000 5.88 81 10:43 16.04.2021
4110 Clouds 14 1008 99 10000 5.13 88 10:24 16.04.2021
4111 Clouds 13 1008 99 10000 5.13 88 09:49 16.04.2021
4112 Clouds 13 1008 99 10000 3.97 92 09:23 16.04.2021
4113 Clouds 13 1009 99 10000 4.38 89 08:45 16.04.2021
4114 Clouds 12 1009 99 10000 3.44 100 08:27 16.04.2021
4115 Clouds 12 1009 99 10000 3.44 100 07:47 16.04.2021
4116 Clouds 12 1009 99 10000 3.3 104 07:27 16.04.2021
4117 Clouds 12 1008 99 10000 3.3 104 06:47 16.04.2021
4118 Clouds 12 1009 99 10000 3.64 113 05:33 16.04.2021
4119 Clouds 12 1009 99 10000 3.64 113 05:33 16.04.2021
4120 Rain 12 1010 99 3043 3.12 113 03:59 16.04.2021
4121 Clouds 13 1013 99 10000 1.56 77 00:49 16.04.2021
4122 Clouds 13 1013 99 10000 2.1 114 00:22 16.04.2021
4123 Clouds 13 1013 99 10000 2.1 114 23:58 15.04.2021
4124 Clouds 13 1013 99 10000 2.1 114 23:35 15.04.2021
4125 Clouds 13 1014 98 10000 1.49 144 22:52 15.04.2021
4126 Clouds 13 1014 95 10000 2.47 152 22:26 15.04.2021
4127 Clouds 13 1014 91 10000 2.47 152 21:56 15.04.2021
4128 Rain 14 1013 89 10000 2.47 152 21:37 15.04.2021
4129 Clouds 14 1013 88 10000 2.94 130 21:19 15.04.2021
4130 Clouds 14 1013 88 10000 2.94 130 20:38 15.04.2021
4131 Clouds 14 1013 88 10000 2.65 118 20:20 15.04.2021
4132 Clouds 14 1013 88 10000 2.65 118 19:42 15.04.2021
4133 Clouds 14 1013 87 10000 2.48 133 19:23 15.04.2021
4134 Clouds 14 1013 87 10000 2.48 133 18:41 15.04.2021
4135 Clouds 14 1013 86 10000 2.06 120 18:20 15.04.2021
4136 Clouds 14 1013 84 10000 2.06 120 17:54 15.04.2021
4137 Clouds 14 1014 84 10000 2.06 120 17:36 15.04.2021
4138 Clouds 14 1014 84 10000 2.06 120 17:36 15.04.2021
4139 Clouds 14 1014 89 10000 1.13 135 16:47 15.04.2021
4140 Clouds 14 1014 89 10000 1.06 113 16:26 15.04.2021
4141 Clouds 14 1015 85 10000 1.06 113 15:59 15.04.2021
4142 Clouds 15 1015 83 10000 1.06 113 15:40 15.04.2021
4143 Clouds 15 1015 82 10000 0.69 61 15:22 15.04.2021
4144 Clouds 15 1015 81 10000 0.69 61 14:38 15.04.2021
4145 Clouds 15 1015 80 10000 0.45 3 14:20 15.04.2021
4146 Clouds 15 1015 73 10000 0.29 10 13:41 15.04.2021
4147 Clouds 16 1015 68 10000 1.14 341 13:18 15.04.2021
4148 Clouds 16 1015 69 10000 1.14 341 12:39 15.04.2021
4149 Clouds 16 1016 69 10000 0.45 357 12:20 15.04.2021
4150 Clouds 16 1016 69 10000 0.45 348 11:44 15.04.2021
4151 Clouds 15 1016 70 10000 0.61 342 11:22 15.04.2021
4152 Clouds 16 1016 69 10000 0.61 342 10:48 15.04.2021
4153 Clouds 16 1016 69 10000 0.69 189 10:26 15.04.2021
4154 Clouds 16 1015 70 10000 0.69 189 09:45 15.04.2021
4155 Clouds 16 1015 71 10000 1.06 214 09:18 15.04.2021
4156 Clouds 15 1015 73 10000 1.06 214 08:41 15.04.2021
4157 Clouds 14 1015 76 10000 1.43 207 07:50 15.04.2021
4158 Clouds 13 1015 78 10000 1.22 193 07:22 15.04.2021
4159 Clouds 13 1015 78 10000 1.22 193 07:22 15.04.2021
4160 Clouds 13 1015 78 10000 1.21 193 06:38 15.04.2021
4161 Clouds 12 1015 78 10000 1.22 204 06:20 15.04.2021
4162 Clouds 13 1015 77 10000 1.74 198 04:51 15.04.2021
4163 Clouds 13 1016 72 10000 2.71 164 00:54 15.04.2021
4164 Clear 12 1019 67 10000 1.54 100 23:40 14.04.2021
4165 Clouds 12 1019 67 10000 1.54 110 23:19 14.04.2021
4166 Clouds 13 1019 62 10000 4.12 80 22:43 14.04.2021
4167 Clouds 14 1016 69 10000 2.97 117 22:25 14.04.2021
4168 Clouds 14 1016 69 10000 2.97 117 22:25 14.04.2021
4169 Clouds 14 1016 68 10000 2.97 117 21:47 14.04.2021
4170 Clouds 14 1018 62 10000 6.17 70 21:28 14.04.2021
4171 Clouds 13 1018 62 10000 6.17 70 20:56 14.04.2021
4172 Clouds 14 1018 62 10000 6.17 70 20:34 14.04.2021
4173 Clouds 15 1015 65 10000 2.81 97 19:53 14.04.2021
4174 Clouds 15 1015 62 10000 2.72 81 19:20 14.04.2021
4175 Clouds 16 1015 60 10000 0.45 270 18:57 14.04.2021
4176 Clouds 16 1015 57 10000 0.89 306 18:22 14.04.2021
4177 Clouds 17 1015 53 10000 2.86 72 17:59 14.04.2021
4178 Clouds 16 1018 55 10000 8.23 40 17:28 14.04.2021
4179 Clouds 17 1018 55 10000 7.72 40 16:54 14.04.2021
4180 Clouds 17 1018 55 10000 7.2 40 16:28 14.04.2021
4181 Clouds 17 1018 55 10000 7.2 40 15:47 14.04.2021
4182 Clear 17 1019 55 10000 7.2 40 15:27 14.04.2021
4183 Clear 17 1019 55 10000 6.69 40 14:56 14.04.2021
4184 Clear 17 1019 55 10000 6.69 40 14:37 14.04.2021
4185 Clear 17 1019 51 10000 6.69 40 14:18 14.04.2021
4186 Clouds 18 1016 49 10000 2.68 51 13:44 14.04.2021
4187 Clouds 17 1016 49 10000 0.45 272 12:41 14.04.2021
4188 Clouds 17 1016 49 10000 2.74 55 12:18 14.04.2021
4189 Clouds 17 1017 48 10000 2.74 55 11:39 14.04.2021
4190 Clouds 17 1017 48 10000 2.74 55 11:39 14.04.2021
4191 Clouds 16 1017 48 10000 2.1 63 11:19 14.04.2021
4192 Clouds 16 1017 51 10000 2.1 63 10:33 14.04.2021
4193 Clouds 15 1017 57 10000 1.59 81 09:43 14.04.2021
4194 Clouds 14 1016 60 10000 1.74 103 09:23 14.04.2021
4195 Clouds 13 1016 68 10000 1.74 103 08:48 14.04.2021
4196 Clouds 13 1017 69 10000 1.44 118 08:23 14.04.2021
4197 Clear 11 1019 66 10000 3.09 60 07:28 14.04.2021
4198 Clear 10 1018 66 10000 3.6 70 06:28 14.04.2021
4199 Clear 10 1019 66 10000 1.03 120 05:24 14.04.2021
4200 Clouds 11 1017 72 10000 1.29 180 02:24 14.04.2021
4201 Clouds 11 1017 70 10000 1.31 187 00:50 14.04.2021
4202 Clouds 11 1017 70 10000 1.31 187 00:50 14.04.2021
4203 Clouds 11 1017 70 10000 1.32 221 00:27 14.04.2021
4204 Clouds 12 1018 68 10000 1.32 221 23:32 13.04.2021
4205 Clouds 12 1017 66 10000 1.72 247 22:44 13.04.2021
4206 Clouds 13 1017 67 10000 2.07 263 22:21 13.04.2021
4207 Clouds 13 1017 67 10000 2.07 263 21:49 13.04.2021
4208 Clouds 13 1017 67 10000 2.07 263 21:30 13.04.2021
4209 Clouds 13 1017 67 10000 2.07 263 21:30 13.04.2021
4210 Clear 13 1017 66 10000 2.25 271 20:50 13.04.2021
4211 Clear 13 1016 66 10000 2.82 286 20:25 13.04.2021
4212 Clear 14 1016 65 10000 2.82 286 19:58 13.04.2021
4213 Clear 14 1016 64 10000 0.45 331 19:26 13.04.2021
4214 Clear 15 1016 62 10000 3.39 293 18:51 13.04.2021
4215 Clear 15 1016 60 10000 3.39 293 18:31 13.04.2021
4216 Clear 16 1019 63 10000 7.2 280 17:40 13.04.2021
4217 Clear 16 1019 63 10000 7.72 280 17:21 13.04.2021
4218 Clear 16 1019 63 10000 7.72 280 17:21 13.04.2021
4219 Clear 16 1019 63 10000 8.75 280 16:49 13.04.2021
4220 Clear 16 1020 63 10000 8.75 280 16:31 13.04.2021
4221 Clear 17 1020 63 10000 9.26 280 15:56 13.04.2021
4222 Clear 17 1020 63 10000 9.26 280 15:38 13.04.2021
4223 Clear 17 1020 63 10000 9.77 280 14:58 13.04.2021
4224 Clear 17 1020 63 10000 9.77 280 14:25 13.04.2021
4225 Clear 17 1020 63 10000 9.77 280 14:25 13.04.2021
4226 Clouds 17 1016 57 10000 6.15 283 13:57 13.04.2021
4227 Clouds 17 1016 56 10000 0.45 329 13:38 13.04.2021
4228 Clouds 17 1016 56 10000 1.79 356 13:20 13.04.2021
4229 Clouds 17 1016 56 10000 6.58 278 12:46 13.04.2021
4230 Clouds 17 1016 56 10000 6.45 273 12:22 13.04.2021
4231 Clouds 16 1017 55 10000 6.45 273 11:37 13.04.2021
4232 Clouds 16 1017 56 10000 1.79 277 10:58 13.04.2021
4233 Clouds 16 1017 56 10000 1.79 277 10:58 13.04.2021
4234 Clouds 15 1017 57 10000 1.34 270 10:40 13.04.2021
4235 Clouds 15 1017 60 10000 0.45 272 10:19 13.04.2021
4236 Clouds 15 1016 64 10000 0.45 345 09:49 13.04.2021
4237 Clouds 14 1016 66 10000 0.89 309 09:23 13.04.2021
4238 Clouds 14 1016 69 10000 1.34 340 08:44 13.04.2021
4239 Clouds 14 1016 72 10000 5.58 265 08:22 13.04.2021
4240 Clouds 14 1016 77 10000 0.45 317 07:43 13.04.2021
4241 Clouds 13 1016 80 10000 0.45 334 07:23 13.04.2021
4242 Clouds 15 1015 72 10000 0.45 294 06:22 13.04.2021
4243 Clouds 16 1015 80 10000 4.76 241 03:41 13.04.2021
4244 Clouds 16 1016 73 10000 3.9 193 01:31 13.04.2021
4245 Clear 15 1020 77 10000 3.09 210 23:51 12.04.2021
4246 Clear 16 1020 77 10000 3.09 210 23:32 12.04.2021
4247 Clear 16 1020 77 10000 2.57 220 22:50 12.04.2021
4248 Clouds 16 1017 70 10000 2.7 238 22:31 12.04.2021
4249 Clouds 16 1016 69 10000 2.22 226 21:48 12.04.2021
4250 Clear 17 1019 72 10000 1.54 90 21:25 12.04.2021
4251 Clear 17 1018 82 10000 3.09 70 20:58 12.04.2021
4252 Clear 16 1018 82 10000 3.09 70 20:36 12.04.2021
4253 Clear 17 1018 82 10000 3.09 70 20:18 12.04.2021
4254 Clear 17 1019 82 10000 2.57 50 19:39 12.04.2021
4255 Clouds 17 1016 61 10000 0.45 359 19:21 12.04.2021
4256 Clouds 18 1016 65 10000 1.08 324 18:48 12.04.2021
4257 Clouds 18 1016 65 10000 1.08 324 18:30 12.04.2021
4258 Clouds 19 1015 67 10000 1.17 338 17:55 12.04.2021
4259 Clouds 19 1015 67 10000 1.17 338 17:37 12.04.2021
4260 Clear 19 1018 63 10000 4.63 70 17:19 12.04.2021
4261 Clear 18 1019 77 10000 3.6 30 16:37 12.04.2021
4262 Clear 18 1019 77 10000 3.6 30 16:18 12.04.2021
4263 Clear 18 1019 77 10000 3.6 10 15:33 12.04.2021
4264 Clear 18 1019 82 10000 4.63 40 14:56 12.04.2021
4265 Clear 17 1019 82 10000 4.63 40 14:37 12.04.2021
4266 Clouds 19 1016 76 10000 0.42 133 14:19 12.04.2021
4267 Clouds 18 1016 77 10000 0.45 357 13:40 12.04.2021
4268 Clouds 18 1016 75 10000 0.45 353 13:19 12.04.2021
4269 Clouds 18 1016 79 10000 2.74 114 12:43 12.04.2021
4270 Clouds 17 1016 78 10000 0.89 351 12:22 12.04.2021
4271 Clouds 17 1017 80 10000 1.76 109 11:41 12.04.2021
4272 Clouds 17 1017 78 10000 0.69 106 10:51 12.04.2021
4273 Clouds 17 1017 80 10000 1.19 96 10:28 12.04.2021
4274 Clouds 17 1017 81 10000 1.19 96 09:53 12.04.2021
4275 Clouds 15 1016 82 10000 1.05 92 09:25 12.04.2021
4276 Clouds 15 1016 83 10000 1.04 92 08:51 12.04.2021
4277 Clouds 14 1016 82 10000 1.05 156 07:55 12.04.2021
4278 Rain 14 1016 81 10000 1.19 153 07:30 12.04.2021
4279 Clouds 13 1016 82 10000 1.19 153 06:40 12.04.2021
4280 Clouds 13 1016 80 10000 1.81 175 05:47 12.04.2021
4281 Clouds 13 1016 79 10000 1.92 199 03:19 12.04.2021
4282 Clouds 14 1017 80 10000 2.41 181 00:29 12.04.2021
4283 Clouds 14 1017 81 10000 2.41 181 23:56 11.04.2021
4284 Clouds 14 1017 81 10000 2.41 181 23:38 11.04.2021
4285 Clouds 14 1016 80 10000 2.62 157 23:19 11.04.2021
4286 Clouds 15 1017 79 10000 2.62 157 22:38 11.04.2021
4287 Clouds 15 1017 78 10000 3.32 139 22:19 11.04.2021
4288 Clouds 15 1017 78 10000 3.32 139 21:42 11.04.2021
4289 Clouds 15 1017 77 10000 2.88 138 21:24 11.04.2021
4290 Clouds 16 1017 78 10000 2.51 148 20:42 11.04.2021
4291 Clouds 16 1016 76 10000 2.77 131 20:23 11.04.2021
4292 Clouds 16 1016 75 10000 2.76 131 19:43 11.04.2021
4293 Clouds 16 1016 73 10000 3 118 19:20 11.04.2021
4294 Clouds 17 1016 67 10000 3 118 18:57 11.04.2021
4295 Clouds 18 1016 63 10000 3 118 18:39 11.04.2021
4296 Clouds 18 1016 59 10000 2.82 103 18:20 11.04.2021
4297 Clear 18 1019 55 10000 5.14 60 17:40 11.04.2021
4298 Clear 18 1019 55 10000 5.14 60 17:40 11.04.2021
4299 Clear 18 1019 67 10000 5.14 40 17:22 11.04.2021
4300 Clear 18 1019 67 10000 5.14 40 16:42 11.04.2021
4301 Clear 18 1019 72 10000 5.14 30 16:21 11.04.2021
4302 Clear 19 1019 67 10000 5.14 30 15:46 11.04.2021
4303 Clear 18 1019 67 10000 5.14 30 15:46 11.04.2021
4304 Clear 18 1019 63 10000 6.69 40 15:26 11.04.2021
4305 Clear 18 1020 63 10000 6.17 30 14:51 11.04.2021
4306 Clear 18 1020 63 10000 5.14 30 14:24 11.04.2021
4307 Clear 19 1020 63 10000 5.14 40 13:44 11.04.2021
4308 Clear 18 1020 63 10000 6.17 30 13:26 11.04.2021
4309 Clouds 19 1017 54 10000 1.27 45 12:41 11.04.2021
4310 Clouds 19 1017 56 10000 0.43 49 12:20 11.04.2021
4311 Clouds 19 1017 56 10000 0.89 4 11:48 11.04.2021
4312 Clouds 18 1017 57 10000 0.97 161 11:21 11.04.2021
4313 Clouds 17 1017 59 10000 0.97 161 10:47 11.04.2021
4314 Clouds 17 1018 59 10000 1.45 162 10:23 11.04.2021
4315 Clouds 16 1017 62 10000 1.45 162 09:51 11.04.2021
4316 Clouds 16 1017 65 10000 1.45 162 09:30 11.04.2021
4317 Clouds 15 1017 73 10000 2.14 157 08:40 11.04.2021
4318 Clouds 12 1017 77 10000 2.34 166 07:57 11.04.2021
4319 Clouds 11 1017 79 10000 2.63 182 07:21 11.04.2021
4320 Clouds 11 1017 76 10000 2.58 173 05:59 11.04.2021
4321 Clouds 11 1017 76 10000 2.59 173 05:37 11.04.2021
4322 Clouds 11 1017 77 10000 2.12 166 05:18 11.04.2021
4323 Clouds 11 1017 78 10000 2.33 179 04:33 11.04.2021
4324 Clear 13 1021 71 10000 2.57 110 01:31 11.04.2021
4325 Clear 13 1021 71 10000 2.57 140 00:32 11.04.2021
4326 Clear 13 1021 71 10000 1.54 140 23:47 10.04.2021
4327 Clear 14 1021 67 10000 2.06 180 22:58 10.04.2021
4328 Clear 14 1022 62 10000 1.03 0 22:31 10.04.2021
4329 Clear 15 1022 63 10000 3.09 250 21:55 10.04.2021
4330 Clear 15 1022 63 10000 3.09 250 21:33 10.04.2021
4331 Clear 14 1021 72 10000 3.09 80 20:58 10.04.2021
4332 Clear 14 1021 72 10000 3.09 80 20:40 10.04.2021
4333 Clear 15 1021 63 10000 3.6 80 20:21 10.04.2021
4334 Clear 15 1021 67 10000 5.14 70 19:43 10.04.2021
4335 Clouds 15 1018 68 10000 1.95 88 19:25 10.04.2021
4336 Clouds 16 1019 64 10000 1.9 88 18:44 10.04.2021
4337 Clouds 17 1019 62 10000 1.82 80 18:25 10.04.2021
4338 Clear 16 1022 63 10000 5.14 60 17:37 10.04.2021
4339 Clear 17 1022 55 10000 5.66 60 16:57 10.04.2021
4340 Clear 17 1022 55 10000 5.66 50 16:26 10.04.2021
4341 Clear 17 1022 51 10000 5.66 50 15:53 10.04.2021
4342 Clear 17 1023 48 10000 6.69 40 14:58 10.04.2021
4343 Clear 17 1023 48 10000 6.69 40 14:38 10.04.2021
4344 Clouds 18 1020 51 10000 0.89 358 13:59 10.04.2021
4345 Clouds 17 1020 51 10000 0.45 5 13:40 10.04.2021
4346 Clouds 17 1020 46 10000 0.89 6 12:49 10.04.2021
4347 Clouds 17 1020 49 10000 1.03 108 12:26 10.04.2021
4348 Clouds 16 1021 54 10000 1.01 110 11:47 10.04.2021
4349 Clouds 16 1021 56 10000 1.48 129 11:25 10.04.2021
4350 Clouds 16 1021 57 10000 1.79 1 10:52 10.04.2021
4351 Clouds 15 1021 57 10000 0.45 346 10:31 10.04.2021
4352 Clouds 14 1021 60 10000 1.68 142 09:45 10.04.2021
4353 Clouds 14 1021 64 10000 1.84 152 09:20 10.04.2021
4354 Clouds 12 1022 73 10000 1.84 152 08:47 10.04.2021
4355 Clouds 12 1022 77 10000 0.45 355 08:28 10.04.2021
4356 Clouds 9 1022 78 10000 2.57 156 07:38 10.04.2021
4357 Clouds 10 1022 79 10000 2.5 157 07:19 10.04.2021
4358 Clouds 9 1022 77 10000 2.31 165 06:24 10.04.2021
4359 Clouds 10 1022 74 10000 1.99 164 03:49 10.04.2021
4360 Clouds 10 1022 72 10000 1.62 183 02:50 10.04.2021
4361 Clouds 10 1023 70 10000 1.98 183 02:18 10.04.2021
4362 Clouds 11 1024 65 10000 2.2 183 00:41 10.04.2021
4363 Clouds 12 1024 64 10000 2.27 181 00:21 10.04.2021
4364 Clouds 12 1024 62 10000 2.27 181 23:40 09.04.2021
4365 Clouds 12 1024 61 10000 2.36 167 22:58 09.04.2021
4366 Clouds 12 1024 59 10000 2.36 167 22:38 09.04.2021
4367 Clouds 13 1024 57 10000 2.11 155 21:56 09.04.2021
4368 Clouds 13 1024 57 10000 2.04 158 21:38 09.04.2021
4369 Clouds 13 1024 55 10000 1.85 140 21:18 09.04.2021
4370 Clouds 13 1024 53 10000 1.84 140 20:42 09.04.2021
4371 Clouds 14 1023 53 10000 1.6 130 20:22 09.04.2021
4372 Clouds 14 1024 52 10000 1.67 129 19:44 09.04.2021
4373 Clouds 14 1024 51 10000 1.48 108 19:24 09.04.2021
4374 Clouds 15 1023 51 10000 1.43 108 18:54 09.04.2021
4375 Clouds 15 1023 50 10000 1.55 91 18:32 09.04.2021
4376 Clouds 16 1026 51 10000 7.2 70 17:54 09.04.2021
4377 Clouds 16 1026 51 10000 7.2 70 17:36 09.04.2021
4378 Clouds 15 1026 55 10000 7.72 70 16:56 09.04.2021
4379 Clouds 16 1026 55 10000 7.72 70 16:35 09.04.2021
4380 Clouds 16 1027 55 10000 7.2 60 15:52 09.04.2021
4381 Clouds 16 1027 55 10000 7.2 60 15:34 09.04.2021
4382 Clouds 16 1027 51 10000 7.72 70 14:58 09.04.2021
4383 Clouds 16 1027 51 10000 7.72 70 14:39 09.04.2021
4384 Clear 17 1025 51 10000 2.15 45 13:52 09.04.2021
4385 Clear 16 1025 51 10000 1.78 57 13:25 09.04.2021
4386 Clear 16 1026 53 10000 1.78 57 12:51 09.04.2021
4387 Clear 16 1026 54 10000 1.83 77 12:32 09.04.2021
4388 Clear 15 1026 55 10000 1.82 77 11:46 09.04.2021
4389 Clear 14 1026 55 10000 2.01 90 11:22 09.04.2021
4390 Clear 14 1026 56 10000 2.01 90 10:46 09.04.2021
4391 Clear 14 1026 55 10000 1.98 104 10:20 09.04.2021
4392 Clear 13 1026 56 10000 1.98 104 09:39 09.04.2021
4393 Clear 12 1026 58 10000 2.01 119 09:20 09.04.2021
4394 Clear 11 1026 61 10000 2.01 119 08:51 09.04.2021
4395 Clear 8 1026 71 10000 2.14 133 07:38 09.04.2021
4396 Clear 7 1025 71 10000 2.22 141 06:34 09.04.2021
4397 Clear 7 1025 71 10000 2.22 141 06:34 09.04.2021
4398 Clear 7 1025 69 10000 2.17 146 05:56 09.04.2021
4399 Clear 8 1025 65 10000 2.46 151 03:52 09.04.2021
4400 Clear 9 1027 57 10000 1.54 170 01:35 09.04.2021
4401 Clear 10 1027 53 10000 3.6 80 00:37 09.04.2021
4402 Clear 10 1027 46 10000 4.12 90 00:19 09.04.2021
4403 Clear 10 1027 50 10000 4.63 70 23:21 08.04.2021
4404 Clear 11 1027 46 10000 4.63 80 22:43 08.04.2021
4405 Clear 11 1027 46 10000 4.63 80 22:43 08.04.2021
4406 Clear 11 1027 46 10000 4.63 90 22:22 08.04.2021
4407 Clear 11 1027 46 10000 5.14 80 21:55 08.04.2021
4408 Clear 11 1027 46 10000 5.14 80 21:55 08.04.2021
4409 Clear 11 1027 46 10000 5.14 80 21:55 08.04.2021
4410 Clear 11 1027 46 10000 5.14 80 21:36 08.04.2021
4411 Clear 11 1027 46 10000 4.63 80 21:18 08.04.2021
4412 Clear 9 1026 46 10000 6.17 60 20:49 08.04.2021
4413 Clear 10 1026 43 10000 5.66 60 20:26 08.04.2021
4414 Clear 10 1026 40 10000 6.17 50 19:46 08.04.2021
4415 Clear 13 1026 47 10000 7.2 50 19:20 08.04.2021
4416 Clear 13 1026 41 10000 7.2 50 18:46 08.04.2021
4417 Clear 13 1026 47 10000 7.72 50 18:21 08.04.2021
4418 Clear 13 1025 44 10000 7.72 50 17:49 08.04.2021
4419 Clear 14 1025 44 10000 8.75 40 17:26 08.04.2021
4420 Clear 14 1025 47 10000 8.75 40 16:51 08.04.2021
4421 Clear 14 1025 47 10000 8.75 40 16:33 08.04.2021
4422 Clear 14 1025 41 10000 7.72 50 15:48 08.04.2021
4423 Clear 14 1026 44 10000 8.23 50 15:29 08.04.2021
4424 Clear 14 1025 44 10000 8.23 50 14:46 08.04.2021
4425 Clear 14 1025 44 10000 8.23 50 14:28 08.04.2021
4426 Clear 14 1023 47 10000 4.52 58 13:59 08.04.2021
4427 Clear 14 1023 46 10000 4.52 58 13:41 08.04.2021
4428 Clouds 14 1026 47 10000 7.72 40 13:22 08.04.2021
4429 Clouds 14 1026 47 10000 7.72 40 13:22 08.04.2021
4430 Clear 14 1023 44 10000 4.78 57 12:43 08.04.2021
4431 Clear 13 1023 44 10000 5.31 55 12:24 08.04.2021
4432 Clear 13 1023 50 10000 5.31 55 11:43 08.04.2021
4433 Clear 12 1023 53 10000 1.34 23 10:59 08.04.2021
4434 Clear 13 1023 53 10000 0.89 337 10:40 08.04.2021
4435 Clouds 12 1023 55 10000 1.34 7 10:18 08.04.2021
4436 Clouds 12 1022 52 10000 0.89 349 09:43 08.04.2021
4437 Clouds 12 1022 51 10000 0.45 358 08:47 08.04.2021
4438 Clouds 12 1022 51 10000 0.45 358 08:47 08.04.2021
4439 Clouds 11 1021 50 10000 0.45 348 08:28 08.04.2021
4440 Clouds 11 1021 52 10000 2.24 356 07:58 08.04.2021
4441 Clouds 10 1021 54 10000 0.89 354 07:35 08.04.2021
4442 Clouds 11 1019 63 10000 1.34 349 04:18 08.04.2021
4443 Clouds 12 1017 54 10000 0.45 357 01:21 08.04.2021
4444 Clouds 12 1016 59 10000 0.89 340 00:21 08.04.2021
4445 Clouds 12 1015 61 10000 2.68 3 23:42 07.04.2021
4446 Clouds 12 1015 63 10000 0.45 336 23:22 07.04.2021
4447 Clouds 12 1014 67 10000 0.89 13 22:54 07.04.2021
4448 Clouds 13 1014 68 10000 0.45 39 22:35 07.04.2021
4449 Clouds 13 1013 71 10000 6.4 309 21:48 07.04.2021
4450 Clouds 14 1013 59 10000 0.89 347 21:26 07.04.2021
4451 Clouds 14 1012 57 10000 2.24 327 20:47 07.04.2021
4452 Clouds 14 1012 57 10000 0.89 291 20:26 07.04.2021
4453 Clouds 14 1011 55 10000 6.94 271 19:46 07.04.2021
4454 Clouds 15 1011 53 10000 2.24 306 19:28 07.04.2021
4455 Clouds 15 1011 54 10000 2.24 349 18:53 07.04.2021
4456 Clouds 16 1010 51 10000 1.34 329 18:21 07.04.2021
4457 Clouds 16 1010 48 10000 0.45 316 17:57 07.04.2021
4458 Clouds 16 1014 58 10000 9.77 260 17:39 07.04.2021
4459 Clouds 16 1009 48 10000 2.24 270 16:58 07.04.2021
4460 Clouds 17 1009 48 10000 2.68 325 16:39 07.04.2021
4461 Clouds 17 1009 49 10000 0.89 342 16:20 07.04.2021
4462 Clouds 15 1013 58 10000 9.26 270 15:50 07.04.2021
4463 Clouds 15 1013 63 10000 9.77 270 15:25 07.04.2021
4464 Clouds 15 1014 58 10000 9.26 260 14:35 07.04.2021
4465 Clouds 17 1009 49 10000 1.34 238 13:53 07.04.2021
4466 Clear 17 1009 51 10000 1.79 318 13:28 07.04.2021
4467 Clear 17 1009 53 10000 1.34 344 12:58 07.04.2021
4468 Clear 17 1009 54 10000 0.89 342 12:26 07.04.2021
4469 Clear 17 1009 51 10000 1.34 329 11:59 07.04.2021
4470 Clear 16 1009 55 10000 1.79 315 11:29 07.04.2021
4471 Clear 16 1009 55 10000 1.79 315 11:29 07.04.2021
4472 Clear 16 1009 54 10000 1.79 345 10:59 07.04.2021
4473 Clear 16 1009 56 10000 1.34 349 10:33 07.04.2021
4474 Clouds 16 1008 55 10000 1.34 1 09:46 07.04.2021
4475 Clouds 15 1008 55 10000 0.89 53 09:28 07.04.2021
4476 Clear 15 1007 57 10000 1.34 255 08:48 07.04.2021
4477 Clouds 15 1008 61 10000 1.79 237 08:23 07.04.2021
4478 Clouds 14 1007 61 10000 1.79 340 07:46 07.04.2021
4479 Clouds 14 1007 61 10000 1.34 332 07:26 07.04.2021
4480 Clouds 14 1007 64 10000 6.58 259 06:36 07.04.2021
4481 Clouds 15 1006 66 10000 0.89 337 04:37 07.04.2021
4482 Clouds 16 1006 69 10000 0.45 228 01:21 07.04.2021
4483 Clouds 16 1006 71 10000 1.79 293 23:47 06.04.2021
4484 Clouds 16 1006 72 10000 1.34 335 23:22 06.04.2021
4485 Clouds 16 1005 70 10000 1.34 250 22:50 06.04.2021
4486 Clouds 16 1005 67 10000 6.83 234 22:21 06.04.2021
4487 Clouds 16 1005 64 10000 1.34 234 21:44 06.04.2021
4488 Clouds 16 1005 65 10000 1.34 320 21:24 06.04.2021
4489 Clouds 16 1005 65 10000 0.89 348 20:57 06.04.2021
4490 Clouds 14 1008 72 10000 8.75 220 20:39 06.04.2021
4491 Clear 17 1004 63 10000 0.89 231 20:19 06.04.2021
4492 Clear 17 1008 63 10000 9.26 230 19:42 06.04.2021
4493 Clear 17 1004 60 10000 1.34 255 19:24 06.04.2021
4494 Clear 17 1008 67 10000 9.77 240 18:43 06.04.2021
4495 Clear 18 1008 67 10000 9.26 240 18:20 06.04.2021
4496 Clear 19 1008 72 10000 7.2 240 17:45 06.04.2021
4497 Clear 17 1008 67 10000 9.26 240 17:20 06.04.2021
4498 Clear 17 1008 67 10000 9.77 240 16:49 06.04.2021
4499 Clouds 16 1008 67 10000 7.72 240 16:27 06.04.2021
4500 Clouds 15 1009 72 10000 8.75 250 15:27 06.04.2021
4501 Clouds 19 1009 67 10000 9.77 250 14:50 06.04.2021
4502 Clouds 16 1009 67 10000 9.77 250 14:31 06.04.2021
4503 Clouds 19 1004 56 10000 1.34 304 13:55 06.04.2021
4504 Clouds 18 1005 55 10000 0.89 227 13:37 06.04.2021
4505 Clouds 19 1005 56 10000 2.24 331 13:18 06.04.2021
4506 Clouds 18 1006 55 10000 1.79 18 12:38 06.04.2021
4507 Clouds 18 1006 55 10000 0.89 300 12:19 06.04.2021
4508 Clouds 17 1006 56 10000 1.34 343 11:45 06.04.2021
4509 Clouds 17 1006 58 10000 1.34 9 11:20 06.04.2021
4510 Clouds 17 1006 58 10000 0.45 169 10:45 06.04.2021
4511 Clouds 16 1006 61 10000 1.34 165 10:22 06.04.2021
4512 Clouds 16 1006 65 10000 1.34 348 09:47 06.04.2021
4513 Clouds 15 1006 67 10000 0.89 321 09:26 06.04.2021
4514 Clear 15 1006 72 10000 0.89 292 08:34 06.04.2021
4515 Clouds 13 1007 80 10000 0.45 279 07:33 06.04.2021
4516 Clouds 12 1007 79 10000 3.87 228 06:55 06.04.2021
4517 Clear 12 1007 78 10000 3.77 218 04:53 06.04.2021
4518 Clear 12 1009 77 10000 2.87 239 01:54 06.04.2021
4519 Clear 12 1009 74 10000 2.39 245 00:43 06.04.2021
4520 Clear 12 1010 74 10000 2.02 252 00:20 06.04.2021
4521 Clear 13 1010 73 10000 2.02 252 23:42 05.04.2021
4522 Clear 13 1010 73 10000 1.59 248 23:19 05.04.2021
4523 Clear 13 1010 73 10000 1.59 248 22:43 05.04.2021
4524 Clear 13 1010 73 10000 0.98 247 22:24 05.04.2021
4525 Clear 13 1010 71 10000 0.98 247 21:39 05.04.2021
4526 Clear 13 1010 69 10000 0.23 325 21:20 05.04.2021
4527 Clear 14 1010 66 10000 0.23 325 20:42 05.04.2021
4528 Clouds 14 1009 64 10000 1.15 348 20:23 05.04.2021
4529 Clouds 15 1009 59 10000 1.15 348 19:39 05.04.2021
4530 Clouds 16 1009 57 10000 1.87 4 19:19 05.04.2021
4531 Clouds 16 1009 57 10000 1.87 4 19:19 05.04.2021
4532 Clouds 16 1009 55 10000 1.87 4 18:42 05.04.2021
4533 Clouds 17 1009 52 10000 2.5 360 18:23 05.04.2021
4534 Clear 16 1012 63 10000 6.69 50 17:47 05.04.2021
4535 Clear 17 1012 55 10000 7.2 50 17:25 05.04.2021
4536 Clear 17 1012 59 10000 7.2 50 16:57 05.04.2021
4537 Clear 17 1012 59 10000 7.2 50 16:38 05.04.2021
4538 Clouds 17 1012 55 10000 7.2 50 16:18 05.04.2021
4539 Clouds 17 1013 59 10000 6.69 50 15:47 05.04.2021
4540 Clouds 16 1013 67 10000 7.2 50 15:22 05.04.2021
4541 Clouds 17 1013 67 10000 7.72 50 14:36 05.04.2021
4542 Clouds 17 1010 75 10000 3.04 342 13:56 05.04.2021
4543 Clouds 17 1010 79 10000 3.04 342 13:31 05.04.2021
4544 Clouds 16 1010 89 10000 2.82 344 12:47 05.04.2021
4545 Clouds 16 1011 93 10000 2.49 357 12:26 05.04.2021
4546 Clouds 16 1011 93 10000 2.49 357 12:26 05.04.2021
4547 Clouds 15 1011 96 10000 2.49 357 11:53 05.04.2021
4548 Clouds 15 1011 99 10000 0.45 266 11:31 05.04.2021
4549 Clouds 15 1011 99 10000 2.5 10 10:57 05.04.2021
4550 Clouds 15 1011 99 10000 2.5 10 10:36 05.04.2021
4551 Clouds 15 1010 99 10000 2.35 12 09:49 05.04.2021
4552 Clouds 14 1010 99 10000 2.28 16 09:26 05.04.2021
4553 Clouds 15 1010 99 10000 2.28 16 08:59 05.04.2021
4554 Clouds 14 1010 99 10000 1.83 31 08:37 05.04.2021
4555 Clouds 14 1010 99 10000 0.45 347 08:19 05.04.2021
4556 Clouds 14 1010 99 10000 1.7 42 07:33 05.04.2021
4557 Clouds 14 1009 92 10000 2.48 32 03:58 05.04.2021
4558 Clouds 15 1009 89 10000 0.78 183 01:34 05.04.2021
4559 Clouds 15 1009 88 10000 1.43 150 00:20 05.04.2021
4560 Clouds 15 1009 87 10000 1.43 150 23:37 04.04.2021
4561 Clouds 16 1009 87 10000 1.44 129 23:18 04.04.2021
4562 Clouds 16 1009 86 10000 1.44 129 22:45 04.04.2021
4563 Clouds 16 1009 86 10000 1.36 113 22:26 04.04.2021
4564 Clouds 16 1009 85 10000 1.17 104 21:23 04.04.2021
4565 Clouds 16 1008 83 10000 1.17 104 20:47 04.04.2021
4566 Clouds 16 1008 83 10000 1.96 89 20:23 04.04.2021
4567 Clouds 16 1007 80 10000 1.96 89 19:42 04.04.2021
4568 Clouds 16 1007 79 10000 1.96 73 19:20 04.04.2021
4569 Clouds 17 1007 79 10000 1.96 73 18:56 04.04.2021
4570 Clouds 17 1007 79 10000 1.96 73 18:37 04.04.2021
4571 Clouds 17 1007 79 10000 2.13 53 18:19 04.04.2021
4572 Clouds 17 1006 77 10000 2.13 53 17:37 04.04.2021
4573 Clouds 17 1006 77 10000 2.3 36 17:18 04.04.2021
4574 Clouds 17 1006 76 10000 2.3 36 16:41 04.04.2021
4575 Clouds 18 1006 77 10000 2.53 22 15:58 04.04.2021
4576 Clouds 18 1006 74 10000 0.89 348 15:33 04.04.2021
4577 Clouds 18 1006 72 10000 2.32 10 14:43 04.04.2021
4578 Clouds 19 1006 71 10000 1.34 351 14:25 04.04.2021
4579 Clouds 19 1006 74 10000 1.32 9 13:29 04.04.2021
4580 Clouds 18 1006 73 10000 1.34 5 12:53 04.04.2021
4581 Clouds 18 1006 73 10000 1.34 3 12:32 04.04.2021
4582 Clouds 18 1006 73 10000 0.71 32 11:52 04.04.2021
4583 Clouds 18 1006 75 10000 1.34 346 11:31 04.04.2021
4584 Clouds 18 1006 76 10000 0.89 335 10:56 04.04.2021
4585 Clouds 18 1006 76 10000 0.45 340 10:33 04.04.2021
4586 Clouds 17 1006 86 10000 0.93 52 09:52 04.04.2021
4587 Clouds 17 1006 90 10000 0.95 84 09:24 04.04.2021
4588 Clouds 16 1006 92 10000 0.95 84 08:51 04.04.2021
4589 Clouds 16 1006 93 10000 0.95 84 08:33 04.04.2021
4590 Clouds 15 1005 94 10000 1.35 142 07:24 04.04.2021
4591 Clouds 15 1005 94 10000 1.35 142 06:36 04.04.2021
4592 Clouds 15 1005 97 10000 1 118 04:56 04.04.2021
4593 Clear 15 1006 97 10000 0.99 211 01:28 04.04.2021
4594 Clear 16 1006 95 10000 1.5 187 00:19 04.04.2021
4595 Clear 16 1006 94 10000 1.5 187 23:47 03.04.2021
4596 Clear 16 1006 94 10000 1.65 173 23:23 03.04.2021
4597 Clouds 16 1009 88 10000 1.54 40 22:50 03.04.2021
4598 Clouds 17 1010 88 10000 1.54 30 22:21 03.04.2021
4599 Clouds 17 1010 88 10000 2.06 350 21:47 03.04.2021
4600 Clouds 17 1009 88 10000 3.09 340 21:24 03.04.2021
4601 Clouds 17 1009 88 10000 3.6 330 20:51 03.04.2021
4602 Clouds 17 1009 88 10000 4.63 320 20:28 03.04.2021
4603 Clouds 17 1009 88 10000 4.12 330 19:51 03.04.2021
4604 Clear 18 1005 76 10000 0.95 76 19:25 03.04.2021
4605 Clouds 17 1009 82 10000 1.54 30 18:52 03.04.2021
4606 Clouds 17 1009 82 10000 1.54 30 18:33 03.04.2021
4607 Clouds 17 1009 88 10000 2.57 350 17:55 03.04.2021
4608 Clouds 17 1009 88 10000 2.57 330 17:26 03.04.2021
4609 Clouds 17 1009 88 10000 3.09 310 16:54 03.04.2021
4610 Clouds 19 1009 88 10000 4.12 310 16:25 03.04.2021
4611 Clouds 19 1009 82 10000 4.12 310 15:51 03.04.2021
4612 Clouds 19 1009 82 10000 4.12 310 15:31 03.04.2021
4613 Clear 19 1010 72 10000 4.63 290 14:45 03.04.2021
4614 Clear 20 1010 68 10000 4.12 280 14:25 03.04.2021
4615 Clear 20 1010 72 10000 3.6 290 13:54 03.04.2021
4616 Clear 19 1010 72 10000 3.6 290 13:34 03.04.2021
4617 Clear 20 1010 68 10000 3.6 20 12:58 03.04.2021
4618 Clear 20 1010 68 10000 3.6 20 12:33 03.04.2021
4619 Clouds 20 1007 51 10000 1.99 167 11:41 03.04.2021
4620 Clouds 20 1007 53 10000 4.09 135 11:20 03.04.2021
4621 Clouds 19 1008 60 10000 4.09 135 10:45 03.04.2021
4622 Clouds 18 1008 63 10000 0.89 242 10:26 03.04.2021
4623 Clouds 17 1008 72 10000 4.28 134 09:36 03.04.2021
4624 Clouds 16 1008 72 10000 2.77 92 09:18 03.04.2021
4625 Clouds 15 1009 72 10000 2.77 92 08:35 03.04.2021
4626 Clouds 14 1008 74 10000 1.82 299 07:40 03.04.2021
4627 Clouds 14 1008 74 10000 2.63 293 07:22 03.04.2021
4628 Rain 15 1009 71 10000 1.58 153 03:54 03.04.2021
4629 Clouds 15 1010 70 10000 1.16 190 02:55 03.04.2021
4630 Clouds 15 1010 69 10000 1.87 156 02:30 03.04.2021
4631 Clear 14 1011 68 10000 1.93 152 00:32 03.04.2021
4632 Clear 15 1011 66 10000 2.18 158 23:59 02.04.2021
4633 Clear 16 1011 67 10000 2.19 157 23:38 02.04.2021
4634 Clear 16 1012 65 10000 2.64 137 23:18 02.04.2021
4635 Clear 16 1012 64 10000 2.64 137 22:43 02.04.2021
4636 Clear 16 1012 63 10000 2.77 136 22:24 02.04.2021
4637 Clear 16 1012 61 10000 2.78 136 21:41 02.04.2021
4638 Clear 17 1012 60 10000 2.42 139 21:19 02.04.2021
4639 Clear 16 1014 77 10000 3.6 210 20:42 02.04.2021
4640 Clouds 17 1012 55 10000 2.16 135 20:21 02.04.2021
4641 Clouds 17 1015 67 10000 3.09 220 19:42 02.04.2021
4642 Clouds 18 1012 46 10000 1.84 128 19:23 02.04.2021
4643 Clouds 18 1014 63 10000 2.06 0 18:48 02.04.2021
4644 Clouds 19 1014 52 10000 5.14 70 18:30 02.04.2021
4645 Clouds 18 1014 52 10000 5.66 60 17:56 02.04.2021
4646 Clouds 19 1015 56 10000 5.14 60 17:30 02.04.2021
4647 Clouds 19 1015 56 10000 5.66 60 16:37 02.04.2021
4648 Clouds 20 1015 59 10000 5.66 60 15:47 02.04.2021
4649 Clear 20 1016 68 10000 5.66 40 15:25 02.04.2021
4650 Clouds 21 1013 48 10000 0.45 309 14:33 02.04.2021
4651 Clear 20 1013 54 10000 1.43 67 13:50 02.04.2021
4652 Clear 20 1013 54 10000 0.94 53 13:28 02.04.2021
4653 Clear 20 1014 53 10000 0.94 53 12:59 02.04.2021
4654 Clear 20 1014 55 10000 0.94 53 12:38 02.04.2021
4655 Clear 20 1014 59 10000 0.86 60 12:19 02.04.2021
4656 Clear 20 1015 60 10000 0.86 60 11:48 02.04.2021
4657 Clear 19 1015 59 10000 0.63 101 11:19 02.04.2021
4658 Clear 19 1015 63 10000 0.63 101 10:43 02.04.2021
4659 Clear 18 1015 65 10000 0.91 128 10:23 02.04.2021
4660 Clear 17 1015 69 10000 0.45 331 09:46 02.04.2021
4661 Clear 17 1015 71 10000 1.04 144 09:24 02.04.2021
4662 Clear 16 1015 77 10000 1.04 144 08:46 02.04.2021
4663 Clear 16 1015 77 10000 1.04 144 08:46 02.04.2021
4664 Clear 15 1015 81 10000 1.28 154 08:26 02.04.2021
4665 Clear 12 1015 84 10000 1.23 169 07:22 02.04.2021
4666 Clear 12 1015 84 10000 1.23 169 06:34 02.04.2021
4667 Clear 13 1015 82 10000 1.5 197 03:40 02.04.2021
4668 Clear 14 1016 81 10000 1.92 168 01:49 02.04.2021
4669 Clear 13 1017 80 10000 2.09 165 00:43 02.04.2021
4670 Clear 14 1017 79 10000 1.95 166 23:47 01.04.2021
4671 Clear 15 1017 80 10000 1.68 172 23:27 01.04.2021
4672 Clear 15 1017 79 10000 1.68 172 22:50 01.04.2021
4673 Clear 15 1017 78 10000 1.57 164 22:18 01.04.2021
4674 Clear 15 1017 77 10000 1.57 164 21:44 01.04.2021
4675 Clear 16 1017 76 10000 0.99 158 21:23 01.04.2021
4676 Clear 16 1016 75 10000 0.99 158 20:41 01.04.2021
4677 Clear 16 1016 75 10000 0.99 158 20:41 01.04.2021
4678 Clear 16 1016 75 10000 0.74 124 20:22 01.04.2021
4679 Clear 17 1016 74 10000 0.74 124 19:43 01.04.2021
4680 Clear 17 1016 73 10000 0.8 59 19:24 01.04.2021
4681 Clear 17 1016 66 10000 0.8 59 18:45 01.04.2021
4682 Clear 19 1016 63 10000 1.15 46 18:18 01.04.2021
4683 Clear 17 1019 82 10000 1.54 20 17:45 01.04.2021
4684 Clear 18 1020 82 10000 1.54 20 17:24 01.04.2021
4685 Clear 19 1020 82 10000 1.03 320 16:50 01.04.2021
4686 Clear 19 1020 82 10000 1.03 320 16:50 01.04.2021
4687 Clear 19 1021 82 10000 3.09 300 16:24 01.04.2021
4688 Clear 18 1021 77 10000 3.6 310 15:43 01.04.2021
4689 Clear 18 1021 77 10000 3.6 310 15:19 01.04.2021
4690 Clear 17 1021 77 10000 2.57 320 14:42 01.04.2021
4691 Clouds 18 1021 68 10000 2.06 290 14:23 01.04.2021
4692 Clear 17 1022 72 10000 2.57 290 13:52 01.04.2021
4693 Clear 17 1022 72 10000 2.57 280 13:30 01.04.2021
4694 Clear 20 1022 72 10000 1.54 280 12:49 01.04.2021
4695 Clear 19 1022 72 10000 3.6 300 12:30 01.04.2021
4696 Clear 19 1022 67 10000 4.12 290 11:47 01.04.2021
4697 Clear 18 1022 67 10000 4.63 290 11:24 01.04.2021
4698 Clear 18 1022 55 10000 5.66 240 10:53 01.04.2021
4699 Clear 18 1019 57 10000 0.45 354 10:35 01.04.2021
4700 Clear 17 1019 59 10000 1.69 273 09:54 01.04.2021
4701 Clear 16 1019 58 10000 1.58 247 09:24 01.04.2021
4702 Clear 15 1019 67 10000 1.58 247 08:33 01.04.2021
4703 Clear 13 1018 73 10000 1.77 220 07:57 01.04.2021
4704 Clear 12 1018 73 10000 1.7 212 07:19 01.04.2021
4705 Clear 12 1018 72 10000 1.7 212 06:47 01.04.2021
4706 Clear 13 1019 66 10000 1.34 185 03:30 01.04.2021
4707 Clear 12 1020 72 10000 1.93 167 00:59 01.04.2021
4708 Clear 14 1020 75 10000 1.78 161 23:44 31.03.2021
4709 Clear 14 1020 74 10000 1.44 152 23:19 31.03.2021
4710 Clear 14 1020 77 10000 1.44 152 22:41 31.03.2021
4711 Clear 14 1020 77 10000 1.01 142 22:20 31.03.2021
4712 Clear 14 1020 79 10000 1.01 142 21:46 31.03.2021
4713 Clear 15 1020 78 10000 0.72 103 21:24 31.03.2021
4714 Clear 15 1020 77 10000 0.72 103 20:57 31.03.2021
4715 Clear 15 1019 76 10000 0.72 103 20:39 31.03.2021
4716 Clear 15 1019 73 10000 1.47 43 20:18 31.03.2021
4717 Clear 15 1022 88 10000 3.6 30 19:40 31.03.2021
4718 Clear 17 1019 61 10000 2.14 37 19:19 31.03.2021
4719 Clouds 16 1022 88 10000 3.6 30 18:49 31.03.2021
4720 Clouds 16 1022 88 10000 3.09 20 18:21 31.03.2021
4721 Clouds 16 1022 88 10000 3.09 360 17:37 31.03.2021
4722 Clouds 17 1022 82 10000 3.09 360 17:18 31.03.2021
4723 Clouds 17 1023 82 10000 3.09 350 16:48 31.03.2021
4724 Clear 17 1023 82 10000 3.09 350 16:25 31.03.2021
4725 Clear 17 1023 82 10000 3.09 340 15:50 31.03.2021
4726 Clouds 17 1023 82 10000 3.09 330 15:19 31.03.2021
4727 Clear 17 1024 77 10000 3.09 330 14:45 31.03.2021
4728 Clear 17 1024 77 10000 3.6 330 14:24 31.03.2021
4729 Clear 17 1024 77 10000 3.6 310 13:42 31.03.2021
4730 Clear 18 1021 58 10000 1.76 351 13:18 31.03.2021
4731 Clear 18 1021 63 10000 0.45 357 12:36 31.03.2021
4732 Clear 18 1021 57 10000 1.34 11 12:18 31.03.2021
4733 Clear 19 1022 60 10000 1.36 340 11:21 31.03.2021
4734 Clear 18 1022 55 10000 1.36 340 10:47 31.03.2021
4735 Clear 17 1022 57 10000 1.04 322 10:26 31.03.2021
4736 Clear 16 1022 57 10000 1.05 326 09:45 31.03.2021
4737 Clear 15 1022 58 10000 0.67 298 09:26 31.03.2021
4738 Clear 14 1022 61 10000 0.88 285 08:39 31.03.2021
4739 Clear 12 1022 66 10000 0.91 235 07:58 31.03.2021
4740 Clear 11 1022 68 10000 1.12 221 06:50 31.03.2021
4741 Clear 12 1023 74 10000 1.14 195 03:52 31.03.2021
4742 Clear 12 1023 77 10000 1.22 180 02:30 31.03.2021
4743 Clear 13 1024 86 10000 1.34 153 00:53 31.03.2021
4744 Clear 13 1024 86 10000 1.57 150 00:21 31.03.2021
4745 Clear 13 1024 86 10000 1.57 150 23:54 30.03.2021
4746 Clear 14 1024 86 10000 1.81 146 23:19 30.03.2021
4747 Clear 14 1024 85 10000 1.81 146 22:47 30.03.2021
4748 Clear 14 1024 85 10000 1.75 136 22:29 30.03.2021
4749 Clear 15 1024 84 10000 1.75 136 21:55 30.03.2021
4750 Clear 15 1024 83 10000 1.43 119 21:25 30.03.2021
4751 Clear 15 1024 83 10000 1.43 119 20:58 30.03.2021
4752 Clear 16 1023 82 10000 1.36 123 20:30 30.03.2021
4753 Clouds 15 1026 82 10000 6.17 50 19:55 30.03.2021
4754 Clouds 15 1026 82 10000 6.17 50 19:36 30.03.2021
4755 Clouds 16 1026 77 10000 7.72 40 18:47 30.03.2021
4756 Clear 16 1026 82 10000 6.69 50 18:24 30.03.2021
4757 Clear 16 1026 77 10000 7.2 40 17:45 30.03.2021
4758 Clear 16 1026 77 10000 6.69 40 17:26 30.03.2021
4759 Clear 17 1027 77 10000 6.69 40 16:46 30.03.2021
4760 Clear 17 1027 77 10000 6.17 30 16:25 30.03.2021
4761 Clear 17 1028 77 10000 5.66 30 15:36 30.03.2021
4762 Clear 17 1028 77 10000 5.66 30 15:18 30.03.2021
4763 Clear 16 1028 77 10000 5.66 40 14:43 30.03.2021
4764 Clouds 19 1025 61 10000 2.47 53 14:19 30.03.2021
4765 Clouds 19 1025 60 10000 2.47 53 13:44 30.03.2021
4766 Clouds 18 1026 58 10000 0.89 2 12:58 30.03.2021
4767 Clouds 18 1026 68 10000 2.41 51 12:39 30.03.2021
4768 Clouds 17 1026 69 10000 2.37 50 12:20 30.03.2021
4769 Clouds 16 1027 72 10000 2.37 50 11:41 30.03.2021
4770 Clouds 16 1027 72 10000 2.26 45 11:18 30.03.2021
4771 Clouds 15 1027 69 10000 2.26 45 10:40 30.03.2021
4772 Clear 15 1027 72 10000 1.74 40 10:19 30.03.2021
4773 Clear 14 1027 75 10000 1.74 40 09:40 30.03.2021
4774 Clear 14 1027 74 10000 1.16 51 09:20 30.03.2021
4775 Clear 13 1027 70 10000 1.16 51 08:41 30.03.2021
4776 Clear 11 1027 70 10000 0.71 99 07:55 30.03.2021
4777 Clear 10 1027 69 10000 0.86 97 07:28 30.03.2021
4778 Clear 10 1027 69 10000 0.45 345 06:23 30.03.2021
4779 Clear 11 1026 66 10000 0.87 116 05:24 30.03.2021
4780 Clouds 12 1028 82 10000 1.37 135 01:37 30.03.2021
4781 Clouds 12 1028 82 10000 1.73 138 23:53 29.03.2021
4782 Clouds 13 1029 82 10000 1.83 130 23:21 29.03.2021
4783 Clouds 13 1028 78 10000 1.82 132 22:37 29.03.2021
4784 Clouds 14 1028 75 10000 1.81 133 21:55 29.03.2021
4785 Clouds 14 1028 74 10000 1.81 133 21:33 29.03.2021
4786 Clear 14 1028 75 10000 1.8 127 20:51 29.03.2021
4787 Clear 15 1028 74 10000 1.8 108 20:29 29.03.2021
4788 Clear 15 1028 75 10000 1.8 108 19:53 29.03.2021
4789 Clear 15 1028 75 10000 1.95 83 19:27 29.03.2021
4790 Clear 15 1028 75 10000 1.95 83 19:27 29.03.2021
4791 Clear 16 1027 75 10000 1.95 83 18:54 29.03.2021
4792 Clear 17 1027 71 10000 1.95 83 18:30 29.03.2021
4793 Clouds 16 1030 82 10000 9.26 50 17:58 29.03.2021
4794 Clouds 16 1030 82 10000 9.26 50 17:35 29.03.2021
4795 Clear 17 1030 72 10000 8.75 50 16:53 29.03.2021
4796 Clear 17 1030 77 10000 7.72 60 16:27 29.03.2021
4797 Clear 18 1031 72 10000 7.2 50 15:43 29.03.2021
4798 Clouds 17 1031 77 10000 6.69 50 15:24 29.03.2021
4799 Clouds 18 1031 67 10000 6.17 50 14:48 29.03.2021
4800 Clear 19 1028 59 10000 2.2 39 14:21 29.03.2021
4801 Clear 19 1028 58 10000 2.26 42 13:40 29.03.2021
4802 Clear 19 1029 59 10000 2.16 43 13:18 29.03.2021
4803 Clear 18 1029 62 10000 2.19 45 12:49 29.03.2021
4804 Clear 18 1029 66 10000 1.94 62 11:48 29.03.2021
4805 Clear 17 1030 62 10000 1.84 89 11:28 29.03.2021
4806 Clear 17 1029 65 10000 1.84 88 10:49 29.03.2021
4807 Clear 17 1029 68 10000 2.12 94 10:23 29.03.2021
4808 Clear 16 1029 71 10000 2.12 94 09:33 29.03.2021
4809 Clear 14 1029 76 10000 2.2 91 08:43 29.03.2021
4810 Clear 13 1028 78 10000 1.99 115 08:25 29.03.2021
4811 Clear 11 1029 81 10000 2.36 126 07:21 29.03.2021
4812 Clear 11 1029 81 10000 2.1 125 06:25 29.03.2021
4813 Clear 12 1029 74 10000 1.69 128 03:25 29.03.2021
4814 Clear 13 1029 71 10000 2.02 121 00:46 29.03.2021
4815 Clear 13 1029 73 10000 2.18 127 00:18 29.03.2021
4816 Clear 13 1029 77 10000 2.18 127 23:30 28.03.2021
4817 Clear 13 1029 77 10000 2.18 127 23:30 28.03.2021
4818 Clear 14 1028 78 10000 2.41 126 22:53 28.03.2021
4819 Clear 14 1028 78 10000 2.41 126 22:35 28.03.2021
4820 Clear 14 1028 77 10000 2.59 122 21:57 28.03.2021
4821 Clear 14 1028 76 10000 2.59 122 21:38 28.03.2021
4822 Clear 15 1028 75 10000 2.77 117 21:18 28.03.2021
4823 Clear 15 1028 74 10000 2.77 117 20:42 28.03.2021
4824 Clear 15 1027 75 10000 2.79 107 20:24 28.03.2021
4825 Clear 16 1029 63 10000 7.2 70 19:42 28.03.2021
4826 Clear 16 1027 64 10000 2.58 93 19:22 28.03.2021
4827 Clear 16 1028 63 10000 8.75 60 18:53 28.03.2021
4828 Clear 18 1027 46 10000 2.64 87 18:25 28.03.2021
4829 Clear 17 1028 67 10000 7.72 60 17:46 28.03.2021
4830 Clear 17 1028 59 10000 7.2 60 17:23 28.03.2021
4831 Clear 18 1028 63 10000 7.72 60 16:45 28.03.2021
4832 Clear 17 1029 63 10000 8.23 60 16:23 28.03.2021
4833 Clear 18 1029 55 10000 5.14 60 15:25 28.03.2021
4834 Clear 17 1029 72 10000 6.17 40 14:50 28.03.2021
4835 Clear 17 1030 72 10000 6.17 50 14:30 28.03.2021
4836 Clear 18 1027 53 10000 2.53 77 13:39 28.03.2021
4837 Clear 19 1027 48 10000 2.63 78 13:19 28.03.2021
4838 Clear 18 1027 46 10000 2.63 78 12:43 28.03.2021
4839 Clear 18 1027 46 10000 2.63 78 12:43 28.03.2021
4840 Clear 18 1027 46 10000 2.71 78 12:25 28.03.2021
4841 Clear 18 1027 44 10000 2.71 78 11:40 28.03.2021
4842 Clear 18 1027 46 10000 2.63 82 11:21 28.03.2021
4843 Clear 17 1027 52 10000 2.69 82 10:43 28.03.2021
4844 Clear 17 1027 54 10000 2.27 102 10:23 28.03.2021
4845 Clear 15 1027 58 10000 2.22 103 09:44 28.03.2021
4846 Clear 15 1027 61 10000 2.25 124 09:24 28.03.2021
4847 Clear 13 1026 69 10000 2.25 124 08:45 28.03.2021
4848 Clear 12 1026 72 10000 0.45 223 07:46 28.03.2021
4849 Clear 12 1025 71 10000 2.23 136 06:23 28.03.2021
4850 Clear 12 1024 72 10000 2.09 161 03:51 28.03.2021
4851 Clear 13 1025 71 10000 1.93 154 00:52 28.03.2021
4852 Clear 13 1025 72 10000 1.95 166 00:19 28.03.2021
4853 Clear 13 1025 74 10000 1.95 166 23:40 27.03.2021
4854 Clear 13 1025 77 10000 2.24 161 22:54 27.03.2021
4855 Clear 13 1025 78 10000 2.24 161 22:36 27.03.2021
4856 Clear 13 1025 79 10000 2.7 145 21:48 27.03.2021
4857 Clear 14 1025 78 10000 3.19 141 21:22 27.03.2021
4858 Clear 14 1025 78 10000 3.19 141 20:59 27.03.2021
4859 Clear 14 1024 77 10000 3.19 141 20:38 27.03.2021
4860 Clear 14 1024 76 10000 3.28 143 20:19 27.03.2021
4861 Clear 14 1024 75 10000 3.28 143 19:42 27.03.2021
4862 Clouds 14 1024 75 10000 3.28 132 19:23 27.03.2021
4863 Clear 15 1026 63 10000 2.57 70 18:48 27.03.2021
4864 Clouds 15 1024 74 10000 2.74 117 18:27 27.03.2021
4865 Clouds 16 1023 69 10000 2.82 117 17:45 27.03.2021
4866 Clouds 17 1023 67 10000 2.8 115 17:23 27.03.2021
4867 Clear 17 1025 59 10000 5.14 50 16:48 27.03.2021
4868 Clear 17 1025 63 10000 4.63 40 16:28 27.03.2021
4869 Clear 17 1026 63 10000 4.63 40 15:46 27.03.2021
4870 Clouds 17 1026 55 10000 3.09 50 15:22 27.03.2021
4871 Clouds 17 1026 55 10000 5.66 50 14:45 27.03.2021
4872 Clouds 17 1027 55 10000 5.66 40 13:44 27.03.2021
4873 Clouds 18 1027 51 10000 4.12 50 13:24 27.03.2021
4874 Clouds 18 1025 47 10000 2 107 12:53 27.03.2021
4875 Clouds 18 1025 40 10000 1.33 112 11:59 27.03.2021
4876 Clouds 18 1025 41 10000 1.33 112 11:41 27.03.2021
4877 Clouds 17 1025 47 10000 1.66 131 11:19 27.03.2021
4878 Clouds 17 1025 50 10000 1.65 131 10:43 27.03.2021
4879 Clouds 16 1025 53 10000 2.03 136 10:22 27.03.2021
4880 Clouds 15 1025 61 10000 2.04 138 09:28 27.03.2021
4881 Clouds 14 1025 68 10000 2.04 138 08:43 27.03.2021
4882 Clouds 13 1025 70 10000 2 149 08:20 27.03.2021
4883 Clouds 11 1025 74 10000 1.95 153 07:34 27.03.2021
4884 Clouds 9 1025 76 10000 2.48 170 06:43 27.03.2021
4885 Clouds 9 1024 78 10000 2.17 168 04:57 27.03.2021
4886 Clouds 9 1024 77 10000 2.17 168 04:39 27.03.2021
4887 Clear 10 1025 85 10000 1.95 202 00:49 27.03.2021
4888 Clear 11 1025 86 10000 2.17 183 00:29 27.03.2021
4889 Clear 11 1025 86 10000 2.17 183 23:48 26.03.2021
4890 Clear 11 1025 84 10000 2.35 172 22:56 26.03.2021
4891 Clear 11 1025 83 10000 2.35 172 22:34 26.03.2021
4892 Clear 12 1025 81 10000 2.03 163 21:25 26.03.2021
4893 Clear 12 1025 80 10000 2.03 163 20:59 26.03.2021
4894 Clear 13 1025 79 10000 2.03 163 20:32 26.03.2021
4895 Clear 13 1025 77 10000 1.95 162 19:56 26.03.2021
4896 Clear 13 1024 76 10000 1.95 162 19:37 26.03.2021
4897 Clear 13 1024 75 10000 1.24 167 19:18 26.03.2021
4898 Clear 14 1024 73 10000 1.24 167 18:41 26.03.2021
4899 Clear 14 1024 71 10000 0.28 139 18:19 26.03.2021
4900 Clear 15 1024 68 10000 0.28 139 17:45 26.03.2021
4901 Clear 15 1027 72 10000 3.09 340 16:54 26.03.2021
4902 Clear 15 1027 72 10000 3.09 340 16:32 26.03.2021
4903 Clear 15 1027 72 10000 4.12 320 15:51 26.03.2021
4904 Clear 15 1027 77 10000 4.63 310 15:21 26.03.2021
4905 Clear 16 1027 77 10000 4.63 300 14:24 26.03.2021
4906 Clear 16 1027 77 10000 4.12 300 13:34 26.03.2021
4907 Clear 17 1024 49 10000 1.34 4 12:49 26.03.2021
4908 Clear 17 1025 45 10000 0.89 357 11:58 26.03.2021
4909 Clear 17 1025 43 10000 0.45 355 11:34 26.03.2021
4910 Clear 16 1025 43 10000 0.91 329 10:52 26.03.2021
4911 Clear 16 1025 45 10000 0.23 352 10:33 26.03.2021
4912 Clear 15 1024 48 10000 0.24 350 09:42 26.03.2021
4913 Clear 14 1024 54 10000 0.48 202 09:19 26.03.2021
4914 Clear 14 1024 62 10000 0.48 202 08:38 26.03.2021
4915 Clear 12 1024 68 10000 1.3 208 08:20 26.03.2021
4916 Clear 10 1023 73 10000 1.74 198 07:23 26.03.2021
4917 Clear 9 1023 72 10000 1.74 198 06:58 26.03.2021
4918 Clear 9 1023 73 10000 1.74 198 06:30 26.03.2021
4919 Clear 9 1023 77 10000 1.85 209 05:26 26.03.2021
4920 Clear 9 1023 78 10000 2.03 234 01:58 26.03.2021
4921 Clear 10 1023 78 10000 2.06 223 00:27 26.03.2021
4922 Clear 11 1023 81 10000 2.06 223 23:44 25.03.2021
4923 Clear 11 1022 83 10000 2.19 234 22:57 25.03.2021
4924 Clear 11 1022 82 10000 2.19 234 22:30 25.03.2021
4925 Clear 12 1022 81 10000 1.92 230 21:53 25.03.2021
4926 Clear 12 1022 80 10000 1.7 245 21:34 25.03.2021
4927 Clear 12 1022 79 10000 1.7 245 20:45 25.03.2021
4928 Clear 12 1022 77 10000 1.7 278 20:25 25.03.2021
4929 Clear 12 1022 76 10000 1.7 278 19:46 25.03.2021
4930 Clouds 13 1021 76 10000 1.82 301 19:27 25.03.2021
4931 Clouds 13 1021 75 10000 1.82 301 18:49 25.03.2021
4932 Clouds 13 1021 75 10000 2.56 320 18:27 25.03.2021
4933 Clouds 14 1021 74 10000 0.45 343 17:55 25.03.2021
4934 Clouds 14 1021 71 10000 2.56 320 17:36 25.03.2021
4935 Clouds 12 1023 67 10000 4.12 320 16:55 25.03.2021
4936 Clouds 12 1023 67 10000 4.12 320 16:32 25.03.2021
4937 Clouds 14 1023 67 10000 4.12 310 15:46 25.03.2021
4938 Clouds 14 1023 67 10000 4.12 310 15:23 25.03.2021
4939 Clouds 15 1024 67 10000 4.63 310 14:48 25.03.2021
4940 Clouds 15 1024 67 10000 4.63 310 14:29 25.03.2021
4941 Clouds 14 1021 76 10000 3.86 327 13:25 25.03.2021
4942 Clouds 14 1021 69 10000 0.45 274 12:46 25.03.2021
4943 Clouds 14 1021 69 10000 3.33 322 12:22 25.03.2021
4944 Clouds 14 1021 69 10000 0.45 326 11:53 25.03.2021
4945 Clouds 14 1021 69 10000 0.45 326 11:53 25.03.2021
4946 Clouds 14 1021 69 10000 3.33 322 11:33 25.03.2021
4947 Clouds 14 1021 67 10000 1.34 353 10:58 25.03.2021
4948 Clouds 14 1021 66 10000 0.45 17 10:39 25.03.2021
4949 Clouds 14 1021 64 10000 0.89 347 10:19 25.03.2021
4950 Clouds 14 1021 65 10000 0.45 309 09:43 25.03.2021
4951 Clear 13 1021 66 10000 2.34 320 09:21 25.03.2021
4952 Clear 13 1020 67 10000 0.45 324 08:30 25.03.2021
4953 Clear 10 1020 71 10000 1.38 292 07:29 25.03.2021
4954 Clear 9 1020 71 10000 1.38 292 06:43 25.03.2021
4955 Clear 9 1020 71 10000 0.45 341 06:22 25.03.2021
4956 Clear 8 1019 70 10000 1.21 298 04:51 25.03.2021
4957 Clear 9 1020 64 10000 1.05 300 01:25 25.03.2021
4958 Clear 9 1020 68 10000 0.94 295 00:19 25.03.2021
4959 Clear 9 1020 67 10000 0.94 295 23:40 24.03.2021
4960 Clear 10 1020 68 10000 0.66 293 23:19 24.03.2021
4961 Clear 9 1020 68 10000 0.66 293 22:39 24.03.2021
4962 Clear 9 1020 67 10000 0.61 309 21:51 24.03.2021
4963 Clear 9 1020 65 10000 0.61 309 21:32 24.03.2021
4964 Clear 9 1020 62 10000 0.83 352 20:59 24.03.2021
4965 Clear 10 1020 60 10000 0.83 352 20:41 24.03.2021
4966 Clear 10 1020 58 10000 1.33 12 20:18 24.03.2021
4967 Clear 10 1019 57 10000 1.33 12 19:33 24.03.2021
4968 Clear 10 1019 57 10000 1.33 12 19:33 24.03.2021
4969 Clear 11 1019 56 10000 1.49 23 18:53 24.03.2021
4970 Clear 11 1019 54 10000 2.09 29 18:24 24.03.2021
4971 Clear 12 1019 51 10000 0.45 345 17:53 24.03.2021
4972 Clear 12 1019 48 10000 2.09 29 17:32 24.03.2021
4973 Clouds 13 1022 47 10000 4.63 30 16:57 24.03.2021
4974 Clouds 13 1022 47 10000 4.63 30 16:39 24.03.2021
4975 Clouds 13 1022 47 10000 4.63 30 16:19 24.03.2021
4976 Clouds 13 1022 41 10000 4.63 40 15:37 24.03.2021
4977 Clouds 13 1022 50 10000 4.63 30 15:18 24.03.2021
4978 Clouds 13 1023 50 10000 4.63 20 14:30 24.03.2021
4979 Clouds 14 1019 45 10000 4.16 26 13:58 24.03.2021
4980 Clouds 14 1020 47 10000 4.59 23 13:28 24.03.2021
4981 Clouds 13 1020 48 10000 0.45 350 12:52 24.03.2021
4982 Clouds 12 1020 48 10000 4.59 27 12:32 24.03.2021
4983 Clouds 12 1020 47 10000 5.08 25 11:57 24.03.2021
4984 Clouds 13 1020 47 10000 0.45 346 11:39 24.03.2021
4985 Clouds 13 1020 43 10000 5.42 22 10:49 24.03.2021
4986 Clouds 13 1020 44 10000 0.89 349 10:31 24.03.2021
4987 Clouds 12 1020 47 10000 0.89 356 09:55 24.03.2021
4988 Clouds 12 1020 49 10000 0.89 350 09:31 24.03.2021
4989 Clouds 11 1020 49 10000 0.89 345 08:57 24.03.2021
4990 Clouds 11 1020 51 10000 5.1 11 08:38 24.03.2021
4991 Clear 9 1019 72 10000 4.55 3 07:49 24.03.2021
4992 Clouds 8 1019 73 10000 3.81 3 07:19 24.03.2021
4993 Clouds 8 1019 70 10000 3.81 3 06:43 24.03.2021
4994 Clouds 10 1021 43 10000 4.63 20 02:29 24.03.2021
4995 Clouds 9 1021 50 10000 5.66 30 00:42 24.03.2021
4996 Clouds 9 1019 51 10000 2.97 326 23:52 23.03.2021
4997 Clouds 9 1019 51 10000 3.69 339 23:19 23.03.2021
4998 Clouds 9 1018 52 10000 3.69 339 22:50 23.03.2021
4999 Clouds 10 1018 51 10000 4.73 353 22:24 23.03.2021
5000 Clouds 10 1018 50 10000 0.45 334 21:45 23.03.2021
5001 Clouds 10 1018 48 10000 5.98 357 21:26 23.03.2021
5002 Clouds 9 1018 47 10000 0.45 2 20:46 23.03.2021
5003 Clouds 9 1018 49 10000 7.14 357 20:25 23.03.2021
5004 Clouds 10 1017 49 10000 7.14 357 19:48 23.03.2021
5005 Clouds 10 1017 46 10000 1.34 12 19:26 23.03.2021
5006 Clouds 10 1016 48 10000 0.45 348 18:46 23.03.2021
5007 Clouds 10 1016 51 10000 2.24 3 18:22 23.03.2021
5008 Clouds 10 1016 52 10000 1.34 5 17:48 23.03.2021
5009 Clouds 10 1015 52 10000 2.24 6 17:23 23.03.2021
5010 Clouds 11 1017 54 10000 11.32 20 16:42 23.03.2021
5011 Clouds 9 1017 54 10000 11.32 20 16:24 23.03.2021
5012 Clouds 12 1014 46 10000 1.34 344 15:46 23.03.2021
5013 Clouds 12 1014 47 10000 1.34 4 14:57 23.03.2021
5014 Clouds 9 1016 54 10000 12.35 10 14:39 23.03.2021
5015 Clouds 11 1013 51 10000 1.79 26 14:18 23.03.2021
5016 Clouds 11 1013 49 10000 2.68 4 13:43 23.03.2021
5017 Clouds 11 1013 51 10000 1.34 339 13:21 23.03.2021
5018 Clouds 11 1013 49 10000 2.68 1 12:43 23.03.2021
5019 Clouds 10 1012 46 10000 2.24 357 12:21 23.03.2021
5020 Clouds 10 1012 46 10000 2.24 357 12:21 23.03.2021
5021 Clouds 10 1012 52 10000 2.68 349 11:47 23.03.2021
5022 Clouds 10 1012 53 10000 1.34 356 10:46 23.03.2021
5023 Clouds 10 1012 51 10000 2.68 3 10:26 23.03.2021
5024 Clouds 10 1012 47 10000 3.13 8 09:59 23.03.2021
5025 Clouds 9 1012 52 10000 3.13 357 09:39 23.03.2021
5026 Clouds 9 1011 61 10000 2.68 2 09:20 23.03.2021
5027 Clouds 9 1011 65 10000 0.89 347 08:40 23.03.2021
5028 Clouds 8 1010 71 10000 0.45 1 08:22 23.03.2021
5029 Clouds 7 1010 79 10000 7.65 1 07:48 23.03.2021
5030 Clouds 7 1010 85 10000 7.64 1 07:20 23.03.2021
5031 Clouds 8 1010 81 10000 2.24 16 06:33 23.03.2021
5032 Clouds 6 1011 71 10000 7.72 30 03:23 23.03.2021
5033 Clouds 7 1011 71 10000 13.38 350 02:20 23.03.2021
5034 Clouds 8 1008 84 10000 7.58 22 23:44 22.03.2021
5035 Clouds 9 1008 76 10000 6.52 16 22:56 22.03.2021
5036 Clouds 10 1008 72 10000 6.52 16 22:38 22.03.2021
5037 Clouds 10 1008 73 10000 5.25 19 22:20 22.03.2021
5038 Clouds 9 1008 76 10000 5.13 19 21:42 22.03.2021
5039 Clouds 9 1008 78 10000 3.12 8 21:23 22.03.2021
5040 Clouds 9 1007 82 10000 3.12 8 20:42 22.03.2021
5041 Clouds 9 1007 81 10000 2.9 5 20:22 22.03.2021
5042 Clouds 9 1007 81 10000 2.9 5 19:55 22.03.2021
5043 Clouds 7 1009 93 6000 2.57 180 19:37 22.03.2021
5044 Clouds 7 1009 87 10000 2.06 170 19:19 22.03.2021
5045 Clouds 7 1009 81 10000 3.09 200 18:40 22.03.2021
5046 Clouds 8 1009 81 10000 4.63 210 18:21 22.03.2021
5047 Clouds 8 1008 81 10000 4.63 210 17:44 22.03.2021
5048 Clouds 7 1008 87 10000 3.6 170 17:21 22.03.2021
5049 Clouds 7 1008 87 8000 4.12 160 16:45 22.03.2021
5050 Clouds 7 1008 76 6000 2.06 280 16:22 22.03.2021
5051 Clouds 8 1009 92 10000 4.47 225 15:39 22.03.2021
5052 Clouds 8 1009 91 10000 2.24 225 15:20 22.03.2021
5053 Clouds 8 1008 88 10000 3.58 225 14:57 22.03.2021
5054 Clouds 8 1008 85 10000 2.68 225 14:34 22.03.2021
5055 Clouds 8 1008 85 10000 2.24 225 13:49 22.03.2021
5056 Clouds 8 1008 86 10000 1.79 225 13:28 22.03.2021
5057 Clouds 8 1008 86 10000 2.24 225 12:56 22.03.2021
5058 Clouds 8 1008 87 10000 1.79 225 12:26 22.03.2021
5059 Clouds 7 1008 90 10000 0.89 225 11:50 22.03.2021
5060 Clouds 7 1008 93 10000 2.86 25 11:29 22.03.2021
5061 Clouds 7 1007 95 10000 0.89 225 10:46 22.03.2021
5062 Clouds 7 1007 94 10000 0.89 225 10:26 22.03.2021
5063 Clouds 8 1007 93 10000 0.89 225 09:53 22.03.2021
5064 Clouds 8 1006 92 10000 3.11 28 09:32 22.03.2021
5065 Clouds 8 1006 89 10000 3.58 225 08:47 22.03.2021
5066 Clouds 8 1006 94 6807 1.79 180 08:28 22.03.2021
5067 Clouds 7 1005 94 6807 2.88 356 07:54 22.03.2021
5068 Clouds 7 1005 93 5290 0.45 180 07:34 22.03.2021
5069 Clouds 7 1004 93 5292 1.79 225 06:51 22.03.2021
5070 Clouds 5 1002 93 3565 5.36 225 02:51 22.03.2021
5071 Clouds 7 1003 81 5000 7.2 330 00:49 22.03.2021
5072 Clouds 7 1003 87 4500 7.72 330 00:19 22.03.2021
5073 Clouds 7 1003 87 4900 6.17 300 23:40 21.03.2021
5074 Drizzle 8 1002 81 9000 5.66 340 23:18 21.03.2021
5075 Clouds 8 1003 87 10000 1.54 0 22:43 21.03.2021
5076 Clouds 8 1003 76 10000 2.57 170 21:43 21.03.2021
5077 Clouds 8 1003 71 10000 3.6 90 21:25 21.03.2021
5078 Clouds 8 1003 81 10000 3.6 90 20:57 21.03.2021
5079 Clouds 8 1003 81 10000 3.6 90 20:39 21.03.2021
5080 Clouds 8 1003 87 8000 4.12 80 20:21 21.03.2021
5081 Clouds 8 1003 93 10000 2.57 90 19:46 21.03.2021
5082 Clouds 8 1003 87 10000 5.14 30 19:20 21.03.2021
5083 Clouds 9 1002 87 8000 4.63 20 18:44 21.03.2021
5084 Clouds 9 1002 87 10000 1.54 180 18:25 21.03.2021
5085 Clouds 9 1002 82 10000 1.54 140 17:43 21.03.2021
5086 Clouds 9 1002 82 10000 2.06 350 17:18 21.03.2021
5087 Clouds 9 1003 82 7000 3.09 20 16:51 21.03.2021
5088 Clouds 9 1003 76 5000 5.66 350 16:26 21.03.2021
5089 Clouds 10 1002 76 10000 7.2 360 15:48 21.03.2021
5090 Clouds 10 1003 71 10000 5.14 20 15:22 21.03.2021
5091 Drizzle 10 1003 71 10000 5.14 20 14:56 21.03.2021
5092 Drizzle 10 1003 71 10000 5.14 20 14:38 21.03.2021
5093 Drizzle 10 1003 71 10000 5.14 30 14:19 21.03.2021
5094 Clouds 10 1003 76 9000 5.66 20 13:51 21.03.2021
5095 Clouds 10 1004 93 9000 3.6 70 12:45 21.03.2021
5096 Clouds 10 1003 87 9000 5.66 70 12:25 21.03.2021
5097 Clouds 10 1004 87 7000 5.66 50 11:44 21.03.2021
5098 Clouds 10 1004 93 6000 5.66 50 11:26 21.03.2021
5099 Clouds 10 1004 87 8000 4.63 60 10:50 21.03.2021
5100 Clouds 10 1004 87 8000 4.63 60 10:32 21.03.2021
5101 Clouds 10 1004 82 10000 6.69 70 09:55 21.03.2021
5102 Clouds 10 1004 82 10000 6.69 70 09:37 21.03.2021
5103 Clouds 10 1004 82 10000 7.72 70 09:18 21.03.2021
5104 Rain 9 1004 82 9000 8.23 70 08:38 21.03.2021
5105 Rain 9 1004 87 7000 9.26 70 08:19 21.03.2021
5106 Rain 10 1003 82 10000 9.77 50 07:30 21.03.2021
5107 Rain 10 1003 87 10000 9.26 50 06:21 21.03.2021
5108 Clouds 10 1003 94 10000 7.72 40 04:57 21.03.2021
5109 Clouds 10 1005 97 10000 0.89 315 00:58 21.03.2021
5110 Clouds 10 1005 99 10000 0.89 315 00:39 21.03.2021
5111 Clouds 10 1005 99 10000 3.75 95 00:20 21.03.2021
5112 Clouds 10 1006 99 10000 0.89 128 23:46 20.03.2021
5113 Clouds 10 1006 99 10000 1.34 315 23:20 20.03.2021
5114 Clouds 10 1007 97 10000 2.68 315 22:36 20.03.2021
5115 Clouds 10 1007 97 10000 2.68 135 22:18 20.03.2021
5116 Clouds 10 1007 99 10000 4.39 109 21:42 20.03.2021
5117 Clouds 10 1007 99 10000 0.89 135 21:24 20.03.2021
5118 Clouds 10 1008 99 10000 0.45 135 20:42 20.03.2021
5119 Clouds 10 1008 99 10000 5.5 109 20:21 20.03.2021
5120 Clouds 11 1008 99 10000 5.51 109 19:44 20.03.2021
5121 Clouds 11 1008 99 5710 5.44 92 19:25 20.03.2021
5122 Clouds 11 1008 99 4584 0.89 135 18:46 20.03.2021
5123 Clouds 11 1008 99 5728 1.34 135 18:24 20.03.2021
5124 Clouds 11 1008 99 5728 1.79 135 17:51 20.03.2021
5125 Clouds 11 1008 99 4441 2.24 135 17:27 20.03.2021
5126 Rain 11 1008 99 4431 3.58 135 16:44 20.03.2021
5127 Rain 11 1008 99 5299 2.68 112 16:20 20.03.2021
5128 Clouds 11 1008 99 5299 3.13 135 15:56 20.03.2021
5129 Rain 11 1008 99 5299 1.79 135 15:38 20.03.2021
5130 Rain 11 1009 99 10000 1.79 135 14:45 20.03.2021
5131 Clouds 11 1009 98 10000 1.34 135 14:23 20.03.2021
5132 Clouds 11 1009 98 10000 2.24 135 13:33 20.03.2021
5133 Drizzle 13 1008 76 10000 1.54 220 12:52 20.03.2021
5134 Clouds 13 1008 76 10000 3.6 100 12:26 20.03.2021
5135 Clouds 11 1011 96 10000 1.79 135 11:46 20.03.2021
5136 Clouds 11 1011 96 10000 1.79 135 11:28 20.03.2021
5137 Clouds 11 1011 96 10000 1.79 135 10:55 20.03.2021
5138 Clouds 11 1011 96 10000 1.79 135 10:28 20.03.2021
5139 Clouds 10 1011 96 10000 1.79 135 09:58 20.03.2021
5140 Clouds 10 1011 96 10000 1.79 315 09:27 20.03.2021
5141 Clouds 10 1010 95 10000 1.34 315 08:57 20.03.2021
5142 Clouds 10 1010 95 10000 1.34 315 08:30 20.03.2021
5143 Clouds 9 1010 94 10000 1.34 315 07:53 20.03.2021
5144 Clouds 9 1010 93 10000 0.89 315 07:32 20.03.2021
5145 Clouds 9 1010 93 10000 1.83 69 06:52 20.03.2021
5146 Clouds 9 1010 92 10000 0.92 45 06:19 20.03.2021
5147 Rain 9 1009 91 10000 0.14 91 04:00 20.03.2021
5148 Rain 9 1009 91 10000 0.14 91 03:41 20.03.2021
5149 Clouds 9 1010 89 10000 0.89 315 00:18 20.03.2021
5150 Clouds 9 1010 86 10000 1.27 154 23:31 19.03.2021
5151 Clouds 9 1011 81 10000 1.62 163 22:50 19.03.2021
5152 Clouds 9 1011 80 10000 1.56 190 22:29 19.03.2021
5153 Clouds 10 1011 78 10000 1.56 190 21:58 19.03.2021
5154 Clouds 10 1011 84 10000 2.24 292 21:22 19.03.2021
5155 Clouds 9 1011 91 10000 1.79 292 20:59 19.03.2021
5156 Clouds 9 1011 91 10000 1.34 315 20:40 19.03.2021
5157 Clouds 9 1011 89 10000 0.89 292 20:21 19.03.2021
5158 Clouds 9 1011 87 10000 1.42 219 19:46 19.03.2021
5159 Clouds 9 1011 86 10000 1.49 235 19:20 19.03.2021
5160 Clouds 9 1011 84 10000 4.47 315 18:40 19.03.2021
5161 Clouds 10 1011 83 10000 4.92 270 18:20 19.03.2021
5162 Clouds 9 1012 86 10000 2.68 270 17:55 19.03.2021
5163 Rain 10 1012 87 10000 3.13 248 17:31 19.03.2021
5164 Rain 10 1011 88 10000 3.58 180 16:55 19.03.2021
5165 Rain 10 1011 86 10000 3.13 180 16:29 19.03.2021
5166 Rain 10 1011 88 10000 2.24 180 15:55 19.03.2021
5167 Clouds 10 1011 88 10000 1.79 202 15:26 19.03.2021
5168 Clouds 11 1011 88 10000 2.24 180 14:47 19.03.2021
5169 Clouds 11 1011 87 10000 1.34 180 14:27 19.03.2021
5170 Clouds 11 1012 81 10000 3.13 225 13:40 19.03.2021
5171 Clouds 12 1012 72 10000 1.79 202 12:57 19.03.2021
5172 Clouds 12 1012 67 10000 3.58 225 12:37 19.03.2021
5173 Clouds 13 1012 63 10000 3.58 270 11:48 19.03.2021
5174 Clouds 12 1012 74 10000 4.47 22 10:54 19.03.2021
5175 Clouds 12 1012 75 10000 2.24 45 10:32 19.03.2021
5176 Clouds 11 1013 76 10000 1.9 184 09:58 19.03.2021
5177 Clouds 10 1013 73 10000 1.9 184 09:39 19.03.2021
5178 Clouds 10 1013 65 10000 1.79 90 09:19 19.03.2021
5179 Clouds 9 1013 69 10000 1.34 45 08:40 19.03.2021
5180 Clouds 9 1013 78 10000 0.45 45 08:21 19.03.2021
5181 Clouds 8 1013 87 10000 2.45 172 07:39 19.03.2021
5182 Clouds 7 1012 91 10000 0.89 45 06:56 19.03.2021
5183 Clouds 7 1009 91 10000 2.17 142 03:57 19.03.2021
5184 Clouds 9 1010 86 10000 1.62 109 00:58 19.03.2021
5185 Clouds 10 1010 86 10000 2.1 80 23:49 18.03.2021
5186 Clouds 9 1010 86 10000 2.24 69 23:26 18.03.2021
5187 Clouds 10 1010 85 10000 2.08 58 22:41 18.03.2021
5188 Clouds 10 1010 85 10000 2.08 58 22:22 18.03.2021
5189 Clouds 10 1010 85 10000 2.08 58 21:40 18.03.2021
5190 Clouds 10 1010 87 10000 2.21 63 20:54 18.03.2021
5191 Clouds 10 1010 86 10000 2.21 63 20:35 18.03.2021
5192 Clouds 11 1009 85 10000 2.85 64 19:59 18.03.2021
5193 Clouds 11 1009 85 10000 2.85 64 19:59 18.03.2021
5194 Clouds 11 1010 84 10000 2.85 64 19:41 18.03.2021
5195 Clouds 11 1009 83 10000 3.78 57 19:21 18.03.2021
5196 Clouds 11 1009 80 10000 3.78 57 18:39 18.03.2021
5197 Clouds 12 1009 79 9770 2.24 2 17:51 18.03.2021
5198 Clouds 12 1008 79 10000 4.29 49 17:26 18.03.2021
5199 Clouds 12 1008 75 10000 0.45 17 16:51 18.03.2021
5200 Clouds 13 1008 74 10000 1.79 346 16:32 18.03.2021
5201 Clouds 13 1008 72 10000 0.89 343 15:56 18.03.2021
5202 Clouds 13 1008 72 10000 4.23 40 15:37 18.03.2021
5203 Clouds 14 1007 65 10000 3.64 39 15:18 18.03.2021
5204 Clouds 13 1011 71 10000 1.54 300 14:41 18.03.2021
5205 Clouds 14 1007 66 10000 1.34 340 13:57 18.03.2021
5206 Clouds 14 1011 67 10000 4.63 290 13:27 18.03.2021
5207 Clouds 14 1011 67 10000 5.66 290 12:57 18.03.2021
5208 Clouds 14 1012 67 10000 5.14 290 12:37 18.03.2021
5209 Clouds 14 1012 67 10000 5.14 290 12:18 18.03.2021
5210 Clouds 14 1012 67 10000 5.14 290 12:18 18.03.2021
5211 Clouds 14 1011 62 10000 5.66 210 11:40 18.03.2021
5212 Clouds 14 1008 66 10000 1.53 316 10:58 18.03.2021
5213 Clouds 14 1008 69 10000 1.53 316 10:39 18.03.2021
5214 Clouds 13 1008 76 10000 1.34 317 10:20 18.03.2021
5215 Clouds 11 1009 83 10000 2.51 215 09:38 18.03.2021
5216 Clouds 12 1011 71 10000 7.2 190 09:20 18.03.2021
5217 Clouds 12 1009 87 9049 3.33 211 08:43 18.03.2021
5218 Clouds 11 1009 87 10000 4.17 220 08:23 18.03.2021
5219 Clouds 11 1008 86 10000 4.17 220 07:45 18.03.2021
5220 Clouds 10 1009 99 10000 3.75 208 06:43 18.03.2021
5221 Clouds 9 1009 99 10000 3.66 206 06:23 18.03.2021
5222 Clouds 9 1008 99 10000 3.64 203 05:25 18.03.2021
5223 Rain 10 1014 71 8000 3.09 0 00:44 18.03.2021
5224 Clouds 12 1014 50 10000 4.12 180 23:25 17.03.2021
5225 Clouds 12 1014 50 10000 2.57 170 22:39 17.03.2021
5226 Clouds 12 1014 50 10000 3.09 150 22:21 17.03.2021
5227 Clouds 12 1015 41 10000 3.6 160 21:51 17.03.2021
5228 Clouds 12 1015 41 10000 2.57 150 21:31 17.03.2021
5229 Clouds 12 1015 38 10000 2.57 170 20:49 17.03.2021
5230 Clouds 12 1015 38 10000 1.54 150 20:27 17.03.2021
5231 Clouds 13 1015 38 10000 1.54 260 19:59 17.03.2021
5232 Clouds 13 1015 38 10000 1.54 260 19:39 17.03.2021
5233 Clouds 11 1015 46 10000 2.06 90 19:19 17.03.2021
5234 Clouds 11 1015 38 10000 5.14 80 18:49 17.03.2021
5235 Clouds 12 1015 41 10000 3.6 70 18:31 17.03.2021
5236 Clouds 12 1015 35 10000 2.57 60 17:42 17.03.2021
5237 Clouds 14 1015 35 10000 2.06 30 17:22 17.03.2021
5238 Clouds 15 1015 33 10000 2.06 10 16:43 17.03.2021
5239 Clouds 15 1016 31 10000 1.54 350 16:20 17.03.2021
5240 Clouds 15 1016 38 10000 2.06 300 15:46 17.03.2021
5241 Clouds 15 1016 36 10000 2.57 300 15:28 17.03.2021
5242 Clouds 15 1016 38 10000 2.06 300 14:40 17.03.2021
5243 Clouds 15 1016 38 10000 2.06 310 14:20 17.03.2021
5244 Clouds 15 1017 41 10000 1.54 310 13:55 17.03.2021
5245 Clouds 15 1017 41 10000 1.54 280 13:25 17.03.2021
5246 Clouds 15 1017 44 10000 2.06 310 12:48 17.03.2021
5247 Clear 15 1014 41 10000 3.07 297 12:27 17.03.2021
5248 Clear 14 1014 44 10000 3.07 297 11:42 17.03.2021
5249 Clouds 15 1017 44 10000 2.06 310 11:23 17.03.2021
5250 Clear 14 1015 51 10000 2.45 307 10:53 17.03.2021
5251 Clouds 14 1017 47 10000 4.12 330 10:24 17.03.2021
5252 Clear 14 1015 56 10000 1.34 346 09:47 17.03.2021
5253 Clear 13 1015 57 10000 2.26 339 09:21 17.03.2021
5254 Clouds 13 1017 54 10000 2.57 330 08:55 17.03.2021
5255 Clear 12 1015 61 10000 2.26 339 08:35 17.03.2021
5256 Clear 11 1014 67 10000 2.7 345 07:48 17.03.2021
5257 Clear 10 1014 69 10000 3.41 349 07:19 17.03.2021
5258 Clear 9 1014 69 10000 0.45 337 06:36 17.03.2021
5259 Clear 9 1013 74 10000 4.74 339 04:19 17.03.2021
5260 Clear 10 1013 75 10000 0.89 352 02:49 17.03.2021
5261 Clear 8 1016 71 10000 2.57 120 00:40 17.03.2021
5262 Clear 10 1014 71 10000 2.24 10 23:28 16.03.2021
5263 Clear 11 1013 60 10000 0.45 340 22:48 16.03.2021
5264 Clear 11 1013 64 10000 0.45 275 22:29 16.03.2021
5265 Clear 11 1012 72 10000 4.98 300 21:47 16.03.2021
5266 Clear 11 1012 71 10000 4.26 291 21:29 16.03.2021
5267 Clear 11 1012 72 10000 4.26 291 20:58 16.03.2021
5268 Clear 11 1012 69 10000 3.25 281 20:20 16.03.2021
5269 Clear 11 1012 70 10000 3.25 281 19:58 16.03.2021
5270 Clear 12 1011 71 10000 3.25 281 19:40 16.03.2021
5271 Clouds 12 1011 69 10000 0.45 332 19:20 16.03.2021
5272 Clouds 13 1013 62 10000 4.63 320 18:40 16.03.2021
5273 Clouds 13 1013 62 10000 3.6 320 18:21 16.03.2021
5274 Clouds 14 1012 63 10000 3.09 290 17:47 16.03.2021
5275 Clouds 14 1012 63 10000 3.09 290 17:29 16.03.2021
5276 Clouds 15 1012 67 10000 2.57 290 16:52 16.03.2021
5277 Clouds 15 1012 63 10000 2.57 320 16:28 16.03.2021
5278 Clouds 15 1012 63 10000 3.09 320 15:47 16.03.2021
5279 Clouds 15 1012 63 10000 3.09 330 15:21 16.03.2021
5280 Clouds 15 1012 63 10000 3.6 360 14:58 16.03.2021
5281 Clouds 15 1012 63 10000 3.6 360 14:40 16.03.2021
5282 Clouds 15 1012 58 10000 3.6 340 14:20 16.03.2021
5283 Clouds 15 1012 63 10000 5.14 330 13:49 16.03.2021
5284 Clouds 15 1009 64 10000 0.45 346 13:26 16.03.2021
5285 Clouds 15 1009 55 10000 1.34 342 12:51 16.03.2021
5286 Clouds 15 1012 58 10000 5.66 360 12:33 16.03.2021
5287 Clouds 14 1009 59 10000 2.68 341 11:53 16.03.2021
5288 Clouds 12 1012 47 10000 4.63 350 11:24 16.03.2021
5289 Clouds 13 1012 51 10000 7.2 330 10:28 16.03.2021
5290 Clouds 14 1009 75 10000 0.89 356 09:59 16.03.2021
5291 Clouds 14 1009 71 10000 0.45 358 09:38 16.03.2021
5292 Clouds 13 1009 85 10000 0.45 55 09:18 16.03.2021
5293 Clouds 13 1009 95 10000 0.89 303 08:48 16.03.2021
5294 Clouds 12 1008 98 10000 0.89 343 08:30 16.03.2021
5295 Rain 10 1008 92 10000 3.96 283 07:36 16.03.2021
5296 Clouds 11 1008 92 10000 1.34 12 06:57 16.03.2021
5297 Clouds 11 1007 96 10000 4.61 296 06:35 16.03.2021
5298 Clouds 10 1007 99 9644 4.11 269 05:35 16.03.2021
5299 Clouds 10 1008 92 10000 1.34 357 02:46 16.03.2021
5300 Clouds 11 1008 80 10000 0.45 313 02:24 16.03.2021
5301 Clouds 12 1009 83 10000 0.45 300 00:25 16.03.2021
5302 Clouds 12 1009 83 10000 0.45 3 00:25 16.03.2021
5303 Clouds 12 1009 87 10000 5.51 271 23:29 15.03.2021
5304 Clouds 11 1010 93 10000 5.51 271 22:57 15.03.2021
5305 Clouds 11 1010 91 10000 5.51 271 22:38 15.03.2021
5306 Clouds 11 1010 88 10000 6.11 269 22:20 15.03.2021
5307 Clouds 12 1010 69 10000 6.12 269 21:44 15.03.2021
5308 Clouds 13 1014 62 10000 6.17 250 21:26 15.03.2021
5309 Clouds 13 1014 62 10000 6.69 250 20:45 15.03.2021
5310 Clouds 13 1014 62 10000 8.23 250 20:26 15.03.2021
5311 Clouds 13 1014 62 10000 7.2 250 19:57 15.03.2021
5312 Clouds 13 1014 62 10000 7.2 250 19:38 15.03.2021
5313 Clouds 13 1014 58 10000 7.72 250 19:19 15.03.2021
5314 Clouds 13 1014 58 10000 8.23 260 18:40 15.03.2021
5315 Clouds 13 1014 54 10000 8.75 260 18:22 15.03.2021
5316 Clouds 14 1014 62 10000 7.2 280 17:43 15.03.2021
5317 Clouds 14 1014 62 10000 7.2 290 17:22 15.03.2021
5318 Clouds 14 1014 58 10000 8.23 280 16:43 15.03.2021
5319 Clouds 15 1014 62 10000 8.23 290 15:56 15.03.2021
5320 Clouds 14 1014 62 10000 7.72 290 15:28 15.03.2021
5321 Clouds 15 1015 62 10000 8.23 300 14:55 15.03.2021
5322 Clouds 15 1015 62 10000 8.23 300 14:36 15.03.2021
5323 Clouds 15 1015 58 10000 8.75 290 14:18 15.03.2021
5324 Clouds 15 1015 58 10000 8.75 310 13:41 15.03.2021
5325 Clouds 16 1015 47 10000 7.72 310 13:23 15.03.2021
5326 Clouds 16 1015 55 10000 8.23 310 12:45 15.03.2021
5327 Clouds 15 1016 58 10000 8.23 300 12:18 15.03.2021
5328 Clouds 15 1016 58 10000 9.26 310 11:41 15.03.2021
5329 Clouds 15 1016 62 10000 8.23 310 11:21 15.03.2021
5330 Clouds 15 1015 62 10000 8.23 300 10:43 15.03.2021
5331 Clouds 14 1015 58 10000 8.23 310 10:24 15.03.2021
5332 Clear 13 1013 59 10000 8.75 303 09:44 15.03.2021
5333 Clear 13 1013 60 10000 0.89 355 09:22 15.03.2021
5334 Clear 13 1012 61 10000 0.89 359 08:45 15.03.2021
5335 Clouds 14 1014 58 10000 9.26 300 08:25 15.03.2021
5336 Clear 12 1011 66 10000 0.45 4 07:42 15.03.2021
5337 Clouds 12 1014 62 10000 9.77 300 07:22 15.03.2021
5338 Clouds 13 1014 62 10000 9.77 310 05:42 15.03.2021
5339 Clear 12 1011 65 10000 8.2 295 03:21 15.03.2021
5340 Clouds 12 1011 65 10000 1.34 310 00:42 15.03.2021
5341 Clouds 12 1011 80 10000 0.45 347 23:24 14.03.2021
5342 Clouds 11 1011 88 10000 8.38 299 22:57 14.03.2021
5343 Clouds 11 1011 99 10000 8.38 299 22:37 14.03.2021
5344 Clouds 10 1010 99 10000 6.37 302 22:18 14.03.2021
5345 Clouds 10 1010 99 10000 6.37 302 22:18 14.03.2021
5346 Clouds 11 1012 95 10000 1.34 35 21:38 14.03.2021
5347 Clouds 12 1012 88 10000 2.68 28 21:18 14.03.2021
5348 Clouds 15 1014 72 10000 11.83 270 20:41 14.03.2021
5349 Clouds 15 1014 77 10000 9.77 260 20:23 14.03.2021
5350 Clouds 15 1014 77 10000 10.29 260 19:42 14.03.2021
5351 Clouds 15 1014 77 10000 9.26 260 19:19 14.03.2021
5352 Clouds 15 1014 77 10000 8.75 270 18:41 14.03.2021
5353 Clouds 13 1015 72 10000 8.23 270 17:56 14.03.2021
5354 Clouds 13 1015 72 10000 8.23 270 17:37 14.03.2021
5355 Clouds 15 1015 67 10000 7.2 280 17:19 14.03.2021
5356 Clouds 15 1015 72 10000 6.69 280 16:41 14.03.2021
5357 Clouds 16 1016 72 10000 6.69 280 16:21 14.03.2021
5358 Clouds 16 1015 67 10000 6.17 280 15:48 14.03.2021
5359 Clear 15 1016 67 10000 6.69 270 14:59 14.03.2021
5360 Clear 15 1016 67 10000 6.69 270 14:40 14.03.2021
5361 Clear 17 1016 72 10000 6.69 270 14:20 14.03.2021
5362 Clear 15 1016 63 10000 6.17 270 13:43 14.03.2021
5363 Clear 17 1016 67 10000 7.2 270 13:24 14.03.2021
5364 Clear 17 1016 67 10000 8.23 270 12:42 14.03.2021
5365 Clouds 16 1016 67 10000 8.75 280 12:23 14.03.2021
5366 Clouds 16 1017 67 10000 6.17 270 11:41 14.03.2021
5367 Clear 14 1017 67 10000 4.63 230 11:22 14.03.2021
5368 Clear 16 1017 63 10000 5.14 220 10:38 14.03.2021
5369 Clear 16 1017 72 10000 4.12 230 10:20 14.03.2021
5370 Clear 13 1017 67 10000 3.6 210 09:59 14.03.2021
5371 Clear 13 1017 67 10000 3.6 210 09:40 14.03.2021
5372 Clear 15 1017 72 10000 3.6 210 09:20 14.03.2021
5373 Clear 15 1014 88 10000 2.96 249 08:39 14.03.2021
5374 Clear 13 1014 92 10000 2.66 234 07:58 14.03.2021
5375 Clear 12 1014 94 10000 2.43 229 07:28 14.03.2021
5376 Clear 11 1014 94 10000 2.09 226 05:38 14.03.2021
5377 Clouds 12 1015 91 10000 1.97 267 01:29 14.03.2021
5378 Clouds 13 1015 89 10000 1.46 264 00:42 14.03.2021
5379 Clouds 13 1015 88 10000 1.48 236 00:18 14.03.2021
5380 Clouds 13 1015 87 10000 1.48 236 23:42 13.03.2021
5381 Clouds 14 1016 87 10000 1.55 208 23:19 13.03.2021
5382 Clouds 14 1016 90 10000 1.55 208 22:47 13.03.2021
5383 Clouds 14 1016 90 10000 1.37 208 22:23 13.03.2021
5384 Clouds 14 1016 88 10000 1.37 208 21:36 13.03.2021
5385 Clouds 15 1016 89 10000 0.67 233 21:18 13.03.2021
5386 Clouds 14 1016 89 10000 0.67 233 20:46 13.03.2021
5387 Clear 14 1016 89 10000 0.48 195 20:25 13.03.2021
5388 Clear 15 1015 87 10000 0.48 195 19:45 13.03.2021
5389 Clouds 15 1015 87 10000 0.26 152 19:24 13.03.2021
5390 Clouds 15 1015 79 10000 0.48 102 18:43 13.03.2021
5391 Clouds 15 1015 77 10000 0.77 358 18:20 13.03.2021
5392 Clouds 16 1015 73 10000 0.77 358 17:51 13.03.2021
5393 Clouds 16 1018 82 10000 4.63 310 17:32 13.03.2021
5394 Clouds 17 1015 64 10000 1.57 332 16:57 13.03.2021
5395 Clouds 16 1018 82 10000 5.14 300 16:38 13.03.2021
5396 Clouds 17 1018 77 10000 5.14 290 15:57 13.03.2021
5397 Clouds 18 1018 67 10000 4.12 290 15:21 13.03.2021
5398 Clouds 18 1018 63 10000 3.09 310 14:42 13.03.2021
5399 Clear 16 1018 59 10000 2.57 250 14:23 13.03.2021
5400 Clear 16 1018 59 10000 2.57 250 14:23 13.03.2021
5401 Clear 17 1019 55 10000 3.09 250 13:30 13.03.2021
5402 Clear 16 1019 51 10000 3.09 220 12:56 13.03.2021
5403 Clouds 18 1016 52 10000 2.4 283 12:38 13.03.2021
5404 Clouds 18 1016 53 10000 0.89 346 11:58 13.03.2021
5405 Clouds 18 1016 47 10000 3.3 271 11:39 13.03.2021
5406 Clouds 18 1016 46 10000 3.44 269 11:21 13.03.2021
5407 Clouds 18 1016 47 10000 3.44 269 10:46 13.03.2021
5408 Clouds 18 1016 47 10000 2.8 249 10:24 13.03.2021
5409 Clouds 17 1016 51 10000 2.8 249 09:34 13.03.2021
5410 Clouds 16 1016 56 10000 2.66 211 08:58 13.03.2021
5411 Clouds 15 1016 58 10000 2.65 211 08:38 13.03.2021
5412 Clouds 15 1016 64 10000 3.14 206 08:18 13.03.2021
5413 Clouds 14 1015 69 10000 3.14 206 07:39 13.03.2021
5414 Clouds 13 1015 65 10000 3.51 210 05:31 13.03.2021
5415 Clouds 12 1014 62 10000 4.27 213 02:42 13.03.2021
5416 Clouds 13 1016 62 10000 3.73 207 00:44 13.03.2021
5417 Clouds 13 1016 63 10000 3.56 204 23:49 12.03.2021
5418 Clouds 13 1016 63 10000 3.56 204 23:30 12.03.2021
5419 Clouds 13 1016 60 10000 2.82 204 22:42 12.03.2021
5420 Clouds 13 1017 59 10000 2.71 196 22:22 12.03.2021
5421 Clouds 14 1017 58 10000 2.71 196 21:42 12.03.2021
5422 Clouds 13 1017 58 10000 2.77 193 21:21 12.03.2021
5423 Clear 14 1019 51 10000 4.12 180 20:55 12.03.2021
5424 Clear 14 1019 54 10000 4.63 180 20:32 12.03.2021
5425 Clear 14 1019 58 10000 5.14 180 19:55 12.03.2021
5426 Clear 11 1019 58 10000 5.14 180 19:35 12.03.2021
5427 Clear 14 1018 58 10000 7.2 200 18:55 12.03.2021
5428 Clear 14 1018 58 10000 7.2 200 18:34 12.03.2021
5429 Clouds 15 1019 55 10000 8.23 200 17:49 12.03.2021
5430 Clouds 14 1019 55 10000 8.23 210 17:30 12.03.2021
5431 Clouds 16 1019 51 10000 8.75 210 16:55 12.03.2021
5432 Clouds 16 1019 51 10000 8.75 210 16:34 12.03.2021
5433 Clear 17 1019 52 10000 8.75 210 15:51 12.03.2021
5434 Clear 18 1020 52 10000 8.75 210 15:25 12.03.2021
5435 Clouds 18 1020 48 10000 9.26 200 14:47 12.03.2021
5436 Clouds 18 1020 52 10000 8.75 220 14:20 12.03.2021
5437 Clouds 18 1021 55 10000 8.75 220 13:42 12.03.2021
5438 Clear 17 1018 56 10000 2.38 253 13:21 12.03.2021
5439 Clear 17 1021 52 10000 7.2 210 12:56 12.03.2021
5440 Clear 17 1018 57 10000 1.34 345 12:36 12.03.2021
5441 Clear 17 1018 57 10000 1.34 50 12:18 12.03.2021
5442 Clear 17 1018 56 10000 0.45 10 11:47 12.03.2021
5443 Clear 15 1022 59 10000 7.72 200 11:20 12.03.2021
5444 Clear 17 1019 58 10000 1.54 229 10:48 12.03.2021
5445 Clouds 16 1022 58 10000 6.17 200 10:23 12.03.2021
5446 Clear 15 1020 65 10000 1.42 220 09:49 12.03.2021
5447 Clear 15 1020 69 10000 1.64 203 09:19 12.03.2021
5448 Clear 13 1020 75 10000 1.64 203 08:43 12.03.2021
5449 Clear 11 1020 79 10000 2.04 203 07:54 12.03.2021
5450 Clear 11 1020 80 10000 2.04 203 07:31 12.03.2021
5451 Clear 10 1020 80 10000 2.15 210 06:45 12.03.2021
5452 Clear 9 1020 78 10000 2.33 216 05:56 12.03.2021
5453 Clear 9 1021 77 10000 2.97 219 01:42 12.03.2021
5454 Clear 10 1022 73 10000 2.59 203 23:59 11.03.2021
5455 Clear 10 1022 72 10000 1.98 202 23:19 11.03.2021
5456 Clear 10 1023 71 10000 1.98 202 22:41 11.03.2021
5457 Clear 10 1023 70 10000 1.25 213 22:21 11.03.2021
5458 Clear 11 1023 68 10000 1.25 213 21:46 11.03.2021
5459 Clear 11 1023 67 10000 1.06 243 21:26 11.03.2021
5460 Clear 11 1023 65 10000 1.06 243 20:49 11.03.2021
5461 Clear 11 1023 63 10000 1.25 269 20:23 11.03.2021
5462 Clear 9 1025 62 10000 2.06 160 19:57 11.03.2021
5463 Clear 9 1025 62 10000 2.06 160 19:38 11.03.2021
5464 Clear 10 1025 58 10000 1.03 0 18:55 11.03.2021
5465 Clear 12 1025 58 10000 1.03 0 18:35 11.03.2021
5466 Clear 13 1025 55 10000 0.51 0 17:57 11.03.2021
5467 Clear 13 1025 55 10000 0.51 0 17:39 11.03.2021
5468 Clouds 15 1025 55 10000 1.03 0 16:43 11.03.2021
5469 Clear 15 1025 55 10000 1.54 360 16:24 11.03.2021
5470 Clear 16 1025 51 10000 2.06 20 15:44 11.03.2021
5471 Clear 16 1025 55 10000 2.57 40 15:21 11.03.2021
5472 Clear 16 1025 63 10000 3.09 30 14:45 11.03.2021
5473 Clear 16 1025 63 10000 3.09 30 14:45 11.03.2021
5474 Clear 16 1025 63 10000 3.6 30 14:19 11.03.2021
5475 Clouds 16 1025 58 10000 3.09 30 13:46 11.03.2021
5476 Clouds 16 1025 58 10000 2.57 20 13:24 11.03.2021
5477 Clouds 16 1022 59 10000 3.39 342 12:57 11.03.2021
5478 Clouds 16 1022 60 10000 3.44 340 12:36 11.03.2021
5479 Clouds 16 1025 58 10000 2.57 360 12:18 11.03.2021
5480 Clouds 16 1025 58 10000 3.6 360 11:42 11.03.2021
5481 Clouds 15 1025 58 10000 4.63 340 11:20 11.03.2021
5482 Clouds 15 1025 58 10000 5.66 350 10:28 11.03.2021
5483 Clouds 14 1024 62 10000 5.66 340 09:54 11.03.2021
5484 Clouds 14 1024 62 10000 5.66 340 09:34 11.03.2021
5485 Clouds 14 1021 68 10000 3.25 337 08:59 11.03.2021
5486 Clouds 13 1021 68 10000 3.25 337 08:41 11.03.2021
5487 Clouds 13 1020 67 10000 0.45 334 08:18 11.03.2021
5488 Clouds 11 1020 70 10000 2.83 0 07:22 11.03.2021
5489 Clouds 11 1019 71 10000 2.83 0 06:49 11.03.2021
5490 Clouds 12 1019 73 10000 2.98 352 06:24 11.03.2021
5491 Clouds 12 1017 77 10000 4.08 332 02:49 11.03.2021
5492 Clouds 12 1017 74 10000 3.63 325 00:49 11.03.2021
5493 Clouds 11 1017 77 10000 4.3 306 23:27 10.03.2021
5494 Clouds 11 1016 76 10000 4.3 306 22:47 10.03.2021
5495 Clouds 11 1016 76 10000 4.16 306 22:28 10.03.2021
5496 Clouds 11 1016 76 10000 4.16 306 22:26 10.03.2021
5497 Clouds 11 1016 77 10000 4.16 306 21:45 10.03.2021
5498 Clouds 12 1018 62 10000 5.66 300 21:23 10.03.2021
5499 Clouds 13 1018 67 10000 6.17 320 20:46 10.03.2021
5500 Clouds 13 1018 62 10000 6.17 320 20:28 10.03.2021
5501 Clouds 13 1017 62 10000 6.17 330 19:50 10.03.2021
5502 Clouds 13 1017 62 10000 6.17 330 19:50 10.03.2021
5503 Clouds 13 1017 62 10000 5.66 330 19:28 10.03.2021
5504 Clouds 13 1017 62 10000 6.17 330 18:47 10.03.2021
5505 Clouds 13 1014 72 10000 0.45 316 18:24 10.03.2021
5506 Clouds 14 1016 67 10000 1.54 350 17:57 10.03.2021
5507 Clouds 13 1013 72 10000 3.29 314 17:37 10.03.2021
5508 Clouds 13 1013 70 10000 4.79 314 17:19 10.03.2021
5509 Clouds 14 1016 67 10000 1.54 80 16:44 10.03.2021
5510 Clouds 14 1016 72 10000 3.09 360 16:24 10.03.2021
5511 Clouds 14 1016 72 10000 5.66 350 15:47 10.03.2021
5512 Clouds 14 1015 72 10000 8.23 360 15:23 10.03.2021
5513 Clouds 14 1015 63 10000 5.66 320 14:56 10.03.2021
5514 Clouds 14 1015 67 10000 4.63 320 14:20 10.03.2021
5515 Clouds 14 1015 67 10000 4.63 320 14:20 10.03.2021
5516 Clouds 11 1015 77 10000 3.6 300 13:52 10.03.2021
5517 Clouds 12 1015 72 10000 2.57 240 13:30 10.03.2021
5518 Clouds 13 1012 81 10000 4.44 295 12:46 10.03.2021
5519 Clouds 13 1015 77 10000 5.14 290 12:21 10.03.2021
5520 Clouds 14 1015 77 10000 6.17 260 11:44 10.03.2021
5521 Clouds 15 1012 73 10000 3.92 280 11:21 10.03.2021
5522 Clouds 15 1012 76 10000 3.91 280 10:49 10.03.2021
5523 Clouds 15 1012 77 10000 3.91 280 10:30 10.03.2021
5524 Clouds 14 1012 82 10000 3.7 277 09:52 10.03.2021
5525 Clouds 14 1012 82 10000 3.7 277 09:32 10.03.2021
5526 Clouds 14 1011 83 10000 3.76 269 08:58 10.03.2021
5527 Clouds 13 1011 87 10000 3.77 269 08:40 10.03.2021
5528 Clouds 13 1011 88 10000 4 264 08:21 10.03.2021
5529 Clouds 13 1011 88 10000 4 264 07:41 10.03.2021
5530 Clouds 13 1010 88 10000 3.61 278 07:19 10.03.2021
5531 Clouds 13 1010 92 10000 3.61 278 06:46 10.03.2021
5532 Clouds 14 1009 80 10000 0.45 329 02:42 10.03.2021
5533 Clouds 14 1012 77 10000 7.2 200 23:59 09.03.2021
5534 Clouds 14 1012 82 10000 7.72 200 23:27 09.03.2021
5535 Clouds 14 1009 99 10000 0.89 288 22:49 09.03.2021
5536 Clouds 14 1009 99 10000 0.45 304 22:28 09.03.2021
5537 Clouds 14 1009 99 10000 4.47 206 21:57 09.03.2021
5538 Clouds 13 1009 99 10000 4.46 206 21:37 09.03.2021
5539 Clouds 14 1009 99 10000 3.94 208 21:18 09.03.2021
5540 Clouds 13 1009 99 10000 3.94 208 20:43 09.03.2021
5541 Clouds 13 1009 99 10000 3.94 208 20:43 09.03.2021
5542 Rain 13 1009 99 10000 3.58 195 20:22 09.03.2021
5543 Clouds 13 1009 99 10000 3.58 195 19:56 09.03.2021
5544 Rain 13 1010 99 10000 3.64 193 19:29 09.03.2021
5545 Clouds 14 1009 87 10000 0.45 357 18:54 09.03.2021
5546 Clouds 15 1011 77 10000 6.17 200 18:29 09.03.2021
5547 Clouds 14 1011 77 6000 6.17 200 17:57 09.03.2021
5548 Clouds 15 1011 77 6000 6.17 200 17:35 09.03.2021
5549 Clouds 16 1011 63 10000 8.23 210 16:57 09.03.2021
5550 Clouds 16 1011 63 10000 8.23 210 16:39 09.03.2021
5551 Clouds 17 1011 59 10000 6.69 200 16:19 09.03.2021
5552 Clouds 18 1011 52 10000 6.69 210 15:44 09.03.2021
5553 Clouds 16 1011 55 10000 7.2 210 15:23 09.03.2021
5554 Clouds 18 1011 59 10000 7.72 220 14:40 09.03.2021
5555 Clouds 18 1012 59 10000 7.72 220 14:22 09.03.2021
5556 Clouds 16 1012 59 10000 7.2 220 13:39 09.03.2021
5557 Clouds 17 1012 55 10000 6.69 210 13:20 09.03.2021
5558 Clouds 16 1012 55 10000 7.2 200 12:42 09.03.2021
5559 Clouds 16 1013 55 10000 7.2 210 12:22 09.03.2021
5560 Clouds 18 1013 55 10000 6.69 200 11:42 09.03.2021
5561 Clouds 18 1013 55 10000 6.69 200 11:42 09.03.2021
5562 Clouds 16 1013 59 10000 7.72 210 11:21 09.03.2021
5563 Clouds 16 1013 59 10000 7.72 210 11:21 09.03.2021
5564 Clouds 16 1013 59 10000 7.72 210 11:21 09.03.2021
5565 Clear 17 1013 55 10000 7.2 200 10:57 09.03.2021
5566 Clear 17 1013 55 10000 7.2 200 10:38 09.03.2021
5567 Clear 17 1013 55 10000 7.2 200 10:20 09.03.2021
5568 Clouds 16 1010 69 10000 2.45 221 09:44 09.03.2021
5569 Clear 16 1010 72 10000 2.58 215 09:26 09.03.2021
5570 Clear 15 1010 81 10000 2.58 215 08:48 09.03.2021
5571 Clear 14 1010 86 10000 2.3 194 08:28 09.03.2021
5572 Clear 12 1010 90 10000 2.3 194 07:40 09.03.2021
5573 Clear 12 1010 90 10000 2.47 187 07:21 09.03.2021
5574 Clear 11 1010 90 10000 2.16 183 06:18 09.03.2021
5575 Clear 11 1010 91 10000 2.15 183 05:46 09.03.2021
5576 Clouds 11 1011 87 10000 1.98 202 00:38 09.03.2021
5577 Clouds 12 1011 85 10000 1.93 205 23:45 08.03.2021
5578 Clouds 12 1011 85 10000 2.04 215 23:27 08.03.2021
5579 Clouds 12 1013 82 10000 3.6 210 22:55 08.03.2021
5580 Clouds 12 1013 82 10000 3.6 210 22:36 08.03.2021
5581 Clouds 12 1013 82 10000 4.12 210 22:18 08.03.2021
5582 Clouds 11 1013 76 10000 3.09 190 21:40 08.03.2021
5583 Clouds 11 1013 76 10000 2.57 190 21:20 08.03.2021
5584 Clouds 11 1013 77 10000 2.06 230 20:38 08.03.2021
5585 Clouds 11 1013 72 10000 1.54 130 20:18 08.03.2021
5586 Clouds 11 1013 72 10000 2.57 80 19:38 08.03.2021
5587 Clouds 14 1012 67 10000 4.63 70 18:48 08.03.2021
5588 Clouds 13 1012 67 10000 5.14 60 18:23 08.03.2021
5589 Clouds 15 1012 72 10000 5.14 40 17:57 08.03.2021
5590 Clouds 15 1012 72 10000 5.14 40 17:38 08.03.2021
5591 Clouds 14 1012 72 10000 6.17 60 16:58 08.03.2021
5592 Clouds 14 1012 72 10000 6.17 60 16:33 08.03.2021
5593 Clouds 14 1012 72 10000 6.17 40 15:59 08.03.2021
5594 Clouds 14 1012 72 10000 6.17 40 15:38 08.03.2021
5595 Clouds 14 1012 72 10000 5.14 40 15:18 08.03.2021
5596 Clear 15 1013 77 10000 4.63 30 14:21 08.03.2021
5597 Clear 14 1013 77 10000 4.12 30 13:48 08.03.2021
5598 Clear 14 1013 77 10000 3.09 360 13:23 08.03.2021
5599 Clear 15 1014 72 10000 1.54 360 12:56 08.03.2021
5600 Clouds 17 1010 63 10000 0.89 359 12:29 08.03.2021
5601 Clear 16 1014 72 10000 2.57 270 11:45 08.03.2021
5602 Clouds 17 1011 64 10000 0.45 353 11:22 08.03.2021
5603 Clear 16 1014 77 10000 4.12 240 10:55 08.03.2021
5604 Clear 16 1014 77 10000 4.12 240 10:37 08.03.2021
5605 Clouds 16 1011 66 10000 0.73 170 10:18 08.03.2021
5606 Clouds 15 1012 74 10000 1.82 174 09:26 08.03.2021
5607 Clouds 14 1012 85 10000 1.82 174 08:50 08.03.2021
5608 Clouds 14 1011 87 10000 1.28 164 08:23 08.03.2021
5609 Clouds 11 1012 91 10000 1.97 162 07:21 08.03.2021
5610 Clouds 10 1012 91 10000 1.04 161 05:23 08.03.2021
5611 Clouds 12 1013 89 10000 1.58 201 02:19 08.03.2021
5612 Clouds 12 1015 86 10000 2.19 187 00:42 08.03.2021
5613 Clouds 13 1015 85 10000 1.74 167 23:53 07.03.2021
5614 Clouds 13 1016 83 10000 1.82 146 23:21 07.03.2021
5615 Clouds 13 1016 81 10000 1.82 146 22:47 07.03.2021
5616 Clouds 14 1016 80 10000 1.88 130 22:27 07.03.2021
5617 Clouds 14 1016 79 10000 1.88 130 21:53 07.03.2021
5618 Clouds 14 1016 79 10000 1.88 130 21:33 07.03.2021
5619 Clouds 15 1016 79 10000 1.96 130 20:58 07.03.2021
5620 Clouds 15 1016 79 10000 1.96 130 20:58 07.03.2021
5621 Clouds 15 1016 79 10000 1.96 130 20:40 07.03.2021
5622 Clouds 15 1017 79 10000 2.15 119 20:18 07.03.2021
5623 Clouds 15 1017 78 10000 2.15 119 19:40 07.03.2021
5624 Clouds 15 1017 78 10000 2.28 114 19:22 07.03.2021
5625 Clouds 15 1017 77 10000 1.94 111 18:54 07.03.2021
5626 Clouds 15 1017 74 10000 1.98 98 18:21 07.03.2021
5627 Clouds 16 1017 72 10000 1.98 98 17:59 07.03.2021
5628 Clouds 16 1017 69 10000 1.98 98 17:39 07.03.2021
5629 Clouds 16 1017 66 10000 1.88 92 17:19 07.03.2021
5630 Clear 16 1019 67 10000 6.69 60 16:43 07.03.2021
5631 Clear 17 1019 72 10000 7.72 60 16:21 07.03.2021
5632 Clear 16 1019 67 10000 7.72 60 15:50 07.03.2021
5633 Clouds 17 1020 63 10000 7.72 60 15:31 07.03.2021
5634 Clouds 17 1020 59 10000 7.72 60 14:56 07.03.2021
5635 Clouds 18 1021 63 10000 6.69 60 14:29 07.03.2021
5636 Clouds 18 1021 63 10000 6.17 60 13:51 07.03.2021
5637 Clouds 17 1022 63 10000 5.66 60 13:29 07.03.2021
5638 Clouds 17 1022 63 10000 4.12 60 12:48 07.03.2021
5639 Clouds 17 1019 69 10000 1.34 8 12:30 07.03.2021
5640 Clouds 17 1023 72 10000 3.6 30 11:58 07.03.2021
5641 Clouds 16 1023 67 10000 2.06 30 11:23 07.03.2021
5642 Clear 17 1020 77 10000 0.45 356 10:54 07.03.2021
5643 Clear 16 1021 77 10000 0.45 2 10:36 07.03.2021
5644 Clear 16 1021 78 10000 1.34 351 09:53 07.03.2021
5645 Clear 16 1021 80 10000 0.99 153 09:27 07.03.2021
5646 Clear 15 1021 86 10000 0.99 153 08:57 07.03.2021
5647 Clear 14 1021 90 10000 0.99 153 08:38 07.03.2021
5648 Clear 13 1021 92 10000 1.52 186 08:20 07.03.2021
5649 Clear 11 1020 94 10000 0.89 178 05:26 07.03.2021
5650 Clear 11 1021 91 10000 1.06 175 02:33 07.03.2021
5651 Clear 11 1021 88 10000 1.64 178 00:34 07.03.2021
5652 Clear 12 1021 86 10000 2.05 160 23:40 06.03.2021
5653 Clear 12 1021 86 10000 2.63 145 23:20 06.03.2021
5654 Clear 13 1021 85 10000 2.63 145 22:45 06.03.2021
5655 Clear 12 1023 87 10000 1.03 0 22:21 06.03.2021
5656 Clear 13 1021 83 10000 3.12 135 21:46 06.03.2021
5657 Clear 11 1023 76 10000 1.03 190 21:20 06.03.2021
5658 Clear 11 1023 77 10000 1.03 0 20:42 06.03.2021
5659 Clear 12 1022 72 10000 2.06 270 19:59 06.03.2021
5660 Clear 12 1022 72 10000 2.06 270 19:37 06.03.2021
5661 Clear 12 1022 67 10000 1.54 100 19:18 06.03.2021
5662 Clear 13 1022 67 10000 5.14 60 18:41 06.03.2021
5663 Clear 13 1021 72 10000 6.17 60 18:20 06.03.2021
5664 Clear 16 1021 67 10000 7.72 60 17:49 06.03.2021
5665 Clear 14 1021 67 10000 7.2 60 17:30 06.03.2021
5666 Clouds 16 1021 67 10000 7.72 60 16:58 06.03.2021
5667 Clouds 16 1021 67 10000 7.72 60 16:33 06.03.2021
5668 Clouds 15 1022 67 10000 6.69 50 15:56 06.03.2021
5669 Clouds 17 1022 67 10000 6.69 50 15:38 06.03.2021
5670 Clouds 15 1021 59 10000 6.69 50 15:19 06.03.2021
5671 Clouds 17 1022 55 10000 5.66 60 14:31 06.03.2021
5672 Clouds 16 1022 59 10000 5.66 60 13:55 06.03.2021
5673 Clouds 16 1022 59 10000 5.66 60 13:37 06.03.2021
5674 Clouds 16 1022 63 10000 6.17 50 13:18 06.03.2021
5675 Clouds 15 1022 63 10000 6.17 40 12:42 06.03.2021
5676 Clouds 15 1022 72 10000 5.66 40 12:18 06.03.2021
5677 Clouds 15 1022 77 10000 5.14 30 11:38 06.03.2021
5678 Clear 15 1022 77 10000 2.57 20 11:19 06.03.2021
5679 Clouds 15 1022 72 10000 1.03 0 10:43 06.03.2021
5680 Clear 14 1022 77 10000 2.06 240 09:58 06.03.2021
5681 Clear 15 1020 79 10000 1.1 106 09:26 06.03.2021
5682 Clear 14 1020 85 10000 1.1 106 08:58 06.03.2021
5683 Clear 13 1019 89 10000 1.1 106 08:31 06.03.2021
5684 Clear 12 1019 93 10000 1.88 142 07:56 06.03.2021
5685 Clear 11 1018 94 10000 1.98 136 07:22 06.03.2021
5686 Clear 10 1018 94 10000 1.98 136 06:44 06.03.2021
5687 Clear 12 1019 82 10000 2.06 130 03:49 06.03.2021
5688 Clear 12 1019 82 10000 2.06 130 03:49 06.03.2021
5689 Clear 12 1020 71 10000 1.54 200 02:24 06.03.2021
5690 Clear 12 1020 82 10000 2.06 200 00:47 06.03.2021
5691 Clear 12 1019 76 10000 1.03 180 23:51 05.03.2021
5692 Clouds 13 1017 86 10000 2.1 150 23:24 05.03.2021
5693 Clouds 13 1019 76 10000 1.54 210 22:45 05.03.2021
5694 Clouds 13 1019 76 10000 1.03 200 22:22 05.03.2021
5695 Clouds 13 1019 76 10000 0.51 0 21:52 05.03.2021
5696 Clouds 13 1019 76 10000 0.51 0 21:33 05.03.2021
5697 Clouds 13 1019 76 10000 1.54 110 20:54 05.03.2021
5698 Clouds 12 1019 76 10000 2.06 150 20:27 05.03.2021
5699 Clouds 12 1018 67 10000 0.51 170 19:56 05.03.2021
5700 Clouds 12 1018 67 10000 3.09 80 19:26 05.03.2021
5701 Clouds 12 1018 67 10000 3.09 70 18:57 05.03.2021
5702 Clouds 12 1018 67 10000 3.09 70 18:39 05.03.2021
5703 Clouds 12 1018 62 10000 4.12 60 18:19 05.03.2021
5704 Clouds 12 1017 62 10000 4.12 60 17:36 05.03.2021
5705 Clouds 13 1017 67 10000 4.12 70 16:50 05.03.2021
5706 Clouds 13 1017 72 10000 3.6 50 16:25 05.03.2021
5707 Clouds 13 1017 67 10000 4.12 40 15:59 05.03.2021
5708 Clouds 14 1017 67 10000 4.12 40 15:40 05.03.2021
5709 Clouds 14 1017 67 10000 3.09 50 15:21 05.03.2021
5710 Clouds 15 1018 67 10000 2.57 50 14:38 05.03.2021
5711 Clouds 15 1015 72 10000 2.16 108 13:59 05.03.2021
5712 Clouds 15 1015 70 10000 2.43 109 13:22 05.03.2021
5713 Clouds 15 1015 71 10000 0.45 349 12:55 05.03.2021
5714 Clouds 15 1016 71 10000 1.34 346 11:58 05.03.2021
5715 Clouds 14 1018 71 10000 2.57 230 11:37 05.03.2021
5716 Clouds 15 1019 62 10000 2.06 250 11:18 05.03.2021
5717 Clouds 15 1016 70 10000 1.34 355 10:41 05.03.2021
5718 Clouds 14 1016 73 10000 1.62 116 10:23 05.03.2021
5719 Clouds 13 1016 78 10000 1.63 116 09:49 05.03.2021
5720 Clouds 12 1016 79 10000 1.49 153 09:27 05.03.2021
5721 Clouds 11 1016 81 10000 1.49 153 08:43 05.03.2021
5722 Clouds 11 1016 81 10000 1.21 166 08:24 05.03.2021
5723 Clouds 11 1016 81 10000 1.21 167 07:44 05.03.2021
5724 Clouds 10 1016 82 10000 1.02 211 07:24 05.03.2021
5725 Clouds 11 1016 83 10000 1.03 211 06:32 05.03.2021
5726 Clouds 11 1018 81 10000 1.52 207 02:51 05.03.2021
5727 Clouds 11 1018 84 10000 1.38 177 00:46 05.03.2021
5728 Clouds 11 1019 84 10000 1.18 154 23:37 04.03.2021
5729 Clouds 12 1019 85 10000 1.36 137 22:47 04.03.2021
5730 Clouds 12 1019 85 10000 1.33 131 22:25 04.03.2021
5731 Clouds 13 1019 84 10000 1.33 131 21:47 04.03.2021
5732 Clouds 13 1019 84 10000 1.22 148 21:28 04.03.2021
5733 Clouds 13 1019 81 10000 1.22 148 20:41 04.03.2021
5734 Clouds 14 1022 72 10000 2.06 200 20:22 04.03.2021
5735 Clouds 14 1022 72 10000 3.09 200 19:57 04.03.2021
5736 Clouds 14 1020 81 10000 1.6 139 19:38 04.03.2021
5737 Clouds 14 1020 81 10000 2.39 130 19:18 04.03.2021
5738 Clouds 14 1020 80 10000 2.39 130 18:38 04.03.2021
5739 Clouds 14 1019 80 10000 2.23 115 18:20 04.03.2021
5740 Clouds 14 1019 77 10000 2.24 115 17:43 04.03.2021
5741 Clouds 14 1020 76 10000 1.92 103 17:22 04.03.2021
5742 Clouds 15 1020 74 10000 1.92 103 16:44 04.03.2021
5743 Clouds 15 1020 72 10000 1.82 94 16:24 04.03.2021
5744 Clouds 15 1020 71 10000 1.81 94 15:49 04.03.2021
5745 Clouds 16 1020 70 10000 1.81 94 15:31 04.03.2021
5746 Clouds 16 1021 69 10000 0.45 352 14:46 04.03.2021
5747 Clouds 15 1021 69 10000 1.85 79 14:25 04.03.2021
5748 Clouds 16 1021 68 10000 1.85 79 13:46 04.03.2021
5749 Clouds 15 1022 69 10000 1.67 72 13:25 04.03.2021
5750 Clouds 15 1022 65 10000 1.54 70 12:45 04.03.2021
5751 Clear 16 1022 60 10000 1.51 73 12:25 04.03.2021
5752 Clear 16 1023 56 10000 1.51 73 11:43 04.03.2021
5753 Clear 17 1023 55 10000 1.28 86 11:22 04.03.2021
5754 Clear 16 1023 59 10000 0.45 318 10:46 04.03.2021
5755 Clear 16 1024 61 10000 1.23 109 10:25 04.03.2021
5756 Clear 14 1024 65 10000 1.22 109 09:37 04.03.2021
5757 Clear 13 1024 73 10000 1.22 141 08:59 04.03.2021
5758 Clear 12 1024 78 10000 1.22 141 08:34 04.03.2021
5759 Clear 11 1025 85 10000 1.64 175 07:51 04.03.2021
5760 Clouds 9 1025 86 10000 1.69 174 07:21 04.03.2021
5761 Clouds 9 1025 85 10000 1.51 168 06:24 04.03.2021
5762 Clouds 9 1025 82 10000 0.99 191 02:49 04.03.2021
5763 Clouds 10 1026 79 10000 1.33 209 01:40 04.03.2021
5764 Clouds 11 1027 79 10000 1.73 162 22:44 03.03.2021
5765 Clouds 11 1027 78 10000 1.99 137 22:26 03.03.2021
5766 Clouds 12 1027 80 10000 1.99 137 21:43 03.03.2021
5767 Clouds 12 1027 81 10000 2.25 125 21:24 03.03.2021
5768 Clouds 12 1027 82 10000 2.25 125 20:59 03.03.2021
5769 Clouds 12 1027 82 10000 2.25 125 20:41 03.03.2021
5770 Clouds 12 1027 80 10000 2.37 114 19:59 03.03.2021
5771 Clear 10 1029 58 10000 4.12 70 19:40 03.03.2021
5772 Clouds 13 1027 78 10000 2.19 97 19:21 03.03.2021
5773 Clear 12 1028 63 10000 6.17 70 18:47 03.03.2021
5774 Clouds 14 1027 75 10000 2.09 88 18:25 03.03.2021
5775 Clear 15 1029 67 10000 7.2 60 17:50 03.03.2021
5776 Clear 15 1029 67 10000 7.2 60 17:19 03.03.2021
5777 Clear 15 1029 67 10000 7.2 50 16:44 03.03.2021
5778 Clear 16 1029 67 10000 7.2 50 16:24 03.03.2021
5779 Clouds 16 1030 63 10000 5.66 50 15:35 03.03.2021
5780 Clouds 16 1030 67 10000 4.63 30 14:59 03.03.2021
5781 Clouds 16 1030 67 10000 4.63 30 14:30 03.03.2021
5782 Clear 16 1031 67 10000 4.12 30 13:53 03.03.2021
5783 Clear 16 1031 67 10000 4.12 30 13:33 03.03.2021
5784 Clear 16 1031 72 10000 4.12 30 12:58 03.03.2021
5785 Clear 16 1031 72 10000 4.12 30 12:39 03.03.2021
5786 Clear 16 1032 77 10000 3.6 30 12:19 03.03.2021
5787 Clear 16 1032 72 10000 3.09 20 11:42 03.03.2021
5788 Clear 16 1032 77 10000 2.57 360 11:21 03.03.2021
5789 Clear 16 1029 73 10000 1.6 54 10:41 03.03.2021
5790 Clear 15 1030 75 10000 1.17 51 10:19 03.03.2021
5791 Clear 14 1030 81 10000 1.17 51 09:40 03.03.2021
5792 Clear 13 1029 88 10000 0.61 76 08:46 03.03.2021
5793 Clear 12 1029 90 10000 0.65 161 08:23 03.03.2021
5794 Clear 11 1029 93 10000 0.65 161 07:52 03.03.2021
5795 Clear 10 1029 93 10000 0.88 170 06:52 03.03.2021
5796 Clear 10 1029 92 10000 0.74 164 06:18 03.03.2021
5797 Clear 10 1028 92 10000 0.62 183 05:29 03.03.2021
5798 Clear 10 1028 92 10000 0.62 183 04:35 03.03.2021
5799 Clear 10 1028 93 10000 0.67 193 03:52 03.03.2021
5800 Clear 11 1029 91 10000 1.63 161 00:18 03.03.2021
5801 Clear 11 1029 91 10000 1.63 161 23:32 02.03.2021
5802 Clear 12 1029 90 10000 1.89 154 22:44 02.03.2021
5803 Clear 12 1029 89 10000 2.18 147 22:21 02.03.2021
5804 Clear 12 1028 88 10000 2.18 147 21:43 02.03.2021
5805 Clear 12 1028 88 10000 2.29 136 21:23 02.03.2021
5806 Clear 12 1030 67 10000 0.51 0 20:54 02.03.2021
5807 Clear 12 1030 67 10000 0.51 0 20:36 02.03.2021
5808 Clear 12 1030 71 10000 1.03 0 20:18 02.03.2021
5809 Clear 13 1029 71 10000 3.09 100 19:42 02.03.2021
5810 Clear 13 1029 72 10000 5.14 60 19:23 02.03.2021
5811 Clear 13 1029 72 10000 5.66 60 18:41 02.03.2021
5812 Clear 12 1029 77 10000 6.69 60 18:21 02.03.2021
5813 Clear 15 1029 72 10000 7.2 60 17:50 02.03.2021
5814 Clear 13 1029 77 10000 7.72 60 17:31 02.03.2021
5815 Clear 15 1029 77 10000 7.72 50 16:58 02.03.2021
5816 Clear 14 1029 77 10000 7.72 50 16:36 02.03.2021
5817 Clouds 14 1031 72 10000 1.79 135 15:52 02.03.2021
5818 Clear 16 1029 67 10000 8.75 60 15:25 02.03.2021
5819 Clear 17 1029 72 10000 7.72 50 14:29 02.03.2021
5820 Clear 15 1029 63 10000 7.2 50 13:59 02.03.2021
5821 Clouds 17 1027 67 10000 2.94 47 13:39 02.03.2021
5822 Clear 17 1027 68 10000 2.24 46 13:21 02.03.2021
5823 Clear 16 1030 67 10000 7.2 50 12:43 02.03.2021
5824 Clear 16 1030 67 10000 5.66 50 12:24 02.03.2021
5825 Clear 16 1028 71 10000 2.12 56 11:41 02.03.2021
5826 Clear 16 1028 71 10000 1.54 70 11:20 02.03.2021
5827 Clear 16 1028 75 10000 1.54 70 10:43 02.03.2021
5828 Clear 15 1028 77 10000 1.5 86 10:24 02.03.2021
5829 Clear 15 1028 82 10000 1.5 86 09:41 02.03.2021
5830 Clear 14 1028 84 10000 1.32 100 09:21 02.03.2021
5831 Clear 12 1027 89 10000 1.32 100 08:40 02.03.2021
5832 Clear 12 1027 91 10000 1.21 129 08:22 02.03.2021
5833 Clear 11 1029 76 10000 1.54 140 07:40 02.03.2021
5834 Clear 10 1026 94 10000 1.36 144 06:36 02.03.2021
5835 Clear 10 1026 95 10000 1.34 145 05:46 02.03.2021
5836 Clear 10 1026 95 10000 1.34 145 05:46 02.03.2021
5837 Clear 10 1026 94 10000 1.36 149 05:28 02.03.2021
5838 Clear 11 1026 93 10000 1.66 148 01:46 02.03.2021
5839 Clear 10 1026 92 10000 1.9 140 01:28 02.03.2021
5840 Clear 11 1026 91 10000 1.9 140 00:52 02.03.2021
5841 Clear 11 1026 91 10000 2.05 110 23:29 01.03.2021
5842 Clear 12 1026 91 10000 2.07 110 22:43 01.03.2021
5843 Clear 12 1026 90 10000 2.24 102 22:23 01.03.2021
5844 Clear 12 1026 90 10000 2.24 102 21:51 01.03.2021
5845 Clear 12 1026 90 10000 2.17 97 21:24 01.03.2021
5846 Clear 12 1025 89 10000 2.15 97 20:49 01.03.2021
5847 Clear 12 1025 88 10000 1.91 98 20:28 01.03.2021
5848 Clear 12 1025 88 10000 1.91 98 19:56 01.03.2021
5849 Clear 13 1026 62 10000 2.06 100 19:34 01.03.2021
5850 Clear 14 1026 63 10000 7.2 70 18:59 01.03.2021
5851 Clouds 14 1025 85 10000 2.38 88 18:36 01.03.2021
5852 Clouds 14 1025 84 10000 2.36 87 18:18 01.03.2021
5853 Clouds 15 1026 72 9000 7.2 60 17:41 01.03.2021
5854 Clouds 15 1026 67 8000 5.14 50 17:19 01.03.2021
5855 Clouds 14 1026 67 8000 7.2 60 16:44 01.03.2021
5856 Clouds 16 1026 72 8000 6.69 60 16:26 01.03.2021
5857 Clouds 16 1026 72 10000 7.2 60 15:42 01.03.2021
5858 Clouds 16 1026 67 10000 7.72 70 15:21 01.03.2021
5859 Clouds 16 1026 72 10000 7.72 60 14:49 01.03.2021
5860 Clouds 16 1027 72 10000 6.69 60 14:30 01.03.2021
5861 Clouds 16 1027 72 10000 5.66 60 13:43 01.03.2021
5862 Clouds 17 1027 72 10000 5.14 40 13:25 01.03.2021
5863 Clouds 16 1027 72 10000 5.14 40 13:24 01.03.2021
5864 Clouds 16 1028 72 10000 4.63 40 12:58 01.03.2021
5865 Clouds 16 1028 72 10000 4.63 40 12:38 01.03.2021
5866 Clouds 16 1028 72 10000 4.63 40 12:19 01.03.2021
5867 Clear 16 1028 72 10000 3.09 30 11:42 01.03.2021
5868 Clear 15 1025 77 10000 1.33 56 10:45 01.03.2021
5869 Clear 15 1025 77 10000 1.33 56 10:45 01.03.2021
5870 Clear 15 1025 76 10000 1.31 72 10:23 01.03.2021
5871 Clear 15 1025 81 10000 1.31 72 09:59 01.03.2021
5872 Clear 15 1025 83 10000 1.31 72 09:40 01.03.2021
5873 Clear 14 1025 86 10000 0.92 105 09:21 01.03.2021
5874 Clear 14 1025 92 10000 0.92 105 08:51 01.03.2021
5875 Clear 12 1025 95 10000 1.15 167 08:20 01.03.2021
5876 Clear 10 1024 95 10000 0.63 174 06:53 01.03.2021
5877 Clear 11 1024 91 10000 1.02 207 04:45 01.03.2021
5878 Clouds 11 1026 76 10000 4.63 220 00:56 01.03.2021
5879 Clouds 12 1023 93 10000 1.42 181 23:39 28.02.2021
5880 Clouds 12 1024 90 10000 1.44 157 22:52 28.02.2021
5881 Clouds 13 1023 89 10000 1.49 149 22:23 28.02.2021
5882 Clouds 12 1023 88 10000 1.49 149 21:54 28.02.2021
5883 Clouds 12 1023 87 10000 1.49 149 21:32 28.02.2021
5884 Clouds 13 1023 86 10000 1.4 151 20:58 28.02.2021
5885 Clouds 13 1023 85 10000 1.35 146 20:37 28.02.2021
5886 Clouds 13 1023 85 10000 1.35 146 20:37 28.02.2021
5887 Clouds 13 1023 84 10000 1.36 146 19:56 28.02.2021
5888 Clouds 13 1023 84 10000 1.36 146 19:37 28.02.2021
5889 Clouds 13 1023 83 10000 1.09 153 19:19 28.02.2021
5890 Clouds 13 1022 81 10000 1.09 153 18:38 28.02.2021
5891 Clouds 14 1022 80 10000 1.02 139 18:20 28.02.2021
5892 Clouds 14 1022 78 10000 1.02 139 17:47 28.02.2021
5893 Clouds 14 1022 76 10000 1.42 98 17:27 28.02.2021
5894 Clear 15 1024 72 10000 7.2 50 16:53 28.02.2021
5895 Clear 15 1024 72 10000 7.2 50 16:34 28.02.2021
5896 Clear 15 1024 72 10000 6.69 50 15:55 28.02.2021
5897 Clear 15 1024 72 10000 6.69 50 15:36 28.02.2021
5898 Clouds 15 1024 67 10000 7.72 60 15:18 28.02.2021
5899 Clouds 15 1024 72 10000 7.2 50 14:45 28.02.2021
5900 Clouds 16 1024 72 10000 6.69 50 14:24 28.02.2021
5901 Clouds 16 1024 67 10000 6.69 50 13:52 28.02.2021
5902 Clear 16 1022 70 10000 1.9 30 13:20 28.02.2021
5903 Clear 16 1022 71 10000 1.9 30 12:56 28.02.2021
5904 Clear 16 1022 70 10000 1.9 30 12:37 28.02.2021
5905 Clear 16 1022 70 10000 1.32 49 12:19 28.02.2021
5906 Clear 16 1022 71 10000 1.32 49 11:44 28.02.2021
5907 Clear 16 1022 71 10000 1.06 92 11:25 28.02.2021
5908 Clear 15 1022 72 10000 1.06 92 10:55 28.02.2021
5909 Clear 15 1022 73 10000 1.51 109 10:29 28.02.2021
5910 Clear 15 1022 74 10000 1.5 108 09:52 28.02.2021
5911 Clear 14 1022 76 10000 1.5 108 09:33 28.02.2021
5912 Clear 13 1022 79 10000 1.66 111 08:50 28.02.2021
5913 Clear 13 1022 80 10000 1.66 111 08:31 28.02.2021
5914 Clear 12 1022 81 10000 1.56 121 07:57 28.02.2021
5915 Clear 11 1023 81 10000 2.06 160 07:37 28.02.2021
5916 Clouds 10 1023 76 10000 2.06 0 06:55 28.02.2021
5917 Clear 10 1022 76 10000 5.66 80 05:52 28.02.2021
5918 Clear 8 1022 87 10000 3.09 180 03:45 28.02.2021
5919 Clear 10 1022 76 10000 2.06 60 01:59 28.02.2021
5920 Clear 9 1022 76 10000 2.06 0 00:58 28.02.2021
5921 Clear 9 1022 76 10000 2.06 0 00:35 28.02.2021
5922 Clear 10 1023 76 10000 2.57 130 23:48 27.02.2021
5923 Clouds 10 1023 82 9000 4.12 70 23:20 27.02.2021
5924 Clouds 10 1023 82 10000 4.12 80 22:49 27.02.2021
5925 Clouds 11 1022 76 10000 4.63 70 22:22 27.02.2021
5926 Clouds 11 1022 76 10000 4.63 70 21:50 27.02.2021
5927 Clouds 12 1022 76 10000 4.63 70 21:32 27.02.2021
5928 Clouds 13 1022 76 10000 5.14 60 20:52 27.02.2021
5929 Clouds 13 1022 76 10000 5.14 60 20:33 27.02.2021
5930 Clouds 13 1023 76 9000 4.63 50 19:48 27.02.2021
5931 Clouds 13 1022 76 9000 5.14 40 19:29 27.02.2021
5932 Clouds 13 1022 76 9000 5.14 30 18:56 27.02.2021
5933 Clouds 13 1022 76 9000 5.14 40 18:36 27.02.2021
5934 Clouds 13 1022 76 9000 5.14 40 18:18 27.02.2021
5935 Clouds 14 1022 72 9000 5.66 30 17:42 27.02.2021
5936 Clear 14 1020 78 10000 0.45 349 17:19 27.02.2021
5937 Clear 14 1019 76 10000 1.59 41 16:50 27.02.2021
5938 Clear 15 1019 74 10000 1.59 41 16:30 27.02.2021
5939 Clear 15 1019 74 10000 1.59 41 16:30 27.02.2021
5940 Clear 15 1022 72 10000 5.14 40 15:47 27.02.2021
5941 Clouds 15 1022 72 10000 4.63 40 15:20 27.02.2021
5942 Clouds 15 1022 67 10000 4.63 40 14:41 27.02.2021
5943 Clouds 15 1022 72 10000 4.63 30 14:22 27.02.2021
5944 Clouds 15 1023 72 10000 4.63 30 13:47 27.02.2021
5945 Clear 16 1020 71 10000 1.68 11 13:25 27.02.2021
5946 Clear 16 1020 70 10000 1.68 11 12:49 27.02.2021
5947 Clear 16 1021 70 10000 1.56 4 12:27 27.02.2021
5948 Clear 15 1021 72 10000 1.56 4 11:55 27.02.2021
5949 Clear 15 1021 73 10000 1.09 7 11:31 27.02.2021
5950 Clear 15 1021 75 10000 1.11 8 10:59 27.02.2021
5951 Clear 15 1021 77 10000 1.11 8 10:41 27.02.2021
5952 Clear 14 1022 79 10000 0.79 18 10:18 27.02.2021
5953 Clear 13 1022 84 10000 0.79 18 09:37 27.02.2021
5954 Clear 13 1022 86 10000 0.39 33 08:58 27.02.2021
5955 Clear 12 1022 87 10000 0.39 33 08:39 27.02.2021
5956 Clear 12 1022 88 10000 0.27 266 08:18 27.02.2021
5957 Clouds 11 1024 93 7000 1.03 0 07:32 27.02.2021
5958 Mist 11 1024 93 4500 1.03 140 02:31 27.02.2021
5959 Clouds 12 1025 87 7000 1.54 160 00:35 27.02.2021
5960 Mist 12 1025 93 5000 1.54 180 23:48 26.02.2021
5961 Clouds 12 1025 87 7000 1.03 180 23:24 26.02.2021
5962 Clear 10 1026 87 8000 1.54 150 22:42 26.02.2021
5963 Clear 12 1024 82 9000 1.54 170 22:23 26.02.2021
5964 Clear 11 1026 82 9000 2.06 140 21:37 26.02.2021
5965 Clouds 12 1026 87 10000 2.06 70 20:59 26.02.2021
5966 Clouds 12 1026 87 10000 2.06 70 20:41 26.02.2021
5967 Clouds 12 1026 87 10000 3.09 70 20:20 26.02.2021
5968 Clouds 12 1026 87 10000 3.09 60 19:40 26.02.2021
5969 Clear 12 1026 87 10000 3.09 60 19:18 26.02.2021
5970 Clear 13 1026 82 10000 3.6 50 18:41 26.02.2021
5971 Clear 13 1026 77 10000 3.09 40 18:21 26.02.2021
5972 Clear 14 1026 77 10000 3.6 40 17:39 26.02.2021
5973 Clear 15 1024 74 10000 1.05 52 17:20 26.02.2021
5974 Clear 15 1026 72 10000 4.12 40 16:49 26.02.2021
5975 Clear 15 1026 77 10000 5.14 40 16:30 26.02.2021
5976 Clear 15 1026 77 10000 5.66 40 15:51 26.02.2021
5977 Clear 15 1027 72 10000 5.66 40 15:30 26.02.2021
5978 Clear 15 1027 72 10000 5.14 40 14:59 26.02.2021
5979 Clear 16 1027 72 10000 5.14 40 14:41 26.02.2021
5980 Clear 15 1027 82 10000 4.63 30 14:22 26.02.2021
5981 Clear 16 1025 76 10000 1.7 0 13:39 26.02.2021
5982 Clear 16 1025 75 10000 1.61 344 13:20 26.02.2021
5983 Clear 15 1026 78 10000 1.42 338 12:33 26.02.2021
5984 Clear 15 1026 80 10000 1.42 338 11:50 26.02.2021
5985 Clear 15 1027 80 10000 1.42 338 11:32 26.02.2021
5986 Clear 14 1027 83 10000 1.04 339 10:46 26.02.2021
5987 Clear 14 1027 88 10000 0.49 336 09:51 26.02.2021
5988 Clear 13 1027 91 10000 0.19 174 09:30 26.02.2021
5989 Clear 13 1027 96 10000 0.19 174 08:54 26.02.2021
5990 Clear 11 1027 97 10000 0.77 160 08:25 26.02.2021
5991 Clouds 10 1029 87 10000 2.06 190 07:49 26.02.2021
5992 Clouds 10 1029 93 6000 1.54 130 06:36 26.02.2021
5993 Clouds 10 1028 87 7000 1.03 80 05:27 26.02.2021
5994 Clear 11 1028 93 5000 2.06 170 03:46 26.02.2021
5995 Clear 10 1027 99 10000 1.14 177 02:35 26.02.2021
5996 Clear 11 1028 97 10000 1.12 116 23:56 25.02.2021
5997 Clear 12 1028 96 10000 0.75 100 23:28 25.02.2021
5998 Clear 12 1028 95 10000 0.75 100 22:49 25.02.2021
5999 Clear 12 1028 94 10000 0.37 112 22:19 25.02.2021
6000 Clear 13 1028 93 10000 0.37 112 21:38 25.02.2021
6001 Clear 13 1028 93 10000 0.48 216 21:19 25.02.2021
6002 Clear 13 1028 93 10000 0.48 216 21:19 25.02.2021
6003 Clear 13 1028 91 10000 0.48 216 20:40 25.02.2021
6004 Clear 13 1028 91 10000 0.71 211 20:22 25.02.2021
6005 Clear 13 1028 88 10000 0.71 211 19:51 25.02.2021
6006 Clear 13 1028 87 10000 0.72 185 19:22 25.02.2021
6007 Clear 14 1027 84 10000 1.02 170 18:57 25.02.2021
6008 Clear 14 1029 77 10000 1.03 30 18:24 25.02.2021
6009 Clear 15 1029 77 10000 2.57 60 17:47 25.02.2021
6010 Clear 15 1027 77 10000 0.98 76 17:25 25.02.2021
6011 Clear 15 1029 77 10000 6.17 50 16:43 25.02.2021
6012 Clear 15 1029 77 10000 6.17 50 16:25 25.02.2021
6013 Clear 16 1029 72 10000 6.17 50 15:30 25.02.2021
6014 Clear 16 1030 72 10000 5.14 50 14:57 25.02.2021
6015 Clear 16 1030 77 10000 2.57 10 14:22 25.02.2021
6016 Clear 16 1028 74 10000 1.39 32 13:51 25.02.2021
6017 Clear 17 1028 72 10000 1.1 14 13:25 25.02.2021
6018 Clear 17 1027 71 10000 1.1 14 12:50 25.02.2021
6019 Clear 17 1028 71 10000 0.45 353 12:21 25.02.2021
6020 Clear 16 1028 74 10000 0.45 334 11:45 25.02.2021
6021 Clear 16 1028 77 10000 0.81 82 11:19 25.02.2021
6022 Clear 15 1029 80 10000 0.81 82 10:44 25.02.2021
6023 Clear 14 1029 85 10000 0.96 105 09:59 25.02.2021
6024 Clear 14 1029 87 10000 0.96 105 09:40 25.02.2021
6025 Clear 13 1029 92 10000 0.45 263 08:55 25.02.2021
6026 Clear 12 1029 94 10000 1.27 114 08:25 25.02.2021
6027 Clouds 11 1031 93 10000 3.6 60 07:53 25.02.2021
6028 Clear 10 1029 96 10000 1.04 111 07:29 25.02.2021
6029 Clear 10 1031 93 5000 1.54 50 06:51 25.02.2021
6030 Clear 11 1029 91 10000 1.75 155 01:59 25.02.2021
6031 Clear 11 1029 91 10000 1.75 155 01:37 25.02.2021
6032 Clear 12 1030 90 10000 1.87 143 00:39 25.02.2021
6033 Clear 12 1030 90 10000 1.67 131 23:52 24.02.2021
6034 Clear 12 1030 90 10000 1.41 130 23:27 24.02.2021
6035 Clear 11 1030 91 10000 1.41 130 22:44 24.02.2021
6036 Clear 12 1030 91 10000 1.24 145 22:25 24.02.2021
6037 Clear 13 1030 90 10000 1.24 145 21:45 24.02.2021
6038 Clear 12 1032 93 10000 2.57 80 20:56 24.02.2021
6039 Clear 12 1032 93 10000 2.57 80 20:37 24.02.2021
6040 Clear 13 1032 87 10000 3.09 80 20:18 24.02.2021
6041 Clear 13 1031 88 10000 5.14 60 19:29 24.02.2021
6042 Clear 14 1031 82 10000 5.66 50 18:56 24.02.2021
6043 Clear 14 1031 82 10000 5.66 50 18:34 24.02.2021
6044 Clear 14 1031 82 10000 6.69 40 17:56 24.02.2021
6045 Clouds 15 1031 82 10000 7.2 40 17:30 24.02.2021
6046 Clouds 15 1031 82 10000 7.2 40 17:30 24.02.2021
6047 Clouds 15 1031 82 10000 7.2 40 17:30 24.02.2021
6048 Clear 15 1029 79 10000 2 72 17:30 24.02.2021
6049 Clouds 15 1031 82 10000 6.69 30 16:57 24.02.2021
6050 Clouds 15 1031 82 10000 6.69 30 16:39 24.02.2021
6051 Clouds 15 1032 88 10000 6.17 30 16:19 24.02.2021
6052 Clouds 16 1032 77 10000 6.69 40 15:38 24.02.2021
6053 Clouds 16 1032 77 10000 6.17 30 14:55 24.02.2021
6054 Clouds 16 1032 77 10000 6.17 30 14:35 24.02.2021
6055 Clear 17 1033 77 10000 4.63 20 13:58 24.02.2021
6056 Clear 17 1030 68 10000 0.45 6 13:39 24.02.2021
6057 Clear 16 1033 77 10000 4.63 20 13:21 24.02.2021
6058 Clear 16 1034 72 10000 3.09 30 12:44 24.02.2021
6059 Clear 16 1034 77 10000 1.03 0 12:23 24.02.2021
6060 Clear 17 1031 59 10000 1.56 19 11:46 24.02.2021
6061 Clear 16 1032 65 10000 0.96 21 10:52 24.02.2021
6062 Clear 15 1032 70 10000 0.96 21 10:30 24.02.2021
6063 Clear 15 1032 81 10000 0.34 96 09:44 24.02.2021
6064 Clear 14 1032 86 10000 0.96 149 09:20 24.02.2021
6065 Clear 12 1032 92 10000 0.95 148 08:34 24.02.2021
6066 Clear 10 1032 93 10000 1.17 154 07:57 24.02.2021
6067 Clear 10 1032 92 10000 1.07 137 07:20 24.02.2021
6068 Clear 10 1032 91 10000 0.78 98 06:23 24.02.2021
6069 Clear 10 1032 90 10000 0.29 225 03:28 24.02.2021
6070 Clear 11 1033 89 10000 1.39 164 00:22 24.02.2021
6071 Clear 11 1033 88 10000 1.5 153 23:21 23.02.2021
6072 Clear 12 1033 88 10000 1.5 153 22:37 23.02.2021
6073 Clear 12 1035 82 10000 2.57 140 22:19 23.02.2021
6074 Clear 12 1035 82 10000 2.06 100 21:42 23.02.2021
6075 Clear 12 1035 87 10000 2.57 90 21:22 23.02.2021
6076 Clear 12 1034 87 10000 3.09 70 20:48 23.02.2021
6077 Clear 12 1034 87 10000 3.09 80 20:29 23.02.2021
6078 Clear 10 1034 82 10000 4.12 60 19:48 23.02.2021
6079 Clear 10 1034 82 10000 4.12 50 19:27 23.02.2021
6080 Clear 11 1034 82 10000 4.12 50 18:55 23.02.2021
6081 Clear 14 1034 82 10000 4.12 50 18:32 23.02.2021
6082 Clear 15 1033 77 10000 4.12 50 17:54 23.02.2021
6083 Clear 15 1033 77 10000 4.12 50 17:33 23.02.2021
6084 Clouds 16 1033 77 10000 4.12 30 16:56 23.02.2021
6085 Clouds 16 1033 77 10000 4.12 20 16:27 23.02.2021
6086 Clouds 16 1033 77 10000 4.12 20 15:58 23.02.2021
6087 Clouds 16 1033 77 10000 4.12 20 15:38 23.02.2021
6088 Clouds 17 1033 72 10000 3.09 360 15:18 23.02.2021
6089 Clouds 16 1033 77 10000 2.06 10 14:43 23.02.2021
6090 Clouds 17 1034 77 10000 2.57 340 14:25 23.02.2021
6091 Clouds 17 1034 77 10000 3.09 330 13:44 23.02.2021
6092 Clouds 16 1034 82 10000 2.57 330 13:24 23.02.2021
6093 Clouds 16 1034 77 10000 2.57 310 12:51 23.02.2021
6094 Clouds 15 1034 72 10000 2.06 270 12:20 23.02.2021
6095 Clouds 16 1034 72 10000 2.06 250 11:47 23.02.2021
6096 Clear 16 1034 72 10000 2.57 250 11:21 23.02.2021
6097 Clear 16 1032 73 10000 1.07 344 10:51 23.02.2021
6098 Clear 16 1032 77 10000 1.07 344 10:32 23.02.2021
6099 Clear 15 1032 85 10000 0.56 309 09:45 23.02.2021
6100 Clear 14 1032 88 10000 0.75 244 09:25 23.02.2021
6101 Clear 14 1032 91 10000 0.75 243 08:50 23.02.2021
6102 Clear 13 1032 93 10000 1.12 217 08:24 23.02.2021
6103 Clear 12 1031 97 10000 1.12 217 07:53 23.02.2021
6104 Clear 11 1030 95 10000 1.27 221 05:32 23.02.2021
6105 Clear 11 1030 96 10000 1.27 221 04:46 23.02.2021
6106 Clear 11 1030 96 10000 1.67 219 02:34 23.02.2021
6107 Clear 11 1029 94 10000 2 208 00:20 23.02.2021
6108 Clear 12 1029 93 10000 2 208 23:52 22.02.2021
6109 Clear 12 1029 92 10000 1.95 195 23:20 22.02.2021
6110 Clear 12 1029 91 10000 1.95 195 22:41 22.02.2021
6111 Clear 12 1029 91 10000 1.91 184 22:20 22.02.2021
6112 Clear 12 1028 91 10000 1.91 184 21:41 22.02.2021
6113 Clear 13 1028 90 10000 1.79 174 21:23 22.02.2021
6114 Clear 13 1029 82 10000 4.12 210 20:51 22.02.2021
6115 Clear 13 1029 82 10000 3.6 200 20:28 22.02.2021
6116 Clear 12 1029 82 10000 2.06 160 19:51 22.02.2021
6117 Clear 12 1029 82 10000 2.06 160 19:33 22.02.2021
6118 Clear 14 1028 72 10000 2.06 100 18:56 22.02.2021
6119 Clear 14 1028 72 10000 2.06 100 18:37 22.02.2021
6120 Clear 14 1028 72 10000 4.63 70 18:18 22.02.2021
6121 Clear 15 1026 74 10000 1.16 83 17:25 22.02.2021
6122 Clear 16 1028 77 10000 5.66 50 16:54 22.02.2021
6123 Clear 16 1028 77 10000 5.66 50 16:32 22.02.2021
6124 Clear 17 1028 77 10000 5.66 40 15:44 22.02.2021
6125 Clear 17 1027 77 10000 6.17 40 15:25 22.02.2021
6126 Clear 17 1027 77 10000 5.14 40 14:47 22.02.2021
6127 Clear 17 1027 77 10000 4.63 30 14:28 22.02.2021
6128 Clear 17 1028 72 10000 4.12 20 13:46 22.02.2021
6129 Clear 17 1025 63 10000 0.45 349 12:56 22.02.2021
6130 Clear 18 1026 65 10000 0.78 204 12:24 22.02.2021
6131 Clear 18 1026 66 10000 1.34 357 11:58 22.02.2021
6132 Clear 17 1026 69 10000 0.78 204 11:39 22.02.2021
6133 Clear 17 1026 70 10000 1.11 174 11:20 22.02.2021
6134 Clear 17 1026 76 10000 1.11 174 10:45 22.02.2021
6135 Clear 16 1026 81 10000 1.34 189 10:22 22.02.2021
6136 Clear 15 1026 85 10000 1.34 189 09:42 22.02.2021
6137 Clear 14 1026 87 10000 1.52 181 09:24 22.02.2021
6138 Clear 13 1026 92 10000 1.53 181 08:49 22.02.2021
6139 Clear 12 1026 94 10000 1.97 179 08:24 22.02.2021
6140 Clear 11 1025 96 10000 1.98 179 07:53 22.02.2021
6141 Clear 9 1025 97 10000 0.89 213 07:25 22.02.2021
6142 Clear 9 1025 96 10000 2.86 169 06:32 22.02.2021
6143 Clear 9 1024 94 10000 2.65 155 05:38 22.02.2021
6144 Clear 10 1024 93 10000 2.23 190 03:27 22.02.2021
6145 Clear 10 1024 94 10000 2.23 190 02:48 22.02.2021
6146 Clear 11 1023 97 10000 2.5 176 00:45 22.02.2021
6147 Clear 12 1023 97 10000 2.43 175 00:20 22.02.2021
6148 Clear 12 1023 97 10000 2.45 183 23:29 21.02.2021
6149 Clear 12 1023 96 10000 2.45 183 22:51 21.02.2021
6150 Clear 12 1023 95 10000 2.63 186 22:22 21.02.2021
6151 Clear 12 1023 93 10000 2.63 186 21:37 21.02.2021
6152 Clear 13 1023 92 10000 2.75 177 21:19 21.02.2021
6153 Clear 13 1023 91 10000 2.75 177 20:43 21.02.2021
6154 Clear 13 1023 89 10000 2.57 154 20:20 21.02.2021
6155 Clear 14 1022 88 10000 2.73 155 19:51 21.02.2021
6156 Clear 14 1022 87 10000 2.72 156 19:32 21.02.2021
6157 Clear 14 1022 87 10000 2.29 140 19:32 21.02.2021
6158 Clear 14 1022 82 10000 2.39 142 18:49 21.02.2021
6159 Clear 15 1022 79 10000 2.08 135 18:25 21.02.2021
6160 Clear 15 1022 76 10000 2.08 135 17:30 21.02.2021
6161 Clear 16 1022 74 10000 1.89 111 16:58 21.02.2021
6162 Clear 16 1024 67 10000 4.12 60 16:35 21.02.2021
6163 Clear 16 1024 72 10000 3.6 50 15:57 21.02.2021
6164 Clear 16 1024 67 10000 3.6 50 15:23 21.02.2021
6165 Clear 16 1024 72 10000 4.12 40 14:54 21.02.2021
6166 Clear 16 1024 72 10000 4.12 40 14:35 21.02.2021
6167 Clear 18 1021 68 10000 2.1 90 13:49 21.02.2021
6168 Clear 17 1021 69 10000 0.45 322 13:28 21.02.2021
6169 Clear 16 1022 70 10000 2.03 91 12:32 21.02.2021
6170 Clear 16 1022 73 10000 1.96 90 11:59 21.02.2021
6171 Clear 16 1022 74 10000 1.96 90 11:40 21.02.2021
6172 Clear 15 1022 77 10000 1.84 100 10:40 21.02.2021
6173 Clear 14 1022 79 10000 1.78 113 10:21 21.02.2021
6174 Clear 14 1022 86 10000 1.78 113 09:43 21.02.2021
6175 Clear 13 1022 90 10000 1.84 128 09:24 21.02.2021
6176 Clear 10 1024 87 10000 1.54 170 08:34 21.02.2021
6177 Clear 10 1024 87 10000 1.54 130 07:45 21.02.2021
6178 Clear 9 1022 99 10000 2.45 135 07:22 21.02.2021
6179 Clear 10 1022 99 10000 2.64 127 05:59 21.02.2021
6180 Clear 10 1022 99 10000 2.36 128 02:40 21.02.2021
6181 Clear 10 1022 99 10000 2.64 123 00:59 21.02.2021
6182 Clear 11 1023 99 10000 2.78 119 00:21 21.02.2021
6183 Clear 11 1022 99 10000 2.78 119 23:47 20.02.2021
6184 Clear 11 1023 97 10000 2.93 117 22:57 20.02.2021
6185 Clear 11 1023 95 10000 2.93 117 22:32 20.02.2021
6186 Clear 11 1023 94 10000 2.93 116 21:48 20.02.2021
6187 Clear 12 1023 93 10000 2.76 118 21:29 20.02.2021
6188 Clear 12 1023 92 10000 2.7 116 20:57 20.02.2021
6189 Clear 11 1023 92 10000 2.7 116 20:38 20.02.2021
6190 Clear 12 1022 91 10000 2.51 122 20:19 20.02.2021
6191 Clear 13 1023 89 10000 2.51 122 19:41 20.02.2021
6192 Clear 13 1023 87 10000 2.33 129 18:55 20.02.2021
6193 Clear 13 1024 77 10000 2.06 230 18:33 20.02.2021
6194 Clear 13 1024 77 10000 2.06 230 18:33 20.02.2021
6195 Clear 14 1024 77 10000 2.06 0 17:47 20.02.2021
6196 Clear 14 1023 79 10000 1.89 116 17:28 20.02.2021
6197 Clear 15 1024 72 10000 6.17 70 16:49 20.02.2021
6198 Clear 16 1024 72 10000 6.69 60 16:26 20.02.2021
6199 Clear 16 1024 72 10000 6.69 60 15:42 20.02.2021
6200 Clear 16 1025 63 10000 6.69 60 14:53 20.02.2021
6201 Clear 17 1025 59 10000 6.69 60 14:27 20.02.2021
6202 Clear 16 1025 63 10000 5.14 50 13:58 20.02.2021
6203 Clear 16 1023 69 10000 0.45 300 13:39 20.02.2021
6204 Clear 16 1023 70 10000 1.54 62 13:21 20.02.2021
6205 Clear 15 1024 67 10000 1.7 70 12:44 20.02.2021
6206 Clear 15 1024 70 10000 0.86 67 11:54 20.02.2021
6207 Clear 16 1024 72 10000 0.86 67 11:36 20.02.2021
6208 Clear 15 1024 78 10000 0.57 115 10:53 20.02.2021
6209 Clear 14 1024 83 10000 1.04 134 10:29 20.02.2021
6210 Clear 13 1024 92 10000 1.04 134 09:48 20.02.2021
6211 Clear 12 1024 98 10000 1.23 151 08:56 20.02.2021
6212 Clear 11 1024 99 10000 1.55 169 08:27 20.02.2021
6213 Clear 10 1025 81 10000 1.03 0 07:50 20.02.2021
6214 Clouds 10 1024 98 10000 1.43 163 02:32 20.02.2021
6215 Clouds 10 1024 98 10000 1.43 163 02:32 20.02.2021
6216 Clouds 10 1024 97 10000 1.6 173 01:59 20.02.2021
6217 Clouds 10 1024 97 10000 1.74 169 01:20 20.02.2021
6218 Clouds 10 1024 96 10000 1.6 155 00:42 20.02.2021
6219 Clouds 11 1024 94 10000 1.67 168 23:42 19.02.2021
6220 Clouds 11 1024 93 10000 2.13 161 22:48 19.02.2021
6221 Clouds 11 1024 92 10000 2.43 143 22:26 19.02.2021
6222 Clouds 11 1024 92 10000 2.43 143 21:47 19.02.2021
6223 Clouds 12 1024 91 10000 2.47 133 21:26 19.02.2021
6224 Clouds 12 1023 89 10000 2.47 133 20:45 19.02.2021
6225 Clouds 12 1023 89 10000 2.47 133 20:45 19.02.2021
6226 Clouds 12 1023 88 10000 2.34 128 20:27 19.02.2021
6227 Clear 12 1025 76 10000 2.57 190 19:50 19.02.2021
6228 Clear 13 1025 71 10000 2.57 190 19:20 19.02.2021
6229 Clear 13 1025 72 10000 1.54 0 18:54 19.02.2021
6230 Clear 13 1025 72 10000 1.54 0 18:31 19.02.2021
6231 Clear 14 1025 72 10000 5.14 60 17:45 19.02.2021
6232 Clear 15 1025 67 10000 6.17 60 16:50 19.02.2021
6233 Clear 15 1025 63 10000 6.69 70 16:23 19.02.2021
6234 Clear 16 1025 58 10000 6.69 60 15:57 19.02.2021
6235 Clear 16 1025 59 10000 6.17 60 15:30 19.02.2021
6236 Clear 16 1025 63 10000 5.66 50 14:56 19.02.2021
6237 Clear 16 1025 63 10000 5.66 50 14:36 19.02.2021
6238 Clear 15 1026 67 10000 5.14 40 13:57 19.02.2021
6239 Clear 16 1023 68 10000 0.45 348 13:37 19.02.2021
6240 Clouds 15 1024 71 10000 0.45 4 12:59 19.02.2021
6241 Clouds 15 1024 71 10000 1.34 359 12:41 19.02.2021
6242 Clouds 15 1024 70 10000 1.34 3 12:20 19.02.2021
6243 Clouds 15 1024 70 10000 0.45 342 11:44 19.02.2021
6244 Clouds 15 1024 74 10000 0.72 80 11:19 19.02.2021
6245 Clouds 14 1024 76 10000 0.72 80 10:38 19.02.2021
6246 Clouds 14 1024 81 10000 0.8 141 10:19 19.02.2021
6247 Clouds 13 1024 91 10000 0.82 143 09:37 19.02.2021
6248 Clouds 13 1024 91 10000 0.82 143 09:37 19.02.2021
6249 Clouds 13 1024 91 10000 0.82 143 09:37 19.02.2021
6250 Clouds 12 1024 94 10000 1.14 183 09:18 19.02.2021
6251 Clouds 11 1024 97 10000 1.14 183 08:42 19.02.2021
6252 Clouds 10 1024 99 10000 1.36 189 08:21 19.02.2021
6253 Clouds 9 1024 99 10000 1.36 189 07:45 19.02.2021
6254 Clouds 9 1024 99 10000 1.45 185 07:25 19.02.2021
6255 Clear 9 1025 81 10000 1.54 170 06:44 19.02.2021
6256 Clouds 9 1023 95 10000 1.63 165 04:42 19.02.2021
6257 Clouds 9 1023 94 10000 1.45 163 03:32 19.02.2021
6258 Clouds 9 1023 91 10000 1.2 182 01:46 19.02.2021
6259 Clouds 9 1023 91 10000 1.19 182 01:46 19.02.2021
6260 Clouds 9 1023 89 10000 1.33 173 00:36 19.02.2021
6261 Clouds 10 1023 86 10000 1.69 162 23:48 18.02.2021
6262 Clouds 10 1023 87 10000 1.69 162 23:48 18.02.2021
6263 Clouds 10 1023 85 10000 1.69 162 23:30 18.02.2021
6264 Clear 11 1025 71 10000 1.54 230 22:43 18.02.2021
6265 Clear 11 1025 76 10000 2.06 210 22:24 18.02.2021
6266 Clear 11 1024 71 10000 2.06 190 21:42 18.02.2021
6267 Clear 11 1024 76 10000 3.6 180 21:24 18.02.2021
6268 Clear 11 1024 71 10000 3.6 170 20:41 18.02.2021
6269 Clear 11 1024 71 10000 2.06 170 20:21 18.02.2021
6270 Clear 11 1024 71 10000 2.06 180 19:46 18.02.2021
6271 Clear 12 1024 71 10000 1.03 0 19:22 18.02.2021
6272 Clear 12 1023 67 10000 3.09 80 18:52 18.02.2021
6273 Clear 12 1023 71 10000 5.14 60 18:27 18.02.2021
6274 Clear 13 1023 67 10000 6.17 60 17:52 18.02.2021
6275 Clear 13 1023 67 10000 6.17 60 17:25 18.02.2021
6276 Clear 13 1023 67 10000 6.17 60 17:25 18.02.2021
6277 Clear 14 1023 67 10000 6.69 60 16:52 18.02.2021
6278 Clear 14 1023 67 10000 6.69 60 16:33 18.02.2021
6279 Clear 14 1023 67 10000 7.2 50 15:44 18.02.2021
6280 Clear 15 1023 67 10000 6.69 50 15:24 18.02.2021
6281 Clear 15 1023 67 10000 6.17 50 14:58 18.02.2021
6282 Clear 15 1023 67 10000 6.17 50 14:36 18.02.2021
6283 Clear 14 1023 58 10000 5.14 50 13:56 18.02.2021
6284 Clear 14 1023 58 10000 5.14 50 13:36 18.02.2021
6285 Clear 14 1021 62 10000 2.33 83 13:18 18.02.2021
6286 Clear 14 1022 63 10000 2.32 83 12:41 18.02.2021
6287 Clear 13 1024 62 10000 3.6 230 12:18 18.02.2021
6288 Clear 14 1022 65 10000 2.35 90 11:46 18.02.2021
6289 Clear 13 1024 66 10000 4.12 230 11:25 18.02.2021
6290 Clear 14 1022 65 10000 2.5 97 10:41 18.02.2021
6291 Clear 12 1024 71 10000 2.06 220 10:23 18.02.2021
6292 Clear 12 1022 74 10000 2.45 105 09:39 18.02.2021
6293 Clear 11 1022 80 10000 2.23 110 09:20 18.02.2021
6294 Clear 10 1022 86 10000 2.23 110 08:39 18.02.2021
6295 Clear 10 1022 88 10000 1.93 122 08:20 18.02.2021
6296 Clear 8 1022 89 10000 1.96 125 07:31 18.02.2021
6297 Clear 7 1022 89 10000 1.93 128 06:40 18.02.2021
6298 Clear 7 1021 83 10000 1.38 151 02:21 18.02.2021
6299 Clear 7 1022 80 10000 1.41 122 23:49 17.02.2021
6300 Clear 7 1022 79 10000 1.47 125 23:21 17.02.2021
6301 Clear 8 1022 78 10000 1.47 125 22:49 17.02.2021
6302 Clear 9 1022 77 10000 1.48 119 22:25 17.02.2021
6303 Clear 9 1022 76 10000 1.48 119 21:50 17.02.2021
6304 Clear 9 1022 75 10000 1.35 112 21:22 17.02.2021
6305 Clear 9 1022 74 10000 1.35 112 20:47 17.02.2021
6306 Clear 9 1022 73 10000 1.17 104 20:29 17.02.2021
6307 Clear 10 1024 62 10000 1.54 80 19:49 17.02.2021
6308 Clear 10 1024 62 10000 1.03 70 19:30 17.02.2021
6309 Clear 10 1024 62 10000 1.54 100 18:45 17.02.2021
6310 Clear 10 1023 62 10000 3.09 60 18:24 17.02.2021
6311 Clear 11 1023 62 10000 3.6 70 17:41 17.02.2021
6312 Clear 11 1023 62 10000 3.6 70 17:41 17.02.2021
6313 Clear 11 1023 62 10000 2.57 50 17:19 17.02.2021
6314 Clear 12 1023 58 10000 2.57 50 16:46 17.02.2021
6315 Clear 13 1024 62 10000 3.09 50 16:25 17.02.2021
6316 Clear 13 1024 62 10000 3.09 30 15:44 17.02.2021
6317 Clear 13 1024 62 10000 3.09 30 15:25 17.02.2021
6318 Clear 13 1024 62 10000 3.6 30 14:48 17.02.2021
6319 Clear 13 1024 58 10000 3.09 30 14:29 17.02.2021
6320 Clear 14 1022 61 10000 0.72 26 13:48 17.02.2021
6321 Clear 13 1022 60 10000 0.71 14 13:29 17.02.2021
6322 Clear 13 1022 60 10000 0.71 14 12:47 17.02.2021
6323 Clear 13 1023 59 10000 0.51 3 12:24 17.02.2021
6324 Clear 13 1023 60 10000 0.51 3 11:44 17.02.2021
6325 Clear 12 1023 62 10000 0.28 293 11:22 17.02.2021
6326 Clear 12 1023 64 10000 0.28 293 10:49 17.02.2021
6327 Clear 12 1023 66 10000 0.28 293 10:31 17.02.2021
6328 Clear 11 1024 71 10000 0.99 193 09:52 17.02.2021
6329 Clear 10 1024 76 10000 1.4 185 09:29 17.02.2021
6330 Clear 9 1024 85 10000 1.4 185 08:45 17.02.2021
6331 Clear 8 1024 87 10000 1.48 183 08:22 17.02.2021
6332 Clear 7 1025 75 10000 1.54 140 07:34 17.02.2021
6333 Clear 6 1023 86 10000 1.27 179 06:36 17.02.2021
6334 Clear 7 1024 81 10000 1.41 225 03:40 17.02.2021
6335 Clear 7 1025 79 10000 1.53 231 02:30 17.02.2021
6336 Clear 6 1025 76 10000 1.58 231 01:33 17.02.2021
6337 Clear 6 1026 74 10000 1.36 211 00:25 17.02.2021
6338 Clear 7 1026 72 10000 1.36 211 23:38 16.02.2021
6339 Clear 7 1026 70 10000 1.35 206 22:46 16.02.2021
6340 Clear 7 1026 70 10000 0.89 221 22:26 16.02.2021
6341 Clear 8 1026 69 10000 0.89 221 21:59 16.02.2021
6342 Clear 8 1026 67 10000 0.89 221 21:39 16.02.2021
6343 Clear 7 1027 66 10000 0.9 279 21:21 16.02.2021
6344 Clear 8 1027 65 10000 0.87 279 20:47 16.02.2021
6345 Clear 8 1027 64 10000 1.12 287 20:24 16.02.2021
6346 Clear 9 1029 50 10000 2.06 330 19:48 16.02.2021
6347 Clear 9 1029 50 10000 2.06 300 19:28 16.02.2021
6348 Clear 9 1029 54 10000 2.57 300 18:50 16.02.2021
6349 Clear 9 1029 50 10000 3.09 290 18:26 16.02.2021
6350 Clear 9 1029 50 10000 3.6 310 17:56 16.02.2021
6351 Clear 10 1029 50 10000 3.6 310 17:37 16.02.2021
6352 Clear 10 1027 55 10000 0.45 294 17:19 16.02.2021
6353 Clear 11 1030 50 10000 3.09 300 16:42 16.02.2021
6354 Clear 11 1030 50 10000 3.09 310 16:20 16.02.2021
6355 Clear 11 1030 50 10000 3.09 290 15:36 16.02.2021
6356 Clear 11 1030 50 10000 2.57 300 15:18 16.02.2021
6357 Clouds 12 1030 50 10000 2.57 290 14:41 16.02.2021
6358 Clear 12 1030 46 10000 3.6 280 14:23 16.02.2021
6359 Clear 11 1028 50 10000 2.71 311 13:47 16.02.2021
6360 Clear 11 1028 50 10000 2.97 301 13:18 16.02.2021
6361 Clear 11 1029 50 10000 0.45 332 12:42 16.02.2021
6362 Clear 11 1029 50 10000 2.91 298 12:20 16.02.2021
6363 Clear 11 1029 49 10000 2.91 298 12:20 16.02.2021
6364 Clear 11 1029 50 10000 0.45 261 11:43 16.02.2021
6365 Clear 11 1030 51 10000 0.45 345 11:21 16.02.2021
6366 Clear 11 1030 51 10000 0.45 359 10:49 16.02.2021
6367 Clouds 11 1032 46 10000 3.09 300 10:30 16.02.2021
6368 Clear 10 1030 52 10000 0.45 322 09:54 16.02.2021
6369 Clear 10 1030 55 10000 1.23 312 09:28 16.02.2021
6370 Clear 9 1030 61 10000 1.23 312 08:52 16.02.2021
6371 Clear 7 1030 63 10000 1.23 311 08:31 16.02.2021
6372 Clear 6 1030 64 10000 1.23 311 07:58 16.02.2021
6373 Clear 5 1031 59 10000 1.43 315 06:58 16.02.2021
6374 Clear 7 1033 46 10000 6.17 40 03:20 16.02.2021
6375 Clouds 7 1032 53 10000 4.32 24 00:43 16.02.2021
6376 Clouds 8 1033 50 10000 5.05 29 23:30 15.02.2021
6377 Clouds 8 1033 52 10000 0.89 3 22:52 15.02.2021
6378 Clouds 8 1032 50 10000 5.61 28 22:33 15.02.2021
6379 Clouds 8 1033 49 10000 6.14 25 21:55 15.02.2021
6380 Clouds 8 1033 49 10000 0.45 8 21:36 15.02.2021
6381 Clouds 8 1033 49 10000 6.47 24 21:18 15.02.2021
6382 Clouds 7 1033 49 10000 0.89 347 20:41 15.02.2021
6383 Clouds 8 1033 50 10000 1.34 4 20:19 15.02.2021
6384 Clouds 8 1032 50 10000 0.89 351 19:43 15.02.2021
6385 Clouds 8 1033 47 10000 7.2 27 19:21 15.02.2021
6386 Clouds 8 1032 51 10000 0.89 358 18:42 15.02.2021
6387 Clouds 8 1032 50 10000 0.45 9 18:21 15.02.2021
6388 Clouds 8 1032 51 10000 1.34 12 17:41 15.02.2021
6389 Clouds 8 1032 47 10000 8.61 27 17:21 15.02.2021
6390 Clouds 8 1033 53 10000 11.83 30 16:48 15.02.2021
6391 Clouds 8 1032 48 10000 0.89 358 16:26 15.02.2021
6392 Clouds 9 1033 49 10000 11.32 30 15:49 15.02.2021
6393 Clouds 9 1033 49 10000 11.83 30 15:22 15.02.2021
6394 Clouds 9 1033 53 10000 11.32 30 14:49 15.02.2021
6395 Clouds 9 1033 49 10000 12.35 30 14:22 15.02.2021
6396 Clouds 9 1033 53 10000 11.83 30 13:58 15.02.2021
6397 Clouds 9 1033 53 10000 11.83 30 13:37 15.02.2021
6398 Clouds 9 1033 49 10000 11.83 40 13:18 15.02.2021
6399 Clouds 9 1033 53 10000 12.35 40 12:38 15.02.2021
6400 Clouds 10 1033 46 10000 12.86 40 12:18 15.02.2021
6401 Clouds 9 1033 46 10000 13.89 30 11:40 15.02.2021
6402 Clouds 9 1033 53 10000 12.86 30 11:18 15.02.2021
6403 Clouds 8 1032 49 10000 3.13 359 10:45 15.02.2021
6404 Clouds 8 1031 45 10000 1.79 348 10:21 15.02.2021
6405 Clouds 8 1031 47 10000 0.89 359 09:52 15.02.2021
6406 Clouds 7 1031 47 10000 1.34 3 09:32 15.02.2021
6407 Clouds 7 1031 50 10000 0.45 13 08:41 15.02.2021
6408 Clouds 7 1030 55 10000 1.34 1 07:38 15.02.2021
6409 Clouds 6 1030 57 10000 0.89 351 06:45 15.02.2021
6410 Clouds 6 1030 56 10000 1.79 6 06:27 15.02.2021
6411 Clouds 6 1029 67 3420 1.34 8 02:28 15.02.2021
6412 Clouds 5 1029 74 10000 1.34 356 00:35 15.02.2021
6413 Clouds 5 1029 71 10000 1.34 353 23:33 14.02.2021
6414 Clouds 6 1029 65 10000 2.24 1 22:54 14.02.2021
6415 Clouds 6 1028 53 10000 2.24 322 22:36 14.02.2021
6416 Clouds 6 1028 53 8778 0.89 5 22:18 14.02.2021
6417 Clouds 6 1028 51 8778 0.89 4 21:43 14.02.2021
6418 Clouds 7 1028 53 8241 2.68 9 21:23 14.02.2021
6419 Clouds 7 1028 53 8241 2.68 9 21:23 14.02.2021
6420 Clouds 7 1027 48 8241 3.58 357 20:39 14.02.2021
6421 Clouds 7 1027 43 4333 1.79 1 20:20 14.02.2021
6422 Clouds 7 1027 51 4333 0.45 4 19:40 14.02.2021
6423 Clouds 7 1026 57 10000 1.79 357 18:51 14.02.2021
6424 Clouds 7 1026 56 10000 1.34 14 18:29 14.02.2021
6425 Clouds 7 1026 56 10000 8.79 21 17:51 14.02.2021
6426 Clouds 7 1025 58 10000 1.34 355 17:33 14.02.2021
6427 Clouds 7 1025 57 10000 1.34 353 16:48 14.02.2021
6428 Clouds 8 1025 60 10000 0.89 350 16:25 14.02.2021
6429 Clouds 8 1025 61 10000 0.89 2 15:49 14.02.2021
6430 Clouds 7 1024 61 10000 0.89 2 15:29 14.02.2021
6431 Clouds 8 1024 63 10000 0.45 3 14:47 14.02.2021
6432 Clouds 7 1024 63 9280 0.89 349 14:26 14.02.2021
6433 Clouds 7 1024 67 9280 0.45 356 13:44 14.02.2021
6434 Clouds 7 1024 68 10000 1.34 340 13:26 14.02.2021
6435 Clouds 8 1024 70 10000 1.34 349 12:37 14.02.2021
6436 Clouds 8 1024 73 10000 6.75 49 12:18 14.02.2021
6437 Clouds 8 1024 77 10000 0.45 348 11:43 14.02.2021
6438 Clouds 8 1023 78 10000 0.89 3 11:20 14.02.2021
6439 Clouds 7 1023 87 10000 0.45 324 10:31 14.02.2021
6440 Clouds 7 1022 90 10000 0.45 345 09:41 14.02.2021
6441 Clouds 7 1022 90 10000 0.89 347 09:21 14.02.2021
6442 Clouds 7 1022 90 10000 0.89 347 09:21 14.02.2021
6443 Clouds 7 1021 90 10000 6.85 39 08:58 14.02.2021
6444 Clouds 8 1021 88 10000 6.39 36 08:21 14.02.2021
6445 Clouds 8 1020 86 10000 6.39 36 07:47 14.02.2021
6446 Clouds 9 1019 73 10000 3.97 31 06:26 14.02.2021
6447 Clouds 10 1019 82 10000 3.41 22 04:34 14.02.2021
6448 Clouds 10 1018 85 10000 3.69 19 02:30 14.02.2021
6449 Clouds 10 1018 82 10000 5.14 358 01:29 14.02.2021
6450 Clouds 10 1018 82 10000 0.45 301 00:41 14.02.2021
6451 Clouds 10 1018 85 10000 1.34 345 23:57 13.02.2021
6452 Clouds 10 1017 92 10000 0.89 347 23:25 13.02.2021
6453 Clouds 10 1016 95 10000 1.79 335 22:57 13.02.2021
6454 Clouds 10 1016 94 10000 0.45 342 22:22 13.02.2021
6455 Clouds 11 1016 85 10000 0.45 1 21:49 13.02.2021
6456 Clouds 11 1016 83 10000 1.34 288 21:27 13.02.2021
6457 Clouds 11 1015 84 10000 0.89 14 20:45 13.02.2021
6458 Clouds 11 1015 85 10000 1.34 32 20:26 13.02.2021
6459 Clouds 11 1014 85 10000 2.24 335 19:48 13.02.2021
6460 Clouds 12 1013 87 10000 1.34 276 19:24 13.02.2021
6461 Clouds 12 1014 76 10000 10.29 350 18:50 13.02.2021
6462 Clouds 12 1011 91 10000 0.89 23 18:27 13.02.2021
6463 Clouds 13 1010 95 10000 5.36 257 17:44 13.02.2021
6464 Clouds 14 1009 80 10000 0.45 215 17:25 13.02.2021
6465 Clouds 14 1012 82 10000 9.26 260 16:53 13.02.2021
6466 Clouds 14 1009 74 10000 0.45 2 16:35 13.02.2021
6467 Clouds 15 1011 82 10000 7.72 250 15:45 13.02.2021
6468 Clouds 15 1011 77 10000 7.2 250 15:26 13.02.2021
6469 Clouds 15 1011 77 10000 7.2 250 15:26 13.02.2021
6470 Clouds 15 1012 77 10000 5.14 230 14:41 13.02.2021
6471 Clouds 14 1009 88 10000 1.34 322 13:50 13.02.2021
6472 Clouds 14 1009 88 10000 1.34 322 13:28 13.02.2021
6473 Clouds 13 1009 90 10000 6.04 227 12:53 13.02.2021
6474 Clouds 12 1012 93 10000 4.63 180 12:21 13.02.2021
6475 Rain 13 1013 87 4000 7.72 230 11:55 13.02.2021
6476 Clouds 14 1010 77 10000 1.34 328 11:23 13.02.2021
6477 Clouds 14 1010 77 10000 1.34 328 11:23 13.02.2021
6478 Clouds 16 1009 76 10000 4.72 206 10:59 13.02.2021
6479 Clouds 16 1012 72 9000 7.2 180 10:41 13.02.2021
6480 Clouds 15 1012 72 10000 8.75 190 10:22 13.02.2021
6481 Clouds 15 1010 86 10000 4.51 201 09:46 13.02.2021
6482 Clouds 14 1010 90 10000 4.57 180 09:25 13.02.2021
6483 Clouds 14 1010 91 10000 4.57 180 08:47 13.02.2021
6484 Rain 13 1011 90 10000 4.45 173 08:18 13.02.2021
6485 Rain 13 1011 85 10000 2.79 171 06:59 13.02.2021
6486 Rain 13 1012 77 10000 0.74 173 06:24 13.02.2021
6487 Clouds 13 1011 73 10000 1.84 150 04:31 13.02.2021
6488 Clouds 14 1013 80 10000 2.71 189 02:37 13.02.2021
6489 Clouds 13 1013 83 10000 2.6 190 00:54 13.02.2021
6490 Clouds 12 1014 82 10000 2.64 175 00:18 13.02.2021
6491 Clouds 12 1014 83 10000 2.64 175 23:44 12.02.2021
6492 Clouds 12 1015 83 10000 2.21 158 23:18 12.02.2021
6493 Clouds 13 1015 83 10000 2.21 158 22:32 12.02.2021
6494 Clouds 13 1015 84 10000 2.63 153 21:58 12.02.2021
6495 Clouds 13 1016 84 10000 2.63 153 21:38 12.02.2021
6496 Clouds 13 1016 84 10000 2.71 147 21:20 12.02.2021
6497 Clouds 13 1016 83 10000 2.71 147 20:40 12.02.2021
6498 Clouds 13 1016 83 10000 2.54 146 20:21 12.02.2021
6499 Clouds 13 1016 83 10000 2.54 146 19:49 12.02.2021
6500 Clouds 13 1017 82 10000 2.33 153 19:27 12.02.2021
6501 Clouds 12 1018 82 10000 1.54 290 18:32 12.02.2021
6502 Clear 14 1018 82 10000 3.09 280 17:53 12.02.2021
6503 Clear 15 1018 82 10000 3.09 280 17:35 12.02.2021
6504 Clouds 15 1018 82 10000 3.09 270 16:44 12.02.2021
6505 Clouds 16 1019 82 10000 4.12 280 15:49 12.02.2021
6506 Clouds 16 1019 82 10000 5.14 290 15:24 12.02.2021
6507 Clouds 16 1019 72 10000 4.63 290 14:59 12.02.2021
6508 Clouds 16 1019 72 10000 4.63 290 14:34 12.02.2021
6509 Clouds 17 1019 67 10000 4.63 220 13:47 12.02.2021
6510 Clouds 15 1019 63 10000 5.14 220 13:28 12.02.2021
6511 Clouds 16 1020 63 10000 4.12 210 12:53 12.02.2021
6512 Clouds 14 1020 63 10000 4.12 200 12:35 12.02.2021
6513 Clouds 16 1020 59 10000 5.14 190 11:47 12.02.2021
6514 Clouds 16 1018 62 10000 2.48 208 11:20 12.02.2021
6515 Clouds 16 1018 64 10000 2.48 208 10:47 12.02.2021
6516 Clouds 15 1017 69 10000 2.66 202 09:57 12.02.2021
6517 Clouds 15 1018 71 10000 2.66 202 09:39 12.02.2021
6518 Clouds 14 1017 73 10000 2.69 207 09:19 12.02.2021
6519 Clouds 13 1017 77 10000 2.69 207 08:40 12.02.2021
6520 Clouds 12 1018 81 10000 2.74 207 08:20 12.02.2021
6521 Clouds 11 1017 82 10000 0.45 324 07:51 12.02.2021
6522 Clouds 12 1017 82 10000 2.97 209 07:21 12.02.2021
6523 Clouds 12 1017 79 10000 3.39 213 06:18 12.02.2021
6524 Clouds 12 1017 77 10000 3.48 216 05:27 12.02.2021
6525 Clouds 12 1017 79 10000 0.45 274 01:59 12.02.2021
6526 Clouds 10 1019 67 10000 4.63 210 23:58 11.02.2021
6527 Clouds 14 1019 72 10000 3.6 210 23:23 11.02.2021
6528 Clouds 15 1019 72 10000 6.69 250 22:58 11.02.2021
6529 Clouds 15 1019 72 10000 6.69 250 22:40 11.02.2021
6530 Clouds 15 1019 72 10000 6.69 250 22:21 11.02.2021
6531 Clouds 15 1019 72 10000 7.72 250 21:42 11.02.2021
6532 Clouds 15 1019 72 10000 7.72 250 21:42 11.02.2021
6533 Clouds 15 1019 72 10000 7.2 250 21:23 11.02.2021
6534 Clouds 15 1019 72 10000 7.2 250 20:47 11.02.2021
6535 Clouds 14 1018 72 10000 7.72 250 20:23 11.02.2021
6536 Clouds 15 1018 72 10000 7.72 240 19:52 11.02.2021
6537 Clouds 14 1018 72 10000 7.72 250 19:33 11.02.2021
6538 Clouds 15 1018 72 10000 8.23 250 18:59 11.02.2021
6539 Clouds 11 1018 72 10000 8.23 260 18:31 11.02.2021
6540 Clouds 11 1017 72 10000 7.72 250 17:58 11.02.2021
6541 Clouds 11 1017 72 10000 7.72 250 17:39 11.02.2021
6542 Clouds 15 1017 72 10000 9.77 260 17:19 11.02.2021
6543 Clouds 13 1017 72 10000 9.77 260 16:42 11.02.2021
6544 Clouds 14 1017 72 10000 9.77 260 16:24 11.02.2021
6545 Clouds 14 1017 72 10000 9.26 260 15:45 11.02.2021
6546 Clouds 14 1017 67 10000 10.8 260 15:26 11.02.2021
6547 Clouds 14 1016 67 10000 10.29 260 14:53 11.02.2021
6548 Clouds 14 1016 67 10000 10.29 260 14:30 11.02.2021
6549 Clouds 14 1016 63 10000 8.75 260 13:42 11.02.2021
6550 Clear 14 1016 67 10000 9.26 270 13:19 11.02.2021
6551 Clear 14 1016 67 10000 9.26 260 12:53 11.02.2021
6552 Clear 14 1016 67 10000 9.26 260 12:32 11.02.2021
6553 Clear 16 1013 62 10000 2.24 36 11:47 11.02.2021
6554 Clouds 14 1016 72 10000 7.2 270 11:27 11.02.2021
6555 Clear 15 1013 70 10000 0.45 252 10:45 11.02.2021
6556 Clear 15 1012 68 10000 0.89 179 10:26 11.02.2021
6557 Clear 14 1012 70 10000 0.89 340 09:56 11.02.2021
6558 Clouds 12 1014 67 10000 6.69 290 09:26 11.02.2021
6559 Clear 13 1011 76 10000 5.78 271 08:55 11.02.2021
6560 Clear 13 1011 77 10000 5.78 271 08:31 11.02.2021
6561 Clear 13 1011 80 10000 0.89 219 07:39 11.02.2021
6562 Clouds 13 1010 81 10000 1.34 286 06:42 11.02.2021
6563 Clouds 13 1008 79 10000 0.89 270 05:44 11.02.2021
6564 Clouds 12 1006 91 10000 1.34 297 02:43 11.02.2021
6565 Clouds 13 1006 80 10000 1.79 320 02:19 11.02.2021
6566 Clouds 13 1006 77 10000 0.89 196 00:22 11.02.2021
6567 Clouds 12 1006 81 10000 1.34 213 23:47 10.02.2021
6568 Rain 12 1006 92 10000 9.64 233 23:18 10.02.2021
6569 Clouds 13 1008 98 10000 0.45 211 22:42 10.02.2021
6570 Rain 13 1007 98 10000 1.34 290 22:19 10.02.2021
6571 Clouds 13 1005 97 10000 0.45 323 21:39 10.02.2021
6572 Rain 14 1006 91 10000 7.23 223 21:20 10.02.2021
6573 Clouds 14 1006 91 10000 2.68 338 20:47 10.02.2021
6574 Clouds 14 1006 94 10000 1.34 234 20:24 10.02.2021
6575 Rain 15 1006 85 10000 6.08 224 19:48 10.02.2021
6576 Clouds 15 1009 63 10000 8.75 220 19:27 10.02.2021
6577 Clouds 14 1009 67 10000 7.72 210 18:47 10.02.2021
6578 Clouds 17 1009 67 10000 8.23 230 18:26 10.02.2021
6579 Clouds 17 1008 67 10000 8.23 240 17:57 10.02.2021
6580 Clouds 18 1008 67 10000 7.2 230 17:26 10.02.2021
6581 Clouds 18 1008 72 10000 7.2 240 16:57 10.02.2021
6582 Clouds 18 1008 72 10000 7.2 240 16:38 10.02.2021
6583 Clouds 18 1009 67 10000 6.69 230 16:19 10.02.2021
6584 Clouds 19 1009 59 10000 7.72 220 15:24 10.02.2021
6585 Clear 19 1009 63 10000 6.69 220 14:52 10.02.2021
6586 Clear 20 1009 59 10000 8.23 220 14:34 10.02.2021
6587 Clear 21 1010 59 10000 8.75 220 13:54 10.02.2021
6588 Clear 19 1010 49 10000 10.29 210 13:30 10.02.2021
6589 Clear 18 1009 49 10000 10.29 200 12:53 10.02.2021
6590 Clear 18 1010 49 10000 8.23 200 12:30 10.02.2021
6591 Clear 18 1010 45 10000 8.75 190 11:57 10.02.2021
6592 Clear 20 1010 52 10000 6.69 190 11:39 10.02.2021
6593 Clear 17 1010 52 10000 6.69 190 11:20 10.02.2021
6594 Clear 17 1010 45 10000 8.23 180 10:24 10.02.2021
6595 Clear 16 1011 52 10000 7.72 190 09:56 10.02.2021
6596 Clear 18 1011 52 10000 7.72 190 09:56 10.02.2021
6597 Clouds 18 1008 56 10000 6.19 200 09:32 10.02.2021
6598 Clouds 17 1008 56 10000 6.58 191 08:56 10.02.2021
6599 Clouds 17 1008 55 10000 6.58 191 08:33 10.02.2021
6600 Clear 17 1010 48 10000 8.75 180 07:37 10.02.2021
6601 Clear 18 1010 39 10000 11.32 170 06:21 10.02.2021
6602 Clear 15 1014 63 10000 8.75 200 01:37 10.02.2021
6603 Clouds 15 1020 63 10000 4.92 234 00:22 10.02.2021
6604 Clouds 16 1021 56 10000 4.92 197 23:33 09.02.2021
6605 Clear 15 1014 58 10000 5.66 200 22:49 09.02.2021
6606 Clear 15 1014 58 10000 5.66 200 22:24 09.02.2021
6607 Clouds 12 1014 72 10000 6.69 190 21:52 09.02.2021
6608 Clouds 13 1014 72 10000 6.69 190 21:25 09.02.2021
6609 Clouds 12 1013 72 10000 6.69 180 20:45 09.02.2021
6610 Clouds 12 1013 72 10000 6.69 180 20:25 09.02.2021
6611 Clouds 15 1014 72 10000 7.2 210 19:53 09.02.2021
6612 Clouds 15 1014 72 10000 7.2 210 19:30 09.02.2021
6613 Clouds 15 1013 72 10000 7.2 200 18:56 09.02.2021
6614 Clouds 15 1013 72 10000 7.2 200 18:35 09.02.2021
6615 Clouds 12 1013 72 10000 8.75 230 17:56 09.02.2021
6616 Clouds 12 1013 72 10000 8.75 230 17:36 09.02.2021
6617 Clouds 14 1013 72 10000 8.75 230 17:18 09.02.2021
6618 Clouds 14 1012 72 10000 10.29 240 16:38 09.02.2021
6619 Clear 16 1009 66 10000 1.79 30 16:18 09.02.2021
6620 Clouds 17 1012 72 10000 9.26 230 15:41 09.02.2021
6621 Clouds 17 1012 72 10000 9.26 230 15:23 09.02.2021
6622 Clouds 17 1012 72 10000 10.29 250 14:48 09.02.2021
6623 Clouds 17 1012 72 10000 10.29 250 14:26 09.02.2021
6624 Clouds 17 1012 72 10000 10.29 250 14:26 09.02.2021
6625 Clouds 16 1012 67 10000 10.8 250 13:43 09.02.2021
6626 Clouds 16 1012 67 10000 8.23 210 13:21 09.02.2021
6627 Clouds 15 1009 70 10000 1.34 188 12:48 09.02.2021
6628 Clouds 15 1009 71 10000 1.79 249 12:30 09.02.2021
6629 Clouds 13 1009 77 10000 0.45 335 11:45 09.02.2021
6630 Rain 12 1012 87 7000 12.86 280 11:23 09.02.2021
6631 Clouds 14 1011 77 10000 10.8 230 10:58 09.02.2021
6632 Clouds 14 1008 83 10000 0.89 267 10:38 09.02.2021